<?xml version='1.0' encoding='UTF-8'?><gpx version="1.1" creator="JPX - https://github.com/jenetics/jpx" xmlns="http://www.topografix.com/GPX/1/1"><trk><trkseg><trkpt lat="44.79287976951265" lon="10.879140836594063"><ele>24.0</ele><time>2026-04-26T13:39:54Z</time></trkpt><trkpt lat="44.79289173100054" lon="10.87923314586801"><ele>24.0</ele><time>2026-04-26T13:41:31.999Z</time></trkpt><trkpt lat="44.79282776754832" lon="10.879335031184992"><ele>24.0</ele><time>2026-04-26T13:41:33.999Z</time></trkpt><trkpt lat="44.792817269392444" lon="10.879446218361116"><ele>24.0</ele><time>2026-04-26T13:41:40.999Z</time></trkpt><trkpt lat="44.792892239370616" lon="10.87954257761158"><ele>24.0</ele><time>2026-04-26T13:41:42.999Z</time></trkpt><trkpt lat="44.792970746697925" lon="10.87958102167507"><ele>24.0</ele><time>2026-04-26T13:41:43.999Z</time></trkpt><trkpt lat="44.79306414502715" lon="10.879619217366043"><ele>24.142857142857142</ele><time>2026-04-26T13:41:44.999Z</time></trkpt><trkpt lat="44.79312691629024" lon="10.879656204867281"><ele>24.285714285714285</ele><time>2026-04-26T13:41:45.999Z</time></trkpt><trkpt lat="44.79319041339391" lon="10.879696066114233"><ele>24.42857142857143</ele><time>2026-04-26T13:41:46.999Z</time></trkpt><trkpt lat="44.793253790853626" lon="10.879734939650163"><ele>24.57142857142857</ele><time>2026-04-26T13:41:47.999Z</time></trkpt><trkpt lat="44.79331379777542" lon="10.879781113805262"><ele>24.714285714285715</ele><time>2026-04-26T13:41:48.999Z</time></trkpt><trkpt lat="44.79337301164031" lon="10.879818746032234"><ele>24.857142857142858</ele><time>2026-04-26T13:41:49.999Z</time></trkpt><trkpt lat="44.79343532451873" lon="10.879859030445834"><ele>25.0</ele><time>2026-04-26T13:41:50.999Z</time></trkpt><trkpt lat="44.79350062279039" lon="10.87989594218192"><ele>25.2</ele><time>2026-04-26T13:41:52Z</time></trkpt><trkpt lat="44.793576999799924" lon="10.879935261194264"><ele>25.4</ele><time>2026-04-26T13:41:53Z</time></trkpt><trkpt lat="44.79366056123194" lon="10.879978591131314"><ele>25.6</ele><time>2026-04-26T13:41:54Z</time></trkpt><trkpt lat="44.79373964842996" lon="10.880036281005696"><ele>25.8</ele><time>2026-04-26T13:41:55Z</time></trkpt><trkpt lat="44.79382743508881" lon="10.88008657384265"><ele>26.0</ele><time>2026-04-26T13:41:56Z</time></trkpt><trkpt lat="44.793920304834415" lon="10.880138893976683"><ele>26.0</ele><time>2026-04-26T13:41:57Z</time></trkpt><trkpt lat="44.79402005755802" lon="10.880200888712613"><ele>26.0</ele><time>2026-04-26T13:41:58Z</time></trkpt><trkpt lat="44.794129736714154" lon="10.880269562480414"><ele>26.0</ele><time>2026-04-26T13:41:59Z</time></trkpt><trkpt lat="44.79423994739489" lon="10.880340808992337"><ele>26.0</ele><time>2026-04-26T13:42:00Z</time></trkpt><trkpt lat="44.79435151944509" lon="10.880412713563123"><ele>26.0</ele><time>2026-04-26T13:42:01Z</time></trkpt><trkpt lat="44.794463791146576" lon="10.880480266562213"><ele>26.0</ele><time>2026-04-26T13:42:02Z</time></trkpt><trkpt lat="44.79457407615278" lon="10.880550766327186"><ele>26.0</ele><time>2026-04-26T13:42:03Z</time></trkpt><trkpt lat="44.79468728330626" lon="10.880621105850047"><ele>26.0</ele><time>2026-04-26T13:42:04Z</time></trkpt><trkpt lat="44.794802081425644" lon="10.880688708520037"><ele>26.0</ele><time>2026-04-26T13:42:05Z</time></trkpt><trkpt lat="44.79491740845653" lon="10.880759562985842"><ele>26.0</ele><time>2026-04-26T13:42:06Z</time></trkpt><trkpt lat="44.79503308512958" lon="10.880828753785643"><ele>26.0</ele><time>2026-04-26T13:42:07Z</time></trkpt><trkpt lat="44.79513500813305" lon="10.880892350391878"><ele>26.0</ele><time>2026-04-26T13:42:08Z</time></trkpt><trkpt lat="44.79521908196031" lon="10.880943692432487"><ele>25.8</ele><time>2026-04-26T13:42:09Z</time></trkpt><trkpt lat="44.79529791339043" lon="10.880992997633044"><ele>25.6</ele><time>2026-04-26T13:42:10Z</time></trkpt><trkpt lat="44.79539011242083" lon="10.881044981108083"><ele>25.4</ele><time>2026-04-26T13:42:11Z</time></trkpt><trkpt lat="44.7954895422465" lon="10.881103098797839"><ele>25.2</ele><time>2026-04-26T13:42:12Z</time></trkpt><trkpt lat="44.79559505459349" lon="10.881169397807682"><ele>25.0</ele><time>2026-04-26T13:42:13Z</time></trkpt><trkpt lat="44.79570538959682" lon="10.88123409235687"><ele>25.0</ele><time>2026-04-26T13:42:14Z</time></trkpt><trkpt lat="44.79581561328947" lon="10.88130060209765"><ele>25.0</ele><time>2026-04-26T13:42:15Z</time></trkpt><trkpt lat="44.795924902344446" lon="10.881369130214605"><ele>25.0</ele><time>2026-04-26T13:42:16Z</time></trkpt><trkpt lat="44.7960363145142" lon="10.881435123950572"><ele>25.0</ele><time>2026-04-26T13:42:17Z</time></trkpt><trkpt lat="44.79614775900363" lon="10.881501248673015"><ele>24.75</ele><time>2026-04-26T13:42:18Z</time></trkpt><trkpt lat="44.79626150728249" lon="10.881567885470018"><ele>24.5</ele><time>2026-04-26T13:42:19Z</time></trkpt><trkpt lat="44.79637165396545" lon="10.881635219370473"><ele>24.25</ele><time>2026-04-26T13:42:20Z</time></trkpt><trkpt lat="44.79647745087998" lon="10.881698360884586"><ele>24.0</ele><time>2026-04-26T13:42:21Z</time></trkpt><trkpt lat="44.7965778487618" lon="10.881757643308266"><ele>24.0</ele><time>2026-04-26T13:42:22Z</time></trkpt><trkpt lat="44.796670573505544" lon="10.881814411890145"><ele>24.0</ele><time>2026-04-26T13:42:23Z</time></trkpt><trkpt lat="44.79675810738135" lon="10.881875632304814"><ele>24.0</ele><time>2026-04-26T13:42:24Z</time></trkpt><trkpt lat="44.796842887711136" lon="10.881920025560621"><ele>24.0</ele><time>2026-04-26T13:42:25Z</time></trkpt><trkpt lat="44.796940483035286" lon="10.881970788641418"><ele>24.0</ele><time>2026-04-26T13:42:26Z</time></trkpt><trkpt lat="44.79704275771603" lon="10.882034607534367"><ele>24.0</ele><time>2026-04-26T13:42:27Z</time></trkpt><trkpt lat="44.79714403470667" lon="10.882094019490163"><ele>24.0</ele><time>2026-04-26T13:42:28Z</time></trkpt><trkpt lat="44.79724348330448" lon="10.882154714075478"><ele>24.0</ele><time>2026-04-26T13:42:29Z</time></trkpt><trkpt lat="44.79734661983697" lon="10.88221449504215"><ele>24.0</ele><time>2026-04-26T13:42:30Z</time></trkpt><trkpt lat="44.79744877574816" lon="10.882276812183406"><ele>24.0</ele><time>2026-04-26T13:42:31Z</time></trkpt><trkpt lat="44.797552007330076" lon="10.882340527896083"><ele>24.0</ele><time>2026-04-26T13:42:32Z</time></trkpt><trkpt lat="44.797652942152546" lon="10.882402020310726"><ele>24.0</ele><time>2026-04-26T13:42:33Z</time></trkpt><trkpt lat="44.797751958172896" lon="10.882465216255458"><ele>24.0</ele><time>2026-04-26T13:42:34Z</time></trkpt><trkpt lat="44.797848502522406" lon="10.882528036121961"><ele>24.0</ele><time>2026-04-26T13:42:35Z</time></trkpt><trkpt lat="44.797939184236014" lon="10.882575584708164"><ele>24.0</ele><time>2026-04-26T13:42:36Z</time></trkpt><trkpt lat="44.79801475350778" lon="10.882621881842857"><ele>24.0</ele><time>2026-04-26T13:42:37Z</time></trkpt><trkpt lat="44.79808412151924" lon="10.882666672726257"><ele>24.0</ele><time>2026-04-26T13:42:38Z</time></trkpt><trkpt lat="44.798149887456404" lon="10.88270879815447"><ele>24.0</ele><time>2026-04-26T13:42:39Z</time></trkpt><trkpt lat="44.79821576443545" lon="10.88274994116629"><ele>24.0</ele><time>2026-04-26T13:42:40Z</time></trkpt><trkpt lat="44.79829083505488" lon="10.882787168779867"><ele>24.0</ele><time>2026-04-26T13:42:41Z</time></trkpt><trkpt lat="44.79836359870357" lon="10.882829083555839"><ele>24.0</ele><time>2026-04-26T13:42:42Z</time></trkpt><trkpt lat="44.79844194424137" lon="10.882877788363349"><ele>23.799999999999997</ele><time>2026-04-26T13:42:43Z</time></trkpt><trkpt lat="44.798525236351914" lon="10.882931850677792"><ele>23.599999999999998</ele><time>2026-04-26T13:42:44Z</time></trkpt><trkpt lat="44.79861682791564" lon="10.882988672600654"><ele>23.4</ele><time>2026-04-26T13:42:45Z</time></trkpt><trkpt lat="44.79871234122703" lon="10.88304708540346"><ele>23.2</ele><time>2026-04-26T13:42:46Z</time></trkpt><trkpt lat="44.798815387279475" lon="10.883107130602914"><ele>23.0</ele><time>2026-04-26T13:42:47Z</time></trkpt><trkpt lat="44.79891888377802" lon="10.883171100557242"><ele>23.0</ele><time>2026-04-26T13:42:48Z</time></trkpt><trkpt lat="44.799026248722235" lon="10.883241815880968"><ele>23.0</ele><time>2026-04-26T13:42:49Z</time></trkpt><trkpt lat="44.799132190734156" lon="10.883313958715364"><ele>23.0</ele><time>2026-04-26T13:42:50Z</time></trkpt><trkpt lat="44.79923814804121" lon="10.883391612675608"><ele>23.0</ele><time>2026-04-26T13:42:51Z</time></trkpt><trkpt lat="44.79933008738907" lon="10.883446148881665"><ele>23.5</ele><time>2026-04-26T13:42:52Z</time></trkpt><trkpt lat="44.79944144577364" lon="10.883519639556528"><ele>24.0</ele><time>2026-04-26T13:42:53Z</time></trkpt><trkpt lat="44.79955214472983" lon="10.883572381502116"><ele>24.5</ele><time>2026-04-26T13:42:54Z</time></trkpt><trkpt lat="44.79965841003269" lon="10.883615195478349"><ele>25.0</ele><time>2026-04-26T13:42:54.999Z</time></trkpt><trkpt lat="44.79976888550653" lon="10.883657165147712"><ele>25.0</ele><time>2026-04-26T13:42:55.999Z</time></trkpt><trkpt lat="44.79987515007206" lon="10.883711022693582"><ele>25.0</ele><time>2026-04-26T13:42:56.999Z</time></trkpt><trkpt lat="44.79998154937347" lon="10.883769245872442"><ele>25.0</ele><time>2026-04-26T13:42:57.999Z</time></trkpt><trkpt lat="44.80008607244114" lon="10.88383610926066"><ele>25.0</ele><time>2026-04-26T13:42:58.999Z</time></trkpt><trkpt lat="44.80019257981766" lon="10.883904520248453"><ele>24.75</ele><time>2026-04-26T13:42:59.999Z</time></trkpt><trkpt lat="44.800301820036154" lon="10.883969439061392"><ele>24.5</ele><time>2026-04-26T13:43:00.999Z</time></trkpt><trkpt lat="44.80041472666002" lon="10.884030668863355"><ele>24.25</ele><time>2026-04-26T13:43:01.999Z</time></trkpt><trkpt lat="44.80052259699789" lon="10.884089458453179"><ele>24.0</ele><time>2026-04-26T13:43:02.999Z</time></trkpt><trkpt lat="44.80063108843942" lon="10.88414740476765"><ele>24.0</ele><time>2026-04-26T13:43:03.999Z</time></trkpt><trkpt lat="44.80075221353914" lon="10.884217066801062"><ele>24.0</ele><time>2026-04-26T13:43:04.999Z</time></trkpt><trkpt lat="44.800867931964795" lon="10.884284444853135"><ele>24.0</ele><time>2026-04-26T13:43:05.999Z</time></trkpt><trkpt lat="44.800988052224845" lon="10.88435496078274"><ele>24.0</ele><time>2026-04-26T13:43:06.999Z</time></trkpt><trkpt lat="44.80110549290229" lon="10.88442097294693"><ele>24.0</ele><time>2026-04-26T13:43:07.999Z</time></trkpt><trkpt lat="44.80122194562494" lon="10.884487673770748"><ele>24.0</ele><time>2026-04-26T13:43:08.999Z</time></trkpt><trkpt lat="44.801338408021735" lon="10.884553450182384"><ele>24.0</ele><time>2026-04-26T13:43:09.999Z</time></trkpt><trkpt lat="44.80145095518369" lon="10.884621957883772"><ele>24.0</ele><time>2026-04-26T13:43:10.999Z</time></trkpt><trkpt lat="44.80180387414758" lon="10.884832334233261"><ele>24.5</ele><time>2026-04-26T13:43:13.999Z</time></trkpt><trkpt lat="44.80192381890956" lon="10.88489643432354"><ele>25.0</ele><time>2026-04-26T13:43:14.999Z</time></trkpt><trkpt lat="44.80204463148055" lon="10.884962250947629"><ele>25.5</ele><time>2026-04-26T13:43:15.999Z</time></trkpt><trkpt lat="44.80216686268318" lon="10.885025743441632"><ele>26.0</ele><time>2026-04-26T13:43:16.999Z</time></trkpt><trkpt lat="44.80228824449307" lon="10.885093638583255"><ele>26.0</ele><time>2026-04-26T13:43:17.999Z</time></trkpt><trkpt lat="44.802409491179624" lon="10.88515635221893"><ele>26.0</ele><time>2026-04-26T13:43:18.999Z</time></trkpt><trkpt lat="44.80253082468813" lon="10.885223184076034"><ele>26.0</ele><time>2026-04-26T13:43:19.999Z</time></trkpt><trkpt lat="44.802647796883" lon="10.885294830433962"><ele>26.0</ele><time>2026-04-26T13:43:20.999Z</time></trkpt><trkpt lat="44.80276807257163" lon="10.885364347149642"><ele>25.5</ele><time>2026-04-26T13:43:21.999Z</time></trkpt><trkpt lat="44.80288647809921" lon="10.885432762695972"><ele>25.0</ele><time>2026-04-26T13:43:22.999Z</time></trkpt><trkpt lat="44.80300775900765" lon="10.8855020624131"><ele>24.5</ele><time>2026-04-26T13:43:23.999Z</time></trkpt><trkpt lat="44.803125770740685" lon="10.885570551410172"><ele>24.0</ele><time>2026-04-26T13:43:24.999Z</time></trkpt><trkpt lat="44.803243964755026" lon="10.885638187409326"><ele>24.0</ele><time>2026-04-26T13:43:25.999Z</time></trkpt><trkpt lat="44.80336547741275" lon="10.885705032345339"><ele>24.0</ele><time>2026-04-26T13:43:26.999Z</time></trkpt><trkpt lat="44.80348634224878" lon="10.885772934824525"><ele>24.0</ele><time>2026-04-26T13:43:27.999Z</time></trkpt><trkpt lat="44.80361926338055" lon="10.885841614393286"><ele>24.0</ele><time>2026-04-26T13:43:28.999Z</time></trkpt><trkpt lat="44.80375042033528" lon="10.885918983891063"><ele>23.666666666666668</ele><time>2026-04-26T13:43:29.999Z</time></trkpt><trkpt lat="44.803889280281915" lon="10.885999125574351"><ele>23.333333333333336</ele><time>2026-04-26T13:43:30.999Z</time></trkpt><trkpt lat="44.80402977675015" lon="10.886079143782231"><ele>23.0</ele><time>2026-04-26T13:43:31.999Z</time></trkpt><trkpt lat="44.80417944636944" lon="10.886165716151659"><ele>22.666666666666668</ele><time>2026-04-26T13:43:32.999Z</time></trkpt><trkpt lat="44.80433387390388" lon="10.88625623993571"><ele>22.333333333333332</ele><time>2026-04-26T13:43:33.999Z</time></trkpt><trkpt lat="44.80448586149357" lon="10.886345832761908"><ele>22.0</ele><time>2026-04-26T13:43:34.999Z</time></trkpt><trkpt lat="44.80463694441384" lon="10.88643402444841"><ele>22.0</ele><time>2026-04-26T13:43:35.999Z</time></trkpt><trkpt lat="44.80479885724522" lon="10.886523481863742"><ele>22.0</ele><time>2026-04-26T13:43:36.999Z</time></trkpt><trkpt lat="44.80494001357305" lon="10.886608914127583"><ele>22.0</ele><time>2026-04-26T13:43:37.999Z</time></trkpt><trkpt lat="44.8050875364356" lon="10.886687429805859"><ele>22.5</ele><time>2026-04-26T13:43:38.999Z</time></trkpt><trkpt lat="44.80522788657479" lon="10.886764977055622"><ele>23.0</ele><time>2026-04-26T13:43:39.999Z</time></trkpt><trkpt lat="44.805365695020555" lon="10.886846102951145"><ele>23.5</ele><time>2026-04-26T13:43:40.999Z</time></trkpt><trkpt lat="44.805497918269474" lon="10.886927544202946"><ele>24.0</ele><time>2026-04-26T13:43:41.999Z</time></trkpt><trkpt lat="44.80563617794562" lon="10.887009815580477"><ele>24.0</ele><time>2026-04-26T13:43:42.999Z</time></trkpt><trkpt lat="44.80576813192941" lon="10.887094691327398"><ele>24.0</ele><time>2026-04-26T13:43:43.999Z</time></trkpt><trkpt lat="44.80590357803006" lon="10.887174025857638"><ele>24.0</ele><time>2026-04-26T13:43:44.999Z</time></trkpt><trkpt lat="44.80603302108852" lon="10.887250416105946"><ele>24.0</ele><time>2026-04-26T13:43:45.999Z</time></trkpt><trkpt lat="44.80615760357575" lon="10.887323430151492"><ele>23.75</ele><time>2026-04-26T13:43:46.999Z</time></trkpt><trkpt lat="44.806270319464275" lon="10.887382476838095"><ele>23.5</ele><time>2026-04-26T13:43:47.999Z</time></trkpt><trkpt lat="44.806368368231695" lon="10.887460499258921"><ele>23.25</ele><time>2026-04-26T13:43:48.999Z</time></trkpt><trkpt lat="44.806473928612796" lon="10.8875257101865"><ele>23.0</ele><time>2026-04-26T13:43:49.999Z</time></trkpt><trkpt lat="44.80657627988969" lon="10.887588743598167"><ele>23.0</ele><time>2026-04-26T13:43:50.999Z</time></trkpt><trkpt lat="44.80666997761478" lon="10.887646448998924"><ele>23.0</ele><time>2026-04-26T13:43:51.999Z</time></trkpt><trkpt lat="44.80680150989139" lon="10.8877037466583"><ele>23.0</ele><time>2026-04-26T13:43:53.999Z</time></trkpt><trkpt lat="44.80689101425776" lon="10.887765634783126"><ele>23.0</ele><time>2026-04-26T13:43:54.999Z</time></trkpt><trkpt lat="44.80699359472536" lon="10.887825796065833"><ele>23.25</ele><time>2026-04-26T13:43:55.999Z</time></trkpt><trkpt lat="44.80710482353322" lon="10.887896848468472"><ele>23.5</ele><time>2026-04-26T13:43:56.999Z</time></trkpt><trkpt lat="44.80720994005441" lon="10.887959002117702"><ele>23.75</ele><time>2026-04-26T13:43:57.999Z</time></trkpt><trkpt lat="44.80732220347566" lon="10.888031924833427"><ele>24.0</ele><time>2026-04-26T13:43:58.999Z</time></trkpt><trkpt lat="44.8074386585566" lon="10.888123255133806"><ele>24.0</ele><time>2026-04-26T13:43:59.999Z</time></trkpt><trkpt lat="44.807591533566004" lon="10.888203944724614"><ele>24.0</ele><time>2026-04-26T13:44:00.999Z</time></trkpt><trkpt lat="44.807728663404674" lon="10.888290888565507"><ele>24.0</ele><time>2026-04-26T13:44:01.999Z</time></trkpt><trkpt lat="44.80786464280547" lon="10.888376317467358"><ele>23.5</ele><time>2026-04-26T13:44:02.999Z</time></trkpt><trkpt lat="44.8079979909963" lon="10.888467233315158"><ele>23.0</ele><time>2026-04-26T13:44:03.999Z</time></trkpt><trkpt lat="44.808126369718636" lon="10.88855610553809"><ele>22.5</ele><time>2026-04-26T13:44:04.999Z</time></trkpt><trkpt lat="44.80825168057074" lon="10.888645856679373"><ele>22.0</ele><time>2026-04-26T13:44:05.999Z</time></trkpt><trkpt lat="44.80837915241268" lon="10.888736194678566"><ele>22.0</ele><time>2026-04-26T13:44:06.999Z</time></trkpt><trkpt lat="44.80851344352273" lon="10.888822424247499"><ele>22.0</ele><time>2026-04-26T13:44:07.999Z</time></trkpt><trkpt lat="44.808645324107985" lon="10.888911806916958"><ele>22.0</ele><time>2026-04-26T13:44:08.999Z</time></trkpt><trkpt lat="44.80877692519739" lon="10.88900643808058"><ele>22.0</ele><time>2026-04-26T13:44:09.999Z</time></trkpt><trkpt lat="44.808908554335446" lon="10.889103743235609"><ele>22.0</ele><time>2026-04-26T13:44:10.999Z</time></trkpt><trkpt lat="44.8090412013219" lon="10.889199230530322"><ele>22.0</ele><time>2026-04-26T13:44:11.999Z</time></trkpt><trkpt lat="44.80917908166338" lon="10.88929336797226"><ele>22.0</ele><time>2026-04-26T13:44:12.999Z</time></trkpt><trkpt lat="44.809315562174305" lon="10.889389119609904"><ele>22.333333333333332</ele><time>2026-04-26T13:44:13.999Z</time></trkpt><trkpt lat="44.80945367907589" lon="10.889486379384882"><ele>22.666666666666668</ele><time>2026-04-26T13:44:15Z</time></trkpt><trkpt lat="44.809594016035234" lon="10.889584313295202"><ele>23.0</ele><time>2026-04-26T13:44:16Z</time></trkpt><trkpt lat="44.8097359262211" lon="10.889679526424151"><ele>23.0</ele><time>2026-04-26T13:44:17Z</time></trkpt><trkpt lat="44.80987197941156" lon="10.889778047689605"><ele>23.0</ele><time>2026-04-26T13:44:18Z</time></trkpt><trkpt lat="44.81001134878942" lon="10.889887474669205"><ele>23.0</ele><time>2026-04-26T13:44:19Z</time></trkpt><trkpt lat="44.81014689538657" lon="10.890001401544016"><ele>21.666666666666668</ele><time>2026-04-26T13:44:20Z</time></trkpt><trkpt lat="44.81028464536378" lon="10.890116567756642"><ele>20.333333333333332</ele><time>2026-04-26T13:44:21Z</time></trkpt><trkpt lat="44.81042053900684" lon="10.890234048874486"><ele>19.0</ele><time>2026-04-26T13:44:22Z</time></trkpt><trkpt lat="44.8105579029719" lon="10.890351884329709"><ele>19.0</ele><time>2026-04-26T13:44:23Z</time></trkpt><trkpt lat="44.810689610045" lon="10.890473071273284"><ele>19.0</ele><time>2026-04-26T13:44:24Z</time></trkpt><trkpt lat="44.810825621818786" lon="10.890591092389927"><ele>19.0</ele><time>2026-04-26T13:44:25Z</time></trkpt><trkpt lat="44.81096029386247" lon="10.89070751633138"><ele>19.333333333333332</ele><time>2026-04-26T13:44:26Z</time></trkpt><trkpt lat="44.81110018469369" lon="10.890822192886707"><ele>19.666666666666668</ele><time>2026-04-26T13:44:27Z</time></trkpt><trkpt lat="44.811236480124045" lon="10.890935802105089"><ele>20.0</ele><time>2026-04-26T13:44:28Z</time></trkpt><trkpt lat="44.81136757806066" lon="10.891048227117087"><ele>20.75</ele><time>2026-04-26T13:44:29Z</time></trkpt><trkpt lat="44.81149212349079" lon="10.89115611857211"><ele>21.5</ele><time>2026-04-26T13:44:30Z</time></trkpt><trkpt lat="44.811618824362284" lon="10.8912666319635"><ele>22.25</ele><time>2026-04-26T13:44:31Z</time></trkpt><trkpt lat="44.81174911600269" lon="10.891375495541897"><ele>23.0</ele><time>2026-04-26T13:44:32Z</time></trkpt><trkpt lat="44.81187916366866" lon="10.891476919662608"><ele>23.0</ele><time>2026-04-26T13:44:33Z</time></trkpt><trkpt lat="44.81200259511038" lon="10.89157855634839"><ele>23.0</ele><time>2026-04-26T13:44:34Z</time></trkpt><trkpt lat="44.81212360830913" lon="10.89168194991249"><ele>23.0</ele><time>2026-04-26T13:44:35Z</time></trkpt><trkpt lat="44.81224039615319" lon="10.891782917847044"><ele>23.0</ele><time>2026-04-26T13:44:36Z</time></trkpt><trkpt lat="44.81235925751134" lon="10.891881292435306"><ele>22.75</ele><time>2026-04-26T13:44:37Z</time></trkpt><trkpt lat="44.81247944092774" lon="10.891976407284195"><ele>22.5</ele><time>2026-04-26T13:44:38Z</time></trkpt><trkpt lat="44.8125976511599" lon="10.892069454033875"><ele>22.25</ele><time>2026-04-26T13:44:39Z</time></trkpt><trkpt lat="44.812714847210046" lon="10.89216891305886"><ele>22.0</ele><time>2026-04-26T13:44:40Z</time></trkpt><trkpt lat="44.812830420402875" lon="10.892267784597939"><ele>22.0</ele><time>2026-04-26T13:44:41Z</time></trkpt><trkpt lat="44.81294910296507" lon="10.89236280650388"><ele>22.0</ele><time>2026-04-26T13:44:42Z</time></trkpt><trkpt lat="44.813066482962086" lon="10.892457118262682"><ele>22.0</ele><time>2026-04-26T13:44:43Z</time></trkpt><trkpt lat="44.81318372990923" lon="10.89255334186043"><ele>22.0</ele><time>2026-04-26T13:44:44Z</time></trkpt><trkpt lat="44.81330077405091" lon="10.892649234118771"><ele>22.0</ele><time>2026-04-26T13:44:45Z</time></trkpt><trkpt lat="44.813418589816855" lon="10.892746838729073"><ele>22.0</ele><time>2026-04-26T13:44:46Z</time></trkpt><trkpt lat="44.8135392020759" lon="10.892841967444708"><ele>22.0</ele><time>2026-04-26T13:44:47Z</time></trkpt><trkpt lat="44.813660277792536" lon="10.892936090199191"><ele>22.0</ele><time>2026-04-26T13:44:48Z</time></trkpt><trkpt lat="44.813775358366556" lon="10.89302592041843"><ele>22.0</ele><time>2026-04-26T13:44:49Z</time></trkpt><trkpt lat="44.81388813068584" lon="10.89312265905897"><ele>22.0</ele><time>2026-04-26T13:44:50Z</time></trkpt><trkpt lat="44.814004427105985" lon="10.893216425814721"><ele>22.0</ele><time>2026-04-26T13:44:51Z</time></trkpt><trkpt lat="44.81412147741347" lon="10.89331234271319"><ele>22.0</ele><time>2026-04-26T13:44:51.999Z</time></trkpt><trkpt lat="44.814241658259675" lon="10.893409487268848"><ele>21.75</ele><time>2026-04-26T13:44:52.999Z</time></trkpt><trkpt lat="44.81435945145073" lon="10.893511015023533"><ele>21.5</ele><time>2026-04-26T13:44:53.999Z</time></trkpt><trkpt lat="44.81446536774162" lon="10.893597471004277"><ele>21.25</ele><time>2026-04-26T13:44:54.999Z</time></trkpt><trkpt lat="44.81456571069977" lon="10.893680679545623"><ele>21.0</ele><time>2026-04-26T13:44:55.999Z</time></trkpt><trkpt lat="44.814656225686" lon="10.89375741786235"><ele>21.0</ele><time>2026-04-26T13:44:56.999Z</time></trkpt><trkpt lat="44.814740153323406" lon="10.893829438205515"><ele>21.0</ele><time>2026-04-26T13:44:57.999Z</time></trkpt><trkpt lat="44.814815553035125" lon="10.893888364794956"><ele>21.0</ele><time>2026-04-26T13:44:58.999Z</time></trkpt><trkpt lat="44.81488721075721" lon="10.893950893928166"><ele>21.0</ele><time>2026-04-26T13:44:59.999Z</time></trkpt><trkpt lat="44.814952224901276" lon="10.894003162793723"><ele>21.0</ele><time>2026-04-26T13:45:00.999Z</time></trkpt><trkpt lat="44.815006123398845" lon="10.894065147701024"><ele>21.0</ele><time>2026-04-26T13:45:01.999Z</time></trkpt><trkpt lat="44.81506270338162" lon="10.894126533007034"><ele>21.0</ele><time>2026-04-26T13:45:02.999Z</time></trkpt><trkpt lat="44.81503724946411" lon="10.894274601701044"><ele>21.0</ele><time>2026-04-26T13:45:03.999Z</time></trkpt><trkpt lat="44.81501162915425" lon="10.894405736027"><ele>21.0</ele><time>2026-04-26T13:45:04.999Z</time></trkpt><trkpt lat="44.814994518132515" lon="10.894544268641333"><ele>21.0</ele><time>2026-04-26T13:45:05.999Z</time></trkpt><trkpt lat="44.81496041813063" lon="10.894674569438614"><ele>21.0</ele><time>2026-04-26T13:45:06.999Z</time></trkpt><trkpt lat="44.81493151048413" lon="10.89480830694897"><ele>21.0</ele><time>2026-04-26T13:45:07.999Z</time></trkpt><trkpt lat="44.814907319733756" lon="10.894951425907083"><ele>21.0</ele><time>2026-04-26T13:45:08.999Z</time></trkpt><trkpt lat="44.8148841494767" lon="10.895085083150644"><ele>21.0</ele><time>2026-04-26T13:45:09.999Z</time></trkpt><trkpt lat="44.81485798490942" lon="10.895234486529828"><ele>21.0</ele><time>2026-04-26T13:45:10.999Z</time></trkpt><trkpt lat="44.814826853979476" lon="10.895399637259956"><ele>21.0</ele><time>2026-04-26T13:45:11.999Z</time></trkpt><trkpt lat="44.81479260891274" lon="10.89557066677061"><ele>21.0</ele><time>2026-04-26T13:45:12.999Z</time></trkpt><trkpt lat="44.814751129568485" lon="10.89574499352278"><ele>21.0</ele><time>2026-04-26T13:45:13.999Z</time></trkpt><trkpt lat="44.814703452644984" lon="10.895921289698034"><ele>21.0</ele><time>2026-04-26T13:45:14.999Z</time></trkpt><trkpt lat="44.814649447707524" lon="10.89609795179568"><ele>21.0</ele><time>2026-04-26T13:45:15.999Z</time></trkpt><trkpt lat="44.81459905214297" lon="10.896281208278166"><ele>21.0</ele><time>2026-04-26T13:45:16.999Z</time></trkpt><trkpt lat="44.814549200393124" lon="10.896463498247055"><ele>21.0</ele><time>2026-04-26T13:45:17.999Z</time></trkpt><trkpt lat="44.81449702113678" lon="10.896648906665314"><ele>21.0</ele><time>2026-04-26T13:45:18.999Z</time></trkpt><trkpt lat="44.81444552354589" lon="10.896834008264642"><ele>21.0</ele><time>2026-04-26T13:45:19.999Z</time></trkpt><trkpt lat="44.81439356998001" lon="10.897019499407856"><ele>20.75</ele><time>2026-04-26T13:45:20.999Z</time></trkpt><trkpt lat="44.81434053129132" lon="10.89720846560872"><ele>20.5</ele><time>2026-04-26T13:45:21.999Z</time></trkpt><trkpt lat="44.81428628708367" lon="10.897404209788846"><ele>20.25</ele><time>2026-04-26T13:45:22.999Z</time></trkpt><trkpt lat="44.81423131258803" lon="10.897600966179176"><ele>20.0</ele><time>2026-04-26T13:45:23.999Z</time></trkpt><trkpt lat="44.81417509821551" lon="10.8978058157677"><ele>20.0</ele><time>2026-04-26T13:45:24.999Z</time></trkpt><trkpt lat="44.81411900530609" lon="10.898008683078757"><ele>20.0</ele><time>2026-04-26T13:45:25.999Z</time></trkpt><trkpt lat="44.81406708652447" lon="10.898206335910913"><ele>20.0</ele><time>2026-04-26T13:45:26.999Z</time></trkpt><trkpt lat="44.8140163089627" lon="10.898401463930048"><ele>20.25</ele><time>2026-04-26T13:45:27.999Z</time></trkpt><trkpt lat="44.8139602824267" lon="10.898600332269973"><ele>20.5</ele><time>2026-04-26T13:45:28.999Z</time></trkpt><trkpt lat="44.81390216391354" lon="10.898789044504353"><ele>20.75</ele><time>2026-04-26T13:45:29.999Z</time></trkpt><trkpt lat="44.81383918336855" lon="10.898979652812718"><ele>21.0</ele><time>2026-04-26T13:45:30.999Z</time></trkpt><trkpt lat="44.813773782552815" lon="10.899167479555778"><ele>20.75</ele><time>2026-04-26T13:45:31.999Z</time></trkpt><trkpt lat="44.81370620596287" lon="10.899353662360252"><ele>20.5</ele><time>2026-04-26T13:45:32.999Z</time></trkpt><trkpt lat="44.81363964673841" lon="10.89953077265751"><ele>20.25</ele><time>2026-04-26T13:45:33.999Z</time></trkpt><trkpt lat="44.81357517678643" lon="10.89971480872625"><ele>20.0</ele><time>2026-04-26T13:45:34.999Z</time></trkpt><trkpt lat="44.81351538256546" lon="10.899898496003233"><ele>20.0</ele><time>2026-04-26T13:45:35.999Z</time></trkpt><trkpt lat="44.813455266488525" lon="10.900080536026111"><ele>20.0</ele><time>2026-04-26T13:45:36.999Z</time></trkpt><trkpt lat="44.81340026110946" lon="10.900273304976551"><ele>20.0</ele><time>2026-04-26T13:45:37.999Z</time></trkpt><trkpt lat="44.81334397625825" lon="10.900461477213854"><ele>20.0</ele><time>2026-04-26T13:45:38.999Z</time></trkpt><trkpt lat="44.81328813331202" lon="10.900655147671317"><ele>20.0</ele><time>2026-04-26T13:45:39.999Z</time></trkpt><trkpt lat="44.813224874971816" lon="10.900834039924591"><ele>20.0</ele><time>2026-04-26T13:45:40.999Z</time></trkpt><trkpt lat="44.813154509358284" lon="10.900997831269256"><ele>20.0</ele><time>2026-04-26T13:45:41.999Z</time></trkpt><trkpt lat="44.81307362390905" lon="10.901135900310852"><ele>20.0</ele><time>2026-04-26T13:45:42.999Z</time></trkpt><trkpt lat="44.81297925413407" lon="10.901247030957684"><ele>20.0</ele><time>2026-04-26T13:45:43.999Z</time></trkpt><trkpt lat="44.812880412129346" lon="10.901339749757009"><ele>20.0</ele><time>2026-04-26T13:45:44.999Z</time></trkpt><trkpt lat="44.81278916323604" lon="10.901435970898099"><ele>20.0</ele><time>2026-04-26T13:45:45.999Z</time></trkpt><trkpt lat="44.81271744687399" lon="10.901538994724229"><ele>20.0</ele><time>2026-04-26T13:45:46.999Z</time></trkpt><trkpt lat="44.812688521835085" lon="10.901682402178224"><ele>20.0</ele><time>2026-04-26T13:45:47.999Z</time></trkpt><trkpt lat="44.81264035477875" lon="10.90184223864361"><ele>20.75</ele><time>2026-04-26T13:45:48.999Z</time></trkpt><trkpt lat="44.81261090378261" lon="10.902018356651183"><ele>21.5</ele><time>2026-04-26T13:45:49.999Z</time></trkpt><trkpt lat="44.81258121292205" lon="10.902199357422422"><ele>22.25</ele><time>2026-04-26T13:45:50.999Z</time></trkpt><trkpt lat="44.81255651264503" lon="10.902362873301204"><ele>23.0</ele><time>2026-04-26T13:45:51.999Z</time></trkpt><trkpt lat="44.81253345567926" lon="10.902512248212417"><ele>22.599999999999998</ele><time>2026-04-26T13:45:52.999Z</time></trkpt><trkpt lat="44.81251641821965" lon="10.902647598210736"><ele>22.2</ele><time>2026-04-26T13:45:53.999Z</time></trkpt><trkpt lat="44.81251557787241" lon="10.902768527879303"><ele>21.8</ele><time>2026-04-26T13:45:54.999Z</time></trkpt><trkpt lat="44.812529364127435" lon="10.90286783008901"><ele>21.4</ele><time>2026-04-26T13:45:55.999Z</time></trkpt><trkpt lat="44.81256178335268" lon="10.902985104828792"><ele>21.0</ele><time>2026-04-26T13:45:57.999Z</time></trkpt><trkpt lat="44.81244739097534" lon="10.903090221527039"><ele>21.0</ele><time>2026-04-26T13:46:14Z</time></trkpt><trkpt lat="44.81235829951026" lon="10.903187901036635"><ele>21.0</ele><time>2026-04-26T13:46:16Z</time></trkpt><trkpt lat="44.81230388184707" lon="10.903240589876846"><ele>21.0</ele><time>2026-04-26T13:46:16.999Z</time></trkpt><trkpt lat="44.81223529189952" lon="10.903311102754914"><ele>21.0</ele><time>2026-04-26T13:46:17.999Z</time></trkpt><trkpt lat="44.81214734028495" lon="10.903373094612519"><ele>21.0</ele><time>2026-04-26T13:46:18.999Z</time></trkpt><trkpt lat="44.81206758098692" lon="10.903452171321772"><ele>21.0</ele><time>2026-04-26T13:46:19.999Z</time></trkpt><trkpt lat="44.811981165206085" lon="10.903537683647974"><ele>21.0</ele><time>2026-04-26T13:46:20.999Z</time></trkpt><trkpt lat="44.81188911806834" lon="10.903627338791981"><ele>21.0</ele><time>2026-04-26T13:46:21.999Z</time></trkpt><trkpt lat="44.81180423964155" lon="10.903734479400226"><ele>21.0</ele><time>2026-04-26T13:46:22.999Z</time></trkpt><trkpt lat="44.81170761812613" lon="10.903822789710052"><ele>21.0</ele><time>2026-04-26T13:46:23.999Z</time></trkpt><trkpt lat="44.81159934458787" lon="10.903921365437785"><ele>21.0</ele><time>2026-04-26T13:46:24.999Z</time></trkpt><trkpt lat="44.81149116692178" lon="10.904026673225315"><ele>21.0</ele><time>2026-04-26T13:46:25.999Z</time></trkpt><trkpt lat="44.81138024941324" lon="10.904136403742548"><ele>21.0</ele><time>2026-04-26T13:46:26.999Z</time></trkpt><trkpt lat="44.81126920645947" lon="10.904244961931305"><ele>21.0</ele><time>2026-04-26T13:46:27.999Z</time></trkpt><trkpt lat="44.81115689709134" lon="10.904355278782807"><ele>21.25</ele><time>2026-04-26T13:46:28.999Z</time></trkpt><trkpt lat="44.811044776579884" lon="10.904463320022364"><ele>21.5</ele><time>2026-04-26T13:46:29.999Z</time></trkpt><trkpt lat="44.81093360021405" lon="10.904569652344634"><ele>21.75</ele><time>2026-04-26T13:46:30.999Z</time></trkpt><trkpt lat="44.8108241562917" lon="10.904676647254869"><ele>22.0</ele><time>2026-04-26T13:46:31.999Z</time></trkpt><trkpt lat="44.81072014718689" lon="10.904780419595518"><ele>22.25</ele><time>2026-04-26T13:46:32.999Z</time></trkpt><trkpt lat="44.810610268424306" lon="10.9048667834389"><ele>22.5</ele><time>2026-04-26T13:46:33.999Z</time></trkpt><trkpt lat="44.81052610255127" lon="10.904992918521204"><ele>22.75</ele><time>2026-04-26T13:46:34.999Z</time></trkpt><trkpt lat="44.810440779432334" lon="10.90511780019015"><ele>23.0</ele><time>2026-04-26T13:46:35.999Z</time></trkpt><trkpt lat="44.810365000171565" lon="10.905264028355566"><ele>23.0</ele><time>2026-04-26T13:46:36.999Z</time></trkpt><trkpt lat="44.810304360483656" lon="10.90542247725601"><ele>23.0</ele><time>2026-04-26T13:46:37.999Z</time></trkpt><trkpt lat="44.81024848743039" lon="10.905589046218623"><ele>23.0</ele><time>2026-04-26T13:46:38.999Z</time></trkpt><trkpt lat="44.810197796691334" lon="10.905755991661739"><ele>23.0</ele><time>2026-04-26T13:46:39.999Z</time></trkpt><trkpt lat="44.81014899019757" lon="10.905929389791691"><ele>23.0</ele><time>2026-04-26T13:46:40.999Z</time></trkpt><trkpt lat="44.81009752923902" lon="10.906099157962544"><ele>23.0</ele><time>2026-04-26T13:46:41.999Z</time></trkpt><trkpt lat="44.810051211767494" lon="10.906254294961798"><ele>23.0</ele><time>2026-04-26T13:46:42.999Z</time></trkpt><trkpt lat="44.80999983590135" lon="10.906416239478412"><ele>23.0</ele><time>2026-04-26T13:46:43.999Z</time></trkpt><trkpt lat="44.809952747993194" lon="10.906583320280381"><ele>23.0</ele><time>2026-04-26T13:46:44.999Z</time></trkpt><trkpt lat="44.809901140552086" lon="10.906754281021279"><ele>23.0</ele><time>2026-04-26T13:46:45.999Z</time></trkpt><trkpt lat="44.80984844592494" lon="10.90692834422695"><ele>23.0</ele><time>2026-04-26T13:46:46.999Z</time></trkpt><trkpt lat="44.80979670419752" lon="10.907105872171648"><ele>23.0</ele><time>2026-04-26T13:46:47.999Z</time></trkpt><trkpt lat="44.80974771726647" lon="10.90727700592121"><ele>23.0</ele><time>2026-04-26T13:46:48.999Z</time></trkpt><trkpt lat="44.80970053938136" lon="10.907440144390021"><ele>23.0</ele><time>2026-04-26T13:46:49.999Z</time></trkpt><trkpt lat="44.80966220449422" lon="10.907599949372333"><ele>23.0</ele><time>2026-04-26T13:46:50.999Z</time></trkpt><trkpt lat="44.80961639995163" lon="10.907752854384784"><ele>23.0</ele><time>2026-04-26T13:46:51.999Z</time></trkpt><trkpt lat="44.8095686352928" lon="10.907905649828786"><ele>23.0</ele><time>2026-04-26T13:46:52.999Z</time></trkpt><trkpt lat="44.80951880610563" lon="10.908062858579532"><ele>23.0</ele><time>2026-04-26T13:46:53.999Z</time></trkpt><trkpt lat="44.809471773299755" lon="10.908218074234243"><ele>23.0</ele><time>2026-04-26T13:46:54.999Z</time></trkpt><trkpt lat="44.80942890169144" lon="10.908372401352306"><ele>23.0</ele><time>2026-04-26T13:46:55.999Z</time></trkpt><trkpt lat="44.80938479492618" lon="10.908519307607483"><ele>23.0</ele><time>2026-04-26T13:46:56.999Z</time></trkpt><trkpt lat="44.80933878292766" lon="10.908666742419474"><ele>23.0</ele><time>2026-04-26T13:46:57.999Z</time></trkpt><trkpt lat="44.80929248704142" lon="10.908818131043093"><ele>23.0</ele><time>2026-04-26T13:46:58.999Z</time></trkpt><trkpt lat="44.80924853400703" lon="10.908965532134529"><ele>23.0</ele><time>2026-04-26T13:46:59.999Z</time></trkpt><trkpt lat="44.809205282510476" lon="10.909111943715883"><ele>23.0</ele><time>2026-04-26T13:47:00.999Z</time></trkpt><trkpt lat="44.80916125514079" lon="10.909253330053405"><ele>23.0</ele><time>2026-04-26T13:47:01.999Z</time></trkpt><trkpt lat="44.80912292442686" lon="10.909392787497197"><ele>23.0</ele><time>2026-04-26T13:47:02.999Z</time></trkpt><trkpt lat="44.80908446291597" lon="10.90953860423269"><ele>23.0</ele><time>2026-04-26T13:47:03.999Z</time></trkpt><trkpt lat="44.80904057555589" lon="10.9096846299137"><ele>23.0</ele><time>2026-04-26T13:47:04.999Z</time></trkpt><trkpt lat="44.80900263658954" lon="10.909832323331905"><ele>23.0</ele><time>2026-04-26T13:47:05.999Z</time></trkpt><trkpt lat="44.808957425733766" lon="10.90998355844816"><ele>23.0</ele><time>2026-04-26T13:47:06.999Z</time></trkpt><trkpt lat="44.808910391373736" lon="10.910127828545015"><ele>23.0</ele><time>2026-04-26T13:47:07.999Z</time></trkpt><trkpt lat="44.808863152594235" lon="10.910272365313514"><ele>23.0</ele><time>2026-04-26T13:47:08.999Z</time></trkpt><trkpt lat="44.80882244863186" lon="10.910426338672396"><ele>23.2</ele><time>2026-04-26T13:47:09.999Z</time></trkpt><trkpt lat="44.80878410562832" lon="10.910580588229614"><ele>23.4</ele><time>2026-04-26T13:47:10.999Z</time></trkpt><trkpt lat="44.808753742609944" lon="10.910725459440034"><ele>23.599999999999998</ele><time>2026-04-26T13:47:11.999Z</time></trkpt><trkpt lat="44.80873398600699" lon="10.910870437563482"><ele>23.799999999999997</ele><time>2026-04-26T13:47:12.999Z</time></trkpt><trkpt lat="44.80870872849509" lon="10.911013357078685"><ele>24.0</ele><time>2026-04-26T13:47:13.999Z</time></trkpt><trkpt lat="44.808682482688944" lon="10.911144353106032"><ele>24.0</ele><time>2026-04-26T13:47:14.999Z</time></trkpt><trkpt lat="44.8086634364381" lon="10.91126830017453"><ele>24.0</ele><time>2026-04-26T13:47:15.999Z</time></trkpt><trkpt lat="44.80863995911787" lon="10.911394887601341"><ele>24.0</ele><time>2026-04-26T13:47:16.999Z</time></trkpt><trkpt lat="44.808617905163516" lon="10.911509131319697"><ele>24.0</ele><time>2026-04-26T13:47:17.999Z</time></trkpt><trkpt lat="44.808599547262034" lon="10.911623308152873"><ele>24.0</ele><time>2026-04-26T13:47:18.999Z</time></trkpt><trkpt lat="44.808574947459036" lon="10.911734232971439"><ele>24.0</ele><time>2026-04-26T13:47:19.999Z</time></trkpt><trkpt lat="44.80855027393385" lon="10.911831291278121"><ele>23.833333333333332</ele><time>2026-04-26T13:47:20.999Z</time></trkpt><trkpt lat="44.80849792383558" lon="10.911971799339893"><ele>23.666666666666668</ele><time>2026-04-26T13:47:22.999Z</time></trkpt><trkpt lat="44.808478445230534" lon="10.912073053816485"><ele>23.5</ele><time>2026-04-26T13:47:25.999Z</time></trkpt><trkpt lat="44.80854869161657" lon="10.912220589977302"><ele>23.333333333333336</ele><time>2026-04-26T13:48:05.998Z</time></trkpt><trkpt lat="44.80860720213668" lon="10.91226065186686"><ele>23.166666666666668</ele><time>2026-04-26T13:48:06.998Z</time></trkpt><trkpt lat="44.808662354146975" lon="10.912304032019426"><ele>23.0</ele><time>2026-04-26T13:48:07.998Z</time></trkpt><trkpt lat="44.808720494292864" lon="10.912362190063163"><ele>22.666666666666668</ele><time>2026-04-26T13:48:08.999Z</time></trkpt><trkpt lat="44.808773890646926" lon="10.91242462928556"><ele>22.333333333333336</ele><time>2026-04-26T13:48:09.999Z</time></trkpt><trkpt lat="44.80881773220958" lon="10.912501331907277"><ele>22.0</ele><time>2026-04-26T13:48:10.999Z</time></trkpt><trkpt lat="44.80889564417775" lon="10.912593939756393"><ele>21.666666666666668</ele><time>2026-04-26T13:48:12.999Z</time></trkpt><trkpt lat="44.80894529790682" lon="10.91265295924094"><ele>21.333333333333332</ele><time>2026-04-26T13:48:15.999Z</time></trkpt><trkpt lat="44.808999476657085" lon="10.912709318608771"><ele>21.0</ele><time>2026-04-26T13:48:33.999Z</time></trkpt><trkpt lat="44.80908041463425" lon="10.912805032138825"><ele>21.0</ele><time>2026-04-26T13:48:35.999Z</time></trkpt><trkpt lat="44.80916736837407" lon="10.912910008202678"><ele>21.0</ele><time>2026-04-26T13:48:37.999Z</time></trkpt><trkpt lat="44.80921710355629" lon="10.912974069642962"><ele>21.0</ele><time>2026-04-26T13:48:38.999Z</time></trkpt><trkpt lat="44.809277490686405" lon="10.913040790500638"><ele>21.0</ele><time>2026-04-26T13:48:39.999Z</time></trkpt><trkpt lat="44.80933826908574" lon="10.913108427126492"><ele>21.0</ele><time>2026-04-26T13:48:40.999Z</time></trkpt><trkpt lat="44.809397354068125" lon="10.913183599690331"><ele>21.0</ele><time>2026-04-26T13:48:41.999Z</time></trkpt><trkpt lat="44.80947123923875" lon="10.913281352941201"><ele>21.0</ele><time>2026-04-26T13:48:42.999Z</time></trkpt><trkpt lat="44.809554188870436" lon="10.913382150466532"><ele>21.0</ele><time>2026-04-26T13:48:43.999Z</time></trkpt><trkpt lat="44.809642910410865" lon="10.913476986086751"><ele>21.0</ele><time>2026-04-26T13:48:44.999Z</time></trkpt><trkpt lat="44.80973371161711" lon="10.913569570567029"><ele>21.0</ele><time>2026-04-26T13:48:45.999Z</time></trkpt><trkpt lat="44.80981564208012" lon="10.913687090901497"><ele>21.0</ele><time>2026-04-26T13:48:46.999Z</time></trkpt><trkpt lat="44.80990440232274" lon="10.913792583351343"><ele>21.0</ele><time>2026-04-26T13:48:47.999Z</time></trkpt><trkpt lat="44.80999994127248" lon="10.913883872477015"><ele>21.0</ele><time>2026-04-26T13:48:48.999Z</time></trkpt><trkpt lat="44.810079827756866" lon="10.91398743585616"><ele>21.0</ele><time>2026-04-26T13:48:49.999Z</time></trkpt><trkpt lat="44.81016069841471" lon="10.914085017490006"><ele>21.0</ele><time>2026-04-26T13:48:50.999Z</time></trkpt><trkpt lat="44.81023911379387" lon="10.914177980617861"><ele>20.400000000000002</ele><time>2026-04-26T13:48:51.999Z</time></trkpt><trkpt lat="44.810315864132285" lon="10.914268480342514"><ele>19.8</ele><time>2026-04-26T13:48:52.999Z</time></trkpt><trkpt lat="44.810393941043465" lon="10.914360004919326"><ele>19.200000000000003</ele><time>2026-04-26T13:48:53.999Z</time></trkpt><trkpt lat="44.81045382897762" lon="10.91447668124882"><ele>18.6</ele><time>2026-04-26T13:48:54.999Z</time></trkpt><trkpt lat="44.81052975673534" lon="10.914583054551478"><ele>18.0</ele><time>2026-04-26T13:48:55.999Z</time></trkpt><trkpt lat="44.81057900543417" lon="10.91472874222503"><ele>18.0</ele><time>2026-04-26T13:48:56.999Z</time></trkpt><trkpt lat="44.8106342481119" lon="10.914875301273883"><ele>18.0</ele><time>2026-04-26T13:48:57.999Z</time></trkpt><trkpt lat="44.810694698535826" lon="10.915022449877371"><ele>18.0</ele><time>2026-04-26T13:48:58.999Z</time></trkpt><trkpt lat="44.81075259629969" lon="10.91516743549504"><ele>18.0</ele><time>2026-04-26T13:48:59.999Z</time></trkpt><trkpt lat="44.81080217865383" lon="10.915305877892727"><ele>18.25</ele><time>2026-04-26T13:49:00.999Z</time></trkpt><trkpt lat="44.81085808732446" lon="10.91543570407193"><ele>18.5</ele><time>2026-04-26T13:49:01.999Z</time></trkpt><trkpt lat="44.81093191695904" lon="10.915556106165438"><ele>18.75</ele><time>2026-04-26T13:49:02.999Z</time></trkpt><trkpt lat="44.811034970310175" lon="10.915654673860056"><ele>19.0</ele><time>2026-04-26T13:49:03.999Z</time></trkpt><trkpt lat="44.811156466820215" lon="10.91571135658618"><ele>19.25</ele><time>2026-04-26T13:49:04.999Z</time></trkpt><trkpt lat="44.81128518603748" lon="10.915732928352417"><ele>19.5</ele><time>2026-04-26T13:49:05.999Z</time></trkpt><trkpt lat="44.81141601283625" lon="10.91575824375773"><ele>19.75</ele><time>2026-04-26T13:49:06.999Z</time></trkpt><trkpt lat="44.81154564960733" lon="10.915775355031679"><ele>20.0</ele><time>2026-04-26T13:49:07.999Z</time></trkpt><trkpt lat="44.81167802424006" lon="10.915789548035427"><ele>20.0</ele><time>2026-04-26T13:49:08.999Z</time></trkpt><trkpt lat="44.811810158628084" lon="10.915805832091541"><ele>20.0</ele><time>2026-04-26T13:49:09.999Z</time></trkpt><trkpt lat="44.81194212633129" lon="10.915823837810482"><ele>20.0</ele><time>2026-04-26T13:49:10.999Z</time></trkpt><trkpt lat="44.81207494392309" lon="10.915846509658108"><ele>20.0</ele><time>2026-04-26T13:49:11.999Z</time></trkpt><trkpt lat="44.812210037209184" lon="10.9158674284359"><ele>20.25</ele><time>2026-04-26T13:49:12.999Z</time></trkpt><trkpt lat="44.8123447578367" lon="10.915886684308335"><ele>20.5</ele><time>2026-04-26T13:49:13.999Z</time></trkpt><trkpt lat="44.81247977881431" lon="10.9159086148668"><ele>20.75</ele><time>2026-04-26T13:49:14.999Z</time></trkpt><trkpt lat="44.81261582970331" lon="10.915928443854472"><ele>21.0</ele><time>2026-04-26T13:49:15.999Z</time></trkpt><trkpt lat="44.81274934872782" lon="10.915944103275558"><ele>21.25</ele><time>2026-04-26T13:49:16.999Z</time></trkpt><trkpt lat="44.81288235196858" lon="10.91595850133031"><ele>21.5</ele><time>2026-04-26T13:49:17.999Z</time></trkpt><trkpt lat="44.81301454892734" lon="10.915982833445875"><ele>21.75</ele><time>2026-04-26T13:49:18.999Z</time></trkpt><trkpt lat="44.8131441599736" lon="10.916001915247008"><ele>22.0</ele><time>2026-04-26T13:49:19.999Z</time></trkpt><trkpt lat="44.81327335705159" lon="10.916021874645041"><ele>22.0</ele><time>2026-04-26T13:49:20.999Z</time></trkpt><trkpt lat="44.813399431004974" lon="10.916039640471455"><ele>22.0</ele><time>2026-04-26T13:49:21.999Z</time></trkpt><trkpt lat="44.81352143798508" lon="10.916053826261521"><ele>22.0</ele><time>2026-04-26T13:49:22.999Z</time></trkpt><trkpt lat="44.81363803599421" lon="10.916088554634474"><ele>22.0</ele><time>2026-04-26T13:49:23.999Z</time></trkpt><trkpt lat="44.81373355015874" lon="10.916177133630862"><ele>21.5</ele><time>2026-04-26T13:49:24.999Z</time></trkpt><trkpt lat="44.813844154124624" lon="10.916236835568169"><ele>21.0</ele><time>2026-04-26T13:49:25.999Z</time></trkpt><trkpt lat="44.81394569279138" lon="10.916332523945853"><ele>20.5</ele><time>2026-04-26T13:49:26.999Z</time></trkpt><trkpt lat="44.81404831810436" lon="10.916424863906808"><ele>20.0</ele><time>2026-04-26T13:49:27.999Z</time></trkpt><trkpt lat="44.814154509363554" lon="10.916513130421729"><ele>20.0</ele><time>2026-04-26T13:49:28.999Z</time></trkpt><trkpt lat="44.81425881749159" lon="10.916604483989627"><ele>20.0</ele><time>2026-04-26T13:49:29.999Z</time></trkpt><trkpt lat="44.81436340457143" lon="10.916702546089631"><ele>20.0</ele><time>2026-04-26T13:49:30.999Z</time></trkpt><trkpt lat="44.814469543806425" lon="10.916798098679028"><ele>20.0</ele><time>2026-04-26T13:49:31.999Z</time></trkpt><trkpt lat="44.81457819477807" lon="10.916892916283805"><ele>20.0</ele><time>2026-04-26T13:49:32.999Z</time></trkpt><trkpt lat="44.814687003308464" lon="10.91698738524158"><ele>20.0</ele><time>2026-04-26T13:49:33.999Z</time></trkpt><trkpt lat="44.81479572383802" lon="10.917083383201316"><ele>20.0</ele><time>2026-04-26T13:49:34.999Z</time></trkpt><trkpt lat="44.81490774389903" lon="10.917181510807199"><ele>20.0</ele><time>2026-04-26T13:49:35.999Z</time></trkpt><trkpt lat="44.8150210426216" lon="10.91728131587279"><ele>20.0</ele><time>2026-04-26T13:49:36.999Z</time></trkpt><trkpt lat="44.815135701599786" lon="10.917380850250371"><ele>20.0</ele><time>2026-04-26T13:49:37.999Z</time></trkpt><trkpt lat="44.815250935780874" lon="10.917479824789886"><ele>20.0</ele><time>2026-04-26T13:49:38.999Z</time></trkpt><trkpt lat="44.815365389822325" lon="10.9175766310966"><ele>20.0</ele><time>2026-04-26T13:49:39.999Z</time></trkpt><trkpt lat="44.81548143742532" lon="10.917670711415134"><ele>19.5</ele><time>2026-04-26T13:49:40.999Z</time></trkpt><trkpt lat="44.81559667139443" lon="10.917767372926095"><ele>19.0</ele><time>2026-04-26T13:49:41.999Z</time></trkpt><trkpt lat="44.815712173449455" lon="10.917873120788144"><ele>18.5</ele><time>2026-04-26T13:49:42.999Z</time></trkpt><trkpt lat="44.815829339459626" lon="10.917979839902161"><ele>18.0</ele><time>2026-04-26T13:49:43.999Z</time></trkpt><trkpt lat="44.81594947223725" lon="10.918082642196346"><ele>17.75</ele><time>2026-04-26T13:49:44.999Z</time></trkpt><trkpt lat="44.81606878658682" lon="10.918186457078217"><ele>17.5</ele><time>2026-04-26T13:49:45.999Z</time></trkpt><trkpt lat="44.81618332568684" lon="10.918300375948084"><ele>17.25</ele><time>2026-04-26T13:49:46.999Z</time></trkpt><trkpt lat="44.8162899316551" lon="10.918436005673898"><ele>17.0</ele><time>2026-04-26T13:49:47.999Z</time></trkpt><trkpt lat="44.81638507698706" lon="10.918585056921348"><ele>17.5</ele><time>2026-04-26T13:49:48.999Z</time></trkpt><trkpt lat="44.81647675628128" lon="10.918740033101757"><ele>18.0</ele><time>2026-04-26T13:49:49.999Z</time></trkpt><trkpt lat="44.816570212151056" lon="10.918896199053691"><ele>18.5</ele><time>2026-04-26T13:49:50.999Z</time></trkpt><trkpt lat="44.816661947906866" lon="10.919055880766543"><ele>19.0</ele><time>2026-04-26T13:49:51.999Z</time></trkpt><trkpt lat="44.81674575967159" lon="10.919222985155562"><ele>19.0</ele><time>2026-04-26T13:49:52.999Z</time></trkpt><trkpt lat="44.816819049078894" lon="10.919401698883132"><ele>19.0</ele><time>2026-04-26T13:49:53.999Z</time></trkpt><trkpt lat="44.81688420186166" lon="10.919585578111837"><ele>19.0</ele><time>2026-04-26T13:49:54.999Z</time></trkpt><trkpt lat="44.816949851369145" lon="10.919775949819595"><ele>19.0</ele><time>2026-04-26T13:49:55.999Z</time></trkpt><trkpt lat="44.817016955871146" lon="10.919960179883978"><ele>18.75</ele><time>2026-04-26T13:49:56.999Z</time></trkpt><trkpt lat="44.817088209735196" lon="10.920150461658078"><ele>18.5</ele><time>2026-04-26T13:49:57.999Z</time></trkpt><trkpt lat="44.81715706185991" lon="10.920334744879046"><ele>18.25</ele><time>2026-04-26T13:49:58.999Z</time></trkpt><trkpt lat="44.81722497772739" lon="10.920521021395926"><ele>18.0</ele><time>2026-04-26T13:49:59.999Z</time></trkpt><trkpt lat="44.81729746806033" lon="10.92070899597357"><ele>18.0</ele><time>2026-04-26T13:50:00.999Z</time></trkpt><trkpt lat="44.81737286925361" lon="10.92088810565575"><ele>18.0</ele><time>2026-04-26T13:50:01.999Z</time></trkpt><trkpt lat="44.817462047520166" lon="10.921057298529089"><ele>18.0</ele><time>2026-04-26T13:50:02.999Z</time></trkpt><trkpt lat="44.817575841818694" lon="10.921202333070694"><ele>18.666666666666668</ele><time>2026-04-26T13:50:03.999Z</time></trkpt><trkpt lat="44.817699602400396" lon="10.92132277811113"><ele>19.333333333333336</ele><time>2026-04-26T13:50:04.999Z</time></trkpt><trkpt lat="44.81783620728402" lon="10.92141836556173"><ele>20.0</ele><time>2026-04-26T13:50:05.999Z</time></trkpt><trkpt lat="44.817978124813735" lon="10.921505483621175"><ele>20.0</ele><time>2026-04-26T13:50:06.999Z</time></trkpt><trkpt lat="44.81811994071287" lon="10.921597146280831"><ele>20.0</ele><time>2026-04-26T13:50:07.999Z</time></trkpt><trkpt lat="44.81825918215978" lon="10.921692062352266"><ele>20.0</ele><time>2026-04-26T13:50:08.999Z</time></trkpt><trkpt lat="44.81839128861285" lon="10.921790083698696"><ele>19.25</ele><time>2026-04-26T13:50:09.999Z</time></trkpt><trkpt lat="44.818510121665916" lon="10.921910978947492"><ele>18.5</ele><time>2026-04-26T13:50:10.999Z</time></trkpt><trkpt lat="44.81861763947894" lon="10.922057225782616"><ele>17.75</ele><time>2026-04-26T13:50:11.999Z</time></trkpt><trkpt lat="44.81871639093241" lon="10.922210903684668"><ele>17.0</ele><time>2026-04-26T13:50:12.999Z</time></trkpt><trkpt lat="44.818818545480234" lon="10.922367291805314"><ele>17.0</ele><time>2026-04-26T13:50:13.999Z</time></trkpt><trkpt lat="44.81891769315966" lon="10.922510466937917"><ele>17.0</ele><time>2026-04-26T13:50:14.999Z</time></trkpt><trkpt lat="44.81901049661696" lon="10.922640213215756"><ele>17.0</ele><time>2026-04-26T13:50:15.999Z</time></trkpt><trkpt lat="44.81908702785205" lon="10.922752226461213"><ele>17.0</ele><time>2026-04-26T13:50:16.999Z</time></trkpt><trkpt lat="44.81914916975708" lon="10.922845331212887"><ele>17.0</ele><time>2026-04-26T13:50:17.999Z</time></trkpt><trkpt lat="44.81919437995578" lon="10.92292530907435"><ele>17.0</ele><time>2026-04-26T13:50:18.999Z</time></trkpt><trkpt lat="44.819238878093465" lon="10.923017772039447"><ele>17.0</ele><time>2026-04-26T13:50:20.999Z</time></trkpt><trkpt lat="44.819170776340755" lon="10.923181252237688"><ele>17.0</ele><time>2026-04-26T13:50:21.999Z</time></trkpt><trkpt lat="44.81912941374871" lon="10.923301767439703"><ele>17.0</ele><time>2026-04-26T13:50:22.999Z</time></trkpt><trkpt lat="44.819087596987465" lon="10.92343264066234"><ele>17.5</ele><time>2026-04-26T13:50:23.999Z</time></trkpt><trkpt lat="44.81904728527741" lon="10.92357521905629"><ele>18.0</ele><time>2026-04-26T13:50:24.999Z</time></trkpt><trkpt lat="44.81900453725621" lon="10.923720871275345"><ele>18.5</ele><time>2026-04-26T13:50:25.999Z</time></trkpt><trkpt lat="44.81895798292193" lon="10.923871654230483"><ele>19.0</ele><time>2026-04-26T13:50:26.999Z</time></trkpt><trkpt lat="44.81891750655532" lon="10.924032102217184"><ele>19.0</ele><time>2026-04-26T13:50:27.999Z</time></trkpt><trkpt lat="44.81886842536685" lon="10.924192858957968"><ele>19.0</ele><time>2026-04-26T13:50:28.999Z</time></trkpt><trkpt lat="44.818819352402706" lon="10.924357643839041"><ele>19.0</ele><time>2026-04-26T13:50:29.999Z</time></trkpt><trkpt lat="44.818764930918555" lon="10.92451676405886"><ele>19.0</ele><time>2026-04-26T13:50:30.999Z</time></trkpt><trkpt lat="44.818705896546106" lon="10.924687008593859"><ele>19.0</ele><time>2026-04-26T13:50:31.999Z</time></trkpt><trkpt lat="44.818640998022445" lon="10.92486761705973"><ele>19.0</ele><time>2026-04-26T13:50:32.999Z</time></trkpt><trkpt lat="44.81857817527018" lon="10.925041375856955"><ele>19.0</ele><time>2026-04-26T13:50:33.999Z</time></trkpt><trkpt lat="44.81851198041829" lon="10.925223026468128"><ele>19.0</ele><time>2026-04-26T13:50:34.999Z</time></trkpt><trkpt lat="44.8184410775407" lon="10.925394767526912"><ele>18.75</ele><time>2026-04-26T13:50:35.999Z</time></trkpt><trkpt lat="44.81837235541958" lon="10.925572259135688"><ele>18.5</ele><time>2026-04-26T13:50:36.999Z</time></trkpt><trkpt lat="44.818308409650726" lon="10.925748051350345"><ele>18.25</ele><time>2026-04-26T13:50:37.999Z</time></trkpt><trkpt lat="44.818244453773325" lon="10.925925532252643"><ele>18.0</ele><time>2026-04-26T13:50:38.999Z</time></trkpt><trkpt lat="44.81817946328436" lon="10.926098382037676"><ele>17.75</ele><time>2026-04-26T13:50:39.999Z</time></trkpt><trkpt lat="44.818114044667226" lon="10.926268612014177"><ele>17.5</ele><time>2026-04-26T13:50:40.999Z</time></trkpt><trkpt lat="44.81805134114435" lon="10.92643519616014"><ele>17.25</ele><time>2026-04-26T13:50:41.999Z</time></trkpt><trkpt lat="44.817992314506846" lon="10.926604263184768"><ele>17.0</ele><time>2026-04-26T13:50:42.999Z</time></trkpt><trkpt lat="44.817937234437345" lon="10.92676833156048"><ele>17.75</ele><time>2026-04-26T13:50:43.999Z</time></trkpt><trkpt lat="44.81787417358988" lon="10.926940201976103"><ele>18.5</ele><time>2026-04-26T13:50:44.999Z</time></trkpt><trkpt lat="44.817810299356346" lon="10.92710633920671"><ele>19.25</ele><time>2026-04-26T13:50:45.999Z</time></trkpt><trkpt lat="44.81774664513418" lon="10.92727970996597"><ele>20.0</ele><time>2026-04-26T13:50:46.999Z</time></trkpt><trkpt lat="44.81768368392723" lon="10.927451269671842"><ele>19.0</ele><time>2026-04-26T13:50:47.999Z</time></trkpt><trkpt lat="44.817619735388355" lon="10.927617549607266"><ele>18.0</ele><time>2026-04-26T13:50:48.999Z</time></trkpt><trkpt lat="44.81755747760676" lon="10.927793793109382"><ele>17.0</ele><time>2026-04-26T13:50:49.999Z</time></trkpt><trkpt lat="44.817495149299816" lon="10.927961191284997"><ele>16.0</ele><time>2026-04-26T13:50:50.999Z</time></trkpt><trkpt lat="44.81742989023274" lon="10.928134560584555"><ele>16.0</ele><time>2026-04-26T13:50:51.999Z</time></trkpt><trkpt lat="44.81735934536287" lon="10.928314225472795"><ele>16.0</ele><time>2026-04-26T13:50:52.999Z</time></trkpt><trkpt lat="44.8172883074894" lon="10.928498434906537"><ele>16.0</ele><time>2026-04-26T13:50:53.999Z</time></trkpt><trkpt lat="44.817214830465154" lon="10.928692652750717"><ele>15.666666666666666</ele><time>2026-04-26T13:50:54.999Z</time></trkpt><trkpt lat="44.817138423173844" lon="10.92890469404332"><ele>15.333333333333332</ele><time>2026-04-26T13:50:55.999Z</time></trkpt><trkpt lat="44.81706001099363" lon="10.92911513582512"><ele>15.0</ele><time>2026-04-26T13:50:56.999Z</time></trkpt><trkpt lat="44.81698015981664" lon="10.929325788691896"><ele>15.666666666666668</ele><time>2026-04-26T13:50:57.999Z</time></trkpt><trkpt lat="44.816898653721026" lon="10.929532561449852"><ele>16.333333333333336</ele><time>2026-04-26T13:50:58.999Z</time></trkpt><trkpt lat="44.81681917161054" lon="10.929730417976002"><ele>17.0</ele><time>2026-04-26T13:50:59.999Z</time></trkpt><trkpt lat="44.81674159921248" lon="10.929932168106276"><ele>17.75</ele><time>2026-04-26T13:51:00.999Z</time></trkpt><trkpt lat="44.816664606920746" lon="10.930121458380233"><ele>18.5</ele><time>2026-04-26T13:51:01.999Z</time></trkpt><trkpt lat="44.816597405912816" lon="10.930291197853442"><ele>19.25</ele><time>2026-04-26T13:51:02.999Z</time></trkpt><trkpt lat="44.816537004922246" lon="10.930440734315868"><ele>20.0</ele><time>2026-04-26T13:51:03.999Z</time></trkpt><trkpt lat="44.81648334173023" lon="10.930571436300404"><ele>20.0</ele><time>2026-04-26T13:51:04.999Z</time></trkpt><trkpt lat="44.81643536163358" lon="10.93069196770663"><ele>20.0</ele><time>2026-04-26T13:51:05.999Z</time></trkpt><trkpt lat="44.81639668432996" lon="10.930791957851875"><ele>20.0</ele><time>2026-04-26T13:51:06.999Z</time></trkpt><trkpt lat="44.816355774958744" lon="10.930887931014492"><ele>20.0</ele><time>2026-04-26T13:51:08.999Z</time></trkpt><trkpt lat="44.8163052196569" lon="10.93100987134231"><ele>20.0</ele><time>2026-04-26T13:51:11.999Z</time></trkpt><trkpt lat="44.81635044554679" lon="10.931120674833988"><ele>20.0</ele><time>2026-04-26T13:51:12.999Z</time></trkpt><trkpt lat="44.81641466747263" lon="10.931257742034694"><ele>19.75</ele><time>2026-04-26T13:51:14.999Z</time></trkpt><trkpt lat="44.8164947673682" lon="10.931478932354644"><ele>19.5</ele><time>2026-04-26T13:51:15.999Z</time></trkpt><trkpt lat="44.81656060267622" lon="10.931623667386354"><ele>19.25</ele><time>2026-04-26T13:51:16.999Z</time></trkpt><trkpt lat="44.816626221803425" lon="10.931784729365218"><ele>19.0</ele><time>2026-04-26T13:51:17.999Z</time></trkpt><trkpt lat="44.81669608665186" lon="10.931944234192635"><ele>19.0</ele><time>2026-04-26T13:51:18.999Z</time></trkpt><trkpt lat="44.81676877087656" lon="10.932107466044803"><ele>19.0</ele><time>2026-04-26T13:51:19.999Z</time></trkpt><trkpt lat="44.81684212669802" lon="10.932276220671811"><ele>19.0</ele><time>2026-04-26T13:51:20.999Z</time></trkpt><trkpt lat="44.816916095416985" lon="10.932448941230913"><ele>19.0</ele><time>2026-04-26T13:51:21.999Z</time></trkpt><trkpt lat="44.816991258046386" lon="10.932621137337682"><ele>19.0</ele><time>2026-04-26T13:51:22.999Z</time></trkpt><trkpt lat="44.81706857241061" lon="10.932788859051591"><ele>19.0</ele><time>2026-04-26T13:51:23.999Z</time></trkpt><trkpt lat="44.817151850414724" lon="10.932957133799766"><ele>19.0</ele><time>2026-04-26T13:51:24.999Z</time></trkpt><trkpt lat="44.81723067584384" lon="10.933130679887276"><ele>19.0</ele><time>2026-04-26T13:51:25.999Z</time></trkpt><trkpt lat="44.81730945051024" lon="10.933295550590318"><ele>19.0</ele><time>2026-04-26T13:51:26.999Z</time></trkpt><trkpt lat="44.817382541614904" lon="10.933469771897805"><ele>19.0</ele><time>2026-04-26T13:51:27.999Z</time></trkpt><trkpt lat="44.81744792571571" lon="10.933647530806999"><ele>19.0</ele><time>2026-04-26T13:51:28.999Z</time></trkpt><trkpt lat="44.81750161374499" lon="10.933842388231739"><ele>19.0</ele><time>2026-04-26T13:51:29.999Z</time></trkpt><trkpt lat="44.817555585346064" lon="10.934045428211256"><ele>19.0</ele><time>2026-04-26T13:51:30.999Z</time></trkpt><trkpt lat="44.81761241865191" lon="10.93424742049399"><ele>19.0</ele><time>2026-04-26T13:51:31.999Z</time></trkpt><trkpt lat="44.81766839496687" lon="10.934443472321773"><ele>19.0</ele><time>2026-04-26T13:51:32.999Z</time></trkpt><trkpt lat="44.81773082367649" lon="10.93464238325983"><ele>18.666666666666664</ele><time>2026-04-26T13:51:33.999Z</time></trkpt><trkpt lat="44.81779815418504" lon="10.934833524961082"><ele>18.333333333333332</ele><time>2026-04-26T13:51:34.999Z</time></trkpt><trkpt lat="44.81787832554419" lon="10.935024406485157"><ele>18.0</ele><time>2026-04-26T13:51:35.999Z</time></trkpt><trkpt lat="44.81796852410445" lon="10.935211783631617"><ele>18.0</ele><time>2026-04-26T13:51:36.999Z</time></trkpt><trkpt lat="44.81805715200306" lon="10.93538767154505"><ele>18.0</ele><time>2026-04-26T13:51:37.999Z</time></trkpt><trkpt lat="44.81815460516666" lon="10.93556003297207"><ele>18.0</ele><time>2026-04-26T13:51:38.999Z</time></trkpt><trkpt lat="44.818243849329946" lon="10.935736679626496"><ele>18.0</ele><time>2026-04-26T13:51:39.999Z</time></trkpt><trkpt lat="44.81832512257822" lon="10.935913738859739"><ele>18.0</ele><time>2026-04-26T13:51:40.999Z</time></trkpt><trkpt lat="44.81841302226299" lon="10.936090960093882"><ele>18.0</ele><time>2026-04-26T13:51:41.999Z</time></trkpt><trkpt lat="44.818478792231645" lon="10.936279186086523"><ele>18.25</ele><time>2026-04-26T13:51:42.999Z</time></trkpt><trkpt lat="44.81853582436501" lon="10.936467843536596"><ele>18.5</ele><time>2026-04-26T13:51:43.999Z</time></trkpt><trkpt lat="44.81856731358476" lon="10.936631308804277"><ele>18.75</ele><time>2026-04-26T13:51:44.999Z</time></trkpt><trkpt lat="44.81863636584509" lon="10.936831899715052"><ele>19.0</ele><time>2026-04-26T13:51:45.999Z</time></trkpt><trkpt lat="44.81873069767585" lon="10.936976754283553"><ele>19.0</ele><time>2026-04-26T13:51:46.999Z</time></trkpt><trkpt lat="44.818918544896206" lon="10.937184626753028"><ele>19.0</ele><time>2026-04-26T13:51:47.999Z</time></trkpt><trkpt lat="44.81901963320486" lon="10.937362198103887"><ele>19.0</ele><time>2026-04-26T13:51:48.999Z</time></trkpt><trkpt lat="44.81912000853851" lon="10.937533533389654"><ele>19.0</ele><time>2026-04-26T13:51:49.999Z</time></trkpt><trkpt lat="44.81922220303683" lon="10.937709841924708"><ele>19.0</ele><time>2026-04-26T13:51:50.999Z</time></trkpt><trkpt lat="44.819325739834156" lon="10.937883890272712"><ele>19.0</ele><time>2026-04-26T13:51:51.999Z</time></trkpt><trkpt lat="44.819426663315426" lon="10.938050725370092"><ele>19.0</ele><time>2026-04-26T13:51:52.999Z</time></trkpt><trkpt lat="44.81952766709272" lon="10.93822175249621"><ele>19.0</ele><time>2026-04-26T13:51:53.999Z</time></trkpt><trkpt lat="44.81963242227601" lon="10.938389203527795"><ele>19.0</ele><time>2026-04-26T13:51:54.999Z</time></trkpt><trkpt lat="44.81974231070751" lon="10.938556827563316"><ele>18.666666666666664</ele><time>2026-04-26T13:51:55.999Z</time></trkpt><trkpt lat="44.819851537658174" lon="10.93871751083585"><ele>18.333333333333332</ele><time>2026-04-26T13:51:56.999Z</time></trkpt><trkpt lat="44.819957762594115" lon="10.93887530132519"><ele>18.0</ele><time>2026-04-26T13:51:57.999Z</time></trkpt><trkpt lat="44.82006587329662" lon="10.939039336355924"><ele>18.0</ele><time>2026-04-26T13:51:58.999Z</time></trkpt><trkpt lat="44.820178703257845" lon="10.939203896159889"><ele>18.0</ele><time>2026-04-26T13:51:59.999Z</time></trkpt><trkpt lat="44.820287424199215" lon="10.939363631867373"><ele>18.0</ele><time>2026-04-26T13:52:00.999Z</time></trkpt><trkpt lat="44.82038730721818" lon="10.939534118271798"><ele>18.0</ele><time>2026-04-26T13:52:01.999Z</time></trkpt><trkpt lat="44.82047506486164" lon="10.939714395846693"><ele>18.0</ele><time>2026-04-26T13:52:02.999Z</time></trkpt><trkpt lat="44.82052279511925" lon="10.939925475508824"><ele>18.0</ele><time>2026-04-26T13:52:03.999Z</time></trkpt><trkpt lat="44.82057430547512" lon="10.940131335149893"><ele>18.0</ele><time>2026-04-26T13:52:04.999Z</time></trkpt><trkpt lat="44.820627606056185" lon="10.94034874799865"><ele>18.0</ele><time>2026-04-26T13:52:05.999Z</time></trkpt><trkpt lat="44.820657462249805" lon="10.940579776481684"><ele>18.0</ele><time>2026-04-26T13:52:06.999Z</time></trkpt><trkpt lat="44.82068157446176" lon="10.940814001235688"><ele>18.25</ele><time>2026-04-26T13:52:07.999Z</time></trkpt><trkpt lat="44.82070162678509" lon="10.941036818380223"><ele>18.5</ele><time>2026-04-26T13:52:08.999Z</time></trkpt><trkpt lat="44.82071905549824" lon="10.941233923260839"><ele>18.75</ele><time>2026-04-26T13:52:09.999Z</time></trkpt><trkpt lat="44.8207643510083" lon="10.941424296001601"><ele>19.0</ele><time>2026-04-26T13:52:10.999Z</time></trkpt><trkpt lat="44.82082325549378" lon="10.941615847382675"><ele>19.0</ele><time>2026-04-26T13:52:11.999Z</time></trkpt><trkpt lat="44.82088354053572" lon="10.941805561562935"><ele>19.0</ele><time>2026-04-26T13:52:12.999Z</time></trkpt><trkpt lat="44.820946719615826" lon="10.941994124596864"><ele>19.0</ele><time>2026-04-26T13:52:13.999Z</time></trkpt><trkpt lat="44.82099717065626" lon="10.94217569004368"><ele>19.0</ele><time>2026-04-26T13:52:14.999Z</time></trkpt><trkpt lat="44.82104151447999" lon="10.942320366778365"><ele>19.0</ele><time>2026-04-26T13:52:15.999Z</time></trkpt><trkpt lat="44.82108379042294" lon="10.942459617561616"><ele>19.0</ele><time>2026-04-26T13:52:16.999Z</time></trkpt><trkpt lat="44.821119015552256" lon="10.942581676092539"><ele>19.0</ele><time>2026-04-26T13:52:17.999Z</time></trkpt><trkpt lat="44.82114935113404" lon="10.94267981169797"><ele>19.0</ele><time>2026-04-26T13:52:18.999Z</time></trkpt><trkpt lat="44.82116833156073" lon="10.94276874596482"><ele>19.0</ele><time>2026-04-26T13:52:20Z</time></trkpt><trkpt lat="44.821198838304205" lon="10.942872900743113"><ele>19.0</ele><time>2026-04-26T13:52:22Z</time></trkpt><trkpt lat="44.821423005211436" lon="10.942878108598185"><ele>19.166666666666664</ele><time>2026-04-26T13:52:25Z</time></trkpt><trkpt lat="44.82145083377531" lon="10.942975018776297"><ele>19.333333333333332</ele><time>2026-04-26T13:53:07Z</time></trkpt><trkpt lat="44.82144547072092" lon="10.943076748229078"><ele>19.5</ele><time>2026-04-26T14:03:21.001Z</time></trkpt><trkpt lat="44.821408915189394" lon="10.943178871063255"><ele>19.666666666666668</ele><time>2026-04-26T14:03:24.001Z</time></trkpt><trkpt lat="44.82136834633683" lon="10.943246853868839"><ele>19.833333333333336</ele><time>2026-04-26T14:03:26.001Z</time></trkpt><trkpt lat="44.821298359572644" lon="10.943160365373869"><ele>20.0</ele><time>2026-04-26T14:03:39Z</time></trkpt><trkpt lat="44.82126272457469" lon="10.942987644197823"><ele>20.0</ele><time>2026-04-26T14:03:41Z</time></trkpt><trkpt lat="44.82123500984975" lon="10.942868197677043"><ele>20.0</ele><time>2026-04-26T14:03:42Z</time></trkpt><trkpt lat="44.82119700620992" lon="10.942748509982968"><ele>20.0</ele><time>2026-04-26T14:03:43Z</time></trkpt><trkpt lat="44.82114906856472" lon="10.942610227142728"><ele>20.0</ele><time>2026-04-26T14:03:44Z</time></trkpt><trkpt lat="44.82110568647666" lon="10.942470906647648"><ele>20.0</ele><time>2026-04-26T14:03:45Z</time></trkpt><trkpt lat="44.82106315619941" lon="10.942330472438998"><ele>19.8</ele><time>2026-04-26T14:03:46Z</time></trkpt><trkpt lat="44.821023307989876" lon="10.942188470212232"><ele>19.6</ele><time>2026-04-26T14:03:47Z</time></trkpt><trkpt lat="44.820985161746485" lon="10.942044874189964"><ele>19.4</ele><time>2026-04-26T14:03:48Z</time></trkpt><trkpt lat="44.820947153246095" lon="10.941902326903863"><ele>19.2</ele><time>2026-04-26T14:03:49Z</time></trkpt><trkpt lat="44.82090193871561" lon="10.94176155386082"><ele>19.0</ele><time>2026-04-26T14:03:50Z</time></trkpt><trkpt lat="44.82085512840849" lon="10.941621172045707"><ele>19.0</ele><time>2026-04-26T14:03:51Z</time></trkpt><trkpt lat="44.820809472838796" lon="10.941473753254316"><ele>19.0</ele><time>2026-04-26T14:03:52Z</time></trkpt><trkpt lat="44.82076944094477" lon="10.941309019300354"><ele>19.0</ele><time>2026-04-26T14:03:53Z</time></trkpt><trkpt lat="44.820734230976626" lon="10.941141976337622"><ele>19.0</ele><time>2026-04-26T14:03:54Z</time></trkpt><trkpt lat="44.82070525868391" lon="10.940969069470864"><ele>18.75</ele><time>2026-04-26T14:03:55Z</time></trkpt><trkpt lat="44.820700985625706" lon="10.94079078926423"><ele>18.5</ele><time>2026-04-26T14:03:56Z</time></trkpt><trkpt lat="44.82068351730885" lon="10.940616919324938"><ele>18.25</ele><time>2026-04-26T14:03:57Z</time></trkpt><trkpt lat="44.820652305705444" lon="10.940443982006258"><ele>18.0</ele><time>2026-04-26T14:03:58Z</time></trkpt><trkpt lat="44.82062814263878" lon="10.940272235151099"><ele>18.0</ele><time>2026-04-26T14:03:59Z</time></trkpt><trkpt lat="44.82058520015922" lon="10.940094231426428"><ele>18.0</ele><time>2026-04-26T14:04:00Z</time></trkpt><trkpt lat="44.82054785362176" lon="10.939940414073789"><ele>18.0</ele><time>2026-04-26T14:04:01Z</time></trkpt><trkpt lat="44.820500837228344" lon="10.939774753473957"><ele>18.0</ele><time>2026-04-26T14:04:01.999Z</time></trkpt><trkpt lat="44.820445495156825" lon="10.939609360040642"><ele>18.0</ele><time>2026-04-26T14:04:02.999Z</time></trkpt><trkpt lat="44.820374237086305" lon="10.9394522203756"><ele>18.0</ele><time>2026-04-26T14:04:03.999Z</time></trkpt><trkpt lat="44.82028880808648" lon="10.939305168796901"><ele>18.0</ele><time>2026-04-26T14:04:04.999Z</time></trkpt><trkpt lat="44.82019485892005" lon="10.939163135873644"><ele>18.0</ele><time>2026-04-26T14:04:05.999Z</time></trkpt><trkpt lat="44.82009832461991" lon="10.939021489250234"><ele>18.0</ele><time>2026-04-26T14:04:06.999Z</time></trkpt><trkpt lat="44.82000699042744" lon="10.938880436044741"><ele>18.0</ele><time>2026-04-26T14:04:07.999Z</time></trkpt><trkpt lat="44.819913039228545" lon="10.938742936593664"><ele>18.0</ele><time>2026-04-26T14:04:08.999Z</time></trkpt><trkpt lat="44.81981315244107" lon="10.938606376283925"><ele>18.0</ele><time>2026-04-26T14:04:09.999Z</time></trkpt><trkpt lat="44.81971656514491" lon="10.938465724461205"><ele>18.25</ele><time>2026-04-26T14:04:10.999Z</time></trkpt><trkpt lat="44.81962221169315" lon="10.938321501926042"><ele>18.5</ele><time>2026-04-26T14:04:11.999Z</time></trkpt><trkpt lat="44.81952770339606" lon="10.938174452634698"><ele>18.75</ele><time>2026-04-26T14:04:12.999Z</time></trkpt><trkpt lat="44.81943487582981" lon="10.938026254426811"><ele>19.0</ele><time>2026-04-26T14:04:13.999Z</time></trkpt><trkpt lat="44.8193440286035" lon="10.937876356294986"><ele>19.0</ele><time>2026-04-26T14:04:14.999Z</time></trkpt><trkpt lat="44.81926712050239" lon="10.937710704148994"><ele>19.0</ele><time>2026-04-26T14:04:15.999Z</time></trkpt><trkpt lat="44.81918207110392" lon="10.937561741246183"><ele>19.0</ele><time>2026-04-26T14:04:16.999Z</time></trkpt><trkpt lat="44.81909550832392" lon="10.9374101285154"><ele>19.0</ele><time>2026-04-26T14:04:17.999Z</time></trkpt><trkpt lat="44.819004764644696" lon="10.93725119255282"><ele>19.0</ele><time>2026-04-26T14:04:18.999Z</time></trkpt><trkpt lat="44.81891676310238" lon="10.937097059429568"><ele>19.0</ele><time>2026-04-26T14:04:19.999Z</time></trkpt><trkpt lat="44.818827981958975" lon="10.936941560841618"><ele>19.0</ele><time>2026-04-26T14:04:20.999Z</time></trkpt><trkpt lat="44.818742275543755" lon="10.936791447687915"><ele>19.0</ele><time>2026-04-26T14:04:21.999Z</time></trkpt><trkpt lat="44.81865536566077" lon="10.936637214090142"><ele>19.0</ele><time>2026-04-26T14:04:22.999Z</time></trkpt><trkpt lat="44.8185689830972" lon="10.936490968804017"><ele>19.0</ele><time>2026-04-26T14:04:23.999Z</time></trkpt><trkpt lat="44.81851873702744" lon="10.9363099178393"><ele>19.0</ele><time>2026-04-26T14:04:24.999Z</time></trkpt><trkpt lat="44.81845821386234" lon="10.936134553109929"><ele>19.0</ele><time>2026-04-26T14:04:25.999Z</time></trkpt><trkpt lat="44.818382163176615" lon="10.935978670168893"><ele>18.75</ele><time>2026-04-26T14:04:26.999Z</time></trkpt><trkpt lat="44.8183196407377" lon="10.93581513474113"><ele>18.5</ele><time>2026-04-26T14:04:27.999Z</time></trkpt><trkpt lat="44.81824067353598" lon="10.935658939086496"><ele>18.25</ele><time>2026-04-26T14:04:28.999Z</time></trkpt><trkpt lat="44.81816675605618" lon="10.935490360559495"><ele>18.0</ele><time>2026-04-26T14:04:29.999Z</time></trkpt><trkpt lat="44.81807135340268" lon="10.935342430680999"><ele>18.0</ele><time>2026-04-26T14:04:30.999Z</time></trkpt><trkpt lat="44.81798764566225" lon="10.935179938099623"><ele>18.0</ele><time>2026-04-26T14:04:31.999Z</time></trkpt><trkpt lat="44.81791979311235" lon="10.935005076301403"><ele>18.0</ele><time>2026-04-26T14:04:32.999Z</time></trkpt><trkpt lat="44.817848175875234" lon="10.934839596318934"><ele>18.0</ele><time>2026-04-26T14:04:33.999Z</time></trkpt><trkpt lat="44.81778102798272" lon="10.934666471738065"><ele>18.0</ele><time>2026-04-26T14:04:34.999Z</time></trkpt><trkpt lat="44.81772196497131" lon="10.934486379767073"><ele>18.0</ele><time>2026-04-26T14:04:35.999Z</time></trkpt><trkpt lat="44.81766638671772" lon="10.93430284517691"><ele>18.0</ele><time>2026-04-26T14:04:36.999Z</time></trkpt><trkpt lat="44.8176123743068" lon="10.934116658506996"><ele>18.0</ele><time>2026-04-26T14:04:37.999Z</time></trkpt><trkpt lat="44.81755807513246" lon="10.933929888971164"><ele>18.25</ele><time>2026-04-26T14:04:38.999Z</time></trkpt><trkpt lat="44.81748828732728" lon="10.933753129132253"><ele>18.5</ele><time>2026-04-26T14:04:39.999Z</time></trkpt><trkpt lat="44.81743199626029" lon="10.933566312686871"><ele>18.75</ele><time>2026-04-26T14:04:40.999Z</time></trkpt><trkpt lat="44.81736603311336" lon="10.93338705859267"><ele>19.0</ele><time>2026-04-26T14:04:41.999Z</time></trkpt><trkpt lat="44.81729192991178" lon="10.933214974028001"><ele>19.0</ele><time>2026-04-26T14:04:42.999Z</time></trkpt><trkpt lat="44.81721710151163" lon="10.933041949313509"><ele>19.0</ele><time>2026-04-26T14:04:43.999Z</time></trkpt><trkpt lat="44.81714162930475" lon="10.932875753885977"><ele>19.0</ele><time>2026-04-26T14:04:44.999Z</time></trkpt><trkpt lat="44.817065396806214" lon="10.932712027251483"><ele>19.0</ele><time>2026-04-26T14:04:45.999Z</time></trkpt><trkpt lat="44.81699089307925" lon="10.932550469114105"><ele>18.75</ele><time>2026-04-26T14:04:46.999Z</time></trkpt><trkpt lat="44.81693015746425" lon="10.932377796026914"><ele>18.5</ele><time>2026-04-26T14:04:47.999Z</time></trkpt><trkpt lat="44.81685776957246" lon="10.932211536338825"><ele>18.25</ele><time>2026-04-26T14:04:48.999Z</time></trkpt><trkpt lat="44.81677293337597" lon="10.932051369496108"><ele>18.0</ele><time>2026-04-26T14:04:49.999Z</time></trkpt><trkpt lat="44.81670087499896" lon="10.931877825466334"><ele>18.25</ele><time>2026-04-26T14:04:50.999Z</time></trkpt><trkpt lat="44.81662337940004" lon="10.931708746264134"><ele>18.5</ele><time>2026-04-26T14:04:51.999Z</time></trkpt><trkpt lat="44.816566403935376" lon="10.931526767380113"><ele>18.75</ele><time>2026-04-26T14:04:52.999Z</time></trkpt><trkpt lat="44.81649981404322" lon="10.931366708356583"><ele>19.0</ele><time>2026-04-26T14:04:54Z</time></trkpt><trkpt lat="44.81644158504945" lon="10.931229957418369"><ele>19.0</ele><time>2026-04-26T14:04:55Z</time></trkpt><trkpt lat="44.816380561188204" lon="10.93112546264633"><ele>19.0</ele><time>2026-04-26T14:04:56Z</time></trkpt><trkpt lat="44.81635858786349" lon="10.9310097370884"><ele>19.0</ele><time>2026-04-26T14:04:57Z</time></trkpt><trkpt lat="44.81636796645429" lon="10.930882072096761"><ele>19.0</ele><time>2026-04-26T14:04:58Z</time></trkpt><trkpt lat="44.816442090596794" lon="10.930762943209919"><ele>19.0</ele><time>2026-04-26T14:04:59Z</time></trkpt><trkpt lat="44.8165054451555" lon="10.930602118380508"><ele>19.0</ele><time>2026-04-26T14:05:00Z</time></trkpt><trkpt lat="44.816574368556566" lon="10.930428347752532"><ele>19.0</ele><time>2026-04-26T14:05:01Z</time></trkpt><trkpt lat="44.81664583671469" lon="10.93024816117802"><ele>19.0</ele><time>2026-04-26T14:05:02Z</time></trkpt><trkpt lat="44.81671953081136" lon="10.930061068667381"><ele>19.0</ele><time>2026-04-26T14:05:03Z</time></trkpt><trkpt lat="44.81679503257485" lon="10.929867255622108"><ele>18.333333333333332</ele><time>2026-04-26T14:05:04Z</time></trkpt><trkpt lat="44.81687334677703" lon="10.929666222860458"><ele>17.666666666666668</ele><time>2026-04-26T14:05:05Z</time></trkpt><trkpt lat="44.81695054359724" lon="10.929466772397"><ele>17.0</ele><time>2026-04-26T14:05:06Z</time></trkpt><trkpt lat="44.817026568886966" lon="10.929266821822969"><ele>16.333333333333336</ele><time>2026-04-26T14:05:07Z</time></trkpt><trkpt lat="44.81710541720615" lon="10.929058242709468"><ele>15.666666666666668</ele><time>2026-04-26T14:05:08Z</time></trkpt><trkpt lat="44.81718400659409" lon="10.928848019173728"><ele>15.0</ele><time>2026-04-26T14:05:09Z</time></trkpt><trkpt lat="44.817260225376735" lon="10.928644136893935"><ele>15.0</ele><time>2026-04-26T14:05:10Z</time></trkpt><trkpt lat="44.81734085834134" lon="10.92842844684087"><ele>15.0</ele><time>2026-04-26T14:05:11Z</time></trkpt><trkpt lat="44.817419829892565" lon="10.928217201173524"><ele>15.0</ele><time>2026-04-26T14:05:12Z</time></trkpt><trkpt lat="44.81750000994203" lon="10.928002722770078"><ele>15.333333333333332</ele><time>2026-04-26T14:05:13Z</time></trkpt><trkpt lat="44.817586194549314" lon="10.927772123650778"><ele>15.666666666666666</ele><time>2026-04-26T14:05:14Z</time></trkpt><trkpt lat="44.81767650887104" lon="10.927529511995212"><ele>16.0</ele><time>2026-04-26T14:05:15Z</time></trkpt><trkpt lat="44.81776420403889" lon="10.92729393594131"><ele>16.333333333333332</ele><time>2026-04-26T14:05:16Z</time></trkpt><trkpt lat="44.81784082110807" lon="10.927039057205583"><ele>16.666666666666668</ele><time>2026-04-26T14:05:17Z</time></trkpt><trkpt lat="44.8179308101522" lon="10.926803788365671"><ele>17.0</ele><time>2026-04-26T14:05:17.999Z</time></trkpt><trkpt lat="44.81801994040713" lon="10.926566102623031"><ele>17.0</ele><time>2026-04-26T14:05:18.999Z</time></trkpt><trkpt lat="44.81810843986052" lon="10.926328300630672"><ele>17.0</ele><time>2026-04-26T14:05:19.999Z</time></trkpt><trkpt lat="44.81820824931442" lon="10.926101094310322"><ele>17.0</ele><time>2026-04-26T14:05:20.999Z</time></trkpt><trkpt lat="44.818292982450465" lon="10.925873475218895"><ele>17.333333333333336</ele><time>2026-04-26T14:05:21.999Z</time></trkpt><trkpt lat="44.81836599897102" lon="10.925627472680501"><ele>17.666666666666668</ele><time>2026-04-26T14:05:22.999Z</time></trkpt><trkpt lat="44.81845849032475" lon="10.925394975408107"><ele>18.0</ele><time>2026-04-26T14:05:23.999Z</time></trkpt><trkpt lat="44.81854274366041" lon="10.925165073047665"><ele>18.666666666666668</ele><time>2026-04-26T14:05:24.999Z</time></trkpt><trkpt lat="44.818638944040146" lon="10.924945669036639"><ele>19.333333333333336</ele><time>2026-04-26T14:05:25.999Z</time></trkpt><trkpt lat="44.818720557790066" lon="10.924720685873256"><ele>20.0</ele><time>2026-04-26T14:05:26.999Z</time></trkpt><trkpt lat="44.81878051966036" lon="10.924495345277698"><ele>20.0</ele><time>2026-04-26T14:05:27.999Z</time></trkpt><trkpt lat="44.81885324343947" lon="10.924271806074714"><ele>20.0</ele><time>2026-04-26T14:05:28.999Z</time></trkpt><trkpt lat="44.81893211823514" lon="10.92405391131375"><ele>20.0</ele><time>2026-04-26T14:05:29.999Z</time></trkpt><trkpt lat="44.818996080459826" lon="10.923835957786663"><ele>19.75</ele><time>2026-04-26T14:05:30.999Z</time></trkpt><trkpt lat="44.819056122809926" lon="10.923631257843594"><ele>19.5</ele><time>2026-04-26T14:05:31.999Z</time></trkpt><trkpt lat="44.819110877073804" lon="10.923448575795424"><ele>19.25</ele><time>2026-04-26T14:05:32.999Z</time></trkpt><trkpt lat="44.81916037273771" lon="10.923284984864042"><ele>19.0</ele><time>2026-04-26T14:05:33.999Z</time></trkpt><trkpt lat="44.819210593858244" lon="10.923145053985673"><ele>18.5</ele><time>2026-04-26T14:05:34.999Z</time></trkpt><trkpt lat="44.81928143758672" lon="10.923010830567398"><ele>18.0</ele><time>2026-04-26T14:05:35.999Z</time></trkpt><trkpt lat="44.81936952737626" lon="10.922884603698392"><ele>17.5</ele><time>2026-04-26T14:05:36.999Z</time></trkpt><trkpt lat="44.81947018370939" lon="10.922770110592491"><ele>17.0</ele><time>2026-04-26T14:05:37.999Z</time></trkpt><trkpt lat="44.81954720823414" lon="10.922631762892518"><ele>17.25</ele><time>2026-04-26T14:05:38.999Z</time></trkpt><trkpt lat="44.8196348880713" lon="10.922527822408457"><ele>17.5</ele><time>2026-04-26T14:05:39.999Z</time></trkpt><trkpt lat="44.81972024728347" lon="10.922410930128677"><ele>17.75</ele><time>2026-04-26T14:05:40.999Z</time></trkpt><trkpt lat="44.819808992628325" lon="10.922289626616388"><ele>18.0</ele><time>2026-04-26T14:05:41.999Z</time></trkpt><trkpt lat="44.8199025253316" lon="10.92216072309653"><ele>18.0</ele><time>2026-04-26T14:05:42.999Z</time></trkpt><trkpt lat="44.81999739866983" lon="10.922029686638423"><ele>18.0</ele><time>2026-04-26T14:05:43.999Z</time></trkpt><trkpt lat="44.82009203215695" lon="10.92189994910887"><ele>18.0</ele><time>2026-04-26T14:05:44.999Z</time></trkpt><trkpt lat="44.82019150299308" lon="10.921763461679067"><ele>18.0</ele><time>2026-04-26T14:05:45.999Z</time></trkpt><trkpt lat="44.820283821370204" lon="10.921646730453878"><ele>18.0</ele><time>2026-04-26T14:05:46.999Z</time></trkpt><trkpt lat="44.8203687574813" lon="10.921523787651866"><ele>18.0</ele><time>2026-04-26T14:05:47.999Z</time></trkpt><trkpt lat="44.82045449973392" lon="10.921402210644983"><ele>18.0</ele><time>2026-04-26T14:05:48.999Z</time></trkpt><trkpt lat="44.82053257944971" lon="10.921271557399923"><ele>18.0</ele><time>2026-04-26T14:05:49.999Z</time></trkpt><trkpt lat="44.82061364524002" lon="10.921140431506723"><ele>18.0</ele><time>2026-04-26T14:05:50.999Z</time></trkpt><trkpt lat="44.820691986972065" lon="10.921010485346772"><ele>18.0</ele><time>2026-04-26T14:05:51.999Z</time></trkpt><trkpt lat="44.820773148626074" lon="10.920879375649623"><ele>18.0</ele><time>2026-04-26T14:05:52.999Z</time></trkpt><trkpt lat="44.82084883313057" lon="10.92074949370352"><ele>18.0</ele><time>2026-04-26T14:05:53.999Z</time></trkpt><trkpt lat="44.82091835361698" lon="10.920620483282388"><ele>17.75</ele><time>2026-04-26T14:05:54.999Z</time></trkpt><trkpt lat="44.82099111529906" lon="10.920484416219711"><ele>17.5</ele><time>2026-04-26T14:05:55.999Z</time></trkpt><trkpt lat="44.82106271469046" lon="10.92035855158207"><ele>17.25</ele><time>2026-04-26T14:05:56.999Z</time></trkpt><trkpt lat="44.821138473328645" lon="10.920227467083091"><ele>17.0</ele><time>2026-04-26T14:05:57.999Z</time></trkpt><trkpt lat="44.82121403186239" lon="10.920097198198304"><ele>17.5</ele><time>2026-04-26T14:05:58.999Z</time></trkpt><trkpt lat="44.8212932212326" lon="10.919954084890543"><ele>18.0</ele><time>2026-04-26T14:05:59.999Z</time></trkpt><trkpt lat="44.82137264388438" lon="10.91981087032843"><ele>18.5</ele><time>2026-04-26T14:06:00.999Z</time></trkpt><trkpt lat="44.82145941298873" lon="10.919666664544053"><ele>19.0</ele><time>2026-04-26T14:06:01.999Z</time></trkpt><trkpt lat="44.82154489155184" lon="10.91952515808649"><ele>19.0</ele><time>2026-04-26T14:06:02.999Z</time></trkpt><trkpt lat="44.821629593346934" lon="10.919375013875447"><ele>19.0</ele><time>2026-04-26T14:06:03.999Z</time></trkpt><trkpt lat="44.82170556511551" lon="10.91923304024634"><ele>19.0</ele><time>2026-04-26T14:06:04.999Z</time></trkpt><trkpt lat="44.821797560963276" lon="10.919078235727444"><ele>19.0</ele><time>2026-04-26T14:06:05.999Z</time></trkpt><trkpt lat="44.82187011461404" lon="10.918955218906726"><ele>18.5</ele><time>2026-04-26T14:06:06.999Z</time></trkpt><trkpt lat="44.821949537660174" lon="10.918819623729295"><ele>18.0</ele><time>2026-04-26T14:06:07.999Z</time></trkpt><trkpt lat="44.82204056121458" lon="10.918693368153091"><ele>17.5</ele><time>2026-04-26T14:06:08.999Z</time></trkpt><trkpt lat="44.82212236954669" lon="10.918551010915625"><ele>17.0</ele><time>2026-04-26T14:06:09.999Z</time></trkpt><trkpt lat="44.82220200607052" lon="10.918412432794634"><ele>17.5</ele><time>2026-04-26T14:06:10.999Z</time></trkpt><trkpt lat="44.822282698042564" lon="10.918272000325619"><ele>18.0</ele><time>2026-04-26T14:06:11.999Z</time></trkpt><trkpt lat="44.82236498652597" lon="10.918128541485586"><ele>18.5</ele><time>2026-04-26T14:06:12.999Z</time></trkpt><trkpt lat="44.82244745317591" lon="10.917984772301635"><ele>19.0</ele><time>2026-04-26T14:06:13.999Z</time></trkpt><trkpt lat="44.82252868949377" lon="10.917844833211799"><ele>19.0</ele><time>2026-04-26T14:06:14.999Z</time></trkpt><trkpt lat="44.82261341265381" lon="10.917699150635771"><ele>19.0</ele><time>2026-04-26T14:06:15.999Z</time></trkpt><trkpt lat="44.82269843552755" lon="10.917552953298419"><ele>19.0</ele><time>2026-04-26T14:06:16.999Z</time></trkpt><trkpt lat="44.82278401737968" lon="10.917405201180838"><ele>19.0</ele><time>2026-04-26T14:06:17.999Z</time></trkpt><trkpt lat="44.822859820445565" lon="10.917237946109879"><ele>18.75</ele><time>2026-04-26T14:06:18.999Z</time></trkpt><trkpt lat="44.822947000986304" lon="10.917088865771756"><ele>18.5</ele><time>2026-04-26T14:06:19.999Z</time></trkpt><trkpt lat="44.823035812230884" lon="10.916931100543101"><ele>18.25</ele><time>2026-04-26T14:06:20.999Z</time></trkpt><trkpt lat="44.82312747193352" lon="10.91677344747101"><ele>18.0</ele><time>2026-04-26T14:06:21.999Z</time></trkpt><trkpt lat="44.82321958702299" lon="10.916618358106046"><ele>18.0</ele><time>2026-04-26T14:06:22.999Z</time></trkpt><trkpt lat="44.823309107911925" lon="10.916457805682125"><ele>18.0</ele><time>2026-04-26T14:06:23.999Z</time></trkpt><trkpt lat="44.823408806264325" lon="10.916314753201249"><ele>18.0</ele><time>2026-04-26T14:06:24.999Z</time></trkpt><trkpt lat="44.82350184884567" lon="10.916158444769993"><ele>18.0</ele><time>2026-04-26T14:06:25.999Z</time></trkpt><trkpt lat="44.823593853799984" lon="10.91600387956771"><ele>18.25</ele><time>2026-04-26T14:06:26.999Z</time></trkpt><trkpt lat="44.823687521409816" lon="10.915849869195197"><ele>18.5</ele><time>2026-04-26T14:06:27.999Z</time></trkpt><trkpt lat="44.82378190870387" lon="10.915700457068866"><ele>18.75</ele><time>2026-04-26T14:06:28.999Z</time></trkpt><trkpt lat="44.82387869408016" lon="10.91555261986853"><ele>19.0</ele><time>2026-04-26T14:06:29.999Z</time></trkpt><trkpt lat="44.82397672864829" lon="10.915412381360184"><ele>19.0</ele><time>2026-04-26T14:06:30.999Z</time></trkpt><trkpt lat="44.82407192355375" lon="10.915253044028294"><ele>19.0</ele><time>2026-04-26T14:06:31.999Z</time></trkpt><trkpt lat="44.8241828154424" lon="10.915108743863984"><ele>19.0</ele><time>2026-04-26T14:06:32.999Z</time></trkpt><trkpt lat="44.824305402857064" lon="10.91498828069459"><ele>19.0</ele><time>2026-04-26T14:06:33.999Z</time></trkpt><trkpt lat="44.82442029944129" lon="10.914852580097905"><ele>18.75</ele><time>2026-04-26T14:06:34.999Z</time></trkpt><trkpt lat="44.824535317256064" lon="10.914714536607367"><ele>18.5</ele><time>2026-04-26T14:06:35.999Z</time></trkpt><trkpt lat="44.824648495114545" lon="10.914577986020964"><ele>18.25</ele><time>2026-04-26T14:06:36.999Z</time></trkpt><trkpt lat="44.824746827328696" lon="10.914432582445196"><ele>18.0</ele><time>2026-04-26T14:06:37.999Z</time></trkpt><trkpt lat="44.82486081756894" lon="10.914292147075445"><ele>18.0</ele><time>2026-04-26T14:06:38.999Z</time></trkpt><trkpt lat="44.82496693227388" lon="10.9141628812029"><ele>18.0</ele><time>2026-04-26T14:06:39.999Z</time></trkpt><trkpt lat="44.8250820299977" lon="10.914048650709892"><ele>18.0</ele><time>2026-04-26T14:06:40.999Z</time></trkpt><trkpt lat="44.82518121905632" lon="10.913923586307666"><ele>18.0</ele><time>2026-04-26T14:06:41.999Z</time></trkpt><trkpt lat="44.825276853199554" lon="10.91380503507315"><ele>18.0</ele><time>2026-04-26T14:06:42.999Z</time></trkpt><trkpt lat="44.825366426555455" lon="10.913696697600326"><ele>18.0</ele><time>2026-04-26T14:06:43.999Z</time></trkpt><trkpt lat="44.82544937602419" lon="10.913597739514868"><ele>18.0</ele><time>2026-04-26T14:06:44.999Z</time></trkpt><trkpt lat="44.82553451061327" lon="10.913496173151444"><ele>18.0</ele><time>2026-04-26T14:06:45.999Z</time></trkpt><trkpt lat="44.82561831106028" lon="10.913396198220568"><ele>18.0</ele><time>2026-04-26T14:06:46.999Z</time></trkpt><trkpt lat="44.82570493558767" lon="10.913292854389649"><ele>18.0</ele><time>2026-04-26T14:06:47.999Z</time></trkpt><trkpt lat="44.825777152332265" lon="10.91317492370675"><ele>18.0</ele><time>2026-04-26T14:06:48.999Z</time></trkpt><trkpt lat="44.82586590610144" lon="10.913069986362391"><ele>18.0</ele><time>2026-04-26T14:06:49.999Z</time></trkpt><trkpt lat="44.82595179297534" lon="10.912965842524454"><ele>18.0</ele><time>2026-04-26T14:06:50.999Z</time></trkpt><trkpt lat="44.82603590205605" lon="10.912865606360038"><ele>17.6</ele><time>2026-04-26T14:06:51.999Z</time></trkpt><trkpt lat="44.826117548013016" lon="10.912769489486381"><ele>17.200000000000003</ele><time>2026-04-26T14:06:52.999Z</time></trkpt><trkpt lat="44.82619570271038" lon="10.912671066681863"><ele>16.8</ele><time>2026-04-26T14:06:53.999Z</time></trkpt><trkpt lat="44.82627552972508" lon="10.912583237053635"><ele>16.400000000000002</ele><time>2026-04-26T14:06:54.999Z</time></trkpt><trkpt lat="44.826350969051965" lon="10.912491467441516"><ele>16.0</ele><time>2026-04-26T14:06:55.999Z</time></trkpt><trkpt lat="44.82642477927172" lon="10.912402480118855"><ele>16.0</ele><time>2026-04-26T14:06:56.999Z</time></trkpt><trkpt lat="44.826506798807486" lon="10.9123308152022"><ele>16.0</ele><time>2026-04-26T14:06:57.999Z</time></trkpt><trkpt lat="44.82657798823689" lon="10.912243238020064"><ele>16.0</ele><time>2026-04-26T14:06:58.999Z</time></trkpt><trkpt lat="44.82664807916726" lon="10.912153518996275"><ele>16.0</ele><time>2026-04-26T14:07:00Z</time></trkpt><trkpt lat="44.826717046346126" lon="10.912063942407128"><ele>16.0</ele><time>2026-04-26T14:07:01Z</time></trkpt><trkpt lat="44.82678261353541" lon="10.91197652166696"><ele>16.0</ele><time>2026-04-26T14:07:02Z</time></trkpt><trkpt lat="44.826844355866214" lon="10.911889397476482"><ele>16.0</ele><time>2026-04-26T14:07:03Z</time></trkpt><trkpt lat="44.82690656856197" lon="10.911800751261"><ele>16.0</ele><time>2026-04-26T14:07:04Z</time></trkpt><trkpt lat="44.82697009183581" lon="10.91170799285571"><ele>16.0</ele><time>2026-04-26T14:07:05Z</time></trkpt><trkpt lat="44.82703384826622" lon="10.911612229053574"><ele>16.0</ele><time>2026-04-26T14:07:06Z</time></trkpt><trkpt lat="44.82709447546154" lon="10.911519548166979"><ele>16.0</ele><time>2026-04-26T14:07:07Z</time></trkpt><trkpt lat="44.82715541020289" lon="10.911422592723504"><ele>16.0</ele><time>2026-04-26T14:07:08Z</time></trkpt><trkpt lat="44.82721687155067" lon="10.911322224632105"><ele>16.0</ele><time>2026-04-26T14:07:09Z</time></trkpt><trkpt lat="44.82727762968095" lon="10.911219104587625"><ele>16.0</ele><time>2026-04-26T14:07:10Z</time></trkpt><trkpt lat="44.82734335422432" lon="10.911105106983756"><ele>16.0</ele><time>2026-04-26T14:07:11Z</time></trkpt><trkpt lat="44.827400657872545" lon="10.910969640212977"><ele>16.0</ele><time>2026-04-26T14:07:12Z</time></trkpt><trkpt lat="44.82746989154964" lon="10.910853584522043"><ele>16.0</ele><time>2026-04-26T14:07:13Z</time></trkpt><trkpt lat="44.82752693803551" lon="10.910729951940429"><ele>16.0</ele><time>2026-04-26T14:07:14Z</time></trkpt><trkpt lat="44.82758590934739" lon="10.910605895716907"><ele>16.0</ele><time>2026-04-26T14:07:15Z</time></trkpt><trkpt lat="44.82764638105598" lon="10.910475929669998"><ele>16.0</ele><time>2026-04-26T14:07:16Z</time></trkpt><trkpt lat="44.82770982528344" lon="10.91034423729127"><ele>16.0</ele><time>2026-04-26T14:07:17Z</time></trkpt><trkpt lat="44.82777662355013" lon="10.910204205322366"><ele>16.0</ele><time>2026-04-26T14:07:18Z</time></trkpt><trkpt lat="44.82784941856779" lon="10.910054272513271"><ele>16.0</ele><time>2026-04-26T14:07:19Z</time></trkpt><trkpt lat="44.82792155828823" lon="10.90989723247082"><ele>16.0</ele><time>2026-04-26T14:07:20Z</time></trkpt><trkpt lat="44.82799497066412" lon="10.909747013697725"><ele>16.333333333333332</ele><time>2026-04-26T14:07:21Z</time></trkpt><trkpt lat="44.82807064131257" lon="10.90959165962539"><ele>16.666666666666668</ele><time>2026-04-26T14:07:22Z</time></trkpt><trkpt lat="44.828153343419174" lon="10.909413563162586"><ele>17.0</ele><time>2026-04-26T14:07:23Z</time></trkpt><trkpt lat="44.828246885228715" lon="10.90922023410821"><ele>17.0</ele><time>2026-04-26T14:07:24Z</time></trkpt><trkpt lat="44.82835215947953" lon="10.9089966553632"><ele>17.0</ele><time>2026-04-26T14:07:25Z</time></trkpt><trkpt lat="44.82846202952047" lon="10.908784064454027"><ele>17.0</ele><time>2026-04-26T14:07:26Z</time></trkpt><trkpt lat="44.82855084423289" lon="10.908570376457686"><ele>17.333333333333336</ele><time>2026-04-26T14:07:27Z</time></trkpt><trkpt lat="44.82864572752075" lon="10.90837574987235"><ele>17.666666666666668</ele><time>2026-04-26T14:07:28Z</time></trkpt><trkpt lat="44.82874701420434" lon="10.908167681870633"><ele>18.0</ele><time>2026-04-26T14:07:28.999Z</time></trkpt><trkpt lat="44.8288487542463" lon="10.90796234934619"><ele>18.0</ele><time>2026-04-26T14:07:29.999Z</time></trkpt><trkpt lat="44.82896289670019" lon="10.907754679537558"><ele>18.0</ele><time>2026-04-26T14:07:30.999Z</time></trkpt><trkpt lat="44.829050053418065" lon="10.907534926518546"><ele>18.0</ele><time>2026-04-26T14:07:31.999Z</time></trkpt><trkpt lat="44.829146528095556" lon="10.907336534623923"><ele>18.0</ele><time>2026-04-26T14:07:32.999Z</time></trkpt><trkpt lat="44.829249823017044" lon="10.907158606968949"><ele>18.0</ele><time>2026-04-26T14:07:33.999Z</time></trkpt><trkpt lat="44.82934219226663" lon="10.906966478747153"><ele>18.0</ele><time>2026-04-26T14:07:34.999Z</time></trkpt><trkpt lat="44.82942200260929" lon="10.906758804059125"><ele>17.666666666666668</ele><time>2026-04-26T14:07:35.999Z</time></trkpt><trkpt lat="44.82952420846601" lon="10.906585265892911"><ele>17.333333333333336</ele><time>2026-04-26T14:07:36.999Z</time></trkpt><trkpt lat="44.82961332228345" lon="10.906398627062671"><ele>17.0</ele><time>2026-04-26T14:07:37.999Z</time></trkpt><trkpt lat="44.829706082513034" lon="10.906204351109654"><ele>17.0</ele><time>2026-04-26T14:07:38.999Z</time></trkpt><trkpt lat="44.829799397315014" lon="10.906008913868027"><ele>17.0</ele><time>2026-04-26T14:07:39.999Z</time></trkpt><trkpt lat="44.82989060695842" lon="10.905817885538786"><ele>17.0</ele><time>2026-04-26T14:07:40.999Z</time></trkpt><trkpt lat="44.829982666970906" lon="10.905625076043558"><ele>17.0</ele><time>2026-04-26T14:07:41.999Z</time></trkpt><trkpt lat="44.83007317477334" lon="10.905435517652709"><ele>17.0</ele><time>2026-04-26T14:07:42.999Z</time></trkpt><trkpt lat="44.83017104415782" lon="10.905234057937681"><ele>17.0</ele><time>2026-04-26T14:07:43.999Z</time></trkpt><trkpt lat="44.83027083300351" lon="10.905030162804541"><ele>17.333333333333336</ele><time>2026-04-26T14:07:44.999Z</time></trkpt><trkpt lat="44.830369008441174" lon="10.90482993507462"><ele>17.666666666666668</ele><time>2026-04-26T14:07:45.999Z</time></trkpt><trkpt lat="44.83045402780621" lon="10.904656538879971"><ele>18.0</ele><time>2026-04-26T14:07:46.999Z</time></trkpt><trkpt lat="44.83054775292035" lon="10.904464110463842"><ele>18.0</ele><time>2026-04-26T14:07:47.999Z</time></trkpt><trkpt lat="44.83061219338477" lon="10.904295811019079"><ele>18.0</ele><time>2026-04-26T14:07:48.999Z</time></trkpt><trkpt lat="44.8306964867305" lon="10.904129154252795"><ele>18.0</ele><time>2026-04-26T14:07:49.999Z</time></trkpt><trkpt lat="44.83077741506667" lon="10.903961893389074"><ele>18.0</ele><time>2026-04-26T14:07:50.999Z</time></trkpt><trkpt lat="44.830845696224756" lon="10.903813361065486"><ele>18.0</ele><time>2026-04-26T14:07:51.999Z</time></trkpt><trkpt lat="44.830915628823476" lon="10.90366212846505"><ele>18.0</ele><time>2026-04-26T14:07:52.999Z</time></trkpt><trkpt lat="44.830982767461386" lon="10.90352163693"><ele>18.0</ele><time>2026-04-26T14:07:53.999Z</time></trkpt><trkpt lat="44.83105713480514" lon="10.903404477044054"><ele>18.0</ele><time>2026-04-26T14:07:54.999Z</time></trkpt><trkpt lat="44.83110421366245" lon="10.903303228787903"><ele>18.0</ele><time>2026-04-26T14:07:55.999Z</time></trkpt><trkpt lat="44.83114956330974" lon="10.903171551333818"><ele>18.0</ele><time>2026-04-26T14:07:57.999Z</time></trkpt><trkpt lat="44.83121474933829" lon="10.903035448991483"><ele>18.0</ele><time>2026-04-26T14:08:16.999Z</time></trkpt><trkpt lat="44.831258426554875" lon="10.902929808002327"><ele>18.0</ele><time>2026-04-26T14:08:17.999Z</time></trkpt><trkpt lat="44.8313137396237" lon="10.902810856432517"><ele>18.0</ele><time>2026-04-26T14:08:18.999Z</time></trkpt><trkpt lat="44.83136693724481" lon="10.902698918538814"><ele>18.0</ele><time>2026-04-26T14:08:19.999Z</time></trkpt><trkpt lat="44.8314218616262" lon="10.902581312961185"><ele>17.333333333333332</ele><time>2026-04-26T14:08:20.999Z</time></trkpt><trkpt lat="44.83152753741597" lon="10.902395447898023"><ele>16.666666666666664</ele><time>2026-04-26T14:08:21.999Z</time></trkpt><trkpt lat="44.83161419268081" lon="10.90221065381165"><ele>16.0</ele><time>2026-04-26T14:08:22.999Z</time></trkpt><trkpt lat="44.83170849990815" lon="10.902009541447022"><ele>16.0</ele><time>2026-04-26T14:08:23.999Z</time></trkpt><trkpt lat="44.83179260637703" lon="10.901787042388964"><ele>16.0</ele><time>2026-04-26T14:08:24.999Z</time></trkpt><trkpt lat="44.83188572442361" lon="10.901588273203586"><ele>16.0</ele><time>2026-04-26T14:08:25.999Z</time></trkpt><trkpt lat="44.83199478838717" lon="10.901395879049067"><ele>16.666666666666664</ele><time>2026-04-26T14:08:26.999Z</time></trkpt><trkpt lat="44.83208995378888" lon="10.901192364007581"><ele>17.333333333333332</ele><time>2026-04-26T14:08:27.999Z</time></trkpt><trkpt lat="44.83217765333475" lon="10.901006104875135"><ele>18.0</ele><time>2026-04-26T14:08:28.999Z</time></trkpt><trkpt lat="44.83226062340382" lon="10.900829890619926"><ele>18.0</ele><time>2026-04-26T14:08:29.999Z</time></trkpt><trkpt lat="44.832341175686935" lon="10.90065881113971"><ele>18.0</ele><time>2026-04-26T14:08:30.999Z</time></trkpt><trkpt lat="44.83242485270169" lon="10.900481095337021"><ele>18.0</ele><time>2026-04-26T14:08:31.999Z</time></trkpt><trkpt lat="44.832509450198586" lon="10.900301424587276"><ele>18.0</ele><time>2026-04-26T14:08:32.999Z</time></trkpt><trkpt lat="44.83259132860901" lon="10.900125514674775"><ele>18.0</ele><time>2026-04-26T14:08:33.999Z</time></trkpt><trkpt lat="44.83267155022715" lon="10.899949610584198"><ele>18.0</ele><time>2026-04-26T14:08:34.999Z</time></trkpt><trkpt lat="44.83275314726348" lon="10.899764611992813"><ele>18.0</ele><time>2026-04-26T14:08:35.999Z</time></trkpt><trkpt lat="44.83282014908426" lon="10.899570821807574"><ele>18.0</ele><time>2026-04-26T14:08:36.999Z</time></trkpt><trkpt lat="44.8329045973017" lon="10.89939230436667"><ele>18.0</ele><time>2026-04-26T14:08:37.999Z</time></trkpt><trkpt lat="44.83298150442394" lon="10.899207755673014"><ele>18.333333333333332</ele><time>2026-04-26T14:08:38.999Z</time></trkpt><trkpt lat="44.833050482043525" lon="10.899020994515453"><ele>18.666666666666664</ele><time>2026-04-26T14:08:39.999Z</time></trkpt><trkpt lat="44.83314008777834" lon="10.898849090943601"><ele>19.0</ele><time>2026-04-26T14:08:40.999Z</time></trkpt><trkpt lat="44.83320618643894" lon="10.89864125078056"><ele>19.0</ele><time>2026-04-26T14:08:41.999Z</time></trkpt><trkpt lat="44.833300018895876" lon="10.898454132589636"><ele>19.0</ele><time>2026-04-26T14:08:42.999Z</time></trkpt><trkpt lat="44.83338357802914" lon="10.898246113125571"><ele>19.0</ele><time>2026-04-26T14:08:43.999Z</time></trkpt><trkpt lat="44.83344368633645" lon="10.898051887269563"><ele>19.0</ele><time>2026-04-26T14:08:44.999Z</time></trkpt><trkpt lat="44.83350896130778" lon="10.89788745587928"><ele>19.0</ele><time>2026-04-26T14:08:45.999Z</time></trkpt><trkpt lat="44.83358500320087" lon="10.897698662581394"><ele>19.0</ele><time>2026-04-26T14:08:46.999Z</time></trkpt><trkpt lat="44.83366091895223" lon="10.897513026116298"><ele>19.0</ele><time>2026-04-26T14:08:47.999Z</time></trkpt><trkpt lat="44.83373538730324" lon="10.897323799789175"><ele>18.666666666666664</ele><time>2026-04-26T14:08:48.999Z</time></trkpt><trkpt lat="44.83382484200371" lon="10.897148490426854"><ele>18.333333333333332</ele><time>2026-04-26T14:08:49.999Z</time></trkpt><trkpt lat="44.8338994111479" lon="10.896963763619315"><ele>18.0</ele><time>2026-04-26T14:08:50.999Z</time></trkpt><trkpt lat="44.833977059420846" lon="10.896771408971608"><ele>17.666666666666668</ele><time>2026-04-26T14:08:51.999Z</time></trkpt><trkpt lat="44.83405585999386" lon="10.8965761997017"><ele>17.333333333333336</ele><time>2026-04-26T14:08:52.999Z</time></trkpt><trkpt lat="44.83413253184975" lon="10.896386263612344"><ele>17.0</ele><time>2026-04-26T14:08:53.999Z</time></trkpt><trkpt lat="44.83420185079261" lon="10.89621207586144"><ele>17.0</ele><time>2026-04-26T14:08:54.999Z</time></trkpt><trkpt lat="44.834266494287846" lon="10.896049395398592"><ele>17.0</ele><time>2026-04-26T14:08:55.999Z</time></trkpt><trkpt lat="44.83432655773688" lon="10.89589824120633"><ele>17.0</ele><time>2026-04-26T14:08:56.999Z</time></trkpt><trkpt lat="44.834384290379255" lon="10.895752952384562"><ele>17.0</ele><time>2026-04-26T14:08:57.999Z</time></trkpt><trkpt lat="44.83442623104226" lon="10.895615046064774"><ele>17.5</ele><time>2026-04-26T14:08:58.999Z</time></trkpt><trkpt lat="44.834474610564165" lon="10.895498380061273"><ele>18.0</ele><time>2026-04-26T14:08:59.999Z</time></trkpt><trkpt lat="44.83452101544202" lon="10.895392837854365"><ele>18.5</ele><time>2026-04-26T14:09:00.999Z</time></trkpt><trkpt lat="44.83456865551571" lon="10.895271676054051"><ele>19.0</ele><time>2026-04-26T14:09:02.999Z</time></trkpt><trkpt lat="44.8347550914038" lon="10.895349209487167"><ele>19.0</ele><time>2026-04-26T14:09:15Z</time></trkpt><trkpt lat="44.83483102322953" lon="10.895398772501293"><ele>19.0</ele><time>2026-04-26T14:09:16Z</time></trkpt><trkpt lat="44.83492521725586" lon="10.895453157722875"><ele>19.0</ele><time>2026-04-26T14:09:17Z</time></trkpt><trkpt lat="44.83503106258137" lon="10.895512543044097"><ele>19.0</ele><time>2026-04-26T14:09:18Z</time></trkpt><trkpt lat="44.83514326967849" lon="10.895578281634869"><ele>19.0</ele><time>2026-04-26T14:09:19Z</time></trkpt><trkpt lat="44.835260523934494" lon="10.895642255444283"><ele>19.0</ele><time>2026-04-26T14:09:20Z</time></trkpt><trkpt lat="44.83538753128527" lon="10.89571508773672"><ele>19.0</ele><time>2026-04-26T14:09:21Z</time></trkpt><trkpt lat="44.83551851842479" lon="10.895787790398217"><ele>19.0</ele><time>2026-04-26T14:09:22Z</time></trkpt><trkpt lat="44.83565358512873" lon="10.895869423053107"><ele>19.0</ele><time>2026-04-26T14:09:23Z</time></trkpt><trkpt lat="44.835794702000904" lon="10.89595203501283"><ele>19.0</ele><time>2026-04-26T14:09:24Z</time></trkpt><trkpt lat="44.8359352753722" lon="10.896030115546912"><ele>19.0</ele><time>2026-04-26T14:09:25Z</time></trkpt><trkpt lat="44.836084384369734" lon="10.896104665607606"><ele>19.0</ele><time>2026-04-26T14:09:26Z</time></trkpt><trkpt lat="44.836240982683115" lon="10.896165998652444"><ele>18.666666666666664</ele><time>2026-04-26T14:09:27Z</time></trkpt><trkpt lat="44.83640829131478" lon="10.896219798801337"><ele>18.333333333333332</ele><time>2026-04-26T14:09:28Z</time></trkpt><trkpt lat="44.83657108081701" lon="10.896270374100132"><ele>18.0</ele><time>2026-04-26T14:09:29Z</time></trkpt><trkpt lat="44.83673395958068" lon="10.896306532726129"><ele>17.333333333333332</ele><time>2026-04-26T14:09:30Z</time></trkpt><trkpt lat="44.83690273457928" lon="10.896354854182704"><ele>16.666666666666664</ele><time>2026-04-26T14:09:31Z</time></trkpt><trkpt lat="44.83706815644737" lon="10.896399451805776"><ele>16.0</ele><time>2026-04-26T14:09:32Z</time></trkpt><trkpt lat="44.83723179950767" lon="10.896446122606081"><ele>16.0</ele><time>2026-04-26T14:09:33Z</time></trkpt><trkpt lat="44.83740680773339" lon="10.89648620802334"><ele>16.0</ele><time>2026-04-26T14:09:34Z</time></trkpt><trkpt lat="44.837560045127326" lon="10.896546468329683"><ele>16.0</ele><time>2026-04-26T14:09:35Z</time></trkpt><trkpt lat="44.83773228771524" lon="10.896588723798882"><ele>17.0</ele><time>2026-04-26T14:09:36Z</time></trkpt><trkpt lat="44.8379012559627" lon="10.896628190972052"><ele>18.0</ele><time>2026-04-26T14:09:37Z</time></trkpt><trkpt lat="44.838068066639934" lon="10.896673693760219"><ele>19.0</ele><time>2026-04-26T14:09:38Z</time></trkpt><trkpt lat="44.83822955052758" lon="10.896729846966418"><ele>18.333333333333332</ele><time>2026-04-26T14:09:39Z</time></trkpt><trkpt lat="44.8384129971826" lon="10.896769384087657"><ele>17.666666666666668</ele><time>2026-04-26T14:09:40Z</time></trkpt><trkpt lat="44.83857409081024" lon="10.896822905533295"><ele>17.0</ele><time>2026-04-26T14:09:41Z</time></trkpt><trkpt lat="44.8387395118957" lon="10.896862689079924"><ele>17.0</ele><time>2026-04-26T14:09:42Z</time></trkpt><trkpt lat="44.838910885624564" lon="10.896912471373351"><ele>17.0</ele><time>2026-04-26T14:09:43Z</time></trkpt><trkpt lat="44.83908908756997" lon="10.896963099652451"><ele>17.0</ele><time>2026-04-26T14:09:44Z</time></trkpt><trkpt lat="44.839269517059115" lon="10.89701262179113"><ele>17.0</ele><time>2026-04-26T14:09:45Z</time></trkpt><trkpt lat="44.83944875414772" lon="10.897060826267536"><ele>17.0</ele><time>2026-04-26T14:09:46Z</time></trkpt><trkpt lat="44.839628842711825" lon="10.897113986935382"><ele>17.0</ele><time>2026-04-26T14:09:47Z</time></trkpt><trkpt lat="44.83981065337969" lon="10.897161650833315"><ele>17.0</ele><time>2026-04-26T14:09:48Z</time></trkpt><trkpt lat="44.839990760659504" lon="10.897209015847233"><ele>17.0</ele><time>2026-04-26T14:09:49Z</time></trkpt><trkpt lat="44.8401746860025" lon="10.897265846639302"><ele>17.0</ele><time>2026-04-26T14:09:50Z</time></trkpt><trkpt lat="44.8403553818011" lon="10.897316624829099"><ele>16.666666666666668</ele><time>2026-04-26T14:09:51Z</time></trkpt><trkpt lat="44.84054102731957" lon="10.89736845188794"><ele>16.333333333333332</ele><time>2026-04-26T14:09:52Z</time></trkpt><trkpt lat="44.8407212355061" lon="10.897409361948903"><ele>16.0</ele><time>2026-04-26T14:09:53Z</time></trkpt><trkpt lat="44.84090887269244" lon="10.897466137239078"><ele>16.0</ele><time>2026-04-26T14:09:54Z</time></trkpt><trkpt lat="44.84108669915356" lon="10.897512759470583"><ele>16.0</ele><time>2026-04-26T14:09:55Z</time></trkpt><trkpt lat="44.84127045877835" lon="10.897565940455184"><ele>16.0</ele><time>2026-04-26T14:09:56Z</time></trkpt><trkpt lat="44.84145000355932" lon="10.897615477482729"><ele>16.0</ele><time>2026-04-26T14:09:57Z</time></trkpt><trkpt lat="44.841628681102264" lon="10.897664169374265"><ele>16.0</ele><time>2026-04-26T14:09:58Z</time></trkpt><trkpt lat="44.841807718284315" lon="10.89771633615228"><ele>16.0</ele><time>2026-04-26T14:09:59Z</time></trkpt><trkpt lat="44.84198603447799" lon="10.897767895102913"><ele>16.0</ele><time>2026-04-26T14:10:00Z</time></trkpt><trkpt lat="44.84216316981605" lon="10.89781590777306"><ele>16.0</ele><time>2026-04-26T14:10:01Z</time></trkpt><trkpt lat="44.8423373785675" lon="10.897863821387174"><ele>16.0</ele><time>2026-04-26T14:10:02Z</time></trkpt><trkpt lat="44.84251531932459" lon="10.89791431390239"><ele>16.333333333333332</ele><time>2026-04-26T14:10:03Z</time></trkpt><trkpt lat="44.842693200345664" lon="10.897963651331048"><ele>16.666666666666668</ele><time>2026-04-26T14:10:04Z</time></trkpt><trkpt lat="44.84286905232366" lon="10.8980100503675"><ele>17.0</ele><time>2026-04-26T14:10:04.999Z</time></trkpt><trkpt lat="44.84304402606734" lon="10.89805789432777"><ele>17.0</ele><time>2026-04-26T14:10:05.999Z</time></trkpt><trkpt lat="44.84321818662239" lon="10.898104197599704"><ele>17.0</ele><time>2026-04-26T14:10:06.999Z</time></trkpt><trkpt lat="44.843391558940446" lon="10.898152415573009"><ele>17.0</ele><time>2026-04-26T14:10:07.999Z</time></trkpt><trkpt lat="44.843565713777615" lon="10.898201538470792"><ele>17.666666666666668</ele><time>2026-04-26T14:10:08.999Z</time></trkpt><trkpt lat="44.843737884849325" lon="10.898250854779404"><ele>18.333333333333332</ele><time>2026-04-26T14:10:09.999Z</time></trkpt><trkpt lat="44.843909408225926" lon="10.898300656832083"><ele>19.0</ele><time>2026-04-26T14:10:10.999Z</time></trkpt><trkpt lat="44.844084159925856" lon="10.898349631113977"><ele>19.0</ele><time>2026-04-26T14:10:11.999Z</time></trkpt><trkpt lat="44.844256418774336" lon="10.898397824980922"><ele>19.0</ele><time>2026-04-26T14:10:12.999Z</time></trkpt><trkpt lat="44.844428407805985" lon="10.898448301661322"><ele>19.0</ele><time>2026-04-26T14:10:13.999Z</time></trkpt><trkpt lat="44.84460136396525" lon="10.898499079790119"><ele>18.0</ele><time>2026-04-26T14:10:14.999Z</time></trkpt><trkpt lat="44.844774952853435" lon="10.89854682501644"><ele>17.0</ele><time>2026-04-26T14:10:15.999Z</time></trkpt><trkpt lat="44.84494875422292" lon="10.898591773322401"><ele>16.0</ele><time>2026-04-26T14:10:16.999Z</time></trkpt><trkpt lat="44.8451235319634" lon="10.89863588374711"><ele>16.0</ele><time>2026-04-26T14:10:17.999Z</time></trkpt><trkpt lat="44.84529217965281" lon="10.898671641560574"><ele>16.0</ele><time>2026-04-26T14:10:18.999Z</time></trkpt><trkpt lat="44.84546070563289" lon="10.89868653350665"><ele>16.0</ele><time>2026-04-26T14:10:19.999Z</time></trkpt><trkpt lat="44.845634235017606" lon="10.898684645604439"><ele>16.0</ele><time>2026-04-26T14:10:20.999Z</time></trkpt><trkpt lat="44.84579554003664" lon="10.898671413079212"><ele>16.0</ele><time>2026-04-26T14:10:21.999Z</time></trkpt><trkpt lat="44.84594810261722" lon="10.898660319708577"><ele>16.0</ele><time>2026-04-26T14:10:22.999Z</time></trkpt><trkpt lat="44.84608413324142" lon="10.89864319028707"><ele>16.0</ele><time>2026-04-26T14:10:23.999Z</time></trkpt><trkpt lat="44.84621590428487" lon="10.898631682518236"><ele>16.0</ele><time>2026-04-26T14:10:24.999Z</time></trkpt><trkpt lat="44.84633733756906" lon="10.898615067558826"><ele>16.0</ele><time>2026-04-26T14:10:25.999Z</time></trkpt><trkpt lat="44.8464550175393" lon="10.898623436010768"><ele>16.0</ele><time>2026-04-26T14:10:26.999Z</time></trkpt><trkpt lat="44.846561061471775" lon="10.898616682441089"><ele>16.0</ele><time>2026-04-26T14:10:27.999Z</time></trkpt><trkpt lat="44.846660879573776" lon="10.898610352897744"><ele>16.0</ele><time>2026-04-26T14:10:28.999Z</time></trkpt><trkpt lat="44.84675286894413" lon="10.898603744684552"><ele>16.0</ele><time>2026-04-26T14:10:29.999Z</time></trkpt><trkpt lat="44.84683708153838" lon="10.898596781206255"><ele>16.0</ele><time>2026-04-26T14:10:30.999Z</time></trkpt><trkpt lat="44.84690803439678" lon="10.89858924170563"><ele>16.0</ele><time>2026-04-26T14:10:31.999Z</time></trkpt><trkpt lat="44.84697487071813" lon="10.89826987623877"><ele>16.5</ele><time>2026-04-26T14:10:33.999Z</time></trkpt><trkpt lat="44.84700540747131" lon="10.898125765258335"><ele>17.0</ele><time>2026-04-26T14:10:34.999Z</time></trkpt><trkpt lat="44.84705089992263" lon="10.897979602549338"><ele>17.5</ele><time>2026-04-26T14:10:35.999Z</time></trkpt><trkpt lat="44.847107292665044" lon="10.897838899868448"><ele>18.0</ele><time>2026-04-26T14:10:36.999Z</time></trkpt><trkpt lat="44.84717011518401" lon="10.897681663794241"><ele>18.0</ele><time>2026-04-26T14:10:37.999Z</time></trkpt><trkpt lat="44.84722814007404" lon="10.897520461442115"><ele>18.0</ele><time>2026-04-26T14:10:38.999Z</time></trkpt><trkpt lat="44.84729209740836" lon="10.897355488617936"><ele>18.0</ele><time>2026-04-26T14:10:39.999Z</time></trkpt><trkpt lat="44.84736060595134" lon="10.897184276636668"><ele>18.0</ele><time>2026-04-26T14:10:40.999Z</time></trkpt><trkpt lat="44.84742585985273" lon="10.89700978987337"><ele>18.0</ele><time>2026-04-26T14:10:41.999Z</time></trkpt><trkpt lat="44.84749353376051" lon="10.896841242013531"><ele>18.0</ele><time>2026-04-26T14:10:42.999Z</time></trkpt><trkpt lat="44.84756849678686" lon="10.896686161480451"><ele>18.0</ele><time>2026-04-26T14:10:43.999Z</time></trkpt><trkpt lat="44.84762535400071" lon="10.896515967975155"><ele>18.0</ele><time>2026-04-26T14:10:44.999Z</time></trkpt><trkpt lat="44.8476873000751" lon="10.896353829550705"><ele>17.75</ele><time>2026-04-26T14:10:45.999Z</time></trkpt><trkpt lat="44.847751585444705" lon="10.896184697741027"><ele>17.5</ele><time>2026-04-26T14:10:46.999Z</time></trkpt><trkpt lat="44.84782404972088" lon="10.896024622792218"><ele>17.25</ele><time>2026-04-26T14:10:47.999Z</time></trkpt><trkpt lat="44.84789137343257" lon="10.895853851511358"><ele>17.0</ele><time>2026-04-26T14:10:48.999Z</time></trkpt><trkpt lat="44.84795122069326" lon="10.89567361735043"><ele>17.0</ele><time>2026-04-26T14:10:49.999Z</time></trkpt><trkpt lat="44.84802762459794" lon="10.895500086175474"><ele>17.0</ele><time>2026-04-26T14:10:50.999Z</time></trkpt><trkpt lat="44.84809576139762" lon="10.895319980923801"><ele>17.0</ele><time>2026-04-26T14:10:51.999Z</time></trkpt><trkpt lat="44.84815160231921" lon="10.895133786013448"><ele>17.0</ele><time>2026-04-26T14:10:52.999Z</time></trkpt><trkpt lat="44.84822156253617" lon="10.894952278819515"><ele>16.75</ele><time>2026-04-26T14:10:53.999Z</time></trkpt><trkpt lat="44.848290607099976" lon="10.894769429825981"><ele>16.5</ele><time>2026-04-26T14:10:54.999Z</time></trkpt><trkpt lat="44.84836063901291" lon="10.89458634390542"><ele>16.25</ele><time>2026-04-26T14:10:55.999Z</time></trkpt><trkpt lat="44.848432710773515" lon="10.8944012126234"><ele>16.0</ele><time>2026-04-26T14:10:56.999Z</time></trkpt><trkpt lat="44.848501757900934" lon="10.894215817568707"><ele>16.0</ele><time>2026-04-26T14:10:57.999Z</time></trkpt><trkpt lat="44.8485711616705" lon="10.89403250310544"><ele>16.0</ele><time>2026-04-26T14:10:58.999Z</time></trkpt><trkpt lat="44.848642392940775" lon="10.893849083536676"><ele>16.0</ele><time>2026-04-26T14:10:59.999Z</time></trkpt><trkpt lat="44.84876687966978" lon="10.893522845396987"><ele>16.25</ele><time>2026-04-26T14:11:01.999Z</time></trkpt><trkpt lat="44.84882642615328" lon="10.893361934423595"><ele>16.5</ele><time>2026-04-26T14:11:02.999Z</time></trkpt><trkpt lat="44.848888601226825" lon="10.893204789855165"><ele>16.75</ele><time>2026-04-26T14:11:03.999Z</time></trkpt><trkpt lat="44.84895048487959" lon="10.893043785802123"><ele>17.0</ele><time>2026-04-26T14:11:04.999Z</time></trkpt><trkpt lat="44.84900896266835" lon="10.892891865863344"><ele>17.0</ele><time>2026-04-26T14:11:05.999Z</time></trkpt><trkpt lat="44.849085998008256" lon="10.8927365486033"><ele>17.0</ele><time>2026-04-26T14:11:06.999Z</time></trkpt><trkpt lat="44.84914888197409" lon="10.892573424498282"><ele>17.0</ele><time>2026-04-26T14:11:07.999Z</time></trkpt><trkpt lat="44.84921292633008" lon="10.89240729018188"><ele>17.0</ele><time>2026-04-26T14:11:08.999Z</time></trkpt><trkpt lat="44.8492634697763" lon="10.892238871219174"><ele>17.0</ele><time>2026-04-26T14:11:09.999Z</time></trkpt><trkpt lat="44.84932857445569" lon="10.892081471692899"><ele>17.0</ele><time>2026-04-26T14:11:10.999Z</time></trkpt><trkpt lat="44.84938819481204" lon="10.891921641539597"><ele>17.0</ele><time>2026-04-26T14:11:12Z</time></trkpt><trkpt lat="44.84944438666777" lon="10.891773540359667"><ele>17.0</ele><time>2026-04-26T14:11:13Z</time></trkpt><trkpt lat="44.84949613412185" lon="10.891623648704298"><ele>17.0</ele><time>2026-04-26T14:11:14Z</time></trkpt><trkpt lat="44.84956658814382" lon="10.891489874161474"><ele>17.0</ele><time>2026-04-26T14:11:15Z</time></trkpt><trkpt lat="44.849623915287744" lon="10.891341164741874"><ele>17.0</ele><time>2026-04-26T14:11:16Z</time></trkpt><trkpt lat="44.84967945387448" lon="10.891197094912153"><ele>17.0</ele><time>2026-04-26T14:11:17Z</time></trkpt><trkpt lat="44.84973933603802" lon="10.891041757640464"><ele>17.0</ele><time>2026-04-26T14:11:18Z</time></trkpt><trkpt lat="44.849785946458226" lon="10.890873574286816"><ele>17.0</ele><time>2026-04-26T14:11:19Z</time></trkpt><trkpt lat="44.84984566336461" lon="10.89071865153069"><ele>17.0</ele><time>2026-04-26T14:11:20Z</time></trkpt><trkpt lat="44.84990495731448" lon="10.890572253645537"><ele>17.0</ele><time>2026-04-26T14:11:21Z</time></trkpt><trkpt lat="44.84996665217383" lon="10.890412876516306"><ele>17.0</ele><time>2026-04-26T14:11:22Z</time></trkpt><trkpt lat="44.85003406718378" lon="10.890259888626137"><ele>17.0</ele><time>2026-04-26T14:11:23Z</time></trkpt><trkpt lat="44.850090405838706" lon="10.890096172050232"><ele>17.0</ele><time>2026-04-26T14:11:24Z</time></trkpt><trkpt lat="44.85015339396883" lon="10.889936259315704"><ele>17.0</ele><time>2026-04-26T14:11:25Z</time></trkpt><trkpt lat="44.85021445484831" lon="10.88978073558635"><ele>17.25</ele><time>2026-04-26T14:11:26Z</time></trkpt><trkpt lat="44.85028544889985" lon="10.889631204607573"><ele>17.5</ele><time>2026-04-26T14:11:27Z</time></trkpt><trkpt lat="44.8503371095126" lon="10.889464407520336"><ele>17.75</ele><time>2026-04-26T14:11:28Z</time></trkpt><trkpt lat="44.85039835176384" lon="10.889305564386262"><ele>18.0</ele><time>2026-04-26T14:11:29Z</time></trkpt><trkpt lat="44.850473073304045" lon="10.889147295644817"><ele>18.0</ele><time>2026-04-26T14:11:30Z</time></trkpt><trkpt lat="44.8505388414861" lon="10.888978308289294"><ele>18.0</ele><time>2026-04-26T14:11:31Z</time></trkpt><trkpt lat="44.85060395697867" lon="10.888810997993145"><ele>18.0</ele><time>2026-04-26T14:11:32Z</time></trkpt><trkpt lat="44.85066963812766" lon="10.888642234349053"><ele>18.0</ele><time>2026-04-26T14:11:33Z</time></trkpt><trkpt lat="44.85073571328923" lon="10.88847245823371"><ele>18.0</ele><time>2026-04-26T14:11:34Z</time></trkpt><trkpt lat="44.850803211028975" lon="10.888299026907818"><ele>18.0</ele><time>2026-04-26T14:11:35Z</time></trkpt><trkpt lat="44.85086835397755" lon="10.88813164611737"><ele>18.0</ele><time>2026-04-26T14:11:36Z</time></trkpt><trkpt lat="44.85093349099838" lon="10.887964280536316"><ele>18.0</ele><time>2026-04-26T14:11:37Z</time></trkpt><trkpt lat="44.85099304626942" lon="10.887813210984527"><ele>18.25</ele><time>2026-04-26T14:11:38Z</time></trkpt><trkpt lat="44.851054534167154" lon="10.8876575249026"><ele>18.5</ele><time>2026-04-26T14:11:39Z</time></trkpt><trkpt lat="44.85111426647426" lon="10.887504772769484"><ele>18.75</ele><time>2026-04-26T14:11:40Z</time></trkpt><trkpt lat="44.85117303426133" lon="10.8873344735996"><ele>19.0</ele><time>2026-04-26T14:11:41Z</time></trkpt><trkpt lat="44.85121802024063" lon="10.887163817405833"><ele>19.0</ele><time>2026-04-26T14:11:42Z</time></trkpt><trkpt lat="44.851252693646124" lon="10.886995329728194"><ele>19.0</ele><time>2026-04-26T14:11:43Z</time></trkpt><trkpt lat="44.85129023336056" lon="10.88682358728267"><ele>19.0</ele><time>2026-04-26T14:11:44Z</time></trkpt><trkpt lat="44.851325644192016" lon="10.886643801019257"><ele>19.0</ele><time>2026-04-26T14:11:45Z</time></trkpt><trkpt lat="44.85135797567551" lon="10.886468954827475"><ele>18.5</ele><time>2026-04-26T14:11:46Z</time></trkpt><trkpt lat="44.851385147271586" lon="10.886308257650624"><ele>18.0</ele><time>2026-04-26T14:11:47Z</time></trkpt><trkpt lat="44.851406666495755" lon="10.886164449806884"><ele>17.5</ele><time>2026-04-26T14:11:48Z</time></trkpt><trkpt lat="44.85143915983432" lon="10.885947918434075"><ele>17.0</ele><time>2026-04-26T14:11:49Z</time></trkpt><trkpt lat="44.85146167027907" lon="10.885779822511406"><ele>17.0</ele><time>2026-04-26T14:11:50Z</time></trkpt><trkpt lat="44.85149317432587" lon="10.885609756061967"><ele>17.0</ele><time>2026-04-26T14:11:51Z</time></trkpt><trkpt lat="44.85152687699728" lon="10.88546185451054"><ele>17.0</ele><time>2026-04-26T14:11:52Z</time></trkpt><trkpt lat="44.85155709059953" lon="10.88532084652119"><ele>17.0</ele><time>2026-04-26T14:11:53Z</time></trkpt><trkpt lat="44.85160585562588" lon="10.885205212898306"><ele>17.0</ele><time>2026-04-26T14:11:54Z</time></trkpt><trkpt lat="44.85164302974331" lon="10.885070780274347"><ele>17.0</ele><time>2026-04-26T14:11:55Z</time></trkpt><trkpt lat="44.851685417583035" lon="10.884917493268082"><ele>17.0</ele><time>2026-04-26T14:11:56Z</time></trkpt><trkpt lat="44.85172796584743" lon="10.884763626135664"><ele>17.0</ele><time>2026-04-26T14:11:57Z</time></trkpt><trkpt lat="44.85177301853475" lon="10.884600702193815"><ele>17.0</ele><time>2026-04-26T14:11:58Z</time></trkpt><trkpt lat="44.851820136754526" lon="10.884431014224534"><ele>16.75</ele><time>2026-04-26T14:11:59Z</time></trkpt><trkpt lat="44.851854892836585" lon="10.884245461468668"><ele>16.5</ele><time>2026-04-26T14:12:00Z</time></trkpt><trkpt lat="44.851909055437275" lon="10.884063213324014"><ele>16.25</ele><time>2026-04-26T14:12:01Z</time></trkpt><trkpt lat="44.85196070879058" lon="10.883879144153846"><ele>16.0</ele><time>2026-04-26T14:12:02Z</time></trkpt><trkpt lat="44.852010029613965" lon="10.88369916456376"><ele>16.0</ele><time>2026-04-26T14:12:03Z</time></trkpt><trkpt lat="44.85205573804712" lon="10.883535128931364"><ele>16.0</ele><time>2026-04-26T14:12:04Z</time></trkpt><trkpt lat="44.85210963173328" lon="10.883364503479164"><ele>16.0</ele><time>2026-04-26T14:12:05Z</time></trkpt><trkpt lat="44.85215678776749" lon="10.88318008020292"><ele>16.0</ele><time>2026-04-26T14:12:06Z</time></trkpt><trkpt lat="44.85221012334763" lon="10.883004838573736"><ele>16.25</ele><time>2026-04-26T14:12:07Z</time></trkpt><trkpt lat="44.8522572520077" lon="10.882831498561572"><ele>16.5</ele><time>2026-04-26T14:12:08Z</time></trkpt><trkpt lat="44.85230639022207" lon="10.882656328797614"><ele>16.75</ele><time>2026-04-26T14:12:09Z</time></trkpt><trkpt lat="44.852352701596324" lon="10.882482443821571"><ele>17.0</ele><time>2026-04-26T14:12:10Z</time></trkpt><trkpt lat="44.852407132425235" lon="10.882300912094749"><ele>17.5</ele><time>2026-04-26T14:12:11Z</time></trkpt><trkpt lat="44.85247055363642" lon="10.882126647417964"><ele>18.0</ele><time>2026-04-26T14:12:12Z</time></trkpt><trkpt lat="44.85251954417311" lon="10.881952533854147"><ele>18.5</ele><time>2026-04-26T14:12:13Z</time></trkpt><trkpt lat="44.85256425473616" lon="10.88179154342475"><ele>19.0</ele><time>2026-04-26T14:12:14Z</time></trkpt><trkpt lat="44.85260659904506" lon="10.881639073075936"><ele>18.75</ele><time>2026-04-26T14:12:15Z</time></trkpt><trkpt lat="44.85265204369672" lon="10.88147543933606"><ele>18.5</ele><time>2026-04-26T14:12:16Z</time></trkpt><trkpt lat="44.852694522825175" lon="10.881322483616897"><ele>18.25</ele><time>2026-04-26T14:12:17Z</time></trkpt><trkpt lat="44.85274088794472" lon="10.881155535463506"><ele>18.0</ele><time>2026-04-26T14:12:18Z</time></trkpt><trkpt lat="44.852774298274376" lon="10.88097882339098"><ele>17.75</ele><time>2026-04-26T14:12:19Z</time></trkpt><trkpt lat="44.852834092801956" lon="10.880819930264455"><ele>17.5</ele><time>2026-04-26T14:12:20Z</time></trkpt><trkpt lat="44.85288055317311" lon="10.88065263910479"><ele>17.25</ele><time>2026-04-26T14:12:21Z</time></trkpt><trkpt lat="44.8529262884218" lon="10.880487959024594"><ele>17.0</ele><time>2026-04-26T14:12:22Z</time></trkpt><trkpt lat="44.85296055638932" lon="10.88033418104429"><ele>17.0</ele><time>2026-04-26T14:12:23Z</time></trkpt><trkpt lat="44.852997124607555" lon="10.880184251494253"><ele>17.0</ele><time>2026-04-26T14:12:24Z</time></trkpt><trkpt lat="44.853038708351306" lon="10.880037676078855"><ele>17.0</ele><time>2026-04-26T14:12:25Z</time></trkpt><trkpt lat="44.85308244847085" lon="10.879885291257091"><ele>17.0</ele><time>2026-04-26T14:12:26Z</time></trkpt><trkpt lat="44.85312416808549" lon="10.8797264438772"><ele>17.0</ele><time>2026-04-26T14:12:27Z</time></trkpt><trkpt lat="44.85317272965935" lon="10.879556221967718"><ele>17.0</ele><time>2026-04-26T14:12:27.999Z</time></trkpt><trkpt lat="44.85322530880719" lon="10.879373563913074"><ele>17.0</ele><time>2026-04-26T14:12:28.999Z</time></trkpt><trkpt lat="44.85328042373453" lon="10.879176113377252"><ele>17.0</ele><time>2026-04-26T14:12:29.999Z</time></trkpt><trkpt lat="44.85333840566157" lon="10.878970967109904"><ele>17.333333333333336</ele><time>2026-04-26T14:12:30.999Z</time></trkpt><trkpt lat="44.85339275695926" lon="10.878770294310636"><ele>17.666666666666668</ele><time>2026-04-26T14:12:31.999Z</time></trkpt><trkpt lat="44.853450094354606" lon="10.878559093250606"><ele>18.0</ele><time>2026-04-26T14:12:32.999Z</time></trkpt><trkpt lat="44.85350810712234" lon="10.87834635554993"><ele>18.0</ele><time>2026-04-26T14:12:33.999Z</time></trkpt><trkpt lat="44.85356982721384" lon="10.878127936600045"><ele>18.0</ele><time>2026-04-26T14:12:34.999Z</time></trkpt><trkpt lat="44.85364978786487" lon="10.877909738566448"><ele>18.0</ele><time>2026-04-26T14:12:35.999Z</time></trkpt><trkpt lat="44.85371599437432" lon="10.87767791481785"><ele>17.666666666666668</ele><time>2026-04-26T14:12:36.999Z</time></trkpt><trkpt lat="44.85378583866295" lon="10.877433354091623"><ele>17.333333333333336</ele><time>2026-04-26T14:12:37.999Z</time></trkpt><trkpt lat="44.8538586641868" lon="10.877178353743956"><ele>17.0</ele><time>2026-04-26T14:12:38.999Z</time></trkpt><trkpt lat="44.85392977731226" lon="10.876929066301045"><ele>16.666666666666668</ele><time>2026-04-26T14:12:39.999Z</time></trkpt><trkpt lat="44.85399762336091" lon="10.876691084429087"><ele>16.333333333333332</ele><time>2026-04-26T14:12:40.999Z</time></trkpt><trkpt lat="44.85406341075643" lon="10.87646036173619"><ele>16.0</ele><time>2026-04-26T14:12:41.999Z</time></trkpt><trkpt lat="44.8541322977586" lon="10.87621942570408"><ele>16.0</ele><time>2026-04-26T14:12:42.999Z</time></trkpt><trkpt lat="44.85420037179934" lon="10.87598133309263"><ele>16.0</ele><time>2026-04-26T14:12:43.999Z</time></trkpt><trkpt lat="44.854261872650476" lon="10.875766230564816"><ele>16.0</ele><time>2026-04-26T14:12:44.999Z</time></trkpt><trkpt lat="44.8543162938945" lon="10.875572148696266"><ele>16.25</ele><time>2026-04-26T14:12:45.999Z</time></trkpt><trkpt lat="44.85436194777119" lon="10.875401238673405"><ele>16.5</ele><time>2026-04-26T14:12:46.999Z</time></trkpt><trkpt lat="44.85440511466049" lon="10.87524046710449"><ele>16.75</ele><time>2026-04-26T14:12:47.999Z</time></trkpt><trkpt lat="44.85445109075592" lon="10.875072113914696"><ele>17.0</ele><time>2026-04-26T14:12:48.999Z</time></trkpt><trkpt lat="44.85450730350133" lon="10.874870807522848"><ele>17.0</ele><time>2026-04-26T14:12:49.999Z</time></trkpt><trkpt lat="44.85456752763754" lon="10.87465513574044"><ele>17.0</ele><time>2026-04-26T14:12:50.999Z</time></trkpt><trkpt lat="44.854630887256675" lon="10.874428235300128"><ele>17.0</ele><time>2026-04-26T14:12:51.999Z</time></trkpt><trkpt lat="44.85469380918045" lon="10.874202867172805"><ele>17.0</ele><time>2026-04-26T14:12:52.999Z</time></trkpt><trkpt lat="44.854759240037204" lon="10.873968487085419"><ele>17.0</ele><time>2026-04-26T14:12:53.999Z</time></trkpt><trkpt lat="44.85482071329674" lon="10.87374828353605"><ele>17.0</ele><time>2026-04-26T14:12:54.999Z</time></trkpt><trkpt lat="44.85488683366331" lon="10.873512164534505"><ele>17.333333333333336</ele><time>2026-04-26T14:12:55.999Z</time></trkpt><trkpt lat="44.854953982983766" lon="10.873275332509012"><ele>17.666666666666668</ele><time>2026-04-26T14:12:56.999Z</time></trkpt><trkpt lat="44.85502086892612" lon="10.873039429409122"><ele>18.0</ele><time>2026-04-26T14:12:57.999Z</time></trkpt><trkpt lat="44.85508763213088" lon="10.872803959177576"><ele>18.0</ele><time>2026-04-26T14:12:58.999Z</time></trkpt><trkpt lat="44.855149378291365" lon="10.87258618379328"><ele>18.0</ele><time>2026-04-26T14:12:59.999Z</time></trkpt><trkpt lat="44.85519230437533" lon="10.872373563865118"><ele>18.0</ele><time>2026-04-26T14:13:00.999Z</time></trkpt><trkpt lat="44.85525969403777" lon="10.872197106028068"><ele>18.0</ele><time>2026-04-26T14:13:01.999Z</time></trkpt><trkpt lat="44.855309152622425" lon="10.872023013633715"><ele>18.0</ele><time>2026-04-26T14:13:02.999Z</time></trkpt><trkpt lat="44.855361766973225" lon="10.871837798617557"><ele>18.0</ele><time>2026-04-26T14:13:03.999Z</time></trkpt><trkpt lat="44.85541885786361" lon="10.871636825008895"><ele>18.0</ele><time>2026-04-26T14:13:04.999Z</time></trkpt><trkpt lat="44.85547637408916" lon="10.871434354177955"><ele>18.25</ele><time>2026-04-26T14:13:05.999Z</time></trkpt><trkpt lat="44.85553458521206" lon="10.871229437124725"><ele>18.5</ele><time>2026-04-26T14:13:06.999Z</time></trkpt><trkpt lat="44.855591905127596" lon="10.87103399852294"><ele>18.75</ele><time>2026-04-26T14:13:07.999Z</time></trkpt><trkpt lat="44.85564353772998" lon="10.870862189279093"><ele>19.0</ele><time>2026-04-26T14:13:08.999Z</time></trkpt><trkpt lat="44.85568980379476" lon="10.870708237376368"><ele>19.0</ele><time>2026-04-26T14:13:09.999Z</time></trkpt><trkpt lat="44.855730689720275" lon="10.870571406352669"><ele>19.0</ele><time>2026-04-26T14:13:10.999Z</time></trkpt><trkpt lat="44.855767303668536" lon="10.87044884852096"><ele>19.0</ele><time>2026-04-26T14:13:11.999Z</time></trkpt><trkpt lat="44.855798342295664" lon="10.870344952914962"><ele>19.0</ele><time>2026-04-26T14:13:12.999Z</time></trkpt><trkpt lat="44.855821207283626" lon="10.87020447102179"><ele>19.0</ele><time>2026-04-26T14:13:14.999Z</time></trkpt><trkpt lat="44.855735120775066" lon="10.870100254251556"><ele>18.833333333333332</ele><time>2026-04-26T14:13:16.999Z</time></trkpt><trkpt lat="44.85566047842716" lon="10.870040056548778"><ele>18.666666666666664</ele><time>2026-04-26T14:13:19Z</time></trkpt><trkpt lat="44.85558623425278" lon="10.869983755015248"><ele>18.5</ele><time>2026-04-26T14:13:21Z</time></trkpt><trkpt lat="44.85552481930961" lon="10.869921809155139"><ele>18.333333333333332</ele><time>2026-04-26T14:13:23Z</time></trkpt><trkpt lat="44.85546702622348" lon="10.869870828249367"><ele>18.166666666666668</ele><time>2026-04-26T14:13:25Z</time></trkpt><trkpt lat="44.85541049253255" lon="10.869830144132154"><ele>18.0</ele><time>2026-04-26T14:13:27Z</time></trkpt><trkpt lat="44.855341447708774" lon="10.86974118444224"><ele>18.0</ele><time>2026-04-26T14:13:29Z</time></trkpt><trkpt lat="44.85527605231592" lon="10.869682569707871"><ele>18.0</ele><time>2026-04-26T14:13:30Z</time></trkpt><trkpt lat="44.855184341930034" lon="10.869626414497414"><ele>18.0</ele><time>2026-04-26T14:13:31Z</time></trkpt><trkpt lat="44.855105250276615" lon="10.869528427075712"><ele>18.0</ele><time>2026-04-26T14:13:32Z</time></trkpt><trkpt lat="44.85501158185604" lon="10.869443375535555"><ele>18.0</ele><time>2026-04-26T14:13:33Z</time></trkpt><trkpt lat="44.85491139589861" lon="10.869351002023253"><ele>18.0</ele><time>2026-04-26T14:13:34Z</time></trkpt><trkpt lat="44.85480069050861" lon="10.86924731113229"><ele>18.0</ele><time>2026-04-26T14:13:35Z</time></trkpt><trkpt lat="44.85469051011506" lon="10.869144305214698"><ele>18.0</ele><time>2026-04-26T14:13:36Z</time></trkpt><trkpt lat="44.85458428469448" lon="10.869045350343365"><ele>18.0</ele><time>2026-04-26T14:13:37Z</time></trkpt><trkpt lat="44.85448138181628" lon="10.868952866904317"><ele>18.0</ele><time>2026-04-26T14:13:38Z</time></trkpt><trkpt lat="44.85437440162645" lon="10.868886641039214"><ele>18.0</ele><time>2026-04-26T14:13:39Z</time></trkpt><trkpt lat="44.85428997018648" lon="10.868788892181673"><ele>18.0</ele><time>2026-04-26T14:13:40Z</time></trkpt><trkpt lat="44.85424455125882" lon="10.868659869112667"><ele>18.0</ele><time>2026-04-26T14:13:41Z</time></trkpt><trkpt lat="44.85421607303162" lon="10.868537491138794"><ele>18.0</ele><time>2026-04-26T14:13:42Z</time></trkpt><trkpt lat="44.854228147277226" lon="10.86839728654486"><ele>17.5</ele><time>2026-04-26T14:13:43Z</time></trkpt><trkpt lat="44.85424492288941" lon="10.868241583535703"><ele>17.0</ele><time>2026-04-26T14:13:44Z</time></trkpt><trkpt lat="44.8542643101515" lon="10.86802766099849"><ele>16.5</ele><time>2026-04-26T14:13:45Z</time></trkpt><trkpt lat="44.854285841953676" lon="10.867788506910296"><ele>16.0</ele><time>2026-04-26T14:13:46Z</time></trkpt><trkpt lat="44.85430527090987" lon="10.867572709106716"><ele>16.0</ele><time>2026-04-26T14:13:47Z</time></trkpt><trkpt lat="44.854321598414636" lon="10.867385653489054"><ele>16.0</ele><time>2026-04-26T14:13:48Z</time></trkpt><trkpt lat="44.854336801275394" lon="10.867211226978348"><ele>16.0</ele><time>2026-04-26T14:13:49Z</time></trkpt><trkpt lat="44.85435023496844" lon="10.867057098593978"><ele>16.0</ele><time>2026-04-26T14:13:50Z</time></trkpt><trkpt lat="44.85436260551519" lon="10.866915168034309"><ele>16.0</ele><time>2026-04-26T14:13:51Z</time></trkpt><trkpt lat="44.85437387381046" lon="10.866785883802732"><ele>16.0</ele><time>2026-04-26T14:13:52Z</time></trkpt><trkpt lat="44.854384818335674" lon="10.866660314311162"><ele>16.0</ele><time>2026-04-26T14:13:53Z</time></trkpt><trkpt lat="44.85439611864058" lon="10.86653066287786"><ele>16.0</ele><time>2026-04-26T14:13:54Z</time></trkpt><trkpt lat="44.85440786956024" lon="10.866395841410164"><ele>16.0</ele><time>2026-04-26T14:13:55Z</time></trkpt><trkpt lat="44.8544197897336" lon="10.866258971694057"><ele>16.0</ele><time>2026-04-26T14:13:56Z</time></trkpt><trkpt lat="44.854432794599774" lon="10.866113950538201"><ele>16.0</ele><time>2026-04-26T14:13:57Z</time></trkpt><trkpt lat="44.85444555583796" lon="10.865971646208301"><ele>16.0</ele><time>2026-04-26T14:13:58Z</time></trkpt><trkpt lat="44.85445909485827" lon="10.865820668546393"><ele>16.0</ele><time>2026-04-26T14:13:59Z</time></trkpt><trkpt lat="44.854473277507836" lon="10.865662513615202"><ele>16.0</ele><time>2026-04-26T14:14:00Z</time></trkpt><trkpt lat="44.85448695823293" lon="10.86550995577433"><ele>16.0</ele><time>2026-04-26T14:14:01Z</time></trkpt><trkpt lat="44.854500689279" lon="10.865353739769132"><ele>16.0</ele><time>2026-04-26T14:14:02Z</time></trkpt><trkpt lat="44.85451517996111" lon="10.865188131979638"><ele>16.0</ele><time>2026-04-26T14:14:03Z</time></trkpt><trkpt lat="44.854530037766494" lon="10.865018143769994"><ele>16.0</ele><time>2026-04-26T14:14:04Z</time></trkpt><trkpt lat="44.85454494520318" lon="10.864843271929194"><ele>16.0</ele><time>2026-04-26T14:14:05Z</time></trkpt><trkpt lat="44.854560097292065" lon="10.864665530208693"><ele>16.0</ele><time>2026-04-26T14:14:06Z</time></trkpt><trkpt lat="44.854575587542435" lon="10.864483821698181"><ele>16.0</ele><time>2026-04-26T14:14:07Z</time></trkpt><trkpt lat="44.85459114143351" lon="10.864300375500092"><ele>16.0</ele><time>2026-04-26T14:14:08Z</time></trkpt><trkpt lat="44.85460638540818" lon="10.864115978150403"><ele>16.25</ele><time>2026-04-26T14:14:09Z</time></trkpt><trkpt lat="44.85460757367697" lon="10.863927896642123"><ele>16.5</ele><time>2026-04-26T14:14:10Z</time></trkpt><trkpt lat="44.854626482236675" lon="10.86374051594407"><ele>16.75</ele><time>2026-04-26T14:14:11Z</time></trkpt><trkpt lat="44.85464232924084" lon="10.863550455076961"><ele>17.0</ele><time>2026-04-26T14:14:12Z</time></trkpt><trkpt lat="44.85465650861865" lon="10.863362076533454"><ele>17.0</ele><time>2026-04-26T14:14:13Z</time></trkpt><trkpt lat="44.85467180435559" lon="10.863178309121174"><ele>17.0</ele><time>2026-04-26T14:14:14Z</time></trkpt><trkpt lat="44.854687996077104" lon="10.862985107896293"><ele>17.0</ele><time>2026-04-26T14:14:15Z</time></trkpt><trkpt lat="44.85470542769297" lon="10.862790184818222"><ele>17.0</ele><time>2026-04-26T14:14:16Z</time></trkpt><trkpt lat="44.85472045537883" lon="10.86259932443604"><ele>17.0</ele><time>2026-04-26T14:14:17Z</time></trkpt><trkpt lat="44.854752218794786" lon="10.862409538521531"><ele>17.0</ele><time>2026-04-26T14:14:18Z</time></trkpt><trkpt lat="44.854754301578694" lon="10.8622160409499"><ele>17.0</ele><time>2026-04-26T14:14:19Z</time></trkpt><trkpt lat="44.85477000709525" lon="10.86203748183531"><ele>17.0</ele><time>2026-04-26T14:14:20Z</time></trkpt><trkpt lat="44.85479203411981" lon="10.861864660276074"><ele>17.25</ele><time>2026-04-26T14:14:21Z</time></trkpt><trkpt lat="44.854804258547354" lon="10.861689382972376"><ele>17.5</ele><time>2026-04-26T14:14:22Z</time></trkpt><trkpt lat="44.85481886743055" lon="10.86151638930434"><ele>17.75</ele><time>2026-04-26T14:14:23Z</time></trkpt><trkpt lat="44.85483271283696" lon="10.861343122705195"><ele>18.0</ele><time>2026-04-26T14:14:24Z</time></trkpt><trkpt lat="44.854848542045836" lon="10.861179328463596"><ele>18.0</ele><time>2026-04-26T14:14:25Z</time></trkpt><trkpt lat="44.85486151564659" lon="10.861028121669598"><ele>18.0</ele><time>2026-04-26T14:14:26Z</time></trkpt><trkpt lat="44.85486990990867" lon="10.860891051052954"><ele>18.0</ele><time>2026-04-26T14:14:27Z</time></trkpt><trkpt lat="44.854886713928394" lon="10.8607611419685"><ele>18.0</ele><time>2026-04-26T14:14:28Z</time></trkpt><trkpt lat="44.85489238590096" lon="10.860630222946215"><ele>18.0</ele><time>2026-04-26T14:14:29Z</time></trkpt><trkpt lat="44.85490488711349" lon="10.860511734565113"><ele>18.166666666666668</ele><time>2026-04-26T14:14:30Z</time></trkpt><trkpt lat="44.85491711170112" lon="10.860401212948231"><ele>18.333333333333332</ele><time>2026-04-26T14:14:31Z</time></trkpt><trkpt lat="44.85492711276487" lon="10.860292561260067"><ele>18.5</ele><time>2026-04-26T14:14:32Z</time></trkpt><trkpt lat="44.85493346429518" lon="10.860182388888203"><ele>18.666666666666664</ele><time>2026-04-26T14:14:33Z</time></trkpt><trkpt lat="44.85494118108048" lon="10.860050549796442"><ele>18.833333333333332</ele><time>2026-04-26T14:14:34Z</time></trkpt><trkpt lat="44.854943024203" lon="10.859936536186712"><ele>19.0</ele><time>2026-04-26T14:14:35Z</time></trkpt><trkpt lat="44.85494720567212" lon="10.859822625727102"><ele>19.0</ele><time>2026-04-26T14:14:36Z</time></trkpt><trkpt lat="44.854954286036" lon="10.859667880069187"><ele>19.0</ele><time>2026-04-26T14:14:37Z</time></trkpt><trkpt lat="44.854963739112485" lon="10.859512086796478"><ele>19.0</ele><time>2026-04-26T14:14:38Z</time></trkpt><trkpt lat="44.85497707838272" lon="10.859358973793265"><ele>19.0</ele><time>2026-04-26T14:14:39Z</time></trkpt><trkpt lat="44.854978547833305" lon="10.859189337180933"><ele>18.75</ele><time>2026-04-26T14:14:40Z</time></trkpt><trkpt lat="44.8549879408849" lon="10.859005589891161"><ele>18.5</ele><time>2026-04-26T14:14:41Z</time></trkpt><trkpt lat="44.85499778975481" lon="10.858817540330843"><ele>18.25</ele><time>2026-04-26T14:14:42Z</time></trkpt><trkpt lat="44.855007836041" lon="10.858632738475643"><ele>18.0</ele><time>2026-04-26T14:14:43Z</time></trkpt><trkpt lat="44.85501741992671" lon="10.858445309120144"><ele>18.0</ele><time>2026-04-26T14:14:44Z</time></trkpt><trkpt lat="44.85502648234403" lon="10.858263273261773"><ele>18.0</ele><time>2026-04-26T14:14:45Z</time></trkpt><trkpt lat="44.855033365206864" lon="10.858076042191811"><ele>18.0</ele><time>2026-04-26T14:14:46Z</time></trkpt><trkpt lat="44.85504260098538" lon="10.857901296959726"><ele>18.0</ele><time>2026-04-26T14:14:47Z</time></trkpt><trkpt lat="44.855051289162944" lon="10.857724433414004"><ele>18.25</ele><time>2026-04-26T14:14:48Z</time></trkpt><trkpt lat="44.85506320293084" lon="10.857553440565788"><ele>18.5</ele><time>2026-04-26T14:14:49Z</time></trkpt><trkpt lat="44.85507372294991" lon="10.857384262532982"><ele>18.75</ele><time>2026-04-26T14:14:50Z</time></trkpt><trkpt lat="44.85508448970904" lon="10.857221316746577"><ele>19.0</ele><time>2026-04-26T14:14:51Z</time></trkpt><trkpt lat="44.85509559882048" lon="10.857051467441918"><ele>19.0</ele><time>2026-04-26T14:14:52Z</time></trkpt><trkpt lat="44.85512084918429" lon="10.856899292687448"><ele>19.0</ele><time>2026-04-26T14:14:53Z</time></trkpt><trkpt lat="44.85513009671685" lon="10.856728647590652"><ele>19.0</ele><time>2026-04-26T14:14:54Z</time></trkpt><trkpt lat="44.85513886262363" lon="10.856563507530325"><ele>19.0</ele><time>2026-04-26T14:14:55Z</time></trkpt><trkpt lat="44.85514672572554" lon="10.856383138981855"><ele>19.0</ele><time>2026-04-26T14:14:56Z</time></trkpt><trkpt lat="44.85515438618465" lon="10.856206890611446"><ele>19.0</ele><time>2026-04-26T14:14:57Z</time></trkpt><trkpt lat="44.85516170200411" lon="10.856030682855298"><ele>19.0</ele><time>2026-04-26T14:14:58Z</time></trkpt><trkpt lat="44.85515258080819" lon="10.855877050867436"><ele>19.0</ele><time>2026-04-26T14:14:58.999Z</time></trkpt><trkpt lat="44.85516246438168" lon="10.855689521560922"><ele>18.75</ele><time>2026-04-26T14:14:59.999Z</time></trkpt><trkpt lat="44.85518339397295" lon="10.855500873458839"><ele>18.5</ele><time>2026-04-26T14:15:00.999Z</time></trkpt><trkpt lat="44.85519488560462" lon="10.855317218756937"><ele>18.25</ele><time>2026-04-26T14:15:01.999Z</time></trkpt><trkpt lat="44.855207327300704" lon="10.855133013461966"><ele>18.0</ele><time>2026-04-26T14:15:02.999Z</time></trkpt><trkpt lat="44.85522019375858" lon="10.85494461174088"><ele>18.0</ele><time>2026-04-26T14:15:03.999Z</time></trkpt><trkpt lat="44.85523134300284" lon="10.854755084114462"><ele>18.0</ele><time>2026-04-26T14:15:04.999Z</time></trkpt><trkpt lat="44.8552420724063" lon="10.854572337380851"><ele>18.0</ele><time>2026-04-26T14:15:05.999Z</time></trkpt><trkpt lat="44.85523688086382" lon="10.854422734753962"><ele>18.0</ele><time>2026-04-26T14:15:06.999Z</time></trkpt><trkpt lat="44.85524657733512" lon="10.85432387069025"><ele>18.0</ele><time>2026-04-26T14:15:07.999Z</time></trkpt><trkpt lat="44.85527079022288" lon="10.854205554884832"><ele>17.833333333333332</ele><time>2026-04-26T14:15:21.999Z</time></trkpt><trkpt lat="44.855278493189" lon="10.854088953548477"><ele>17.666666666666668</ele><time>2026-04-26T14:15:24Z</time></trkpt><trkpt lat="44.85528978981997" lon="10.853944065297357"><ele>17.5</ele><time>2026-04-26T14:15:26Z</time></trkpt><trkpt lat="44.85532911256648" lon="10.853817006700803"><ele>17.333333333333336</ele><time>2026-04-26T14:15:28Z</time></trkpt><trkpt lat="44.85534671224405" lon="10.853718990567975"><ele>17.166666666666668</ele><time>2026-04-26T14:15:30Z</time></trkpt><trkpt lat="44.85536218164272" lon="10.853632838358424"><ele>17.0</ele><time>2026-04-26T14:15:44Z</time></trkpt><trkpt lat="44.85532417501309" lon="10.853766237173016"><ele>17.0</ele><time>2026-04-26T14:15:47Z</time></trkpt><trkpt lat="44.85529710609705" lon="10.853915000213064"><ele>17.0</ele><time>2026-04-26T14:15:49Z</time></trkpt><trkpt lat="44.855264310125754" lon="10.854065091439505"><ele>17.0</ele><time>2026-04-26T14:15:51Z</time></trkpt><trkpt lat="44.85524756113621" lon="10.854203782815148"><ele>17.0</ele><time>2026-04-26T14:15:53Z</time></trkpt><trkpt lat="44.855288782129634" lon="10.854299717627061"><ele>17.0</ele><time>2026-04-26T14:15:56Z</time></trkpt><trkpt lat="44.85534351909315" lon="10.85424572361804"><ele>17.0</ele><time>2026-04-26T14:15:58Z</time></trkpt><trkpt lat="44.855371753721705" lon="10.854115096767812"><ele>17.0</ele><time>2026-04-26T14:16:00Z</time></trkpt><trkpt lat="44.85530987723424" lon="10.854019753421492"><ele>17.0</ele><time>2026-04-26T14:16:01Z</time></trkpt><trkpt lat="44.855333099108314" lon="10.853890425261133"><ele>17.0</ele><time>2026-04-26T14:16:03Z</time></trkpt><trkpt lat="44.855355300478315" lon="10.853766781371863"><ele>17.0</ele><time>2026-04-26T14:16:05Z</time></trkpt><trkpt lat="44.85538180469289" lon="10.853619174031728"><ele>16.8</ele><time>2026-04-26T14:16:07Z</time></trkpt><trkpt lat="44.855409031341196" lon="10.85345165701122"><ele>16.6</ele><time>2026-04-26T14:16:09Z</time></trkpt><trkpt lat="44.855425720430176" lon="10.853349229484"><ele>16.400000000000002</ele><time>2026-04-26T14:16:10Z</time></trkpt><trkpt lat="44.85544199091191" lon="10.853249371082127"><ele>16.2</ele><time>2026-04-26T14:16:11Z</time></trkpt><trkpt lat="44.85545756351983" lon="10.853153795801964"><ele>16.0</ele><time>2026-04-26T14:16:12Z</time></trkpt><trkpt lat="44.855483639515185" lon="10.852992525164156"><ele>15.999999999999998</ele><time>2026-04-26T14:16:14Z</time></trkpt><trkpt lat="44.85550505722881" lon="10.852862147360737"><ele>16.0</ele><time>2026-04-26T14:16:16Z</time></trkpt><trkpt lat="44.85552442483838" lon="10.85274760111968"><ele>16.0</ele><time>2026-04-26T14:16:18Z</time></trkpt><trkpt lat="44.855542993304134" lon="10.852644198279942"><ele>16.0</ele><time>2026-04-26T14:16:20Z</time></trkpt><trkpt lat="44.85556036154031" lon="10.85254747906086"><ele>15.999999999999998</ele><time>2026-04-26T14:16:22Z</time></trkpt><trkpt lat="44.85557943978911" lon="10.852419626371738"><ele>16.0</ele><time>2026-04-26T14:16:25Z</time></trkpt><trkpt lat="44.85558685253757" lon="10.85231352878094"><ele>16.5</ele><time>2026-04-26T14:16:28Z</time></trkpt><trkpt lat="44.85559226288001" lon="10.852197403761"><ele>17.0</ele><time>2026-04-26T14:16:31Z</time></trkpt><trkpt lat="44.855594535207885" lon="10.85207093366723"><ele>17.5</ele><time>2026-04-26T14:16:34Z</time></trkpt><trkpt lat="44.8556046928145" lon="10.851974544436947"><ele>18.0</ele><time>2026-04-26T14:16:36Z</time></trkpt><trkpt lat="44.85601652543094" lon="10.851961969928789"><ele>18.0</ele><time>2026-04-26T14:16:37Z</time></trkpt><trkpt lat="44.856093825854465" lon="10.851960133091366"><ele>18.0</ele><time>2026-04-26T14:16:38Z</time></trkpt><trkpt lat="44.856177482918575" lon="10.85196510597295"><ele>18.0</ele><time>2026-04-26T14:16:39Z</time></trkpt><trkpt lat="44.85626512787929" lon="10.85196486283291"><ele>18.0</ele><time>2026-04-26T14:16:40Z</time></trkpt><trkpt lat="44.85635388907469" lon="10.851962408151097"><ele>18.0</ele><time>2026-04-26T14:16:41Z</time></trkpt><trkpt lat="44.85644446320725" lon="10.851961189053572"><ele>18.0</ele><time>2026-04-26T14:16:42Z</time></trkpt><trkpt lat="44.85653550006547" lon="10.851962130727397"><ele>18.0</ele><time>2026-04-26T14:16:43Z</time></trkpt><trkpt lat="44.856626821145575" lon="10.85196129774126"><ele>18.0</ele><time>2026-04-26T14:16:44Z</time></trkpt><trkpt lat="44.85672098747615" lon="10.851956164158155"><ele>18.0</ele><time>2026-04-26T14:16:45Z</time></trkpt><trkpt lat="44.856805124211476" lon="10.851955252479948"><ele>18.0</ele><time>2026-04-26T14:16:46Z</time></trkpt><trkpt lat="44.856894882209744" lon="10.851952640093375"><ele>18.0</ele><time>2026-04-26T14:16:47Z</time></trkpt><trkpt lat="44.85697143418592" lon="10.851841993721326"><ele>18.2</ele><time>2026-04-26T14:16:48Z</time></trkpt><trkpt lat="44.857095733908594" lon="10.851837509668393"><ele>18.4</ele><time>2026-04-26T14:16:50Z</time></trkpt><trkpt lat="44.857169687884074" lon="10.851834841812602"><ele>18.599999999999998</ele><time>2026-04-26T14:16:51Z</time></trkpt><trkpt lat="44.857252251353515" lon="10.851831863366945"><ele>18.8</ele><time>2026-04-26T14:16:52Z</time></trkpt><trkpt lat="44.85733932710549" lon="10.851828722148085"><ele>19.0</ele><time>2026-04-26T14:16:53Z</time></trkpt><trkpt lat="44.857428793377615" lon="10.851825494699984"><ele>19.0</ele><time>2026-04-26T14:16:54Z</time></trkpt><trkpt lat="44.85752207981449" lon="10.851822129435886"><ele>19.0</ele><time>2026-04-26T14:16:55Z</time></trkpt><trkpt lat="44.85761102036893" lon="10.851818920945794"><ele>19.0</ele><time>2026-04-26T14:16:56Z</time></trkpt><trkpt lat="44.857696343882225" lon="10.8518158429518"><ele>19.0</ele><time>2026-04-26T14:16:57Z</time></trkpt><trkpt lat="44.8577800095037" lon="10.851812824751553"><ele>19.0</ele><time>2026-04-26T14:16:58Z</time></trkpt><trkpt lat="44.857866564047406" lon="10.8518097023312"><ele>19.0</ele><time>2026-04-26T14:16:59Z</time></trkpt><trkpt lat="44.85795587159876" lon="10.85180648060591"><ele>19.166666666666664</ele><time>2026-04-26T14:17:00Z</time></trkpt><trkpt lat="44.85803813135853" lon="10.85180351311949"><ele>19.333333333333332</ele><time>2026-04-26T14:17:01Z</time></trkpt><trkpt lat="44.858106612064" lon="10.851801042697906"><ele>19.5</ele><time>2026-04-26T14:17:02Z</time></trkpt><trkpt lat="44.85818207887876" lon="10.85179832029114"><ele>19.666666666666668</ele><time>2026-04-26T14:17:03Z</time></trkpt><trkpt lat="44.858256812435634" lon="10.851795624319635"><ele>19.833333333333336</ele><time>2026-04-26T14:17:04Z</time></trkpt><trkpt lat="44.858331865107" lon="10.851792916813773"><ele>20.0</ele><time>2026-04-26T14:17:05Z</time></trkpt><trkpt lat="44.858411666104686" lon="10.85179003802584"><ele>20.166666666666668</ele><time>2026-04-26T14:17:06Z</time></trkpt><trkpt lat="44.858490485582216" lon="10.851787194670552"><ele>20.333333333333336</ele><time>2026-04-26T14:17:07Z</time></trkpt><trkpt lat="44.85857207632213" lon="10.851784259143695"><ele>20.5</ele><time>2026-04-26T14:17:08Z</time></trkpt><trkpt lat="44.85865791594908" lon="10.851781162522924"><ele>20.666666666666668</ele><time>2026-04-26T14:17:09Z</time></trkpt><trkpt lat="44.858738759536855" lon="10.851778246127292"><ele>20.833333333333332</ele><time>2026-04-26T14:17:10Z</time></trkpt><trkpt lat="44.85882668703354" lon="10.851775074183115"><ele>21.0</ele><time>2026-04-26T14:17:11Z</time></trkpt><trkpt lat="44.858912726329606" lon="10.851771970356278"><ele>21.0</ele><time>2026-04-26T14:17:12Z</time></trkpt><trkpt lat="44.859000937576305" lon="10.851768788178592"><ele>21.0</ele><time>2026-04-26T14:17:13Z</time></trkpt><trkpt lat="44.859091356376545" lon="10.85176552636917"><ele>21.0</ele><time>2026-04-26T14:17:14Z</time></trkpt><trkpt lat="44.85917382932168" lon="10.85176255119442"><ele>21.0</ele><time>2026-04-26T14:17:14.999Z</time></trkpt><trkpt lat="44.85925673680318" lon="10.851759560343627"><ele>21.0</ele><time>2026-04-26T14:17:15.999Z</time></trkpt><trkpt lat="44.859345792189295" lon="10.851756347713412"><ele>21.0</ele><time>2026-04-26T14:17:16.999Z</time></trkpt><trkpt lat="44.859433508421674" lon="10.851753183394578"><ele>20.833333333333332</ele><time>2026-04-26T14:17:17.999Z</time></trkpt><trkpt lat="44.859518303290535" lon="10.851750396310505"><ele>20.666666666666668</ele><time>2026-04-26T14:17:18.999Z</time></trkpt><trkpt lat="44.859600287214754" lon="10.851747718857107"><ele>20.5</ele><time>2026-04-26T14:17:19.999Z</time></trkpt><trkpt lat="44.859686893230105" lon="10.851744890454373"><ele>20.333333333333336</ele><time>2026-04-26T14:17:20.999Z</time></trkpt><trkpt lat="44.859775345913484" lon="10.851742001745976"><ele>20.166666666666668</ele><time>2026-04-26T14:17:21.999Z</time></trkpt><trkpt lat="44.85986559514201" lon="10.85173905436391"><ele>20.0</ele><time>2026-04-26T14:17:22.999Z</time></trkpt><trkpt lat="44.85995856712124" lon="10.851736018057316"><ele>20.0</ele><time>2026-04-26T14:17:23.999Z</time></trkpt><trkpt lat="44.860053702197476" lon="10.851732911112078"><ele>20.0</ele><time>2026-04-26T14:17:24.999Z</time></trkpt><trkpt lat="44.860150631936364" lon="10.851729745556243"><ele>20.0</ele><time>2026-04-26T14:17:25.999Z</time></trkpt><trkpt lat="44.860246360295456" lon="10.851726619234565"><ele>20.0</ele><time>2026-04-26T14:17:26.999Z</time></trkpt><trkpt lat="44.86034502164102" lon="10.851723397128891"><ele>20.0</ele><time>2026-04-26T14:17:27.999Z</time></trkpt><trkpt lat="44.860438045760425" lon="10.851720191926479"><ele>19.8</ele><time>2026-04-26T14:17:28.999Z</time></trkpt><trkpt lat="44.86053609450411" lon="10.851716698286475"><ele>19.6</ele><time>2026-04-26T14:17:30Z</time></trkpt><trkpt lat="44.86063587760376" lon="10.85171314284471"><ele>19.4</ele><time>2026-04-26T14:17:31Z</time></trkpt><trkpt lat="44.860738256994104" lon="10.85170949489252"><ele>19.2</ele><time>2026-04-26T14:17:32Z</time></trkpt><trkpt lat="44.86083616809483" lon="10.85170600615503"><ele>19.0</ele><time>2026-04-26T14:17:33Z</time></trkpt><trkpt lat="44.86093846518029" lon="10.851702361139195"><ele>19.0</ele><time>2026-04-26T14:17:34Z</time></trkpt><trkpt lat="44.86104638093115" lon="10.851698515915105"><ele>19.0</ele><time>2026-04-26T14:17:35Z</time></trkpt><trkpt lat="44.861164384949" lon="10.85169431123345"><ele>19.0</ele><time>2026-04-26T14:17:36Z</time></trkpt><trkpt lat="44.861288597942526" lon="10.85168988531631"><ele>19.0</ele><time>2026-04-26T14:17:37Z</time></trkpt><trkpt lat="44.86140782628588" lon="10.851685637009842"><ele>19.0</ele><time>2026-04-26T14:17:38Z</time></trkpt><trkpt lat="44.861522687069275" lon="10.8516815443288"><ele>19.0</ele><time>2026-04-26T14:17:39Z</time></trkpt><trkpt lat="44.86163388236505" lon="10.851676038427012"><ele>19.0</ele><time>2026-04-26T14:17:40Z</time></trkpt><trkpt lat="44.86174484685987" lon="10.851670046657134"><ele>19.0</ele><time>2026-04-26T14:17:41Z</time></trkpt><trkpt lat="44.86186117511254" lon="10.851663765256868"><ele>18.75</ele><time>2026-04-26T14:17:42Z</time></trkpt><trkpt lat="44.86197876849803" lon="10.851657415544235"><ele>18.5</ele><time>2026-04-26T14:17:43Z</time></trkpt><trkpt lat="44.862104467786736" lon="10.851650628133601"><ele>18.25</ele><time>2026-04-26T14:17:44Z</time></trkpt><trkpt lat="44.8622299844945" lon="10.851639620687369"><ele>18.0</ele><time>2026-04-26T14:17:45Z</time></trkpt><trkpt lat="44.86234821324315" lon="10.851628623593774"><ele>18.0</ele><time>2026-04-26T14:17:46Z</time></trkpt><trkpt lat="44.86246835664844" lon="10.851617448411066"><ele>18.0</ele><time>2026-04-26T14:17:47Z</time></trkpt><trkpt lat="44.862585496454095" lon="10.851606552607683"><ele>18.0</ele><time>2026-04-26T14:17:48Z</time></trkpt><trkpt lat="44.8627082634884" lon="10.851595133379519"><ele>18.0</ele><time>2026-04-26T14:17:49Z</time></trkpt><trkpt lat="44.86283061396451" lon="10.851580730717867"><ele>18.0</ele><time>2026-04-26T14:17:50Z</time></trkpt><trkpt lat="44.86295180607958" lon="10.851566306219027"><ele>18.0</ele><time>2026-04-26T14:17:51Z</time></trkpt><trkpt lat="44.86305951468908" lon="10.851553486522494"><ele>18.0</ele><time>2026-04-26T14:17:52Z</time></trkpt><trkpt lat="44.86314304124767" lon="10.851543545014508"><ele>18.0</ele><time>2026-04-26T14:17:53Z</time></trkpt><trkpt lat="44.863211948733856" lon="10.851535343505931"><ele>18.0</ele><time>2026-04-26T14:17:54Z</time></trkpt><trkpt lat="44.86331830309155" lon="10.851522692630802"><ele>18.0</ele><time>2026-04-26T14:17:56Z</time></trkpt><trkpt lat="44.863411125462086" lon="10.851511644725873"><ele>18.0</ele><time>2026-04-26T14:17:58Z</time></trkpt><trkpt lat="44.86349419164571" lon="10.85150084764364"><ele>18.0</ele><time>2026-04-26T14:18:00Z</time></trkpt><trkpt lat="44.863568077771845" lon="10.851490083984134"><ele>18.0</ele><time>2026-04-26T14:18:23Z</time></trkpt><trkpt lat="44.863662134071724" lon="10.851476381952676"><ele>18.0</ele><time>2026-04-26T14:18:25Z</time></trkpt><trkpt lat="44.863785408110815" lon="10.851458620124635"><ele>18.0</ele><time>2026-04-26T14:18:27Z</time></trkpt><trkpt lat="44.86385513098679" lon="10.85144857506276"><ele>18.0</ele><time>2026-04-26T14:18:28Z</time></trkpt><trkpt lat="44.86392958550983" lon="10.851437848314852"><ele>18.0</ele><time>2026-04-26T14:18:29Z</time></trkpt><trkpt lat="44.86399986133785" lon="10.851427723589733"><ele>18.0</ele><time>2026-04-26T14:18:30Z</time></trkpt><trkpt lat="44.864068251416064" lon="10.851417870551776"><ele>18.0</ele><time>2026-04-26T14:18:31Z</time></trkpt><trkpt lat="44.86413784715954" lon="10.851407843803983"><ele>18.0</ele><time>2026-04-26T14:18:32Z</time></trkpt><trkpt lat="44.86425481306667" lon="10.851390992384173"><ele>18.0</ele><time>2026-04-26T14:18:34Z</time></trkpt><trkpt lat="44.86418996462794" lon="10.85140033517595"><ele>18.0</ele><time>2026-04-26T14:20:58Z</time></trkpt><trkpt lat="44.86404992165384" lon="10.851560970547691"><ele>18.0</ele><time>2026-04-26T14:21:32.999Z</time></trkpt><trkpt lat="44.86396502302648" lon="10.851572647849835"><ele>18.0</ele><time>2026-04-26T14:21:33.999Z</time></trkpt><trkpt lat="44.86386834960057" lon="10.851591591753008"><ele>18.0</ele><time>2026-04-26T14:21:34.999Z</time></trkpt><trkpt lat="44.86377109006384" lon="10.851610203472637"><ele>18.0</ele><time>2026-04-26T14:21:35.999Z</time></trkpt><trkpt lat="44.863669676527536" lon="10.851622035650623"><ele>18.0</ele><time>2026-04-26T14:21:36.999Z</time></trkpt><trkpt lat="44.86355926415851" lon="10.851632659251772"><ele>18.0</ele><time>2026-04-26T14:21:37.999Z</time></trkpt><trkpt lat="44.86343621891787" lon="10.851647451935797"><ele>18.0</ele><time>2026-04-26T14:21:38.999Z</time></trkpt><trkpt lat="44.863313375742585" lon="10.851659060580715"><ele>18.0</ele><time>2026-04-26T14:21:39.999Z</time></trkpt><trkpt lat="44.86318983904289" lon="10.851675890227769"><ele>18.0</ele><time>2026-04-26T14:21:40.999Z</time></trkpt><trkpt lat="44.86307024941659" lon="10.851691684030955"><ele>18.0</ele><time>2026-04-26T14:21:42Z</time></trkpt><trkpt lat="44.86295279623786" lon="10.851707079661908"><ele>18.0</ele><time>2026-04-26T14:21:43Z</time></trkpt><trkpt lat="44.862838408282414" lon="10.851717140920718"><ele>18.0</ele><time>2026-04-26T14:21:44Z</time></trkpt><trkpt lat="44.86272402495255" lon="10.851729508842556"><ele>18.0</ele><time>2026-04-26T14:21:44.999Z</time></trkpt><trkpt lat="44.862611520996765" lon="10.851746613725648"><ele>18.0</ele><time>2026-04-26T14:21:45.999Z</time></trkpt><trkpt lat="44.86249969051012" lon="10.851759768615906"><ele>18.0</ele><time>2026-04-26T14:21:46.999Z</time></trkpt><trkpt lat="44.8623828411355" lon="10.851769820464742"><ele>18.0</ele><time>2026-04-26T14:21:47.998Z</time></trkpt><trkpt lat="44.86226934673714" lon="10.851780801686157"><ele>18.0</ele><time>2026-04-26T14:21:48.998Z</time></trkpt><trkpt lat="44.86215139357432" lon="10.851790794975177"><ele>18.0</ele><time>2026-04-26T14:21:49.998Z</time></trkpt><trkpt lat="44.86202972134626" lon="10.85179971067523"><ele>18.0</ele><time>2026-04-26T14:21:50.998Z</time></trkpt><trkpt lat="44.86190662780981" lon="10.851807729270796"><ele>18.0</ele><time>2026-04-26T14:21:51.998Z</time></trkpt><trkpt lat="44.861782957524916" lon="10.851816135254502"><ele>18.0</ele><time>2026-04-26T14:21:52.999Z</time></trkpt><trkpt lat="44.86166724933823" lon="10.85182456760229"><ele>18.0</ele><time>2026-04-26T14:21:53.999Z</time></trkpt><trkpt lat="44.86155691595652" lon="10.851832706412052"><ele>18.0</ele><time>2026-04-26T14:21:54.999Z</time></trkpt><trkpt lat="44.86143899079375" lon="10.85183519021322"><ele>17.75</ele><time>2026-04-26T14:21:55.999Z</time></trkpt><trkpt lat="44.861319867308616" lon="10.851841169469184"><ele>17.5</ele><time>2026-04-26T14:21:56.999Z</time></trkpt><trkpt lat="44.86119668136961" lon="10.851846664514037"><ele>17.25</ele><time>2026-04-26T14:21:57.999Z</time></trkpt><trkpt lat="44.86107366623271" lon="10.851853311161111"><ele>17.0</ele><time>2026-04-26T14:21:58.999Z</time></trkpt><trkpt lat="44.860947954561254" lon="10.851856345258708"><ele>17.5</ele><time>2026-04-26T14:21:59.999Z</time></trkpt><trkpt lat="44.86082208321633" lon="10.851859870866674"><ele>18.0</ele><time>2026-04-26T14:22:00.999Z</time></trkpt><trkpt lat="44.860692572684414" lon="10.851866370304009"><ele>18.5</ele><time>2026-04-26T14:22:01.999Z</time></trkpt><trkpt lat="44.86056487233879" lon="10.851874507470175"><ele>19.0</ele><time>2026-04-26T14:22:02.999Z</time></trkpt><trkpt lat="44.86043851707982" lon="10.851880949634635"><ele>19.0</ele><time>2026-04-26T14:22:03.999Z</time></trkpt><trkpt lat="44.86031354011181" lon="10.851882731433774"><ele>19.0</ele><time>2026-04-26T14:22:04.999Z</time></trkpt><trkpt lat="44.86018619366727" lon="10.851884271411018"><ele>19.0</ele><time>2026-04-26T14:22:05.999Z</time></trkpt><trkpt lat="44.860060806930804" lon="10.851888457506586"><ele>19.0</ele><time>2026-04-26T14:22:06.999Z</time></trkpt><trkpt lat="44.85993314693301" lon="10.85189150346481"><ele>19.0</ele><time>2026-04-26T14:22:07.999Z</time></trkpt><trkpt lat="44.85980473373392" lon="10.851898379586611"><ele>19.0</ele><time>2026-04-26T14:22:08.999Z</time></trkpt><trkpt lat="44.85968380394276" lon="10.851899467377368"><ele>19.0</ele><time>2026-04-26T14:22:09.999Z</time></trkpt><trkpt lat="44.859579585192094" lon="10.851895115178332"><ele>19.0</ele><time>2026-04-26T14:22:10.999Z</time></trkpt><trkpt lat="44.85948116797845" lon="10.851895565260193"><ele>19.0</ele><time>2026-04-26T14:22:11.999Z</time></trkpt><trkpt lat="44.85938295497195" lon="10.85190564816088"><ele>19.0</ele><time>2026-04-26T14:22:12.999Z</time></trkpt><trkpt lat="44.859285411825304" lon="10.85191505530719"><ele>19.0</ele><time>2026-04-26T14:22:13.999Z</time></trkpt><trkpt lat="44.85918312158956" lon="10.851919428759135"><ele>19.0</ele><time>2026-04-26T14:22:14.999Z</time></trkpt><trkpt lat="44.85909333235599" lon="10.851919345334718"><ele>19.0</ele><time>2026-04-26T14:22:15.999Z</time></trkpt><trkpt lat="44.859014580361034" lon="10.851922379845549"><ele>18.75</ele><time>2026-04-26T14:22:16.999Z</time></trkpt><trkpt lat="44.85891971478913" lon="10.851924575900865"><ele>18.5</ele><time>2026-04-26T14:22:17.999Z</time></trkpt><trkpt lat="44.858800851593024" lon="10.851928524570656"><ele>18.25</ele><time>2026-04-26T14:22:18.999Z</time></trkpt><trkpt lat="44.85867932477677" lon="10.851932134150504"><ele>18.0</ele><time>2026-04-26T14:22:19.999Z</time></trkpt><trkpt lat="44.85854821979934" lon="10.851936773011191"><ele>18.5</ele><time>2026-04-26T14:22:20.999Z</time></trkpt><trkpt lat="44.85841532021803" lon="10.85194053204508"><ele>19.0</ele><time>2026-04-26T14:22:21.999Z</time></trkpt><trkpt lat="44.858280545510986" lon="10.851943306384639"><ele>19.5</ele><time>2026-04-26T14:22:22.999Z</time></trkpt><trkpt lat="44.8581392937047" lon="10.85194634498092"><ele>20.0</ele><time>2026-04-26T14:22:23.999Z</time></trkpt><trkpt lat="44.85799840207577" lon="10.851950565052435"><ele>20.0</ele><time>2026-04-26T14:22:24.999Z</time></trkpt><trkpt lat="44.85785957004785" lon="10.851954751992027"><ele>20.0</ele><time>2026-04-26T14:22:25.999Z</time></trkpt><trkpt lat="44.85771948426109" lon="10.851964453841315"><ele>20.0</ele><time>2026-04-26T14:22:26.999Z</time></trkpt><trkpt lat="44.85757519926836" lon="10.851970615650725"><ele>20.0</ele><time>2026-04-26T14:22:27.999Z</time></trkpt><trkpt lat="44.85742610631933" lon="10.85196870299347"><ele>19.75</ele><time>2026-04-26T14:22:28.999Z</time></trkpt><trkpt lat="44.85728582116376" lon="10.851968690557458"><ele>19.5</ele><time>2026-04-26T14:22:29.999Z</time></trkpt><trkpt lat="44.8571485522735" lon="10.851974000746512"><ele>19.25</ele><time>2026-04-26T14:22:30.999Z</time></trkpt><trkpt lat="44.857010966573746" lon="10.851978452168943"><ele>19.0</ele><time>2026-04-26T14:22:31.999Z</time></trkpt><trkpt lat="44.856873168506986" lon="10.851986524445252"><ele>18.75</ele><time>2026-04-26T14:22:32.999Z</time></trkpt><trkpt lat="44.85674656883299" lon="10.851991221808118"><ele>18.5</ele><time>2026-04-26T14:22:33.999Z</time></trkpt><trkpt lat="44.856625526933875" lon="10.85199118291854"><ele>18.25</ele><time>2026-04-26T14:22:34.999Z</time></trkpt><trkpt lat="44.85650787795102" lon="10.851995669097565"><ele>18.0</ele><time>2026-04-26T14:22:35.999Z</time></trkpt><trkpt lat="44.856380541848345" lon="10.851995790507365"><ele>18.0</ele><time>2026-04-26T14:22:36.999Z</time></trkpt><trkpt lat="44.856259754186524" lon="10.851994159631685"><ele>18.0</ele><time>2026-04-26T14:22:37.999Z</time></trkpt><trkpt lat="44.85614715106322" lon="10.851992591528179"><ele>18.0</ele><time>2026-04-26T14:22:38.999Z</time></trkpt><trkpt lat="44.856049829919804" lon="10.851993834243684"><ele>18.0</ele><time>2026-04-26T14:22:39.999Z</time></trkpt><trkpt lat="44.85595507136704" lon="10.852002784532992"><ele>18.0</ele><time>2026-04-26T14:22:40.999Z</time></trkpt><trkpt lat="44.85588129607253" lon="10.852029082677586"><ele>18.333333333333332</ele><time>2026-04-26T14:22:41.999Z</time></trkpt><trkpt lat="44.85582313115691" lon="10.852086553909853"><ele>18.666666666666668</ele><time>2026-04-26T14:22:42.999Z</time></trkpt><trkpt lat="44.85578585909752" lon="10.852167854640916"><ele>19.0</ele><time>2026-04-26T14:22:43.999Z</time></trkpt><trkpt lat="44.85576573735675" lon="10.852278875401616"><ele>19.333333333333336</ele><time>2026-04-26T14:22:44.999Z</time></trkpt><trkpt lat="44.85575279398072" lon="10.852415568932718"><ele>19.666666666666668</ele><time>2026-04-26T14:22:45.999Z</time></trkpt><trkpt lat="44.855731270429274" lon="10.852565582077569"><ele>20.0</ele><time>2026-04-26T14:22:46.999Z</time></trkpt><trkpt lat="44.855699158666894" lon="10.852707954476049"><ele>19.4</ele><time>2026-04-26T14:22:47.999Z</time></trkpt><trkpt lat="44.85567022125174" lon="10.852850592678616"><ele>18.8</ele><time>2026-04-26T14:22:48.999Z</time></trkpt><trkpt lat="44.8556369311858" lon="10.852992865083467"><ele>18.2</ele><time>2026-04-26T14:22:49.999Z</time></trkpt><trkpt lat="44.855595031081066" lon="10.853141664342195"><ele>17.6</ele><time>2026-04-26T14:22:50.999Z</time></trkpt><trkpt lat="44.85555750458617" lon="10.85330591344923"><ele>17.0</ele><time>2026-04-26T14:22:51.999Z</time></trkpt><trkpt lat="44.855523415619395" lon="10.853463106336381"><ele>17.0</ele><time>2026-04-26T14:22:52.999Z</time></trkpt><trkpt lat="44.85548722946854" lon="10.8536136726557"><ele>17.0</ele><time>2026-04-26T14:22:53.999Z</time></trkpt><trkpt lat="44.85544914811668" lon="10.853767936099253"><ele>17.0</ele><time>2026-04-26T14:22:54.999Z</time></trkpt><trkpt lat="44.85528700294238" lon="10.853860282629604"><ele>17.0</ele><time>2026-04-26T14:22:55.999Z</time></trkpt><trkpt lat="44.85526408191608" lon="10.85399360771656"><ele>17.0</ele><time>2026-04-26T14:22:56.999Z</time></trkpt><trkpt lat="44.855245745307286" lon="10.85412588670135"><ele>17.0</ele><time>2026-04-26T14:22:57.999Z</time></trkpt><trkpt lat="44.85523516296897" lon="10.854227549142811"><ele>17.0</ele><time>2026-04-26T14:22:58.999Z</time></trkpt><trkpt lat="44.85522438756953" lon="10.85434431247874"><ele>17.0</ele><time>2026-04-26T14:23:00.999Z</time></trkpt><trkpt lat="44.855225788942334" lon="10.85455815316466"><ele>17.0</ele><time>2026-04-26T14:24:27.999Z</time></trkpt><trkpt lat="44.85521180788114" lon="10.854672050351384"><ele>17.25</ele><time>2026-04-26T14:24:28.999Z</time></trkpt><trkpt lat="44.85520182028079" lon="10.854814699481915"><ele>17.5</ele><time>2026-04-26T14:24:29.999Z</time></trkpt><trkpt lat="44.855190581804706" lon="10.854974477630027"><ele>17.75</ele><time>2026-04-26T14:24:30.999Z</time></trkpt><trkpt lat="44.85518054144045" lon="10.855139430349153"><ele>18.0</ele><time>2026-04-26T14:24:31.999Z</time></trkpt><trkpt lat="44.855171645534966" lon="10.85531423340981"><ele>18.0</ele><time>2026-04-26T14:24:32.999Z</time></trkpt><trkpt lat="44.85514978170222" lon="10.85550686179156"><ele>18.0</ele><time>2026-04-26T14:24:33.999Z</time></trkpt><trkpt lat="44.855153260147915" lon="10.855720497350703"><ele>18.0</ele><time>2026-04-26T14:24:34.999Z</time></trkpt><trkpt lat="44.855145758628275" lon="10.855949055184205"><ele>18.333333333333332</ele><time>2026-04-26T14:24:35.999Z</time></trkpt><trkpt lat="44.85513171390033" lon="10.85617745512849"><ele>18.666666666666664</ele><time>2026-04-26T14:24:36.999Z</time></trkpt><trkpt lat="44.855119473998" lon="10.856411999391183"><ele>19.0</ele><time>2026-04-26T14:24:37.999Z</time></trkpt><trkpt lat="44.85510465726261" lon="10.856637641742545"><ele>19.0</ele><time>2026-04-26T14:24:38.999Z</time></trkpt><trkpt lat="44.85508832636061" lon="10.85686012813406"><ele>19.0</ele><time>2026-04-26T14:24:39.999Z</time></trkpt><trkpt lat="44.855073568234666" lon="10.857093857945912"><ele>19.0</ele><time>2026-04-26T14:24:40.999Z</time></trkpt><trkpt lat="44.85506723382598" lon="10.857325408280843"><ele>19.0</ele><time>2026-04-26T14:24:41.999Z</time></trkpt><trkpt lat="44.85505682885332" lon="10.857550255169716"><ele>19.0</ele><time>2026-04-26T14:24:42.999Z</time></trkpt><trkpt lat="44.855045693177" lon="10.857764171517408"><ele>19.0</ele><time>2026-04-26T14:24:43.999Z</time></trkpt><trkpt lat="44.8549979834542" lon="10.857969874221755"><ele>18.75</ele><time>2026-04-26T14:24:44.999Z</time></trkpt><trkpt lat="44.85500121979112" lon="10.85817824515119"><ele>18.5</ele><time>2026-04-26T14:24:45.999Z</time></trkpt><trkpt lat="44.854997291570896" lon="10.858379135690566"><ele>18.25</ele><time>2026-04-26T14:24:46.999Z</time></trkpt><trkpt lat="44.85499448848539" lon="10.858561941887295"><ele>18.0</ele><time>2026-04-26T14:24:47.999Z</time></trkpt><trkpt lat="44.854986044677894" lon="10.858730289108522"><ele>17.8</ele><time>2026-04-26T14:24:48.999Z</time></trkpt><trkpt lat="44.854974692242145" lon="10.85888232716917"><ele>17.6</ele><time>2026-04-26T14:24:49.999Z</time></trkpt><trkpt lat="44.854980216148725" lon="10.8590159592157"><ele>17.4</ele><time>2026-04-26T14:24:50.999Z</time></trkpt><trkpt lat="44.85497414011121" lon="10.859153224751813"><ele>17.2</ele><time>2026-04-26T14:24:51.999Z</time></trkpt><trkpt lat="44.854969460886885" lon="10.859301054570532"><ele>17.0</ele><time>2026-04-26T14:24:52.999Z</time></trkpt><trkpt lat="44.85495797459545" lon="10.859458494463063"><ele>17.5</ele><time>2026-04-26T14:24:53.999Z</time></trkpt><trkpt lat="44.854951495908374" lon="10.859613142836134"><ele>18.0</ele><time>2026-04-26T14:24:54.999Z</time></trkpt><trkpt lat="44.85494480754758" lon="10.859773634306618"><ele>18.5</ele><time>2026-04-26T14:24:55.999Z</time></trkpt><trkpt lat="44.85493209511983" lon="10.859940444312256"><ele>19.0</ele><time>2026-04-26T14:24:56.999Z</time></trkpt><trkpt lat="44.854925411127056" lon="10.86010998493599"><ele>19.2</ele><time>2026-04-26T14:24:57.999Z</time></trkpt><trkpt lat="44.85490247367317" lon="10.86028844124681"><ele>19.4</ele><time>2026-04-26T14:24:58.999Z</time></trkpt><trkpt lat="44.854904302043266" lon="10.860477140365756"><ele>19.6</ele><time>2026-04-26T14:24:59.999Z</time></trkpt><trkpt lat="44.8548775457068" lon="10.860598943180781"><ele>19.8</ele><time>2026-04-26T14:25:01.999Z</time></trkpt><trkpt lat="44.854870071211096" lon="10.860687311754155"><ele>20.0</ele><time>2026-04-26T14:25:03.999Z</time></trkpt><trkpt lat="44.85474500843601" lon="10.860691128201609"><ele>20.0</ele><time>2026-04-26T14:25:07.999Z</time></trkpt><trkpt lat="44.85462910817408" lon="10.860664329019867"><ele>20.0</ele><time>2026-04-26T14:25:09.999Z</time></trkpt><trkpt lat="44.854499318885466" lon="10.860634318362676"><ele>20.0</ele><time>2026-04-26T14:25:11.999Z</time></trkpt><trkpt lat="44.85442462908996" lon="10.860632326283216"><ele>20.0</ele><time>2026-04-26T14:25:12.999Z</time></trkpt><trkpt lat="44.85433927319919" lon="10.860615863071898"><ele>20.0</ele><time>2026-04-26T14:25:13.999Z</time></trkpt><trkpt lat="44.85425244545249" lon="10.860592478472242"><ele>20.0</ele><time>2026-04-26T14:25:14.999Z</time></trkpt><trkpt lat="44.85415159066187" lon="10.860566705663809"><ele>20.0</ele><time>2026-04-26T14:25:15.999Z</time></trkpt><trkpt lat="44.85405322211129" lon="10.860545238368445"><ele>20.0</ele><time>2026-04-26T14:25:16.999Z</time></trkpt><trkpt lat="44.8539548106579" lon="10.86052340244164"><ele>20.0</ele><time>2026-04-26T14:25:17.999Z</time></trkpt><trkpt lat="44.8538511609707" lon="10.860490950938024"><ele>20.0</ele><time>2026-04-26T14:25:18.999Z</time></trkpt><trkpt lat="44.853745387306674" lon="10.860465989530775"><ele>20.0</ele><time>2026-04-26T14:25:19.999Z</time></trkpt><trkpt lat="44.853637962723525" lon="10.860442530315567"><ele>20.0</ele><time>2026-04-26T14:25:20.999Z</time></trkpt><trkpt lat="44.85353117924994" lon="10.860418555447199"><ele>20.0</ele><time>2026-04-26T14:25:21.999Z</time></trkpt><trkpt lat="44.85341140501624" lon="10.860392970739152"><ele>20.0</ele><time>2026-04-26T14:25:22.999Z</time></trkpt><trkpt lat="44.85329230105399" lon="10.860367483600012"><ele>19.75</ele><time>2026-04-26T14:25:23.999Z</time></trkpt><trkpt lat="44.85317376367996" lon="10.860338713871094"><ele>19.5</ele><time>2026-04-26T14:25:24.999Z</time></trkpt><trkpt lat="44.85305471390925" lon="10.860307950875049"><ele>19.25</ele><time>2026-04-26T14:25:25.999Z</time></trkpt><trkpt lat="44.852922411976145" lon="10.860278008922762"><ele>19.0</ele><time>2026-04-26T14:25:26.999Z</time></trkpt><trkpt lat="44.852785646532034" lon="10.86022245408245"><ele>19.0</ele><time>2026-04-26T14:25:27.999Z</time></trkpt><trkpt lat="44.852650651610205" lon="10.860185654472213"><ele>19.0</ele><time>2026-04-26T14:25:28.999Z</time></trkpt><trkpt lat="44.85251263198898" lon="10.860169609771457"><ele>19.0</ele><time>2026-04-26T14:25:29.999Z</time></trkpt><trkpt lat="44.85237977497782" lon="10.86013921674567"><ele>19.0</ele><time>2026-04-26T14:25:30.999Z</time></trkpt><trkpt lat="44.85224262166403" lon="10.860106268787996"><ele>19.0</ele><time>2026-04-26T14:25:31.999Z</time></trkpt><trkpt lat="44.85210353975227" lon="10.860071102823353"><ele>19.0</ele><time>2026-04-26T14:25:32.999Z</time></trkpt><trkpt lat="44.851957906050814" lon="10.860062012442171"><ele>19.0</ele><time>2026-04-26T14:25:33.999Z</time></trkpt><trkpt lat="44.85180839341832" lon="10.860046910984932"><ele>19.0</ele><time>2026-04-26T14:25:34.999Z</time></trkpt><trkpt lat="44.851656084875415" lon="10.86004430385862"><ele>19.0</ele><time>2026-04-26T14:25:35.999Z</time></trkpt><trkpt lat="44.85149869887257" lon="10.860047805386028"><ele>19.0</ele><time>2026-04-26T14:25:36.999Z</time></trkpt><trkpt lat="44.85134029602055" lon="10.860053077626418"><ele>19.0</ele><time>2026-04-26T14:25:37.999Z</time></trkpt><trkpt lat="44.85118180663168" lon="10.860057664705078"><ele>19.0</ele><time>2026-04-26T14:25:38.999Z</time></trkpt><trkpt lat="44.85101314184234" lon="10.860062392967077"><ele>19.0</ele><time>2026-04-26T14:25:39.999Z</time></trkpt><trkpt lat="44.85084741918666" lon="10.860065153449263"><ele>19.0</ele><time>2026-04-26T14:25:40.999Z</time></trkpt><trkpt lat="44.85068693323672" lon="10.86006636798315"><ele>19.0</ele><time>2026-04-26T14:25:41.999Z</time></trkpt><trkpt lat="44.8505256245706" lon="10.860064716226473"><ele>19.0</ele><time>2026-04-26T14:25:42.999Z</time></trkpt><trkpt lat="44.850369968868065" lon="10.860069619521951"><ele>19.0</ele><time>2026-04-26T14:25:43.999Z</time></trkpt><trkpt lat="44.85021207296582" lon="10.860074219237259"><ele>18.666666666666664</ele><time>2026-04-26T14:25:44.999Z</time></trkpt><trkpt lat="44.85006128898396" lon="10.86008485516815"><ele>18.333333333333332</ele><time>2026-04-26T14:25:45.999Z</time></trkpt><trkpt lat="44.84990883305938" lon="10.86009529376772"><ele>18.0</ele><time>2026-04-26T14:25:46.999Z</time></trkpt><trkpt lat="44.84976164370876" lon="10.860102893997508"><ele>18.0</ele><time>2026-04-26T14:25:47.999Z</time></trkpt><trkpt lat="44.84960934025994" lon="10.860106965938973"><ele>18.0</ele><time>2026-04-26T14:25:48.999Z</time></trkpt><trkpt lat="44.849458261875306" lon="10.860111257309452"><ele>18.0</ele><time>2026-04-26T14:25:49.999Z</time></trkpt><trkpt lat="44.84930314662391" lon="10.860119141444484"><ele>18.0</ele><time>2026-04-26T14:25:50.999Z</time></trkpt><trkpt lat="44.84915087683955" lon="10.860125797916908"><ele>18.0</ele><time>2026-04-26T14:25:51.999Z</time></trkpt><trkpt lat="44.84900134403421" lon="10.86012920067529"><ele>18.0</ele><time>2026-04-26T14:25:52.999Z</time></trkpt><trkpt lat="44.848848509245066" lon="10.860130529912993"><ele>18.0</ele><time>2026-04-26T14:25:53.999Z</time></trkpt><trkpt lat="44.84869988229652" lon="10.860133495522817"><ele>18.0</ele><time>2026-04-26T14:25:54.999Z</time></trkpt><trkpt lat="44.848544953848496" lon="10.860141908833358"><ele>18.0</ele><time>2026-04-26T14:25:55.999Z</time></trkpt><trkpt lat="44.84839534389011" lon="10.860148110122436"><ele>18.0</ele><time>2026-04-26T14:25:56.999Z</time></trkpt><trkpt lat="44.848241187346794" lon="10.86015022751369"><ele>18.0</ele><time>2026-04-26T14:25:57.999Z</time></trkpt><trkpt lat="44.84809008603376" lon="10.860149634195684"><ele>18.0</ele><time>2026-04-26T14:25:58.999Z</time></trkpt><trkpt lat="44.84793831820902" lon="10.860145204125011"><ele>18.0</ele><time>2026-04-26T14:25:59.999Z</time></trkpt><trkpt lat="44.847784897970286" lon="10.860134422451017"><ele>18.0</ele><time>2026-04-26T14:26:00.999Z</time></trkpt><trkpt lat="44.84762890019416" lon="10.860125434780672"><ele>18.0</ele><time>2026-04-26T14:26:01.999Z</time></trkpt><trkpt lat="44.847475374882464" lon="10.860106904226079"><ele>18.333333333333332</ele><time>2026-04-26T14:26:02.999Z</time></trkpt><trkpt lat="44.84731403765047" lon="10.86008202596999"><ele>18.666666666666664</ele><time>2026-04-26T14:26:03.999Z</time></trkpt><trkpt lat="44.84715829916272" lon="10.86002946265378"><ele>19.0</ele><time>2026-04-26T14:26:04.999Z</time></trkpt><trkpt lat="44.84699912697457" lon="10.859994055604279"><ele>19.0</ele><time>2026-04-26T14:26:05.999Z</time></trkpt><trkpt lat="44.84683117660855" lon="10.859975941730214"><ele>19.0</ele><time>2026-04-26T14:26:06.999Z</time></trkpt><trkpt lat="44.84667629717689" lon="10.859935926341018"><ele>19.0</ele><time>2026-04-26T14:26:07.999Z</time></trkpt><trkpt lat="44.846520601517994" lon="10.859893161681995"><ele>19.333333333333332</ele><time>2026-04-26T14:26:08.999Z</time></trkpt><trkpt lat="44.84636051081777" lon="10.859842014480638"><ele>19.666666666666668</ele><time>2026-04-26T14:26:09.999Z</time></trkpt><trkpt lat="44.846204334946876" lon="10.859790817687085"><ele>20.0</ele><time>2026-04-26T14:26:10.999Z</time></trkpt><trkpt lat="44.846048483870206" lon="10.859739963017086"><ele>19.75</ele><time>2026-04-26T14:26:11.999Z</time></trkpt><trkpt lat="44.84589910848905" lon="10.85968610720335"><ele>19.5</ele><time>2026-04-26T14:26:12.999Z</time></trkpt><trkpt lat="44.845751814667224" lon="10.859628266737237"><ele>19.25</ele><time>2026-04-26T14:26:13.999Z</time></trkpt><trkpt lat="44.845616753605285" lon="10.859576695683105"><ele>19.0</ele><time>2026-04-26T14:26:14.999Z</time></trkpt><trkpt lat="44.84548362258274" lon="10.859542537665932"><ele>19.0</ele><time>2026-04-26T14:26:15.999Z</time></trkpt><trkpt lat="44.84534842398149" lon="10.85950435129803"><ele>19.0</ele><time>2026-04-26T14:26:16.999Z</time></trkpt><trkpt lat="44.84520798848907" lon="10.859453545721202"><ele>19.0</ele><time>2026-04-26T14:26:17.999Z</time></trkpt><trkpt lat="44.845069732249506" lon="10.859406561985967"><ele>19.0</ele><time>2026-04-26T14:26:18.999Z</time></trkpt><trkpt lat="44.844934325848605" lon="10.859353758270254"><ele>19.0</ele><time>2026-04-26T14:26:19.999Z</time></trkpt><trkpt lat="44.84480329362586" lon="10.859301777555554"><ele>19.0</ele><time>2026-04-26T14:26:20.999Z</time></trkpt><trkpt lat="44.844662892782615" lon="10.859253294516236"><ele>19.0</ele><time>2026-04-26T14:26:21.999Z</time></trkpt><trkpt lat="44.84451687557805" lon="10.859201795889174"><ele>19.0</ele><time>2026-04-26T14:26:22.999Z</time></trkpt><trkpt lat="44.84437144981334" lon="10.859144716123046"><ele>19.666666666666664</ele><time>2026-04-26T14:26:23.999Z</time></trkpt><trkpt lat="44.844221484491825" lon="10.859091328015822"><ele>20.333333333333332</ele><time>2026-04-26T14:26:24.999Z</time></trkpt><trkpt lat="44.844071971986004" lon="10.859045691807308"><ele>21.0</ele><time>2026-04-26T14:26:25.999Z</time></trkpt><trkpt lat="44.84392328495672" lon="10.859004683385363"><ele>21.0</ele><time>2026-04-26T14:26:26.999Z</time></trkpt><trkpt lat="44.843791436327194" lon="10.858950972608756"><ele>21.0</ele><time>2026-04-26T14:26:27.999Z</time></trkpt><trkpt lat="44.84367137542264" lon="10.858923460256877"><ele>21.0</ele><time>2026-04-26T14:26:28.999Z</time></trkpt><trkpt lat="44.843550875114744" lon="10.85891175736849"><ele>21.0</ele><time>2026-04-26T14:26:29.999Z</time></trkpt><trkpt lat="44.843429086387665" lon="10.858883222532333"><ele>20.75</ele><time>2026-04-26T14:26:30.999Z</time></trkpt><trkpt lat="44.843307217678216" lon="10.858851443537123"><ele>20.5</ele><time>2026-04-26T14:26:31.999Z</time></trkpt><trkpt lat="44.843182503195" lon="10.858825660168916"><ele>20.25</ele><time>2026-04-26T14:26:32.999Z</time></trkpt><trkpt lat="44.843055139304994" lon="10.85879320445646"><ele>20.0</ele><time>2026-04-26T14:26:33.999Z</time></trkpt><trkpt lat="44.8429316099825" lon="10.858751617375939"><ele>20.0</ele><time>2026-04-26T14:26:34.999Z</time></trkpt><trkpt lat="44.842801534580026" lon="10.85872837809898"><ele>20.0</ele><time>2026-04-26T14:26:35.999Z</time></trkpt><trkpt lat="44.84267043460319" lon="10.8587238931237"><ele>20.0</ele><time>2026-04-26T14:26:36.999Z</time></trkpt><trkpt lat="44.84255001168806" lon="10.858706697597045"><ele>20.0</ele><time>2026-04-26T14:26:37.999Z</time></trkpt><trkpt lat="44.84242650560124" lon="10.858693305846149"><ele>19.75</ele><time>2026-04-26T14:26:38.999Z</time></trkpt><trkpt lat="44.842304456510156" lon="10.858698919670795"><ele>19.5</ele><time>2026-04-26T14:26:39.999Z</time></trkpt><trkpt lat="44.84218335664058" lon="10.858680582591559"><ele>19.25</ele><time>2026-04-26T14:26:40.999Z</time></trkpt><trkpt lat="44.84205385972003" lon="10.85868294958283"><ele>19.0</ele><time>2026-04-26T14:26:41.999Z</time></trkpt><trkpt lat="44.841924366641926" lon="10.858673712528358"><ele>18.75</ele><time>2026-04-26T14:26:42.999Z</time></trkpt><trkpt lat="44.841791997730965" lon="10.858666304214038"><ele>18.5</ele><time>2026-04-26T14:26:43.999Z</time></trkpt><trkpt lat="44.84165933837845" lon="10.858662930164217"><ele>18.25</ele><time>2026-04-26T14:26:44.999Z</time></trkpt><trkpt lat="44.841522820700625" lon="10.858655501548382"><ele>18.0</ele><time>2026-04-26T14:26:45.999Z</time></trkpt><trkpt lat="44.84138821278025" lon="10.858654212892233"><ele>18.0</ele><time>2026-04-26T14:26:46.999Z</time></trkpt><trkpt lat="44.84125946536884" lon="10.858650144155106"><ele>18.0</ele><time>2026-04-26T14:26:47.999Z</time></trkpt><trkpt lat="44.84113306188265" lon="10.858642879297475"><ele>18.0</ele><time>2026-04-26T14:26:48.999Z</time></trkpt><trkpt lat="44.841003626276304" lon="10.858645678886989"><ele>18.0</ele><time>2026-04-26T14:26:49.999Z</time></trkpt><trkpt lat="44.84087432183306" lon="10.858651544298494"><ele>18.25</ele><time>2026-04-26T14:26:50.999Z</time></trkpt><trkpt lat="44.840747804899785" lon="10.858652589010468"><ele>18.5</ele><time>2026-04-26T14:26:51.999Z</time></trkpt><trkpt lat="44.840629785463044" lon="10.85865202591454"><ele>18.75</ele><time>2026-04-26T14:26:52.999Z</time></trkpt><trkpt lat="44.840511887166315" lon="10.858649769589029"><ele>19.0</ele><time>2026-04-26T14:26:53.999Z</time></trkpt><trkpt lat="44.84038326409234" lon="10.858644604213058"><ele>19.0</ele><time>2026-04-26T14:26:54.999Z</time></trkpt><trkpt lat="44.84025831791098" lon="10.858630485821825"><ele>19.0</ele><time>2026-04-26T14:26:55.999Z</time></trkpt><trkpt lat="44.84013959007433" lon="10.858583219351344"><ele>19.0</ele><time>2026-04-26T14:26:56.999Z</time></trkpt><trkpt lat="44.84001646836828" lon="10.858572991506739"><ele>19.0</ele><time>2026-04-26T14:26:57.999Z</time></trkpt><trkpt lat="44.83989311915552" lon="10.858530253017477"><ele>19.5</ele><time>2026-04-26T14:26:58.999Z</time></trkpt><trkpt lat="44.83976554563076" lon="10.858482499423559"><ele>20.0</ele><time>2026-04-26T14:26:59.999Z</time></trkpt><trkpt lat="44.83964302716012" lon="10.85843748499906"><ele>20.5</ele><time>2026-04-26T14:27:00.999Z</time></trkpt><trkpt lat="44.83951901165503" lon="10.85838872736095"><ele>21.0</ele><time>2026-04-26T14:27:01.999Z</time></trkpt><trkpt lat="44.839380889631066" lon="10.858345195238055"><ele>21.25</ele><time>2026-04-26T14:27:02.999Z</time></trkpt><trkpt lat="44.8392503377228" lon="10.858300454029438"><ele>21.5</ele><time>2026-04-26T14:27:03.999Z</time></trkpt><trkpt lat="44.839114833096836" lon="10.85825728157867"><ele>21.75</ele><time>2026-04-26T14:27:04.999Z</time></trkpt><trkpt lat="44.8389800026234" lon="10.858211578244203"><ele>22.0</ele><time>2026-04-26T14:27:05.999Z</time></trkpt><trkpt lat="44.838844520007605" lon="10.858171441048322"><ele>22.0</ele><time>2026-04-26T14:27:06.999Z</time></trkpt><trkpt lat="44.83870589723554" lon="10.858127711181291"><ele>22.0</ele><time>2026-04-26T14:27:07.999Z</time></trkpt><trkpt lat="44.838573843375066" lon="10.85808304888146"><ele>22.0</ele><time>2026-04-26T14:27:08.999Z</time></trkpt><trkpt lat="44.83844138021978" lon="10.85803885431301"><ele>22.0</ele><time>2026-04-26T14:27:09.999Z</time></trkpt><trkpt lat="44.83831821115672" lon="10.85799627387285"><ele>21.25</ele><time>2026-04-26T14:27:10.999Z</time></trkpt><trkpt lat="44.83819403650379" lon="10.857956717460764"><ele>20.5</ele><time>2026-04-26T14:27:11.999Z</time></trkpt><trkpt lat="44.838076351804624" lon="10.857918574591869"><ele>19.75</ele><time>2026-04-26T14:27:12.999Z</time></trkpt><trkpt lat="44.83796288711248" lon="10.857881249321697"><ele>19.0</ele><time>2026-04-26T14:27:13.999Z</time></trkpt><trkpt lat="44.83786033557903" lon="10.85784834391586"><ele>19.0</ele><time>2026-04-26T14:27:14.999Z</time></trkpt><trkpt lat="44.83776427272882" lon="10.857819655451465"><ele>19.0</ele><time>2026-04-26T14:27:15.999Z</time></trkpt><trkpt lat="44.8376612488135" lon="10.857794428224695"><ele>19.0</ele><time>2026-04-26T14:27:16.999Z</time></trkpt><trkpt lat="44.837550813014076" lon="10.857759700742868"><ele>19.0</ele><time>2026-04-26T14:27:17.999Z</time></trkpt><trkpt lat="44.83742073627906" lon="10.85772754374346"><ele>19.0</ele><time>2026-04-26T14:27:18.999Z</time></trkpt><trkpt lat="44.83730400837801" lon="10.857670291957401"><ele>18.8</ele><time>2026-04-26T14:27:19.999Z</time></trkpt><trkpt lat="44.837196615769905" lon="10.857649382630925"><ele>18.599999999999998</ele><time>2026-04-26T14:27:20.999Z</time></trkpt><trkpt lat="44.837094726311484" lon="10.85761940240018"><ele>18.4</ele><time>2026-04-26T14:27:21.999Z</time></trkpt><trkpt lat="44.836988242642065" lon="10.857584726129415"><ele>18.2</ele><time>2026-04-26T14:27:22.999Z</time></trkpt><trkpt lat="44.8368775262493" lon="10.857548613526722"><ele>18.0</ele><time>2026-04-26T14:27:23.999Z</time></trkpt><trkpt lat="44.83676591170213" lon="10.857512060848334"><ele>18.75</ele><time>2026-04-26T14:27:24.999Z</time></trkpt><trkpt lat="44.836649763097775" lon="10.85747250209751"><ele>19.5</ele><time>2026-04-26T14:27:25.999Z</time></trkpt><trkpt lat="44.8365260710459" lon="10.857427156865986"><ele>20.25</ele><time>2026-04-26T14:27:26.999Z</time></trkpt><trkpt lat="44.83640072244668" lon="10.8573855362478"><ele>21.0</ele><time>2026-04-26T14:27:27.999Z</time></trkpt><trkpt lat="44.8362710395785" lon="10.857340277958967"><ele>21.0</ele><time>2026-04-26T14:27:28.999Z</time></trkpt><trkpt lat="44.836139761036264" lon="10.857293790982776"><ele>21.0</ele><time>2026-04-26T14:27:29.999Z</time></trkpt><trkpt lat="44.83600883994048" lon="10.857246376053219"><ele>21.0</ele><time>2026-04-26T14:27:30.999Z</time></trkpt><trkpt lat="44.83588107803935" lon="10.857196594353889"><ele>21.0</ele><time>2026-04-26T14:27:31.999Z</time></trkpt><trkpt lat="44.835749029496995" lon="10.857137550136514"><ele>21.0</ele><time>2026-04-26T14:27:32.999Z</time></trkpt><trkpt lat="44.83562005821493" lon="10.857074712974379"><ele>21.0</ele><time>2026-04-26T14:27:33.999Z</time></trkpt><trkpt lat="44.83549507198621" lon="10.857017885252974"><ele>21.0</ele><time>2026-04-26T14:27:34.999Z</time></trkpt><trkpt lat="44.83536915728413" lon="10.856959083617705"><ele>21.0</ele><time>2026-04-26T14:27:35.999Z</time></trkpt><trkpt lat="44.835241595290604" lon="10.856892410918013"><ele>21.0</ele><time>2026-04-26T14:27:36.999Z</time></trkpt><trkpt lat="44.83511655362576" lon="10.856830833009427"><ele>21.0</ele><time>2026-04-26T14:27:37.999Z</time></trkpt><trkpt lat="44.834991017001286" lon="10.856770616933966"><ele>21.0</ele><time>2026-04-26T14:27:38.999Z</time></trkpt><trkpt lat="44.83486602259353" lon="10.856715328280762"><ele>21.0</ele><time>2026-04-26T14:27:39.999Z</time></trkpt><trkpt lat="44.8347371431482" lon="10.856665019817896"><ele>21.0</ele><time>2026-04-26T14:27:40.999Z</time></trkpt><trkpt lat="44.83461272412513" lon="10.85661201543388"><ele>21.0</ele><time>2026-04-26T14:27:41.999Z</time></trkpt><trkpt lat="44.8344894979379" lon="10.856563152974807"><ele>21.0</ele><time>2026-04-26T14:27:42.999Z</time></trkpt><trkpt lat="44.83436359516339" lon="10.856516396424084"><ele>21.0</ele><time>2026-04-26T14:27:43.999Z</time></trkpt><trkpt lat="44.83424145741375" lon="10.856464556406124"><ele>21.0</ele><time>2026-04-26T14:27:44.999Z</time></trkpt><trkpt lat="44.83412273999904" lon="10.856419263299264"><ele>21.0</ele><time>2026-04-26T14:27:45.999Z</time></trkpt><trkpt lat="44.834014346475726" lon="10.856365112004086"><ele>21.0</ele><time>2026-04-26T14:27:46.999Z</time></trkpt><trkpt lat="44.833912568764475" lon="10.856337039544048"><ele>21.0</ele><time>2026-04-26T14:27:47.999Z</time></trkpt><trkpt lat="44.83380774326331" lon="10.856305387956999"><ele>21.0</ele><time>2026-04-26T14:27:48.999Z</time></trkpt><trkpt lat="44.83370262962633" lon="10.856268794671982"><ele>21.0</ele><time>2026-04-26T14:27:49.999Z</time></trkpt><trkpt lat="44.833603784344696" lon="10.856206417020081"><ele>21.0</ele><time>2026-04-26T14:27:50.999Z</time></trkpt><trkpt lat="44.83349587882156" lon="10.856163535003395"><ele>21.0</ele><time>2026-04-26T14:27:51.999Z</time></trkpt><trkpt lat="44.83338407369732" lon="10.856141953891385"><ele>21.0</ele><time>2026-04-26T14:27:52.999Z</time></trkpt><trkpt lat="44.833280903587806" lon="10.856077298968957"><ele>21.0</ele><time>2026-04-26T14:27:53.999Z</time></trkpt><trkpt lat="44.833172550982496" lon="10.856032707965413"><ele>21.0</ele><time>2026-04-26T14:27:54.999Z</time></trkpt><trkpt lat="44.83306578223457" lon="10.856010651032022"><ele>21.0</ele><time>2026-04-26T14:27:55.999Z</time></trkpt><trkpt lat="44.83296031686345" lon="10.85596579735519"><ele>21.0</ele><time>2026-04-26T14:27:56.999Z</time></trkpt><trkpt lat="44.83285567280592" lon="10.855917926287457"><ele>21.0</ele><time>2026-04-26T14:27:57.999Z</time></trkpt><trkpt lat="44.83274588611256" lon="10.855877432910177"><ele>21.0</ele><time>2026-04-26T14:27:59Z</time></trkpt><trkpt lat="44.832632018142554" lon="10.855823777901378"><ele>20.5</ele><time>2026-04-26T14:28:00Z</time></trkpt><trkpt lat="44.83251511324338" lon="10.855770708733669"><ele>20.0</ele><time>2026-04-26T14:28:01Z</time></trkpt><trkpt lat="44.83239251182269" lon="10.855725228897695"><ele>19.5</ele><time>2026-04-26T14:28:02Z</time></trkpt><trkpt lat="44.83227482325814" lon="10.855681694608391"><ele>19.0</ele><time>2026-04-26T14:28:03Z</time></trkpt><trkpt lat="44.83215503297763" lon="10.85563182637673"><ele>19.0</ele><time>2026-04-26T14:28:04Z</time></trkpt><trkpt lat="44.832035642097" lon="10.855586782810578"><ele>19.0</ele><time>2026-04-26T14:28:05Z</time></trkpt><trkpt lat="44.83192966195267" lon="10.855517950940829"><ele>19.0</ele><time>2026-04-26T14:28:06Z</time></trkpt><trkpt lat="44.831817140644716" lon="10.855470561478882"><ele>19.0</ele><time>2026-04-26T14:28:07Z</time></trkpt><trkpt lat="44.83170996087724" lon="10.855429222855896"><ele>18.75</ele><time>2026-04-26T14:28:08Z</time></trkpt><trkpt lat="44.83159424008334" lon="10.855385761621402"><ele>18.5</ele><time>2026-04-26T14:28:09Z</time></trkpt><trkpt lat="44.8314759718067" lon="10.855341750140928"><ele>18.25</ele><time>2026-04-26T14:28:10Z</time></trkpt><trkpt lat="44.83135348015923" lon="10.855315940059626"><ele>18.0</ele><time>2026-04-26T14:28:11Z</time></trkpt><trkpt lat="44.83123744025574" lon="10.85526505113582"><ele>18.0</ele><time>2026-04-26T14:28:12Z</time></trkpt><trkpt lat="44.83112026134011" lon="10.85521896799041"><ele>18.0</ele><time>2026-04-26T14:28:13Z</time></trkpt><trkpt lat="44.83099818531524" lon="10.855171294602531"><ele>18.0</ele><time>2026-04-26T14:28:14Z</time></trkpt><trkpt lat="44.83087364224715" lon="10.855129904269214"><ele>18.0</ele><time>2026-04-26T14:28:15Z</time></trkpt><trkpt lat="44.83075521315443" lon="10.855089768656885"><ele>19.0</ele><time>2026-04-26T14:28:16Z</time></trkpt><trkpt lat="44.830640673347496" lon="10.855045444673747"><ele>20.0</ele><time>2026-04-26T14:28:17Z</time></trkpt><trkpt lat="44.830521139701844" lon="10.855001544355071"><ele>21.0</ele><time>2026-04-26T14:28:18Z</time></trkpt><trkpt lat="44.83040102927873" lon="10.854950629537859"><ele>22.0</ele><time>2026-04-26T14:28:19Z</time></trkpt><trkpt lat="44.83027000922486" lon="10.854906503033542"><ele>22.0</ele><time>2026-04-26T14:28:20Z</time></trkpt><trkpt lat="44.83014701899816" lon="10.85487045114559"><ele>22.0</ele><time>2026-04-26T14:28:21Z</time></trkpt><trkpt lat="44.83002289230345" lon="10.85482055186037"><ele>22.0</ele><time>2026-04-26T14:28:22Z</time></trkpt><trkpt lat="44.82989429419829" lon="10.854780999567746"><ele>22.0</ele><time>2026-04-26T14:28:23Z</time></trkpt><trkpt lat="44.82976346151176" lon="10.854735020142375"><ele>21.5</ele><time>2026-04-26T14:28:24Z</time></trkpt><trkpt lat="44.82962665249448" lon="10.854695423929059"><ele>21.0</ele><time>2026-04-26T14:28:25Z</time></trkpt><trkpt lat="44.82948900220031" lon="10.854658665794998"><ele>20.5</ele><time>2026-04-26T14:28:26Z</time></trkpt><trkpt lat="44.82935220633651" lon="10.854623486706574"><ele>20.0</ele><time>2026-04-26T14:28:27Z</time></trkpt><trkpt lat="44.82921347265719" lon="10.854584136105451"><ele>20.0</ele><time>2026-04-26T14:28:28Z</time></trkpt><trkpt lat="44.82907366992664" lon="10.854557641069894"><ele>20.0</ele><time>2026-04-26T14:28:29Z</time></trkpt><trkpt lat="44.82893196131806" lon="10.854538083342643"><ele>20.0</ele><time>2026-04-26T14:28:30Z</time></trkpt><trkpt lat="44.8287946113598" lon="10.85451706139722"><ele>20.0</ele><time>2026-04-26T14:28:31Z</time></trkpt><trkpt lat="44.82865952529205" lon="10.854492093217367"><ele>20.0</ele><time>2026-04-26T14:28:32Z</time></trkpt><trkpt lat="44.82851914433939" lon="10.854464518376343"><ele>20.0</ele><time>2026-04-26T14:28:33Z</time></trkpt><trkpt lat="44.82838215618638" lon="10.854442076144599"><ele>20.0</ele><time>2026-04-26T14:28:34Z</time></trkpt><trkpt lat="44.828242579493356" lon="10.854419679204357"><ele>20.0</ele><time>2026-04-26T14:28:35Z</time></trkpt><trkpt lat="44.828103021016545" lon="10.854403614921138"><ele>20.0</ele><time>2026-04-26T14:28:36Z</time></trkpt><trkpt lat="44.827965543107105" lon="10.854391053158384"><ele>20.0</ele><time>2026-04-26T14:28:37Z</time></trkpt><trkpt lat="44.82783044118385" lon="10.85437583496442"><ele>20.0</ele><time>2026-04-26T14:28:38Z</time></trkpt><trkpt lat="44.827689522667065" lon="10.85436189177958"><ele>20.0</ele><time>2026-04-26T14:28:39Z</time></trkpt><trkpt lat="44.82756177285015" lon="10.85435036711572"><ele>20.0</ele><time>2026-04-26T14:28:40Z</time></trkpt><trkpt lat="44.827432345599796" lon="10.854338190403913"><ele>20.0</ele><time>2026-04-26T14:28:41Z</time></trkpt><trkpt lat="44.827315301010366" lon="10.85433187052483"><ele>20.0</ele><time>2026-04-26T14:28:42Z</time></trkpt><trkpt lat="44.827188813848664" lon="10.854326645920684"><ele>20.0</ele><time>2026-04-26T14:28:43Z</time></trkpt><trkpt lat="44.82706034577708" lon="10.854321341478695"><ele>20.0</ele><time>2026-04-26T14:28:44Z</time></trkpt><trkpt lat="44.82692836266136" lon="10.854313613163477"><ele>20.0</ele><time>2026-04-26T14:28:45Z</time></trkpt><trkpt lat="44.826794648837414" lon="10.854304330773225"><ele>20.0</ele><time>2026-04-26T14:28:46Z</time></trkpt><trkpt lat="44.82665570666036" lon="10.854295751634229"><ele>20.0</ele><time>2026-04-26T14:28:47Z</time></trkpt><trkpt lat="44.82651309125067" lon="10.854292698003613"><ele>20.0</ele><time>2026-04-26T14:28:48Z</time></trkpt><trkpt lat="44.82636950540513" lon="10.8542905129431"><ele>20.0</ele><time>2026-04-26T14:28:49Z</time></trkpt><trkpt lat="44.826225610475845" lon="10.854286415230913"><ele>20.0</ele><time>2026-04-26T14:28:50Z</time></trkpt><trkpt lat="44.82608200338724" lon="10.854274207661812"><ele>20.0</ele><time>2026-04-26T14:28:51Z</time></trkpt><trkpt lat="44.82594107090988" lon="10.854266667666803"><ele>20.0</ele><time>2026-04-26T14:28:52Z</time></trkpt><trkpt lat="44.825797592688126" lon="10.854259182297548"><ele>20.0</ele><time>2026-04-26T14:28:53Z</time></trkpt><trkpt lat="44.825653467292874" lon="10.854250876410102"><ele>20.0</ele><time>2026-04-26T14:28:54Z</time></trkpt><trkpt lat="44.82550718155155" lon="10.854244255806798"><ele>20.0</ele><time>2026-04-26T14:28:55Z</time></trkpt><trkpt lat="44.825366727781955" lon="10.854242235420653"><ele>20.0</ele><time>2026-04-26T14:28:56Z</time></trkpt><trkpt lat="44.825228745618816" lon="10.85423636515845"><ele>20.0</ele><time>2026-04-26T14:28:57Z</time></trkpt><trkpt lat="44.82509308924204" lon="10.854231396429562"><ele>20.0</ele><time>2026-04-26T14:28:58Z</time></trkpt><trkpt lat="44.82495253204632" lon="10.85422542249702"><ele>20.0</ele><time>2026-04-26T14:28:59Z</time></trkpt><trkpt lat="44.82481608579145" lon="10.85419607026345"><ele>20.0</ele><time>2026-04-26T14:29:00Z</time></trkpt><trkpt lat="44.82468688702399" lon="10.854190109588702"><ele>20.0</ele><time>2026-04-26T14:29:01Z</time></trkpt><trkpt lat="44.82454623743191" lon="10.854183639678741"><ele>20.0</ele><time>2026-04-26T14:29:02Z</time></trkpt><trkpt lat="44.824405639660796" lon="10.85417717215381"><ele>20.0</ele><time>2026-04-26T14:29:03Z</time></trkpt><trkpt lat="44.82425928050743" lon="10.854170439603193"><ele>20.25</ele><time>2026-04-26T14:29:04Z</time></trkpt><trkpt lat="44.824109994537196" lon="10.854163572418969"><ele>20.5</ele><time>2026-04-26T14:29:05Z</time></trkpt><trkpt lat="44.82396720313386" lon="10.854157003985135"><ele>20.75</ele><time>2026-04-26T14:29:06Z</time></trkpt><trkpt lat="44.823820724322594" lon="10.854150265930343"><ele>21.0</ele><time>2026-04-26T14:29:07Z</time></trkpt><trkpt lat="44.82367793809988" lon="10.854143880624912"><ele>21.0</ele><time>2026-04-26T14:29:08Z</time></trkpt><trkpt lat="44.82353372483786" lon="10.854159836096896"><ele>21.0</ele><time>2026-04-26T14:29:09Z</time></trkpt><trkpt lat="44.82340858103721" lon="10.854132734816586"><ele>21.0</ele><time>2026-04-26T14:29:10Z</time></trkpt><trkpt lat="44.823304474212506" lon="10.854128426947788"><ele>21.0</ele><time>2026-04-26T14:29:11Z</time></trkpt><trkpt lat="44.82320662571188" lon="10.854126437310741"><ele>21.166666666666668</ele><time>2026-04-26T14:29:12Z</time></trkpt><trkpt lat="44.823109722545674" lon="10.854144136578553"><ele>21.333333333333332</ele><time>2026-04-26T14:29:13Z</time></trkpt><trkpt lat="44.823018986202044" lon="10.854141294354852"><ele>21.5</ele><time>2026-04-26T14:29:14Z</time></trkpt><trkpt lat="44.82293423979569" lon="10.854147611500757"><ele>21.666666666666664</ele><time>2026-04-26T14:29:15Z</time></trkpt><trkpt lat="44.822855050887846" lon="10.854157044107694"><ele>21.833333333333332</ele><time>2026-04-26T14:29:16Z</time></trkpt><trkpt lat="44.822770031913976" lon="10.854162641643235"><ele>22.0</ele><time>2026-04-26T14:29:17Z</time></trkpt><trkpt lat="44.8226814120941" lon="10.854168548681175"><ele>21.833333333333332</ele><time>2026-04-26T14:29:18Z</time></trkpt><trkpt lat="44.822599838600354" lon="10.854170144775422"><ele>21.666666666666664</ele><time>2026-04-26T14:29:19Z</time></trkpt><trkpt lat="44.822518103466344" lon="10.85417601376421"><ele>21.5</ele><time>2026-04-26T14:29:20Z</time></trkpt><trkpt lat="44.82243517212141" lon="10.854184868346941"><ele>21.333333333333332</ele><time>2026-04-26T14:29:21Z</time></trkpt><trkpt lat="44.82235098523761" lon="10.854192281817939"><ele>21.166666666666668</ele><time>2026-04-26T14:29:22Z</time></trkpt><trkpt lat="44.82225536381974" lon="10.85419564512492"><ele>21.0</ele><time>2026-04-26T14:29:23Z</time></trkpt><trkpt lat="44.822155910158926" lon="10.854200013968745"><ele>21.0</ele><time>2026-04-26T14:29:24Z</time></trkpt><trkpt lat="44.82205702774379" lon="10.854206777874824"><ele>21.0</ele><time>2026-04-26T14:29:25Z</time></trkpt><trkpt lat="44.82195892138826" lon="10.854212987756714"><ele>21.0</ele><time>2026-04-26T14:29:26Z</time></trkpt><trkpt lat="44.821858574297025" lon="10.854221415313043"><ele>21.0</ele><time>2026-04-26T14:29:27Z</time></trkpt><trkpt lat="44.82175275816766" lon="10.854229574843227"><ele>21.0</ele><time>2026-04-26T14:29:28Z</time></trkpt><trkpt lat="44.82164871458938" lon="10.854234452494925"><ele>21.0</ele><time>2026-04-26T14:29:29Z</time></trkpt><trkpt lat="44.82154406955574" lon="10.85424696026326"><ele>21.0</ele><time>2026-04-26T14:29:30Z</time></trkpt><trkpt lat="44.82144066667" lon="10.854235372681694"><ele>21.0</ele><time>2026-04-26T14:29:31Z</time></trkpt><trkpt lat="44.821345052907354" lon="10.854241526536539"><ele>21.0</ele><time>2026-04-26T14:29:32Z</time></trkpt><trkpt lat="44.82123650307795" lon="10.85426578304536"><ele>21.0</ele><time>2026-04-26T14:29:33Z</time></trkpt><trkpt lat="44.821135253917326" lon="10.854275922081234"><ele>21.0</ele><time>2026-04-26T14:29:34Z</time></trkpt><trkpt lat="44.82103225273417" lon="10.85425939379147"><ele>21.0</ele><time>2026-04-26T14:29:35Z</time></trkpt><trkpt lat="44.8209310505822" lon="10.85426748967975"><ele>21.0</ele><time>2026-04-26T14:29:36Z</time></trkpt><trkpt lat="44.82083194472979" lon="10.854275416005983"><ele>21.0</ele><time>2026-04-26T14:29:37Z</time></trkpt><trkpt lat="44.82073444304296" lon="10.854283214031351"><ele>21.0</ele><time>2026-04-26T14:29:38Z</time></trkpt><trkpt lat="44.82062628548753" lon="10.854309853273456"><ele>20.75</ele><time>2026-04-26T14:29:39Z</time></trkpt><trkpt lat="44.8205162100041" lon="10.854320056178407"><ele>20.5</ele><time>2026-04-26T14:29:40Z</time></trkpt><trkpt lat="44.820404198771186" lon="10.854324612310847"><ele>20.25</ele><time>2026-04-26T14:29:41Z</time></trkpt><trkpt lat="44.82028993371063" lon="10.854331574807265"><ele>20.0</ele><time>2026-04-26T14:29:42Z</time></trkpt><trkpt lat="44.82017529144237" lon="10.854337597352231"><ele>20.0</ele><time>2026-04-26T14:29:43Z</time></trkpt><trkpt lat="44.820060123665094" lon="10.854347529617428"><ele>20.0</ele><time>2026-04-26T14:29:44Z</time></trkpt><trkpt lat="44.81994389710204" lon="10.854356410929395"><ele>20.0</ele><time>2026-04-26T14:29:45Z</time></trkpt><trkpt lat="44.81982332431061" lon="10.85436321076202"><ele>20.0</ele><time>2026-04-26T14:29:46Z</time></trkpt><trkpt lat="44.81969936401244" lon="10.854370130226835"><ele>20.0</ele><time>2026-04-26T14:29:47Z</time></trkpt><trkpt lat="44.81957133564738" lon="10.854379813189317"><ele>20.0</ele><time>2026-04-26T14:29:48Z</time></trkpt><trkpt lat="44.819448320136004" lon="10.854387386855931"><ele>20.0</ele><time>2026-04-26T14:29:49Z</time></trkpt><trkpt lat="44.819325594811986" lon="10.854395340357206"><ele>20.0</ele><time>2026-04-26T14:29:50Z</time></trkpt><trkpt lat="44.819204728770224" lon="10.854399709074077"><ele>19.5</ele><time>2026-04-26T14:29:51Z</time></trkpt><trkpt lat="44.81908421280704" lon="10.854409583660992"><ele>19.0</ele><time>2026-04-26T14:29:52Z</time></trkpt><trkpt lat="44.81896764023241" lon="10.85441948367299"><ele>18.5</ele><time>2026-04-26T14:29:53Z</time></trkpt><trkpt lat="44.81885332494753" lon="10.854427717300199"><ele>18.0</ele><time>2026-04-26T14:29:54Z</time></trkpt><trkpt lat="44.81873895351069" lon="10.854434186656713"><ele>18.0</ele><time>2026-04-26T14:29:55Z</time></trkpt><trkpt lat="44.818622787487094" lon="10.854437661177974"><ele>18.0</ele><time>2026-04-26T14:29:56Z</time></trkpt><trkpt lat="44.81850427829815" lon="10.854443599433305"><ele>18.0</ele><time>2026-04-26T14:29:57Z</time></trkpt><trkpt lat="44.818386152007726" lon="10.854450567328707"><ele>18.0</ele><time>2026-04-26T14:29:58Z</time></trkpt><trkpt lat="44.81826915053417" lon="10.85445765961707"><ele>18.5</ele><time>2026-04-26T14:29:59Z</time></trkpt><trkpt lat="44.81815430562691" lon="10.854466929523625"><ele>19.0</ele><time>2026-04-26T14:30:00Z</time></trkpt><trkpt lat="44.81804085996238" lon="10.854476115985541"><ele>19.5</ele><time>2026-04-26T14:30:01Z</time></trkpt><trkpt lat="44.81792820039377" lon="10.854483776443534"><ele>20.0</ele><time>2026-04-26T14:30:02Z</time></trkpt><trkpt lat="44.817812877910065" lon="10.854491093048853"><ele>20.0</ele><time>2026-04-26T14:30:03Z</time></trkpt><trkpt lat="44.817698476030635" lon="10.85449809824665"><ele>20.0</ele><time>2026-04-26T14:30:04Z</time></trkpt><trkpt lat="44.81758103732074" lon="10.854502716145458"><ele>20.0</ele><time>2026-04-26T14:30:05.001Z</time></trkpt><trkpt lat="44.81746286495242" lon="10.854502793392543"><ele>20.0</ele><time>2026-04-26T14:30:06.001Z</time></trkpt><trkpt lat="44.817343586804185" lon="10.854502536407512"><ele>20.8</ele><time>2026-04-26T14:30:07.001Z</time></trkpt><trkpt lat="44.81722523792015" lon="10.854503400948328"><ele>21.6</ele><time>2026-04-26T14:30:08.001Z</time></trkpt><trkpt lat="44.8171135870771" lon="10.854500224976848"><ele>22.4</ele><time>2026-04-26T14:30:09.001Z</time></trkpt><trkpt lat="44.817011047346185" lon="10.85450083469402"><ele>23.2</ele><time>2026-04-26T14:30:10.001Z</time></trkpt><trkpt lat="44.81691203319112" lon="10.85450020904957"><ele>24.0</ele><time>2026-04-26T14:30:11.001Z</time></trkpt><trkpt lat="44.8168105421423" lon="10.854490436998699"><ele>24.333333333333332</ele><time>2026-04-26T14:30:12.001Z</time></trkpt><trkpt lat="44.81671625536169" lon="10.854492005341756"><ele>24.666666666666664</ele><time>2026-04-26T14:30:13.001Z</time></trkpt><trkpt lat="44.816627619213605" lon="10.854492454271172"><ele>25.0</ele><time>2026-04-26T14:30:14.001Z</time></trkpt><trkpt lat="44.81654889347982" lon="10.854492963202741"><ele>25.333333333333332</ele><time>2026-04-26T14:30:15.001Z</time></trkpt><trkpt lat="44.81648461783066" lon="10.854497470935915"><ele>25.666666666666664</ele><time>2026-04-26T14:30:16.001Z</time></trkpt><trkpt lat="44.81641819174228" lon="10.854491377559246"><ele>26.0</ele><time>2026-04-26T14:30:18.001Z</time></trkpt><trkpt lat="44.8164132147692" lon="10.854694431396696"><ele>25.999999999999996</ele><time>2026-04-26T14:30:19.001Z</time></trkpt><trkpt lat="44.81641639470568" lon="10.854797530103236"><ele>26.0</ele><time>2026-04-26T14:30:20.001Z</time></trkpt><trkpt lat="44.81641922302593" lon="10.854905305998704"><ele>26.0</ele><time>2026-04-26T14:30:21.001Z</time></trkpt><trkpt lat="44.81641846643757" lon="10.855024286995821"><ele>26.0</ele><time>2026-04-26T14:30:22.001Z</time></trkpt><trkpt lat="44.81641351596986" lon="10.855145405138861"><ele>25.999999999999996</ele><time>2026-04-26T14:30:23.001Z</time></trkpt><trkpt lat="44.816405659637354" lon="10.85527292640999"><ele>26.0</ele><time>2026-04-26T14:30:24.001Z</time></trkpt><trkpt lat="44.81639600391459" lon="10.855395695115272"><ele>25.6</ele><time>2026-04-26T14:30:25.001Z</time></trkpt><trkpt lat="44.81638284820028" lon="10.855520303717471"><ele>25.200000000000003</ele><time>2026-04-26T14:30:26.001Z</time></trkpt><trkpt lat="44.81636846644097" lon="10.855648504133109"><ele>24.799999999999997</ele><time>2026-04-26T14:30:27.001Z</time></trkpt><trkpt lat="44.8163514521699" lon="10.855773058615881"><ele>24.4</ele><time>2026-04-26T14:30:28.001Z</time></trkpt><trkpt lat="44.81634147709268" lon="10.855907395300235"><ele>24.0</ele><time>2026-04-26T14:30:29.001Z</time></trkpt><trkpt lat="44.816331295791755" lon="10.856042973702138"><ele>23.6</ele><time>2026-04-26T14:30:30.001Z</time></trkpt><trkpt lat="44.81632049453372" lon="10.856177263636813"><ele>23.2</ele><time>2026-04-26T14:30:31.001Z</time></trkpt><trkpt lat="44.81630709196486" lon="10.856313171004345"><ele>22.8</ele><time>2026-04-26T14:30:32.001Z</time></trkpt><trkpt lat="44.816293801193304" lon="10.856449454990798"><ele>22.400000000000002</ele><time>2026-04-26T14:30:33.001Z</time></trkpt><trkpt lat="44.81628087704075" lon="10.856583920989165"><ele>22.0</ele><time>2026-04-26T14:30:34.001Z</time></trkpt><trkpt lat="44.81626865407472" lon="10.856718495369948"><ele>22.200000000000003</ele><time>2026-04-26T14:30:35.001Z</time></trkpt><trkpt lat="44.816256412634274" lon="10.856856202122799"><ele>22.4</ele><time>2026-04-26T14:30:36.001Z</time></trkpt><trkpt lat="44.81624249671199" lon="10.856989635378223"><ele>22.6</ele><time>2026-04-26T14:30:37.001Z</time></trkpt><trkpt lat="44.81622708818179" lon="10.8571173109885"><ele>22.799999999999997</ele><time>2026-04-26T14:30:38.001Z</time></trkpt><trkpt lat="44.81621270070018" lon="10.857240978179215"><ele>23.0</ele><time>2026-04-26T14:30:39.001Z</time></trkpt><trkpt lat="44.8161987267815" lon="10.857358945684792"><ele>23.0</ele><time>2026-04-26T14:30:40.001Z</time></trkpt><trkpt lat="44.816177342158504" lon="10.857456858834833"><ele>23.0</ele><time>2026-04-26T14:30:41.001Z</time></trkpt><trkpt lat="44.81613663304541" lon="10.857540840228205"><ele>23.0</ele><time>2026-04-26T14:30:42.001Z</time></trkpt><trkpt lat="44.81607317365273" lon="10.857604666664205"><ele>23.0</ele><time>2026-04-26T14:30:43.001Z</time></trkpt><trkpt lat="44.81604133649744" lon="10.857691104148804"><ele>23.0</ele><time>2026-04-26T14:30:44.001Z</time></trkpt><trkpt lat="44.81589491583369" lon="10.85761452741784"><ele>23.0</ele><time>2026-04-26T14:30:45.001Z</time></trkpt><trkpt lat="44.815794297054374" lon="10.857627174517658"><ele>23.0</ele><time>2026-04-26T14:30:46.001Z</time></trkpt><trkpt lat="44.815693897813375" lon="10.857623247209485"><ele>23.0</ele><time>2026-04-26T14:30:47.001Z</time></trkpt><trkpt lat="44.8155938315795" lon="10.857627214842543"><ele>23.0</ele><time>2026-04-26T14:30:48.001Z</time></trkpt><trkpt lat="44.81548619450591" lon="10.857626990766148"><ele>23.0</ele><time>2026-04-26T14:30:49.001Z</time></trkpt><trkpt lat="44.815375452382256" lon="10.857631879931107"><ele>23.0</ele><time>2026-04-26T14:30:50.001Z</time></trkpt><trkpt lat="44.81526450639006" lon="10.857631798074843"><ele>23.0</ele><time>2026-04-26T14:30:51.001Z</time></trkpt><trkpt lat="44.81514696638204" lon="10.857632732190172"><ele>23.0</ele><time>2026-04-26T14:30:52.001Z</time></trkpt><trkpt lat="44.81503320076303" lon="10.85763046319667"><ele>23.0</ele><time>2026-04-26T14:30:53Z</time></trkpt><trkpt lat="44.81492782065371" lon="10.85762938476997"><ele>23.0</ele><time>2026-04-26T14:30:54Z</time></trkpt><trkpt lat="44.81483301406539" lon="10.857632328370148"><ele>23.0</ele><time>2026-04-26T14:30:55Z</time></trkpt><trkpt lat="44.8147360004088" lon="10.85762570619126"><ele>23.2</ele><time>2026-04-26T14:30:56Z</time></trkpt><trkpt lat="44.814638191411284" lon="10.85761745437373"><ele>23.4</ele><time>2026-04-26T14:30:57Z</time></trkpt><trkpt lat="44.814542522505356" lon="10.857596205153559"><ele>23.599999999999998</ele><time>2026-04-26T14:30:58Z</time></trkpt><trkpt lat="44.814452454039845" lon="10.857542121068455"><ele>23.799999999999997</ele><time>2026-04-26T14:30:59Z</time></trkpt><trkpt lat="44.81439559524729" lon="10.85741563728872"><ele>24.0</ele><time>2026-04-26T14:31:00Z</time></trkpt><trkpt lat="44.814340397131126" lon="10.857299631234653"><ele>24.0</ele><time>2026-04-26T14:31:01Z</time></trkpt><trkpt lat="44.81433121423851" lon="10.857154612436517"><ele>24.0</ele><time>2026-04-26T14:31:02Z</time></trkpt><trkpt lat="44.81432641113984" lon="10.856994783824472"><ele>24.0</ele><time>2026-04-26T14:31:03Z</time></trkpt><trkpt lat="44.81431066696691" lon="10.856824339817098"><ele>24.0</ele><time>2026-04-26T14:31:04Z</time></trkpt><trkpt lat="44.81431651627076" lon="10.856650899403158"><ele>24.0</ele><time>2026-04-26T14:31:05Z</time></trkpt><trkpt lat="44.814324412719586" lon="10.85647117184442"><ele>24.0</ele><time>2026-04-26T14:31:06Z</time></trkpt><trkpt lat="44.81432230179885" lon="10.856293841949004"><ele>24.0</ele><time>2026-04-26T14:31:07Z</time></trkpt><trkpt lat="44.81432894122928" lon="10.856117709769068"><ele>24.0</ele><time>2026-04-26T14:31:08Z</time></trkpt><trkpt lat="44.81432369480569" lon="10.855927140294588"><ele>24.0</ele><time>2026-04-26T14:31:09Z</time></trkpt><trkpt lat="44.81432911540039" lon="10.855726032707473"><ele>24.0</ele><time>2026-04-26T14:31:10Z</time></trkpt><trkpt lat="44.81433022390904" lon="10.855519689166538"><ele>24.0</ele><time>2026-04-26T14:31:11Z</time></trkpt><trkpt lat="44.814324726974476" lon="10.855315321780074"><ele>24.0</ele><time>2026-04-26T14:31:12Z</time></trkpt><trkpt lat="44.814313195013504" lon="10.855109932641241"><ele>23.75</ele><time>2026-04-26T14:31:13Z</time></trkpt><trkpt lat="44.81429811949133" lon="10.854908664029645"><ele>23.5</ele><time>2026-04-26T14:31:14Z</time></trkpt><trkpt lat="44.814283348308905" lon="10.854706733763502"><ele>23.25</ele><time>2026-04-26T14:31:15Z</time></trkpt><trkpt lat="44.814268451784486" lon="10.854505875664858"><ele>23.0</ele><time>2026-04-26T14:31:16Z</time></trkpt><trkpt lat="44.81424588662143" lon="10.854300143670638"><ele>23.25</ele><time>2026-04-26T14:31:17Z</time></trkpt><trkpt lat="44.81422997939208" lon="10.854101463054219"><ele>23.5</ele><time>2026-04-26T14:31:18Z</time></trkpt><trkpt lat="44.81421062560588" lon="10.85390016253058"><ele>23.75</ele><time>2026-04-26T14:31:19Z</time></trkpt><trkpt lat="44.8141906065789" lon="10.853701748257015"><ele>24.0</ele><time>2026-04-26T14:31:20Z</time></trkpt><trkpt lat="44.814190229584746" lon="10.853500630777113"><ele>23.75</ele><time>2026-04-26T14:31:21Z</time></trkpt><trkpt lat="44.81417360514201" lon="10.853304496289972"><ele>23.5</ele><time>2026-04-26T14:31:22Z</time></trkpt><trkpt lat="44.814156983423615" lon="10.853108393948194"><ele>23.25</ele><time>2026-04-26T14:31:23Z</time></trkpt><trkpt lat="44.81414030315816" lon="10.852913432639266"><ele>23.0</ele><time>2026-04-26T14:31:24Z</time></trkpt><trkpt lat="44.81412343088775" lon="10.852722634681747"><ele>22.75</ele><time>2026-04-26T14:31:25Z</time></trkpt><trkpt lat="44.81410696580409" lon="10.852540349657245"><ele>22.5</ele><time>2026-04-26T14:31:26Z</time></trkpt><trkpt lat="44.81409081635251" lon="10.852361558999426"><ele>22.25</ele><time>2026-04-26T14:31:27Z</time></trkpt><trkpt lat="44.81407518840307" lon="10.852188541889051"><ele>22.0</ele><time>2026-04-26T14:31:28Z</time></trkpt><trkpt lat="44.814060142884195" lon="10.85201936260623"><ele>22.0</ele><time>2026-04-26T14:31:29Z</time></trkpt><trkpt lat="44.81404714457053" lon="10.851849202883479"><ele>22.0</ele><time>2026-04-26T14:31:30Z</time></trkpt><trkpt lat="44.81403528866084" lon="10.851678556862781"><ele>22.0</ele><time>2026-04-26T14:31:31Z</time></trkpt><trkpt lat="44.8140283883274" lon="10.851506178536814"><ele>22.0</ele><time>2026-04-26T14:31:32Z</time></trkpt><trkpt lat="44.814013414804904" lon="10.851323318219555"><ele>22.5</ele><time>2026-04-26T14:31:33Z</time></trkpt><trkpt lat="44.81401550669619" lon="10.851143811350486"><ele>23.0</ele><time>2026-04-26T14:31:34Z</time></trkpt><trkpt lat="44.81401838376648" lon="10.850957083630279"><ele>23.5</ele><time>2026-04-26T14:31:35Z</time></trkpt><trkpt lat="44.814020794147474" lon="10.850772210981344"><ele>24.0</ele><time>2026-04-26T14:31:36Z</time></trkpt><trkpt lat="44.814027083148545" lon="10.850588976158148"><ele>24.25</ele><time>2026-04-26T14:31:37Z</time></trkpt><trkpt lat="44.81403036803652" lon="10.850409726536403"><ele>24.5</ele><time>2026-04-26T14:31:38Z</time></trkpt><trkpt lat="44.81402997626077" lon="10.850238215959964"><ele>24.75</ele><time>2026-04-26T14:31:39Z</time></trkpt><trkpt lat="44.814026202748" lon="10.850073339754037"><ele>25.0</ele><time>2026-04-26T14:31:40Z</time></trkpt><trkpt lat="44.81401453239984" lon="10.849912701399155"><ele>25.0</ele><time>2026-04-26T14:31:41Z</time></trkpt><trkpt lat="44.81399888125706" lon="10.849763968721483"><ele>25.0</ele><time>2026-04-26T14:31:42Z</time></trkpt><trkpt lat="44.813979838364425" lon="10.849616033046921"><ele>25.0</ele><time>2026-04-26T14:31:43Z</time></trkpt><trkpt lat="44.81397949396022" lon="10.849465672651226"><ele>25.0</ele><time>2026-04-26T14:31:44Z</time></trkpt><trkpt lat="44.813963236729535" lon="10.849322538010993"><ele>25.0</ele><time>2026-04-26T14:31:45Z</time></trkpt><trkpt lat="44.8139467721514" lon="10.849177577828625"><ele>24.8</ele><time>2026-04-26T14:31:46Z</time></trkpt><trkpt lat="44.81393101060703" lon="10.849038807464924"><ele>24.6</ele><time>2026-04-26T14:31:47Z</time></trkpt><trkpt lat="44.813915344437866" lon="10.848900876751259"><ele>24.4</ele><time>2026-04-26T14:31:48Z</time></trkpt><trkpt lat="44.813899990854345" lon="10.848765698207144"><ele>24.2</ele><time>2026-04-26T14:31:49Z</time></trkpt><trkpt lat="44.813884870230595" lon="10.848633482257604"><ele>24.0</ele><time>2026-04-26T14:31:50Z</time></trkpt><trkpt lat="44.81386911561659" lon="10.8485019306158"><ele>24.0</ele><time>2026-04-26T14:31:51Z</time></trkpt><trkpt lat="44.813838134953315" lon="10.848375735186229"><ele>24.0</ele><time>2026-04-26T14:31:52Z</time></trkpt><trkpt lat="44.8138328318247" lon="10.84827354043359"><ele>24.0</ele><time>2026-04-26T14:31:53Z</time></trkpt><trkpt lat="44.81381454102646" lon="10.848152729576624"><ele>24.0</ele><time>2026-04-26T14:31:55Z</time></trkpt><trkpt lat="44.81380769080355" lon="10.848040297184339"><ele>24.0</ele><time>2026-04-26T14:31:58Z</time></trkpt><trkpt lat="44.81367659620786" lon="10.848060202138116"><ele>24.0</ele><time>2026-04-26T14:32:00Z</time></trkpt><trkpt lat="44.8135677824545" lon="10.848120115543994"><ele>24.0</ele><time>2026-04-26T14:32:02Z</time></trkpt><trkpt lat="44.81350439565293" lon="10.848145488487544"><ele>24.0</ele><time>2026-04-26T14:32:03Z</time></trkpt><trkpt lat="44.81343663173299" lon="10.848177486432938"><ele>24.0</ele><time>2026-04-26T14:32:04Z</time></trkpt><trkpt lat="44.81336738585307" lon="10.848213427059022"><ele>24.0</ele><time>2026-04-26T14:32:05Z</time></trkpt><trkpt lat="44.81329945911499" lon="10.848253072227418"><ele>24.0</ele><time>2026-04-26T14:32:06Z</time></trkpt><trkpt lat="44.81323337336745" lon="10.848285518529108"><ele>24.0</ele><time>2026-04-26T14:32:07Z</time></trkpt><trkpt lat="44.81316728539232" lon="10.848312010575967"><ele>24.0</ele><time>2026-04-26T14:32:08Z</time></trkpt><trkpt lat="44.81308904721606" lon="10.848342026193308"><ele>24.0</ele><time>2026-04-26T14:32:09Z</time></trkpt><trkpt lat="44.81301217654413" lon="10.848356306098625"><ele>24.0</ele><time>2026-04-26T14:32:10Z</time></trkpt><trkpt lat="44.81291884354932" lon="10.848346625590631"><ele>24.0</ele><time>2026-04-26T14:32:11.001Z</time></trkpt><trkpt lat="44.812806501726946" lon="10.848371918165867"><ele>24.0</ele><time>2026-04-26T14:32:12.001Z</time></trkpt><trkpt lat="44.81267686496411" lon="10.848361072756738"><ele>23.5</ele><time>2026-04-26T14:32:13.001Z</time></trkpt><trkpt lat="44.812543385888006" lon="10.84835287567603"><ele>23.0</ele><time>2026-04-26T14:32:14.001Z</time></trkpt><trkpt lat="44.812414672105255" lon="10.848350408832207"><ele>22.5</ele><time>2026-04-26T14:32:15.001Z</time></trkpt><trkpt lat="44.81229017841002" lon="10.848342984063422"><ele>22.0</ele><time>2026-04-26T14:32:16.001Z</time></trkpt><trkpt lat="44.812167564604" lon="10.848336140346596"><ele>22.0</ele><time>2026-04-26T14:32:17.001Z</time></trkpt><trkpt lat="44.81205465195494" lon="10.848334884358955"><ele>22.0</ele><time>2026-04-26T14:32:18.001Z</time></trkpt><trkpt lat="44.81194918854354" lon="10.848330501997925"><ele>22.0</ele><time>2026-04-26T14:32:19.001Z</time></trkpt><trkpt lat="44.8118536827303" lon="10.848312013339687"><ele>22.0</ele><time>2026-04-26T14:32:20.001Z</time></trkpt><trkpt lat="44.811749394130906" lon="10.848320331713566"><ele>22.0</ele><time>2026-04-26T14:32:21.001Z</time></trkpt><trkpt lat="44.811655489682245" lon="10.848315436660545"><ele>22.200000000000003</ele><time>2026-04-26T14:32:22.001Z</time></trkpt><trkpt lat="44.81155238419264" lon="10.848307112590861"><ele>22.4</ele><time>2026-04-26T14:32:23.001Z</time></trkpt><trkpt lat="44.811446079899056" lon="10.848301905517074"><ele>22.6</ele><time>2026-04-26T14:32:24.001Z</time></trkpt><trkpt lat="44.81134630408383" lon="10.848283313744414"><ele>22.799999999999997</ele><time>2026-04-26T14:32:25.001Z</time></trkpt><trkpt lat="44.811238620728105" lon="10.848278747559014"><ele>23.0</ele><time>2026-04-26T14:32:26.001Z</time></trkpt><trkpt lat="44.81112852721841" lon="10.848274077160438"><ele>23.0</ele><time>2026-04-26T14:32:27.001Z</time></trkpt><trkpt lat="44.811016193931586" lon="10.848286256555783"><ele>23.0</ele><time>2026-04-26T14:32:28.001Z</time></trkpt><trkpt lat="44.81090370940305" lon="10.848280707807437"><ele>23.0</ele><time>2026-04-26T14:32:29.001Z</time></trkpt><trkpt lat="44.81079785101708" lon="10.848260049178377"><ele>23.0</ele><time>2026-04-26T14:32:30.001Z</time></trkpt><trkpt lat="44.81069551001212" lon="10.84825570765698"><ele>23.0</ele><time>2026-04-26T14:32:31.001Z</time></trkpt><trkpt lat="44.81059946770197" lon="10.8482731055104"><ele>23.0</ele><time>2026-04-26T14:32:32.001Z</time></trkpt><trkpt lat="44.81050786771834" lon="10.848263005673909"><ele>23.0</ele><time>2026-04-26T14:32:33.001Z</time></trkpt><trkpt lat="44.810427625632805" lon="10.848258981806369"><ele>23.0</ele><time>2026-04-26T14:32:34.001Z</time></trkpt><trkpt lat="44.810281394641216" lon="10.848256971323323"><ele>23.0</ele><time>2026-04-26T14:32:36.001Z</time></trkpt><trkpt lat="44.81021767429585" lon="10.848260461994071"><ele>23.0</ele><time>2026-04-26T14:32:37.001Z</time></trkpt><trkpt lat="44.81013391552578" lon="10.8482357106958"><ele>23.166666666666668</ele><time>2026-04-26T14:32:39.001Z</time></trkpt><trkpt lat="44.81015159151873" lon="10.848089273916896"><ele>23.333333333333336</ele><time>2026-04-26T14:32:41.001Z</time></trkpt><trkpt lat="44.81015359053911" lon="10.847997439917322"><ele>23.5</ele><time>2026-04-26T14:32:42.001Z</time></trkpt><trkpt lat="44.81014031440132" lon="10.847834099385505"><ele>23.666666666666668</ele><time>2026-04-26T14:32:44.001Z</time></trkpt><trkpt lat="44.8101482722824" lon="10.847737021340409"><ele>23.833333333333332</ele><time>2026-04-26T14:32:45.001Z</time></trkpt><trkpt lat="44.810160350914686" lon="10.84761652824847"><ele>24.0</ele><time>2026-04-26T14:32:46.001Z</time></trkpt><trkpt lat="44.81016258774799" lon="10.847490494458373"><ele>23.6</ele><time>2026-04-26T14:32:47.001Z</time></trkpt><trkpt lat="44.81016456995024" lon="10.847378807759561"><ele>23.2</ele><time>2026-04-26T14:32:48.001Z</time></trkpt><trkpt lat="44.81016683337798" lon="10.847251275492555"><ele>22.8</ele><time>2026-04-26T14:32:49.001Z</time></trkpt><trkpt lat="44.81016921949219" lon="10.847116830495589"><ele>22.400000000000002</ele><time>2026-04-26T14:32:50.001Z</time></trkpt><trkpt lat="44.810171733197976" lon="10.846975196367358"><ele>22.0</ele><time>2026-04-26T14:32:51.001Z</time></trkpt><trkpt lat="44.81017424210368" lon="10.846833832688441"><ele>22.200000000000003</ele><time>2026-04-26T14:32:52.001Z</time></trkpt><trkpt lat="44.81017698633368" lon="10.846679209783186"><ele>22.4</ele><time>2026-04-26T14:32:53.001Z</time></trkpt><trkpt lat="44.81017975307847" lon="10.84652331823441"><ele>22.6</ele><time>2026-04-26T14:32:54.001Z</time></trkpt><trkpt lat="44.81018262188813" lon="10.846361675878214"><ele>22.799999999999997</ele><time>2026-04-26T14:32:55.001Z</time></trkpt><trkpt lat="44.810185483867244" lon="10.846200418377723"><ele>23.0</ele><time>2026-04-26T14:32:56.001Z</time></trkpt><trkpt lat="44.810188308286435" lon="10.846041277193237"><ele>23.2</ele><time>2026-04-26T14:32:57.001Z</time></trkpt><trkpt lat="44.81019109701845" lon="10.845884146799168"><ele>23.4</ele><time>2026-04-26T14:32:58.001Z</time></trkpt><trkpt lat="44.81019380033365" lon="10.845731829190106"><ele>23.599999999999998</ele><time>2026-04-26T14:32:59.001Z</time></trkpt><trkpt lat="44.810196012660555" lon="10.845583062908611"><ele>23.799999999999997</ele><time>2026-04-26T14:33:00.001Z</time></trkpt><trkpt lat="44.81019735012299" lon="10.845438787732663"><ele>24.0</ele><time>2026-04-26T14:33:01.001Z</time></trkpt><trkpt lat="44.81019866080631" lon="10.845297401285617"><ele>24.0</ele><time>2026-04-26T14:33:02.001Z</time></trkpt><trkpt lat="44.81019999104285" lon="10.845153905586184"><ele>24.0</ele><time>2026-04-26T14:33:03.001Z</time></trkpt><trkpt lat="44.810203628423146" lon="10.84502034700566"><ele>24.0</ele><time>2026-04-26T14:33:04.001Z</time></trkpt><trkpt lat="44.810207483870784" lon="10.84489029748136"><ele>24.0</ele><time>2026-04-26T14:33:05.001Z</time></trkpt><trkpt lat="44.810209956064746" lon="10.844772569879861"><ele>24.0</ele><time>2026-04-26T14:33:06.001Z</time></trkpt><trkpt lat="44.81019492009777" lon="10.844659309724305"><ele>23.833333333333332</ele><time>2026-04-26T14:33:07.001Z</time></trkpt><trkpt lat="44.81018656725062" lon="10.84455760779659"><ele>23.666666666666668</ele><time>2026-04-26T14:33:08.001Z</time></trkpt><trkpt lat="44.81014310151513" lon="10.844452210063302"><ele>23.5</ele><time>2026-04-26T14:33:10Z</time></trkpt><trkpt lat="44.81009372378315" lon="10.844378906293281"><ele>23.333333333333336</ele><time>2026-04-26T14:33:11Z</time></trkpt><trkpt lat="44.81005082914411" lon="10.844271767149921"><ele>23.166666666666668</ele><time>2026-04-26T14:33:12Z</time></trkpt><trkpt lat="44.80998715087488" lon="10.84417332198333"><ele>23.0</ele><time>2026-04-26T14:33:13Z</time></trkpt><trkpt lat="44.80991662960792" lon="10.844070521055762"><ele>23.4</ele><time>2026-04-26T14:33:14Z</time></trkpt><trkpt lat="44.80984371055935" lon="10.843964224810328"><ele>23.799999999999997</ele><time>2026-04-26T14:33:15Z</time></trkpt><trkpt lat="44.809763892555914" lon="10.84385375371381"><ele>24.2</ele><time>2026-04-26T14:33:16Z</time></trkpt><trkpt lat="44.809686990397054" lon="10.843740356266082"><ele>24.6</ele><time>2026-04-26T14:33:17Z</time></trkpt><trkpt lat="44.809613871607496" lon="10.843620981275427"><ele>25.0</ele><time>2026-04-26T14:33:18Z</time></trkpt><trkpt lat="44.80954682888158" lon="10.84348071101916"><ele>24.5</ele><time>2026-04-26T14:33:19Z</time></trkpt><trkpt lat="44.809484981279724" lon="10.84332566799539"><ele>24.0</ele><time>2026-04-26T14:33:20Z</time></trkpt><trkpt lat="44.809424522132964" lon="10.84317240928546"><ele>23.5</ele><time>2026-04-26T14:33:21Z</time></trkpt><trkpt lat="44.809365477771834" lon="10.84302285960253"><ele>23.0</ele><time>2026-04-26T14:33:22Z</time></trkpt><trkpt lat="44.809306954834334" lon="10.842878210075078"><ele>23.0</ele><time>2026-04-26T14:33:23Z</time></trkpt><trkpt lat="44.80924841407074" lon="10.842733516492"><ele>23.0</ele><time>2026-04-26T14:33:24Z</time></trkpt><trkpt lat="44.809194940783144" lon="10.84258921888565"><ele>23.0</ele><time>2026-04-26T14:33:25Z</time></trkpt><trkpt lat="44.80915429978705" lon="10.842438700631172"><ele>23.0</ele><time>2026-04-26T14:33:26Z</time></trkpt><trkpt lat="44.80913427048736" lon="10.842283207018664"><ele>23.0</ele><time>2026-04-26T14:33:27Z</time></trkpt><trkpt lat="44.809132434021436" lon="10.842111502357673"><ele>23.0</ele><time>2026-04-26T14:33:28Z</time></trkpt><trkpt lat="44.80911962846484" lon="10.84192753672665"><ele>23.0</ele><time>2026-04-26T14:33:29Z</time></trkpt><trkpt lat="44.809126936098714" lon="10.841746511214792"><ele>23.0</ele><time>2026-04-26T14:33:30Z</time></trkpt><trkpt lat="44.809125709360785" lon="10.84156437012274"><ele>22.75</ele><time>2026-04-26T14:33:31Z</time></trkpt><trkpt lat="44.80913305097307" lon="10.841369409060379"><ele>22.5</ele><time>2026-04-26T14:33:32Z</time></trkpt><trkpt lat="44.80913696715148" lon="10.841171065979358"><ele>22.25</ele><time>2026-04-26T14:33:33Z</time></trkpt><trkpt lat="44.80914470930928" lon="10.840991774639916"><ele>22.0</ele><time>2026-04-26T14:33:34Z</time></trkpt><trkpt lat="44.809143747352195" lon="10.84084169627388"><ele>22.400000000000002</ele><time>2026-04-26T14:33:35Z</time></trkpt><trkpt lat="44.809152838876955" lon="10.840723173075755"><ele>22.8</ele><time>2026-04-26T14:33:36Z</time></trkpt><trkpt lat="44.809152475852414" lon="10.84063208944999"><ele>23.2</ele><time>2026-04-26T14:33:37Z</time></trkpt><trkpt lat="44.809165279782874" lon="10.8404904990958"><ele>23.6</ele><time>2026-04-26T14:33:45Z</time></trkpt><trkpt lat="44.809190763066766" lon="10.840318256200614"><ele>24.0</ele><time>2026-04-26T14:33:47Z</time></trkpt><trkpt lat="44.80920605165437" lon="10.840196285292137"><ele>24.166666666666668</ele><time>2026-04-26T14:33:48Z</time></trkpt><trkpt lat="44.80920499925026" lon="10.840068959782515"><ele>24.333333333333336</ele><time>2026-04-26T14:33:49Z</time></trkpt><trkpt lat="44.809237266479194" lon="10.839937670263394"><ele>24.5</ele><time>2026-04-26T14:33:50Z</time></trkpt><trkpt lat="44.80925057916452" lon="10.839811090138179"><ele>24.666666666666668</ele><time>2026-04-26T14:33:51Z</time></trkpt><trkpt lat="44.80924041922935" lon="10.839689158530271"><ele>24.833333333333336</ele><time>2026-04-26T14:33:52Z</time></trkpt><trkpt lat="44.8092306323662" lon="10.83958780581486"><ele>25.0</ele><time>2026-04-26T14:33:53Z</time></trkpt><trkpt lat="44.809150074981616" lon="10.839423132868575"><ele>25.000000000000004</ele><time>2026-04-26T14:33:55Z</time></trkpt><trkpt lat="44.80907156577636" lon="10.8393744402702"><ele>25.0</ele><time>2026-04-26T14:33:56Z</time></trkpt><trkpt lat="44.80900309012919" lon="10.839316588592286"><ele>25.0</ele><time>2026-04-26T14:33:57Z</time></trkpt><trkpt lat="44.808941828032054" lon="10.839269352914439"><ele>25.0</ele><time>2026-04-26T14:33:58Z</time></trkpt><trkpt lat="44.808895882454344" lon="10.839202925924042"><ele>25.000000000000004</ele><time>2026-04-26T14:33:59Z</time></trkpt><trkpt lat="44.80883797385438" lon="10.839151746248993"><ele>25.0</ele><time>2026-04-26T14:34:00Z</time></trkpt><trkpt lat="44.80876846553288" lon="10.839090314728132"><ele>24.833333333333336</ele><time>2026-04-26T14:34:01Z</time></trkpt><trkpt lat="44.80869662886339" lon="10.839026825412729"><ele>24.666666666666668</ele><time>2026-04-26T14:34:02Z</time></trkpt><trkpt lat="44.808620777227276" lon="10.838961110376315"><ele>24.5</ele><time>2026-04-26T14:34:03Z</time></trkpt><trkpt lat="44.808546959290716" lon="10.838898600962303"><ele>24.333333333333336</ele><time>2026-04-26T14:34:04Z</time></trkpt><trkpt lat="44.80846419234503" lon="10.838855519924223"><ele>24.166666666666668</ele><time>2026-04-26T14:34:05Z</time></trkpt><trkpt lat="44.808396131036304" lon="10.83878653459705"><ele>24.0</ele><time>2026-04-26T14:34:06Z</time></trkpt><trkpt lat="44.80832527832012" lon="10.838704818286374"><ele>24.0</ele><time>2026-04-26T14:34:07Z</time></trkpt><trkpt lat="44.8082448196981" lon="10.838629875546655"><ele>24.0</ele><time>2026-04-26T14:34:08Z</time></trkpt><trkpt lat="44.80816296376387" lon="10.838556499193574"><ele>24.0</ele><time>2026-04-26T14:34:09Z</time></trkpt><trkpt lat="44.8080798147326" lon="10.838480961916863"><ele>24.0</ele><time>2026-04-26T14:34:10Z</time></trkpt><trkpt lat="44.80799947289471" lon="10.838406956841778"><ele>24.0</ele><time>2026-04-26T14:34:11Z</time></trkpt><trkpt lat="44.8079159836471" lon="10.838329206801191"><ele>24.25</ele><time>2026-04-26T14:34:12Z</time></trkpt><trkpt lat="44.807827357685156" lon="10.838246673144802"><ele>24.5</ele><time>2026-04-26T14:34:13Z</time></trkpt><trkpt lat="44.80773402697385" lon="10.83815358662419"><ele>24.75</ele><time>2026-04-26T14:34:14Z</time></trkpt><trkpt lat="44.80764301361865" lon="10.838057095556367"><ele>25.0</ele><time>2026-04-26T14:34:15Z</time></trkpt><trkpt lat="44.80753889174128" lon="10.83796841903884"><ele>25.25</ele><time>2026-04-26T14:34:16.001Z</time></trkpt><trkpt lat="44.807450160305486" lon="10.837862374215486"><ele>25.5</ele><time>2026-04-26T14:34:17.001Z</time></trkpt><trkpt lat="44.80736702518677" lon="10.83773796104143"><ele>25.75</ele><time>2026-04-26T14:34:18.001Z</time></trkpt><trkpt lat="44.807269104866805" lon="10.837631230721616"><ele>26.0</ele><time>2026-04-26T14:34:19.001Z</time></trkpt><trkpt lat="44.80716912161701" lon="10.837526472744248"><ele>26.0</ele><time>2026-04-26T14:34:20.001Z</time></trkpt><trkpt lat="44.80706532016029" lon="10.837420159110478"><ele>26.0</ele><time>2026-04-26T14:34:21.001Z</time></trkpt><trkpt lat="44.80695667006486" lon="10.837312905203765"><ele>26.0</ele><time>2026-04-26T14:34:22.001Z</time></trkpt><trkpt lat="44.80684549336237" lon="10.837204485434931"><ele>26.0</ele><time>2026-04-26T14:34:23.001Z</time></trkpt><trkpt lat="44.80673027536191" lon="10.837092192574126"><ele>26.25</ele><time>2026-04-26T14:34:24.001Z</time></trkpt><trkpt lat="44.80661730903686" lon="10.83698217492822"><ele>26.5</ele><time>2026-04-26T14:34:25.001Z</time></trkpt><trkpt lat="44.80650846943668" lon="10.836876699988075"><ele>26.75</ele><time>2026-04-26T14:34:26.001Z</time></trkpt><trkpt lat="44.80639850650756" lon="10.836771188616437"><ele>27.0</ele><time>2026-04-26T14:34:27.001Z</time></trkpt><trkpt lat="44.80628694418945" lon="10.836668071265034"><ele>27.0</ele><time>2026-04-26T14:34:28.001Z</time></trkpt><trkpt lat="44.80617716091442" lon="10.836569458202954"><ele>27.0</ele><time>2026-04-26T14:34:29.001Z</time></trkpt><trkpt lat="44.806067833680736" lon="10.836476643454594"><ele>27.0</ele><time>2026-04-26T14:34:30.001Z</time></trkpt><trkpt lat="44.80596298499799" lon="10.83638876606987"><ele>27.0</ele><time>2026-04-26T14:34:31.001Z</time></trkpt><trkpt lat="44.80586095588138" lon="10.836300784440105"><ele>27.0</ele><time>2026-04-26T14:34:32.001Z</time></trkpt><trkpt lat="44.80576141271896" lon="10.836215730551096"><ele>27.000000000000004</ele><time>2026-04-26T14:34:33.001Z</time></trkpt><trkpt lat="44.805666039513945" lon="10.836135639571184"><ele>27.000000000000004</ele><time>2026-04-26T14:34:34.001Z</time></trkpt><trkpt lat="44.805577546321324" lon="10.836062034550883"><ele>27.0</ele><time>2026-04-26T14:34:35.001Z</time></trkpt><trkpt lat="44.80549768925002" lon="10.835993002952172"><ele>27.0</ele><time>2026-04-26T14:34:36.001Z</time></trkpt><trkpt lat="44.80542177251785" lon="10.83592657580857"><ele>27.0</ele><time>2026-04-26T14:34:37.001Z</time></trkpt><trkpt lat="44.80534604526401" lon="10.83587577750119"><ele>27.000000000000004</ele><time>2026-04-26T14:34:38.001Z</time></trkpt><trkpt lat="44.80529926416751" lon="10.835787335363472"><ele>27.000000000000004</ele><time>2026-04-26T14:34:39.001Z</time></trkpt><trkpt lat="44.805277457346854" lon="10.83558329674561"><ele>27.0</ele><time>2026-04-26T14:34:41.001Z</time></trkpt><trkpt lat="44.80529590862344" lon="10.835455887432422"><ele>27.0</ele><time>2026-04-26T14:34:42.001Z</time></trkpt><trkpt lat="44.80531069235816" lon="10.835313714005197"><ele>27.0</ele><time>2026-04-26T14:34:43.001Z</time></trkpt><trkpt lat="44.80538713344451" lon="10.835175827546317"><ele>27.0</ele><time>2026-04-26T14:34:44.001Z</time></trkpt><trkpt lat="44.80544013616675" lon="10.835025061722744"><ele>27.0</ele><time>2026-04-26T14:34:45.001Z</time></trkpt><trkpt lat="44.80549024086471" lon="10.834872322803813"><ele>27.0</ele><time>2026-04-26T14:34:46.001Z</time></trkpt><trkpt lat="44.80553377928347" lon="10.834717947350589"><ele>26.0</ele><time>2026-04-26T14:34:47.001Z</time></trkpt><trkpt lat="44.80557934801416" lon="10.834562969377727"><ele>25.0</ele><time>2026-04-26T14:34:48.001Z</time></trkpt><trkpt lat="44.80562825973757" lon="10.834407136397814"><ele>24.0</ele><time>2026-04-26T14:34:49.001Z</time></trkpt><trkpt lat="44.80567736547857" lon="10.834242712362009"><ele>23.0</ele><time>2026-04-26T14:34:50.001Z</time></trkpt><trkpt lat="44.80572744164447" lon="10.834076603863318"><ele>23.0</ele><time>2026-04-26T14:34:51.001Z</time></trkpt><trkpt lat="44.805781386013216" lon="10.833905016474809"><ele>23.0</ele><time>2026-04-26T14:34:52.001Z</time></trkpt><trkpt lat="44.80583246055905" lon="10.83373484122238"><ele>23.0</ele><time>2026-04-26T14:34:53.001Z</time></trkpt><trkpt lat="44.80588567882285" lon="10.833560511024395"><ele>23.0</ele><time>2026-04-26T14:34:54.001Z</time></trkpt><trkpt lat="44.805938725051675" lon="10.833387147350358"><ele>23.0</ele><time>2026-04-26T14:34:55Z</time></trkpt><trkpt lat="44.80604199550096" lon="10.833052841878855"><ele>23.0</ele><time>2026-04-26T14:34:57Z</time></trkpt><trkpt lat="44.80609060439838" lon="10.8328819754119"><ele>23.0</ele><time>2026-04-26T14:34:58Z</time></trkpt><trkpt lat="44.80613886050134" lon="10.832716118311476"><ele>23.5</ele><time>2026-04-26T14:34:59Z</time></trkpt><trkpt lat="44.80618699379079" lon="10.832547834445752"><ele>24.0</ele><time>2026-04-26T14:35:00Z</time></trkpt><trkpt lat="44.80622896162144" lon="10.832376983670203"><ele>24.5</ele><time>2026-04-26T14:35:01Z</time></trkpt><trkpt lat="44.8062641943989" lon="10.832198970500803"><ele>25.0</ele><time>2026-04-26T14:35:02Z</time></trkpt><trkpt lat="44.806293994162154" lon="10.83201723117191"><ele>25.0</ele><time>2026-04-26T14:35:03Z</time></trkpt><trkpt lat="44.80630966833123" lon="10.831830162504456"><ele>25.0</ele><time>2026-04-26T14:35:04Z</time></trkpt><trkpt lat="44.806317885831284" lon="10.831637609329515"><ele>25.0</ele><time>2026-04-26T14:35:05Z</time></trkpt><trkpt lat="44.80632481714113" lon="10.831446252953175"><ele>25.0</ele><time>2026-04-26T14:35:06Z</time></trkpt><trkpt lat="44.80633318031532" lon="10.831255095520696"><ele>24.75</ele><time>2026-04-26T14:35:07Z</time></trkpt><trkpt lat="44.80634068409663" lon="10.831067463205974"><ele>24.5</ele><time>2026-04-26T14:35:08Z</time></trkpt><trkpt lat="44.8063538269793" lon="10.830877764893657"><ele>24.25</ele><time>2026-04-26T14:35:09Z</time></trkpt><trkpt lat="44.80636289417395" lon="10.830693650643209"><ele>24.0</ele><time>2026-04-26T14:35:10Z</time></trkpt><trkpt lat="44.80636848665185" lon="10.830507070285146"><ele>24.0</ele><time>2026-04-26T14:35:11Z</time></trkpt><trkpt lat="44.80637927126258" lon="10.830321615268986"><ele>24.0</ele><time>2026-04-26T14:35:12Z</time></trkpt><trkpt lat="44.806396164915974" lon="10.830140068630927"><ele>24.0</ele><time>2026-04-26T14:35:13Z</time></trkpt><trkpt lat="44.806411156746485" lon="10.829956849769111"><ele>24.0</ele><time>2026-04-26T14:35:14Z</time></trkpt><trkpt lat="44.80642646512076" lon="10.829769628064899"><ele>24.25</ele><time>2026-04-26T14:35:15Z</time></trkpt><trkpt lat="44.80647631401319" lon="10.829597050111024"><ele>24.5</ele><time>2026-04-26T14:35:16Z</time></trkpt><trkpt lat="44.8065215828946" lon="10.829420509063565"><ele>24.75</ele><time>2026-04-26T14:35:17Z</time></trkpt><trkpt lat="44.806572934487065" lon="10.829253433994534"><ele>25.0</ele><time>2026-04-26T14:35:18Z</time></trkpt><trkpt lat="44.806631553201605" lon="10.829090957185981"><ele>25.0</ele><time>2026-04-26T14:35:19Z</time></trkpt><trkpt lat="44.80667573702099" lon="10.828923092586122"><ele>25.0</ele><time>2026-04-26T14:35:20Z</time></trkpt><trkpt lat="44.80674200747947" lon="10.828776875126671"><ele>25.0</ele><time>2026-04-26T14:35:21Z</time></trkpt><trkpt lat="44.80680005818216" lon="10.828630019612925"><ele>25.0</ele><time>2026-04-26T14:35:22Z</time></trkpt><trkpt lat="44.806853219952075" lon="10.828477675155721"><ele>24.25</ele><time>2026-04-26T14:35:23Z</time></trkpt><trkpt lat="44.806907384358176" lon="10.828331969759338"><ele>23.5</ele><time>2026-04-26T14:35:24Z</time></trkpt><trkpt lat="44.80696559274163" lon="10.828192705783025"><ele>22.75</ele><time>2026-04-26T14:35:25Z</time></trkpt><trkpt lat="44.80702850617379" lon="10.828050919149032"><ele>22.0</ele><time>2026-04-26T14:35:26Z</time></trkpt><trkpt lat="44.807082590650985" lon="10.827906249832902"><ele>22.0</ele><time>2026-04-26T14:35:27Z</time></trkpt><trkpt lat="44.80713990319888" lon="10.8277628783222"><ele>22.0</ele><time>2026-04-26T14:35:28Z</time></trkpt><trkpt lat="44.80720480832786" lon="10.82762354891718"><ele>22.0</ele><time>2026-04-26T14:35:29Z</time></trkpt><trkpt lat="44.80728496725176" lon="10.827480782112884"><ele>22.0</ele><time>2026-04-26T14:35:30Z</time></trkpt><trkpt lat="44.80737637645547" lon="10.82734102260045"><ele>22.25</ele><time>2026-04-26T14:35:31Z</time></trkpt><trkpt lat="44.80747855358606" lon="10.827211859022603"><ele>22.5</ele><time>2026-04-26T14:35:32Z</time></trkpt><trkpt lat="44.80758373294901" lon="10.827077961924202"><ele>22.75</ele><time>2026-04-26T14:35:33Z</time></trkpt><trkpt lat="44.80769262513198" lon="10.826949131690984"><ele>23.0</ele><time>2026-04-26T14:35:34Z</time></trkpt><trkpt lat="44.80780908578928" lon="10.82683010983502"><ele>22.666666666666668</ele><time>2026-04-26T14:35:35Z</time></trkpt><trkpt lat="44.807933507290244" lon="10.82671577554436"><ele>22.333333333333332</ele><time>2026-04-26T14:35:36Z</time></trkpt><trkpt lat="44.80805852887366" lon="10.826593331159543"><ele>22.0</ele><time>2026-04-26T14:35:37Z</time></trkpt><trkpt lat="44.808184316656785" lon="10.826463977269563"><ele>22.0</ele><time>2026-04-26T14:35:38Z</time></trkpt><trkpt lat="44.808307790531885" lon="10.82633106841068"><ele>22.0</ele><time>2026-04-26T14:35:39Z</time></trkpt><trkpt lat="44.80842456665645" lon="10.826184282574962"><ele>22.0</ele><time>2026-04-26T14:35:40Z</time></trkpt><trkpt lat="44.8085305436254" lon="10.826015955508653"><ele>22.666666666666664</ele><time>2026-04-26T14:35:41Z</time></trkpt><trkpt lat="44.80863345527934" lon="10.825838145917443"><ele>23.333333333333332</ele><time>2026-04-26T14:35:42Z</time></trkpt><trkpt lat="44.80872990152323" lon="10.825651699557747"><ele>24.0</ele><time>2026-04-26T14:35:43Z</time></trkpt><trkpt lat="44.808817867016515" lon="10.825466244309537"><ele>24.0</ele><time>2026-04-26T14:35:44Z</time></trkpt><trkpt lat="44.80890786976876" lon="10.825267764276328"><ele>24.0</ele><time>2026-04-26T14:35:45Z</time></trkpt><trkpt lat="44.80899712379907" lon="10.825068752230539"><ele>24.0</ele><time>2026-04-26T14:35:46Z</time></trkpt><trkpt lat="44.80909004604284" lon="10.824871896584876"><ele>24.0</ele><time>2026-04-26T14:35:47Z</time></trkpt><trkpt lat="44.809185085201754" lon="10.824678924163301"><ele>24.0</ele><time>2026-04-26T14:35:48Z</time></trkpt><trkpt lat="44.80927308242423" lon="10.8244988880445"><ele>24.0</ele><time>2026-04-26T14:35:49Z</time></trkpt><trkpt lat="44.80936223224406" lon="10.824311600194441"><ele>23.333333333333332</ele><time>2026-04-26T14:35:50Z</time></trkpt><trkpt lat="44.80945068811717" lon="10.82412608639988"><ele>22.666666666666664</ele><time>2026-04-26T14:35:51Z</time></trkpt><trkpt lat="44.80953553862656" lon="10.823945060175278"><ele>22.0</ele><time>2026-04-26T14:35:52Z</time></trkpt><trkpt lat="44.80961939076537" lon="10.823761069362934"><ele>22.0</ele><time>2026-04-26T14:35:53Z</time></trkpt><trkpt lat="44.80971524109046" lon="10.82358877070802"><ele>22.0</ele><time>2026-04-26T14:35:54Z</time></trkpt><trkpt lat="44.8097984972531" lon="10.823405154096493"><ele>22.0</ele><time>2026-04-26T14:35:55Z</time></trkpt><trkpt lat="44.80986558167775" lon="10.823208790159448"><ele>22.25</ele><time>2026-04-26T14:35:56Z</time></trkpt><trkpt lat="44.809937604290305" lon="10.823030989629878"><ele>22.5</ele><time>2026-04-26T14:35:57Z</time></trkpt><trkpt lat="44.80999869503356" lon="10.8228649587281"><ele>22.75</ele><time>2026-04-26T14:35:58Z</time></trkpt><trkpt lat="44.81005230915296" lon="10.822701792594497"><ele>23.0</ele><time>2026-04-26T14:35:59Z</time></trkpt><trkpt lat="44.810088378073274" lon="10.82255094925275"><ele>23.0</ele><time>2026-04-26T14:36:00Z</time></trkpt><trkpt lat="44.81011955726068" lon="10.82241468626948"><ele>23.0</ele><time>2026-04-26T14:36:01Z</time></trkpt><trkpt lat="44.81014193713498" lon="10.822306779173553"><ele>23.0</ele><time>2026-04-26T14:36:02Z</time></trkpt><trkpt lat="44.81016241601216" lon="10.822218039281998"><ele>23.0</ele><time>2026-04-26T14:36:03Z</time></trkpt><trkpt lat="44.81024777058816" lon="10.822130281948546"><ele>23.0</ele><time>2026-04-26T14:36:05Z</time></trkpt><trkpt lat="44.810311567164234" lon="10.822188792090252"><ele>23.0</ele><time>2026-04-26T14:36:06Z</time></trkpt><trkpt lat="44.81039321381873" lon="10.822210566870659"><ele>23.0</ele><time>2026-04-26T14:36:07Z</time></trkpt><trkpt lat="44.81048995479641" lon="10.822212577245766"><ele>23.0</ele><time>2026-04-26T14:36:08Z</time></trkpt><trkpt lat="44.8105960057049" lon="10.822250120199945"><ele>23.0</ele><time>2026-04-26T14:36:09Z</time></trkpt><trkpt lat="44.81070880982479" lon="10.822286704016657"><ele>23.0</ele><time>2026-04-26T14:36:10Z</time></trkpt><trkpt lat="44.810822051377315" lon="10.82232542058259"><ele>23.0</ele><time>2026-04-26T14:36:11Z</time></trkpt><trkpt lat="44.81093372827864" lon="10.822365054581677"><ele>22.75</ele><time>2026-04-26T14:36:12Z</time></trkpt><trkpt lat="44.81104623806847" lon="10.822413524080432"><ele>22.5</ele><time>2026-04-26T14:36:13Z</time></trkpt><trkpt lat="44.81116019070186" lon="10.82246306484991"><ele>22.25</ele><time>2026-04-26T14:36:14Z</time></trkpt><trkpt lat="44.81126951746329" lon="10.822520042595544"><ele>22.0</ele><time>2026-04-26T14:36:15Z</time></trkpt><trkpt lat="44.8113820376132" lon="10.822581552142282"><ele>22.0</ele><time>2026-04-26T14:36:16Z</time></trkpt><trkpt lat="44.81149663576657" lon="10.822647554112237"><ele>22.0</ele><time>2026-04-26T14:36:17Z</time></trkpt><trkpt lat="44.811611707787996" lon="10.822715984097549"><ele>22.0</ele><time>2026-04-26T14:36:18Z</time></trkpt><trkpt lat="44.811726541104385" lon="10.82278735145119"><ele>22.0</ele><time>2026-04-26T14:36:19Z</time></trkpt><trkpt lat="44.81184288323321" lon="10.82286097809851"><ele>21.75</ele><time>2026-04-26T14:36:20Z</time></trkpt><trkpt lat="44.811962372126004" lon="10.822936631241083"><ele>21.5</ele><time>2026-04-26T14:36:21.001Z</time></trkpt><trkpt lat="44.81208776236643" lon="10.82302080498181"><ele>21.25</ele><time>2026-04-26T14:36:22.001Z</time></trkpt><trkpt lat="44.81221007260599" lon="10.823107252866112"><ele>21.0</ele><time>2026-04-26T14:36:23.001Z</time></trkpt><trkpt lat="44.8123272812428" lon="10.823199078163304"><ele>21.0</ele><time>2026-04-26T14:36:24.001Z</time></trkpt><trkpt lat="44.81244188140945" lon="10.823301838509323"><ele>21.0</ele><time>2026-04-26T14:36:25.001Z</time></trkpt><trkpt lat="44.81255328607739" lon="10.823414557251564"><ele>21.0</ele><time>2026-04-26T14:36:26.001Z</time></trkpt><trkpt lat="44.81266216302687" lon="10.823529017458865"><ele>21.0</ele><time>2026-04-26T14:36:27.001Z</time></trkpt><trkpt lat="44.81276945410741" lon="10.823642785024404"><ele>20.75</ele><time>2026-04-26T14:36:28.001Z</time></trkpt><trkpt lat="44.812874587570036" lon="10.823755796260844"><ele>20.5</ele><time>2026-04-26T14:36:29.001Z</time></trkpt><trkpt lat="44.81296896813986" lon="10.82387094921228"><ele>20.25</ele><time>2026-04-26T14:36:30.001Z</time></trkpt><trkpt lat="44.81306388670561" lon="10.823977311618236"><ele>20.0</ele><time>2026-04-26T14:36:31.001Z</time></trkpt><trkpt lat="44.813175264158666" lon="10.824060513802749"><ele>20.0</ele><time>2026-04-26T14:36:32.001Z</time></trkpt><trkpt lat="44.813291381790236" lon="10.824136791912508"><ele>20.0</ele><time>2026-04-26T14:36:33.001Z</time></trkpt><trkpt lat="44.81341304301908" lon="10.824189226360458"><ele>20.0</ele><time>2026-04-26T14:36:34.001Z</time></trkpt><trkpt lat="44.813534040393165" lon="10.824245106697962"><ele>20.0</ele><time>2026-04-26T14:36:35.001Z</time></trkpt><trkpt lat="44.8136600876324" lon="10.824279958156193"><ele>20.5</ele><time>2026-04-26T14:36:36.001Z</time></trkpt><trkpt lat="44.813774913650064" lon="10.824351255466675"><ele>21.0</ele><time>2026-04-26T14:36:37.001Z</time></trkpt><trkpt lat="44.81390145218908" lon="10.824393986387678"><ele>21.5</ele><time>2026-04-26T14:36:38.001Z</time></trkpt><trkpt lat="44.8140153563522" lon="10.824456983791894"><ele>22.0</ele><time>2026-04-26T14:36:39.001Z</time></trkpt><trkpt lat="44.814119426428476" lon="10.824539043565018"><ele>22.0</ele><time>2026-04-26T14:36:40.001Z</time></trkpt><trkpt lat="44.81425129639287" lon="10.824603190677477"><ele>22.0</ele><time>2026-04-26T14:36:41.001Z</time></trkpt><trkpt lat="44.814366301867956" lon="10.824667626061183"><ele>22.0</ele><time>2026-04-26T14:36:42.001Z</time></trkpt><trkpt lat="44.814483482117645" lon="10.824736562279467"><ele>22.0</ele><time>2026-04-26T14:36:43.001Z</time></trkpt><trkpt lat="44.81460811992591" lon="10.8247951136952"><ele>21.75</ele><time>2026-04-26T14:36:44.001Z</time></trkpt><trkpt lat="44.81473122286225" lon="10.82484584284652"><ele>21.5</ele><time>2026-04-26T14:36:45.001Z</time></trkpt><trkpt lat="44.81485068313202" lon="10.824875734587264"><ele>21.25</ele><time>2026-04-26T14:36:46Z</time></trkpt><trkpt lat="44.81498096049452" lon="10.824899849897665"><ele>21.0</ele><time>2026-04-26T14:36:47Z</time></trkpt><trkpt lat="44.81511003646801" lon="10.824899033438815"><ele>21.0</ele><time>2026-04-26T14:36:48Z</time></trkpt><trkpt lat="44.81524787234019" lon="10.824891293657913"><ele>21.0</ele><time>2026-04-26T14:36:49Z</time></trkpt><trkpt lat="44.8153811713208" lon="10.824890474159838"><ele>21.0</ele><time>2026-04-26T14:36:50Z</time></trkpt><trkpt lat="44.81551322700629" lon="10.824924737665809"><ele>21.0</ele><time>2026-04-26T14:36:51Z</time></trkpt><trkpt lat="44.81564791161175" lon="10.82493816709712"><ele>21.0</ele><time>2026-04-26T14:36:52Z</time></trkpt><trkpt lat="44.815784135503684" lon="10.824929702452613"><ele>21.0</ele><time>2026-04-26T14:36:53Z</time></trkpt><trkpt lat="44.815912863189084" lon="10.824948908759936"><ele>21.0</ele><time>2026-04-26T14:36:54Z</time></trkpt><trkpt lat="44.81603029724477" lon="10.824964775180508"><ele>21.0</ele><time>2026-04-26T14:36:55Z</time></trkpt><trkpt lat="44.81614260057993" lon="10.824983123141575"><ele>21.0</ele><time>2026-04-26T14:36:56Z</time></trkpt><trkpt lat="44.816254743110505" lon="10.825002920502563"><ele>21.0</ele><time>2026-04-26T14:36:57Z</time></trkpt><trkpt lat="44.81637444872201" lon="10.825020845629709"><ele>21.0</ele><time>2026-04-26T14:36:58Z</time></trkpt><trkpt lat="44.81649870752025" lon="10.825039494589923"><ele>21.0</ele><time>2026-04-26T14:36:59Z</time></trkpt><trkpt lat="44.81662255207306" lon="10.825051726471207"><ele>21.0</ele><time>2026-04-26T14:37:00Z</time></trkpt><trkpt lat="44.81674192673006" lon="10.825054208878848"><ele>21.0</ele><time>2026-04-26T14:37:01Z</time></trkpt><trkpt lat="44.81686390266123" lon="10.825041154840152"><ele>21.0</ele><time>2026-04-26T14:37:02Z</time></trkpt><trkpt lat="44.816987751856196" lon="10.825019234184376"><ele>21.0</ele><time>2026-04-26T14:37:03Z</time></trkpt><trkpt lat="44.81710091008425" lon="10.825006768572052"><ele>21.200000000000003</ele><time>2026-04-26T14:37:04Z</time></trkpt><trkpt lat="44.81721709686224" lon="10.82500896678672"><ele>21.400000000000002</ele><time>2026-04-26T14:37:05Z</time></trkpt><trkpt lat="44.817320923731735" lon="10.825061743841017"><ele>21.6</ele><time>2026-04-26T14:37:06Z</time></trkpt><trkpt lat="44.8174165091256" lon="10.825112341782019"><ele>21.8</ele><time>2026-04-26T14:37:07Z</time></trkpt><trkpt lat="44.8175194924141" lon="10.825152800184364"><ele>22.0</ele><time>2026-04-26T14:37:08Z</time></trkpt><trkpt lat="44.817625076814856" lon="10.825227537401322"><ele>21.5</ele><time>2026-04-26T14:37:09Z</time></trkpt><trkpt lat="44.817734965040515" lon="10.825300547798795"><ele>21.0</ele><time>2026-04-26T14:37:10Z</time></trkpt><trkpt lat="44.81785242486391" lon="10.82537370038448"><ele>20.5</ele><time>2026-04-26T14:37:11Z</time></trkpt><trkpt lat="44.81796902061499" lon="10.825448375918711"><ele>20.0</ele><time>2026-04-26T14:37:12Z</time></trkpt><trkpt lat="44.81808509858848" lon="10.825519067028281"><ele>20.0</ele><time>2026-04-26T14:37:13Z</time></trkpt><trkpt lat="44.81819954483669" lon="10.825592252163341"><ele>20.0</ele><time>2026-04-26T14:37:14Z</time></trkpt><trkpt lat="44.81832072424688" lon="10.825660818989467"><ele>20.0</ele><time>2026-04-26T14:37:15Z</time></trkpt><trkpt lat="44.818438797475245" lon="10.825735341796918"><ele>20.0</ele><time>2026-04-26T14:37:16Z</time></trkpt><trkpt lat="44.81856183473524" lon="10.825809606038455"><ele>20.25</ele><time>2026-04-26T14:37:17Z</time></trkpt><trkpt lat="44.818684535969425" lon="10.825880999354101"><ele>20.5</ele><time>2026-04-26T14:37:18Z</time></trkpt><trkpt lat="44.8188074447405" lon="10.825952533966744"><ele>20.75</ele><time>2026-04-26T14:37:19Z</time></trkpt><trkpt lat="44.8189328520695" lon="10.826023459065603"><ele>21.0</ele><time>2026-04-26T14:37:20Z</time></trkpt><trkpt lat="44.81906078740045" lon="10.82609202264239"><ele>21.0</ele><time>2026-04-26T14:37:21Z</time></trkpt><trkpt lat="44.819191050049014" lon="10.826161355600107"><ele>21.0</ele><time>2026-04-26T14:37:22Z</time></trkpt><trkpt lat="44.819318689857944" lon="10.826232686658093"><ele>21.0</ele><time>2026-04-26T14:37:23Z</time></trkpt><trkpt lat="44.81944379183326" lon="10.826303070598632"><ele>21.0</ele><time>2026-04-26T14:37:24Z</time></trkpt><trkpt lat="44.81956376068562" lon="10.826370106541601"><ele>21.0</ele><time>2026-04-26T14:37:25Z</time></trkpt><trkpt lat="44.81968326080484" lon="10.826440457025218"><ele>21.0</ele><time>2026-04-26T14:37:26Z</time></trkpt><trkpt lat="44.819801916616505" lon="10.826509726027089"><ele>21.0</ele><time>2026-04-26T14:37:27Z</time></trkpt><trkpt lat="44.819918933461786" lon="10.82657842870154"><ele>21.0</ele><time>2026-04-26T14:37:28Z</time></trkpt><trkpt lat="44.82003599784072" lon="10.826658755623411"><ele>20.75</ele><time>2026-04-26T14:37:29Z</time></trkpt><trkpt lat="44.82015232109298" lon="10.826748902210946"><ele>20.5</ele><time>2026-04-26T14:37:30Z</time></trkpt><trkpt lat="44.82026398054223" lon="10.826843544842076"><ele>20.25</ele><time>2026-04-26T14:37:31Z</time></trkpt><trkpt lat="44.82036950082708" lon="10.826940301552249"><ele>20.0</ele><time>2026-04-26T14:37:32Z</time></trkpt><trkpt lat="44.82044282161711" lon="10.827027827121597"><ele>19.75</ele><time>2026-04-26T14:37:33Z</time></trkpt><trkpt lat="44.82050921708622" lon="10.827090563742727"><ele>19.5</ele><time>2026-04-26T14:37:34Z</time></trkpt><trkpt lat="44.820630876780235" lon="10.827196844988537"><ele>19.25</ele><time>2026-04-26T14:37:35Z</time></trkpt><trkpt lat="44.82075855249524" lon="10.827370836273198"><ele>19.0</ele><time>2026-04-26T14:37:36Z</time></trkpt><trkpt lat="44.820847173735075" lon="10.827503897158834"><ele>19.0</ele><time>2026-04-26T14:37:38Z</time></trkpt><trkpt lat="44.820933575794655" lon="10.827602064218112"><ele>19.0</ele><time>2026-04-26T14:37:39Z</time></trkpt><trkpt lat="44.82100375335474" lon="10.827735833456975"><ele>19.0</ele><time>2026-04-26T14:37:40Z</time></trkpt><trkpt lat="44.82107369118898" lon="10.827867445955253"><ele>19.0</ele><time>2026-04-26T14:37:41Z</time></trkpt><trkpt lat="44.821127877392634" lon="10.827979215798166"><ele>19.0</ele><time>2026-04-26T14:37:42Z</time></trkpt><trkpt lat="44.821192830170496" lon="10.828101277667804"><ele>19.0</ele><time>2026-04-26T14:37:43Z</time></trkpt><trkpt lat="44.82125757421132" lon="10.828229614925226"><ele>19.0</ele><time>2026-04-26T14:37:44Z</time></trkpt><trkpt lat="44.82132562312013" lon="10.828361370536324"><ele>19.0</ele><time>2026-04-26T14:37:45Z</time></trkpt><trkpt lat="44.82139216669563" lon="10.828492492100924"><ele>19.0</ele><time>2026-04-26T14:37:46Z</time></trkpt><trkpt lat="44.821454776211525" lon="10.828611651370833"><ele>19.0</ele><time>2026-04-26T14:37:47Z</time></trkpt><trkpt lat="44.82152239233826" lon="10.828725211052683"><ele>19.0</ele><time>2026-04-26T14:37:48Z</time></trkpt><trkpt lat="44.821603240303034" lon="10.828820299524722"><ele>19.0</ele><time>2026-04-26T14:37:49Z</time></trkpt><trkpt lat="44.821687662437334" lon="10.82890725535094"><ele>19.0</ele><time>2026-04-26T14:37:50Z</time></trkpt><trkpt lat="44.82177945599604" lon="10.828969225434797"><ele>19.0</ele><time>2026-04-26T14:37:51Z</time></trkpt><trkpt lat="44.821874110684796" lon="10.829005085729795"><ele>19.0</ele><time>2026-04-26T14:37:52Z</time></trkpt><trkpt lat="44.82197563060513" lon="10.829033477597564"><ele>19.2</ele><time>2026-04-26T14:37:53Z</time></trkpt><trkpt lat="44.82208156309098" lon="10.829064969075239"><ele>19.4</ele><time>2026-04-26T14:37:54Z</time></trkpt><trkpt lat="44.8221929441994" lon="10.82909034336274"><ele>19.6</ele><time>2026-04-26T14:37:55Z</time></trkpt><trkpt lat="44.822302685717474" lon="10.829099670198401"><ele>19.8</ele><time>2026-04-26T14:37:56Z</time></trkpt><trkpt lat="44.822408328833504" lon="10.82910072160057"><ele>20.0</ele><time>2026-04-26T14:37:57Z</time></trkpt><trkpt lat="44.82249682152726" lon="10.829108741571496"><ele>20.0</ele><time>2026-04-26T14:37:58Z</time></trkpt><trkpt lat="44.82257252918203" lon="10.829156515940022"><ele>20.0</ele><time>2026-04-26T14:37:59Z</time></trkpt><trkpt lat="44.82270488600401" lon="10.82922794357194"><ele>20.0</ele><time>2026-04-26T14:38:01Z</time></trkpt><trkpt lat="44.822774557048334" lon="10.829289663680331"><ele>20.0</ele><time>2026-04-26T14:38:02Z</time></trkpt><trkpt lat="44.822860430143876" lon="10.82935152431759"><ele>20.0</ele><time>2026-04-26T14:38:03Z</time></trkpt><trkpt lat="44.822954342781074" lon="10.82942012021367"><ele>20.6</ele><time>2026-04-26T14:38:04Z</time></trkpt><trkpt lat="44.82303521757496" lon="10.829480832750516"><ele>21.2</ele><time>2026-04-26T14:38:05Z</time></trkpt><trkpt lat="44.823110780165784" lon="10.829574462407322"><ele>21.799999999999997</ele><time>2026-04-26T14:38:06Z</time></trkpt><trkpt lat="44.82320322737805" lon="10.829644211101096"><ele>22.4</ele><time>2026-04-26T14:38:07Z</time></trkpt><trkpt lat="44.82329359301808" lon="10.829729821534416"><ele>23.0</ele><time>2026-04-26T14:38:08Z</time></trkpt><trkpt lat="44.82338380818856" lon="10.829809740332713"><ele>23.0</ele><time>2026-04-26T14:38:09Z</time></trkpt><trkpt lat="44.823476572646456" lon="10.829887086427911"><ele>23.0</ele><time>2026-04-26T14:38:10Z</time></trkpt><trkpt lat="44.82357196085021" lon="10.829948007261045"><ele>23.0</ele><time>2026-04-26T14:38:11Z</time></trkpt><trkpt lat="44.82366726046732" lon="10.829987458654003"><ele>23.0</ele><time>2026-04-26T14:38:12Z</time></trkpt><trkpt lat="44.82376641557731" lon="10.83001563947979"><ele>23.0</ele><time>2026-04-26T14:38:13Z</time></trkpt><trkpt lat="44.82387078196263" lon="10.830009878882874"><ele>23.0</ele><time>2026-04-26T14:38:14Z</time></trkpt><trkpt lat="44.8239779447074" lon="10.829987345185893"><ele>23.0</ele><time>2026-04-26T14:38:15Z</time></trkpt><trkpt lat="44.824078404177854" lon="10.830008113597442"><ele>23.0</ele><time>2026-04-26T14:38:16Z</time></trkpt><trkpt lat="44.8241738266288" lon="10.830009243084108"><ele>23.0</ele><time>2026-04-26T14:38:17Z</time></trkpt><trkpt lat="44.82424728819914" lon="10.830090778819475"><ele>23.0</ele><time>2026-04-26T14:38:18Z</time></trkpt><trkpt lat="44.82433710669228" lon="10.830156966379414"><ele>22.799999999999997</ele><time>2026-04-26T14:38:19Z</time></trkpt><trkpt lat="44.824425679394615" lon="10.830224690720376"><ele>22.6</ele><time>2026-04-26T14:38:20Z</time></trkpt><trkpt lat="44.82453141241916" lon="10.830273238689918"><ele>22.4</ele><time>2026-04-26T14:38:21Z</time></trkpt><trkpt lat="44.824630768192954" lon="10.83033973694173"><ele>22.200000000000003</ele><time>2026-04-26T14:38:22Z</time></trkpt><trkpt lat="44.82473316593147" lon="10.830384612582472"><ele>22.0</ele><time>2026-04-26T14:38:23Z</time></trkpt><trkpt lat="44.824841141647155" lon="10.830428735456572"><ele>22.0</ele><time>2026-04-26T14:38:24Z</time></trkpt><trkpt lat="44.82494224804743" lon="10.830479978747052"><ele>22.0</ele><time>2026-04-26T14:38:25Z</time></trkpt><trkpt lat="44.82503843584069" lon="10.83052928823158"><ele>22.0</ele><time>2026-04-26T14:38:26Z</time></trkpt><trkpt lat="44.82513072024636" lon="10.83058973921276"><ele>22.0</ele><time>2026-04-26T14:38:27.001Z</time></trkpt><trkpt lat="44.82521810800179" lon="10.830643649764564"><ele>22.0</ele><time>2026-04-26T14:38:28.001Z</time></trkpt><trkpt lat="44.825312835086606" lon="10.830692217846586"><ele>21.8</ele><time>2026-04-26T14:38:29.001Z</time></trkpt><trkpt lat="44.82541336486908" lon="10.830709947592892"><ele>21.6</ele><time>2026-04-26T14:38:30.001Z</time></trkpt><trkpt lat="44.8255234987794" lon="10.83074389449357"><ele>21.400000000000002</ele><time>2026-04-26T14:38:31.001Z</time></trkpt><trkpt lat="44.82564089556708" lon="10.830756130274011"><ele>21.200000000000003</ele><time>2026-04-26T14:38:32.001Z</time></trkpt><trkpt lat="44.825757052786976" lon="10.830758334249719"><ele>21.0</ele><time>2026-04-26T14:38:33.001Z</time></trkpt><trkpt lat="44.82587751135665" lon="10.83074931493742"><ele>21.0</ele><time>2026-04-26T14:38:34.001Z</time></trkpt><trkpt lat="44.82599360707266" lon="10.830735492909175"><ele>21.0</ele><time>2026-04-26T14:38:35.001Z</time></trkpt><trkpt lat="44.82610374606105" lon="10.830722380117027"><ele>21.0</ele><time>2026-04-26T14:38:36.001Z</time></trkpt><trkpt lat="44.82620223865586" lon="10.830714362611673"><ele>21.0</ele><time>2026-04-26T14:38:37.001Z</time></trkpt><trkpt lat="44.826290491948505" lon="10.830720363298864"><ele>21.0</ele><time>2026-04-26T14:38:38.001Z</time></trkpt><trkpt lat="44.82637904466241" lon="10.830756331652198"><ele>21.0</ele><time>2026-04-26T14:38:39.001Z</time></trkpt><trkpt lat="44.8264835630044" lon="10.830810212816779"><ele>21.0</ele><time>2026-04-26T14:38:40.001Z</time></trkpt><trkpt lat="44.82659697772847" lon="10.830831657354494"><ele>21.0</ele><time>2026-04-26T14:38:41.001Z</time></trkpt><trkpt lat="44.82670663076845" lon="10.830838310593165"><ele>21.0</ele><time>2026-04-26T14:38:42.001Z</time></trkpt><trkpt lat="44.82681538032176" lon="10.830811104854439"><ele>21.0</ele><time>2026-04-26T14:38:43.001Z</time></trkpt><trkpt lat="44.82689096774672" lon="10.830762800626687"><ele>21.0</ele><time>2026-04-26T14:38:44.001Z</time></trkpt><trkpt lat="44.826954249818" lon="10.83074959890539"><ele>21.0</ele><time>2026-04-26T14:38:45.001Z</time></trkpt><trkpt lat="44.827050518854634" lon="10.830734950575676"><ele>21.0</ele><time>2026-04-26T14:38:47.001Z</time></trkpt><trkpt lat="44.827151855020425" lon="10.830717304843828"><ele>21.0</ele><time>2026-04-26T14:38:49.001Z</time></trkpt><trkpt lat="44.827263587330215" lon="10.830739774889224"><ele>21.0</ele><time>2026-04-26T14:38:51.001Z</time></trkpt><trkpt lat="44.82738657692926" lon="10.830764814146233"><ele>21.0</ele><time>2026-04-26T14:38:53.001Z</time></trkpt><trkpt lat="44.827518643240865" lon="10.830784691027915"><ele>21.0</ele><time>2026-04-26T14:38:55.001Z</time></trkpt><trkpt lat="44.82759918504251" lon="10.83080570237856"><ele>21.0</ele><time>2026-04-26T14:38:56.001Z</time></trkpt><trkpt lat="44.827684137834474" lon="10.830828809117317"><ele>21.0</ele><time>2026-04-26T14:38:57.001Z</time></trkpt><trkpt lat="44.827772053282956" lon="10.830861969410025"><ele>21.0</ele><time>2026-04-26T14:38:58.001Z</time></trkpt><trkpt lat="44.82784418309801" lon="10.830941582426865"><ele>20.5</ele><time>2026-04-26T14:38:59.001Z</time></trkpt><trkpt lat="44.82792886036586" lon="10.831011051166936"><ele>20.0</ele><time>2026-04-26T14:39:00.001Z</time></trkpt><trkpt lat="44.82803164365146" lon="10.831090297843012"><ele>19.5</ele><time>2026-04-26T14:39:01Z</time></trkpt><trkpt lat="44.82815143950051" lon="10.831155596027775"><ele>19.0</ele><time>2026-04-26T14:39:02Z</time></trkpt><trkpt lat="44.828260740849224" lon="10.831240228299315"><ele>19.0</ele><time>2026-04-26T14:39:03Z</time></trkpt><trkpt lat="44.82837501652344" lon="10.83131369453192"><ele>19.0</ele><time>2026-04-26T14:39:04Z</time></trkpt><trkpt lat="44.828490144141" lon="10.831386343438144"><ele>19.0</ele><time>2026-04-26T14:39:05Z</time></trkpt><trkpt lat="44.82859939534755" lon="10.831467424685973"><ele>19.0</ele><time>2026-04-26T14:39:06Z</time></trkpt><trkpt lat="44.82871201953079" lon="10.831516979007612"><ele>18.75</ele><time>2026-04-26T14:39:07Z</time></trkpt><trkpt lat="44.82882997826978" lon="10.831540738417122"><ele>18.5</ele><time>2026-04-26T14:39:08Z</time></trkpt><trkpt lat="44.828950786320334" lon="10.831540241368927"><ele>18.25</ele><time>2026-04-26T14:39:09Z</time></trkpt><trkpt lat="44.82907196961497" lon="10.831511465586157"><ele>18.0</ele><time>2026-04-26T14:39:10Z</time></trkpt><trkpt lat="44.82918925405424" lon="10.831469536656748"><ele>18.5</ele><time>2026-04-26T14:39:11Z</time></trkpt><trkpt lat="44.829315491713984" lon="10.831431486996994"><ele>19.0</ele><time>2026-04-26T14:39:12Z</time></trkpt><trkpt lat="44.829430898928806" lon="10.831378972778724"><ele>19.5</ele><time>2026-04-26T14:39:13Z</time></trkpt><trkpt lat="44.82953760501327" lon="10.831332835695388"><ele>20.0</ele><time>2026-04-26T14:39:14Z</time></trkpt><trkpt lat="44.829644187828364" lon="10.83127459307778"><ele>20.0</ele><time>2026-04-26T14:39:15Z</time></trkpt><trkpt lat="44.82975961953909" lon="10.831285799350301"><ele>20.0</ele><time>2026-04-26T14:39:16Z</time></trkpt><trkpt lat="44.82986046821388" lon="10.831298754594707"><ele>20.0</ele><time>2026-04-26T14:39:17Z</time></trkpt><trkpt lat="44.829948100174114" lon="10.831334109223349"><ele>20.0</ele><time>2026-04-26T14:39:18Z</time></trkpt><trkpt lat="44.83003532244589" lon="10.831380528638713"><ele>20.0</ele><time>2026-04-26T14:39:19Z</time></trkpt><trkpt lat="44.83014677952885" lon="10.831434373412144"><ele>20.25</ele><time>2026-04-26T14:39:20Z</time></trkpt><trkpt lat="44.83025394402143" lon="10.831525829041555"><ele>20.5</ele><time>2026-04-26T14:39:21Z</time></trkpt><trkpt lat="44.83035569234056" lon="10.831615262764155"><ele>20.75</ele><time>2026-04-26T14:39:22Z</time></trkpt><trkpt lat="44.83044293753884" lon="10.831732640261714"><ele>21.0</ele><time>2026-04-26T14:39:23Z</time></trkpt><trkpt lat="44.830533299821546" lon="10.831838802814069"><ele>21.0</ele><time>2026-04-26T14:39:24Z</time></trkpt><trkpt lat="44.83062421382591" lon="10.831948428935787"><ele>21.0</ele><time>2026-04-26T14:39:25Z</time></trkpt><trkpt lat="44.8307237881166" lon="10.832040541254862"><ele>21.0</ele><time>2026-04-26T14:39:26Z</time></trkpt><trkpt lat="44.83081271302064" lon="10.832160048551978"><ele>21.0</ele><time>2026-04-26T14:39:27Z</time></trkpt><trkpt lat="44.830913790603304" lon="10.832269875370798"><ele>21.0</ele><time>2026-04-26T14:39:28Z</time></trkpt><trkpt lat="44.83102256968169" lon="10.832377507881763"><ele>21.0</ele><time>2026-04-26T14:39:29Z</time></trkpt><trkpt lat="44.83113837343398" lon="10.832483332186102"><ele>21.0</ele><time>2026-04-26T14:39:30Z</time></trkpt><trkpt lat="44.831267639185775" lon="10.83258914531733"><ele>21.0</ele><time>2026-04-26T14:39:31Z</time></trkpt><trkpt lat="44.83139592833125" lon="10.832702622931428"><ele>20.666666666666668</ele><time>2026-04-26T14:39:32Z</time></trkpt><trkpt lat="44.83153042994791" lon="10.832822096380701"><ele>20.333333333333336</ele><time>2026-04-26T14:39:33Z</time></trkpt><trkpt lat="44.83165035767715" lon="10.832958266350442"><ele>20.0</ele><time>2026-04-26T14:39:34Z</time></trkpt><trkpt lat="44.83178149952439" lon="10.833080699460684"><ele>19.666666666666668</ele><time>2026-04-26T14:39:35Z</time></trkpt><trkpt lat="44.83191162989127" lon="10.833203040588698"><ele>19.333333333333332</ele><time>2026-04-26T14:39:35.999Z</time></trkpt><trkpt lat="44.83203828580365" lon="10.833322975185231"><ele>19.0</ele><time>2026-04-26T14:39:36.999Z</time></trkpt><trkpt lat="44.832165610127916" lon="10.8334446556677"><ele>19.333333333333332</ele><time>2026-04-26T14:39:37.999Z</time></trkpt><trkpt lat="44.83229551433707" lon="10.833571605695564"><ele>19.666666666666668</ele><time>2026-04-26T14:39:38.999Z</time></trkpt><trkpt lat="44.83241740888053" lon="10.833694666891581"><ele>20.0</ele><time>2026-04-26T14:39:39.999Z</time></trkpt><trkpt lat="44.832537245320246" lon="10.833823860601917"><ele>20.75</ele><time>2026-04-26T14:39:40.999Z</time></trkpt><trkpt lat="44.83265071252368" lon="10.833952964688711"><ele>21.5</ele><time>2026-04-26T14:39:41.999Z</time></trkpt><trkpt lat="44.832760577454515" lon="10.834058479284709"><ele>22.25</ele><time>2026-04-26T14:39:42.999Z</time></trkpt><trkpt lat="44.832855013833026" lon="10.834180037817562"><ele>23.0</ele><time>2026-04-26T14:39:43.999Z</time></trkpt><trkpt lat="44.83292052837251" lon="10.834303070962898"><ele>23.0</ele><time>2026-04-26T14:39:44.999Z</time></trkpt><trkpt lat="44.8329726745609" lon="10.834383344963275"><ele>23.0</ele><time>2026-04-26T14:39:45.999Z</time></trkpt><trkpt lat="44.8330414271825" lon="10.834489737935005"><ele>23.0</ele><time>2026-04-26T14:39:47.999Z</time></trkpt><trkpt lat="44.83304847197949" lon="10.834583491779876"><ele>23.0</ele><time>2026-04-26T14:39:48.999Z</time></trkpt><trkpt lat="44.83300540945029" lon="10.83467111402733"><ele>23.0</ele><time>2026-04-26T14:39:49.999Z</time></trkpt><trkpt lat="44.83300213161533" lon="10.834838235358703"><ele>23.0</ele><time>2026-04-26T14:39:51.999Z</time></trkpt><trkpt lat="44.83303853414405" lon="10.834965176006126"><ele>23.0</ele><time>2026-04-26T14:39:53.999Z</time></trkpt><trkpt lat="44.83309591064905" lon="10.835071262744654"><ele>23.0</ele><time>2026-04-26T14:39:55.999Z</time></trkpt><trkpt lat="44.833151705540764" lon="10.835168491370638"><ele>23.0</ele><time>2026-04-26T14:39:57.999Z</time></trkpt><trkpt lat="44.833214904533015" lon="10.835261911167187"><ele>23.0</ele><time>2026-04-26T14:39:59.999Z</time></trkpt><trkpt lat="44.833260516995296" lon="10.835342835429584"><ele>23.0</ele><time>2026-04-26T14:40:01.999Z</time></trkpt><trkpt lat="44.83330180798633" lon="10.835452816209534"><ele>23.0</ele><time>2026-04-26T14:40:18.999Z</time></trkpt><trkpt lat="44.83339746684822" lon="10.835432485900531"><ele>22.833333333333336</ele><time>2026-04-26T14:40:19.999Z</time></trkpt><trkpt lat="44.83346405985608" lon="10.83546145583941"><ele>22.666666666666668</ele><time>2026-04-26T14:40:20.999Z</time></trkpt><trkpt lat="44.83353895395673" lon="10.83549395875896"><ele>22.5</ele><time>2026-04-26T14:40:21.999Z</time></trkpt><trkpt lat="44.83360877952727" lon="10.835514110608937"><ele>22.333333333333332</ele><time>2026-04-26T14:40:22.999Z</time></trkpt><trkpt lat="44.833686478928335" lon="10.835549203347977"><ele>22.166666666666664</ele><time>2026-04-26T14:40:23.999Z</time></trkpt><trkpt lat="44.83377312803923" lon="10.835594174295823"><ele>22.0</ele><time>2026-04-26T14:40:24.999Z</time></trkpt><trkpt lat="44.833866023456515" lon="10.835639350606197"><ele>21.8</ele><time>2026-04-26T14:40:25.999Z</time></trkpt><trkpt lat="44.833958431483566" lon="10.835689212620155"><ele>21.6</ele><time>2026-04-26T14:40:26.999Z</time></trkpt><trkpt lat="44.83405566304104" lon="10.835738588873127"><ele>21.400000000000002</ele><time>2026-04-26T14:40:27.999Z</time></trkpt><trkpt lat="44.834160854423956" lon="10.83579191177584"><ele>21.200000000000003</ele><time>2026-04-26T14:40:28.999Z</time></trkpt><trkpt lat="44.83426510997398" lon="10.835848292063503"><ele>21.0</ele><time>2026-04-26T14:40:29.999Z</time></trkpt><trkpt lat="44.834369618252566" lon="10.835919355275122"><ele>21.0</ele><time>2026-04-26T14:40:30.999Z</time></trkpt><trkpt lat="44.83447984250797" lon="10.835982121440006"><ele>21.0</ele><time>2026-04-26T14:40:31.999Z</time></trkpt><trkpt lat="44.83459104145965" lon="10.836050958601495"><ele>21.0</ele><time>2026-04-26T14:40:33Z</time></trkpt><trkpt lat="44.83470434368612" lon="10.83611830107193"><ele>21.0</ele><time>2026-04-26T14:40:34Z</time></trkpt><trkpt lat="44.8348174199217" lon="10.836185473815295"><ele>21.0</ele><time>2026-04-26T14:40:35Z</time></trkpt><trkpt lat="44.83493082418281" lon="10.836246863457356"><ele>21.0</ele><time>2026-04-26T14:40:36Z</time></trkpt><trkpt lat="44.83504472583993" lon="10.836310546163181"><ele>21.0</ele><time>2026-04-26T14:40:37Z</time></trkpt><trkpt lat="44.835159471973796" lon="10.836380167864446"><ele>21.0</ele><time>2026-04-26T14:40:38Z</time></trkpt><trkpt lat="44.8352748774419" lon="10.836449673362095"><ele>21.75</ele><time>2026-04-26T14:40:39Z</time></trkpt><trkpt lat="44.835396679733535" lon="10.836512310082224"><ele>22.5</ele><time>2026-04-26T14:40:40Z</time></trkpt><trkpt lat="44.835521318190075" lon="10.836583666907432"><ele>23.25</ele><time>2026-04-26T14:40:41Z</time></trkpt><trkpt lat="44.83564699244789" lon="10.836656631173252"><ele>24.0</ele><time>2026-04-26T14:40:42Z</time></trkpt><trkpt lat="44.835776684758656" lon="10.836723979933703"><ele>24.0</ele><time>2026-04-26T14:40:43Z</time></trkpt><trkpt lat="44.8359072398472" lon="10.83679670439096"><ele>24.0</ele><time>2026-04-26T14:40:44Z</time></trkpt><trkpt lat="44.83604301308879" lon="10.836867096421559"><ele>24.0</ele><time>2026-04-26T14:40:45Z</time></trkpt><trkpt lat="44.836176750663405" lon="10.836937162560567"><ele>24.0</ele><time>2026-04-26T14:40:46Z</time></trkpt><trkpt lat="44.83631157910606" lon="10.83701019637514"><ele>23.0</ele><time>2026-04-26T14:40:47Z</time></trkpt><trkpt lat="44.83644437844724" lon="10.83708031095906"><ele>22.0</ele><time>2026-04-26T14:40:48Z</time></trkpt><trkpt lat="44.836569885759516" lon="10.837130264037777"><ele>21.0</ele><time>2026-04-26T14:40:49Z</time></trkpt><trkpt lat="44.836717277375776" lon="10.837148253380844"><ele>20.0</ele><time>2026-04-26T14:40:50Z</time></trkpt><trkpt lat="44.836857878521855" lon="10.837150965377331"><ele>19.75</ele><time>2026-04-26T14:40:51Z</time></trkpt><trkpt lat="44.83700365787259" lon="10.837128401657555"><ele>19.5</ele><time>2026-04-26T14:40:52Z</time></trkpt><trkpt lat="44.837143332767546" lon="10.837133416295849"><ele>19.25</ele><time>2026-04-26T14:40:53Z</time></trkpt><trkpt lat="44.83727484098673" lon="10.837133661792233"><ele>19.0</ele><time>2026-04-26T14:40:54Z</time></trkpt><trkpt lat="44.83740798963136" lon="10.83719016125925"><ele>19.0</ele><time>2026-04-26T14:40:55Z</time></trkpt><trkpt lat="44.8375441682564" lon="10.837294003397579"><ele>19.0</ele><time>2026-04-26T14:40:56Z</time></trkpt><trkpt lat="44.83763387712153" lon="10.837380106501532"><ele>19.0</ele><time>2026-04-26T14:40:57Z</time></trkpt><trkpt lat="44.837733503037065" lon="10.837444600644528"><ele>19.0</ele><time>2026-04-26T14:40:58Z</time></trkpt><trkpt lat="44.83782307625412" lon="10.837561771861576"><ele>19.0</ele><time>2026-04-26T14:40:59Z</time></trkpt><trkpt lat="44.83792247074713" lon="10.837684588996373"><ele>19.0</ele><time>2026-04-26T14:41:00Z</time></trkpt><trkpt lat="44.838022747937586" lon="10.837811781095338"><ele>19.0</ele><time>2026-04-26T14:41:01Z</time></trkpt><trkpt lat="44.83811242271464" lon="10.83792931393727"><ele>19.0</ele><time>2026-04-26T14:41:02Z</time></trkpt><trkpt lat="44.83817690193295" lon="10.838081565144739"><ele>19.0</ele><time>2026-04-26T14:41:03Z</time></trkpt><trkpt lat="44.83826901811268" lon="10.838221753523452"><ele>19.0</ele><time>2026-04-26T14:41:04Z</time></trkpt><trkpt lat="44.83837719906396" lon="10.838350353083422"><ele>19.0</ele><time>2026-04-26T14:41:05Z</time></trkpt><trkpt lat="44.83848724892994" lon="10.83847060167871"><ele>19.0</ele><time>2026-04-26T14:41:06Z</time></trkpt><trkpt lat="44.83860696667803" lon="10.838585987002704"><ele>19.25</ele><time>2026-04-26T14:41:07Z</time></trkpt><trkpt lat="44.838706522415" lon="10.838687970969652"><ele>19.5</ele><time>2026-04-26T14:41:08Z</time></trkpt><trkpt lat="44.83881886172017" lon="10.838804043064286"><ele>19.75</ele><time>2026-04-26T14:41:09Z</time></trkpt><trkpt lat="44.838937086426036" lon="10.83887429148628"><ele>20.0</ele><time>2026-04-26T14:41:10Z</time></trkpt><trkpt lat="44.839052270241595" lon="10.838932395021398"><ele>20.0</ele><time>2026-04-26T14:41:11Z</time></trkpt><trkpt lat="44.839164994343435" lon="10.838944803058748"><ele>20.0</ele><time>2026-04-26T14:41:12Z</time></trkpt><trkpt lat="44.83928307450386" lon="10.838945078468441"><ele>20.0</ele><time>2026-04-26T14:41:13Z</time></trkpt><trkpt lat="44.839413669948755" lon="10.838946078108265"><ele>20.0</ele><time>2026-04-26T14:41:14Z</time></trkpt><trkpt lat="44.83954759500253" lon="10.838945978308688"><ele>20.0</ele><time>2026-04-26T14:41:15Z</time></trkpt><trkpt lat="44.83967633034011" lon="10.838959585451128"><ele>20.0</ele><time>2026-04-26T14:41:16Z</time></trkpt><trkpt lat="44.839810244054995" lon="10.838969968165987"><ele>20.0</ele><time>2026-04-26T14:41:17Z</time></trkpt><trkpt lat="44.83994016087516" lon="10.838986565267867"><ele>20.0</ele><time>2026-04-26T14:41:17.999Z</time></trkpt><trkpt lat="44.84007995260606" lon="10.838997037832975"><ele>20.0</ele><time>2026-04-26T14:41:18.999Z</time></trkpt><trkpt lat="44.8402208301327" lon="10.83902940170495"><ele>20.0</ele><time>2026-04-26T14:41:19.999Z</time></trkpt><trkpt lat="44.84036214366421" lon="10.839076216887934"><ele>20.0</ele><time>2026-04-26T14:41:20.999Z</time></trkpt><trkpt lat="44.84050738397859" lon="10.839126797998718"><ele>20.0</ele><time>2026-04-26T14:41:21.999Z</time></trkpt><trkpt lat="44.84065116437699" lon="10.839184775857767"><ele>20.0</ele><time>2026-04-26T14:41:22.999Z</time></trkpt><trkpt lat="44.840794397697266" lon="10.839254821648407"><ele>20.0</ele><time>2026-04-26T14:41:23.999Z</time></trkpt><trkpt lat="44.84093418586513" lon="10.839328438838557"><ele>20.0</ele><time>2026-04-26T14:41:24.999Z</time></trkpt><trkpt lat="44.841074354318124" lon="10.83941505807477"><ele>20.0</ele><time>2026-04-26T14:41:25.999Z</time></trkpt><trkpt lat="44.84119770946584" lon="10.839536574451866"><ele>20.0</ele><time>2026-04-26T14:41:26.999Z</time></trkpt><trkpt lat="44.84132740634597" lon="10.839644843440947"><ele>20.0</ele><time>2026-04-26T14:41:27.999Z</time></trkpt><trkpt lat="44.8414650606699" lon="10.839743836013827"><ele>20.0</ele><time>2026-04-26T14:41:28.999Z</time></trkpt><trkpt lat="44.841589807662594" lon="10.839865297408588"><ele>20.0</ele><time>2026-04-26T14:41:29.999Z</time></trkpt><trkpt lat="44.84171032887515" lon="10.839979980362504"><ele>20.0</ele><time>2026-04-26T14:41:30.999Z</time></trkpt><trkpt lat="44.84183207429117" lon="10.840092173468292"><ele>20.0</ele><time>2026-04-26T14:41:31.999Z</time></trkpt><trkpt lat="44.8419580922597" lon="10.840198073823016"><ele>20.666666666666668</ele><time>2026-04-26T14:41:32.999Z</time></trkpt><trkpt lat="44.842091506331094" lon="10.840297202147978"><ele>21.333333333333332</ele><time>2026-04-26T14:41:33.999Z</time></trkpt><trkpt lat="44.842227684771714" lon="10.840395366169636"><ele>22.0</ele><time>2026-04-26T14:41:34.999Z</time></trkpt><trkpt lat="44.84235875392799" lon="10.840485989730558"><ele>22.0</ele><time>2026-04-26T14:41:35.999Z</time></trkpt><trkpt lat="44.84248971290647" lon="10.84057650523311"><ele>22.0</ele><time>2026-04-26T14:41:36.999Z</time></trkpt><trkpt lat="44.84261907322974" lon="10.840659898673664"><ele>22.0</ele><time>2026-04-26T14:41:37.999Z</time></trkpt><trkpt lat="44.8427497165494" lon="10.840738123468064"><ele>22.0</ele><time>2026-04-26T14:41:38.999Z</time></trkpt><trkpt lat="44.84288000289019" lon="10.840821300173026"><ele>21.75</ele><time>2026-04-26T14:41:39.999Z</time></trkpt><trkpt lat="44.84300757203279" lon="10.840905759194733"><ele>21.5</ele><time>2026-04-26T14:41:40.999Z</time></trkpt><trkpt lat="44.843132017623546" lon="10.840988468625966"><ele>21.25</ele><time>2026-04-26T14:41:41.999Z</time></trkpt><trkpt lat="44.8432448381755" lon="10.841056805743577"><ele>21.0</ele><time>2026-04-26T14:41:42.999Z</time></trkpt><trkpt lat="44.84335717752348" lon="10.841095314746536"><ele>21.0</ele><time>2026-04-26T14:41:43.999Z</time></trkpt><trkpt lat="44.843467856059036" lon="10.841179216816053"><ele>21.0</ele><time>2026-04-26T14:41:44.999Z</time></trkpt><trkpt lat="44.84360212336472" lon="10.841191399359516"><ele>21.0</ele><time>2026-04-26T14:41:45.999Z</time></trkpt><trkpt lat="44.84373053648521" lon="10.841012707433546"><ele>21.0</ele><time>2026-04-26T14:41:46.999Z</time></trkpt><trkpt lat="44.84385931828935" lon="10.840936094293529"><ele>20.75</ele><time>2026-04-26T14:41:47.999Z</time></trkpt><trkpt lat="44.843984704446775" lon="10.840855989967197"><ele>20.5</ele><time>2026-04-26T14:41:48.999Z</time></trkpt><trkpt lat="44.844113137639525" lon="10.840803175382794"><ele>20.25</ele><time>2026-04-26T14:41:49.999Z</time></trkpt><trkpt lat="44.84424349772548" lon="10.840728975981314"><ele>20.0</ele><time>2026-04-26T14:41:50.999Z</time></trkpt><trkpt lat="44.84437651970393" lon="10.840653945579467"><ele>19.75</ele><time>2026-04-26T14:41:51.999Z</time></trkpt><trkpt lat="44.84451425415823" lon="10.840577032166468"><ele>19.5</ele><time>2026-04-26T14:41:52.999Z</time></trkpt><trkpt lat="44.84464670943873" lon="10.840483411913207"><ele>19.25</ele><time>2026-04-26T14:41:53.999Z</time></trkpt><trkpt lat="44.84478665748858" lon="10.840416238094615"><ele>19.0</ele><time>2026-04-26T14:41:54.999Z</time></trkpt><trkpt lat="44.84492529616107" lon="10.840341513896352"><ele>19.0</ele><time>2026-04-26T14:41:55.999Z</time></trkpt><trkpt lat="44.84506368385251" lon="10.840261977006186"><ele>19.0</ele><time>2026-04-26T14:41:56.999Z</time></trkpt><trkpt lat="44.8452012658702" lon="10.840190059928624"><ele>19.0</ele><time>2026-04-26T14:41:57.999Z</time></trkpt><trkpt lat="44.84534107484132" lon="10.840126503121034"><ele>19.0</ele><time>2026-04-26T14:41:58.999Z</time></trkpt><trkpt lat="44.845487457505634" lon="10.840099958154847"><ele>19.0</ele><time>2026-04-26T14:41:59.999Z</time></trkpt><trkpt lat="44.84563042365365" lon="10.840041147378912"><ele>19.0</ele><time>2026-04-26T14:42:00.999Z</time></trkpt><trkpt lat="44.845781031027116" lon="10.840035731249296"><ele>19.0</ele><time>2026-04-26T14:42:01.999Z</time></trkpt><trkpt lat="44.845935171312306" lon="10.839991433428033"><ele>18.666666666666664</ele><time>2026-04-26T14:42:02.999Z</time></trkpt><trkpt lat="44.846090996924694" lon="10.839977745051376"><ele>18.333333333333332</ele><time>2026-04-26T14:42:03.999Z</time></trkpt><trkpt lat="44.84625151436508" lon="10.839958938481274"><ele>18.0</ele><time>2026-04-26T14:42:04.999Z</time></trkpt><trkpt lat="44.846407576871655" lon="10.83993838608784"><ele>18.0</ele><time>2026-04-26T14:42:05.999Z</time></trkpt><trkpt lat="44.84656692360677" lon="10.839915677807495"><ele>18.0</ele><time>2026-04-26T14:42:06.999Z</time></trkpt><trkpt lat="44.84672701927512" lon="10.839892964852865"><ele>18.0</ele><time>2026-04-26T14:42:07.999Z</time></trkpt><trkpt lat="44.84688447663301" lon="10.839863009093925"><ele>18.0</ele><time>2026-04-26T14:42:08.999Z</time></trkpt><trkpt lat="44.84704045658828" lon="10.839824455237581"><ele>18.0</ele><time>2026-04-26T14:42:09.999Z</time></trkpt><trkpt lat="44.84718983179459" lon="10.839774058002284"><ele>18.0</ele><time>2026-04-26T14:42:10.999Z</time></trkpt><trkpt lat="44.847332367952944" lon="10.839726172991597"><ele>18.0</ele><time>2026-04-26T14:42:11.999Z</time></trkpt><trkpt lat="44.84746157723644" lon="10.839706211501028"><ele>18.0</ele><time>2026-04-26T14:42:12.999Z</time></trkpt><trkpt lat="44.847598829372636" lon="10.839719215058263"><ele>18.0</ele><time>2026-04-26T14:42:13.999Z</time></trkpt><trkpt lat="44.84773797314906" lon="10.83979428643397"><ele>18.0</ele><time>2026-04-26T14:42:14.999Z</time></trkpt><trkpt lat="44.84787759871567" lon="10.839859766463915"><ele>18.0</ele><time>2026-04-26T14:42:15.999Z</time></trkpt><trkpt lat="44.84802641093764" lon="10.839917533402323"><ele>18.0</ele><time>2026-04-26T14:42:16.999Z</time></trkpt><trkpt lat="44.848171011353756" lon="10.84000370633421"><ele>18.0</ele><time>2026-04-26T14:42:17.999Z</time></trkpt><trkpt lat="44.84832157702679" lon="10.840092008275304"><ele>18.333333333333332</ele><time>2026-04-26T14:42:18.999Z</time></trkpt><trkpt lat="44.84846883383061" lon="10.840177120528892"><ele>18.666666666666664</ele><time>2026-04-26T14:42:19.999Z</time></trkpt><trkpt lat="44.84861648339277" lon="10.8402655841832"><ele>19.0</ele><time>2026-04-26T14:42:20.999Z</time></trkpt><trkpt lat="44.84876033414544" lon="10.840359537862662"><ele>19.0</ele><time>2026-04-26T14:42:21.999Z</time></trkpt><trkpt lat="44.84890158494998" lon="10.840454740386845"><ele>19.0</ele><time>2026-04-26T14:42:22.999Z</time></trkpt><trkpt lat="44.849041353716316" lon="10.840542104918045"><ele>19.0</ele><time>2026-04-26T14:42:23.999Z</time></trkpt><trkpt lat="44.849181157215924" lon="10.840621579178421"><ele>19.25</ele><time>2026-04-26T14:42:24.999Z</time></trkpt><trkpt lat="44.849324530910835" lon="10.840691418443411"><ele>19.5</ele><time>2026-04-26T14:42:25.999Z</time></trkpt><trkpt lat="44.84946684167553" lon="10.840743372430389"><ele>19.75</ele><time>2026-04-26T14:42:26.999Z</time></trkpt><trkpt lat="44.84960498645757" lon="10.840794374461346"><ele>20.0</ele><time>2026-04-26T14:42:27.999Z</time></trkpt><trkpt lat="44.849735303187735" lon="10.840834713141628"><ele>20.0</ele><time>2026-04-26T14:42:28.999Z</time></trkpt><trkpt lat="44.849871228716175" lon="10.840867615054702"><ele>20.0</ele><time>2026-04-26T14:42:29.999Z</time></trkpt><trkpt lat="44.850006991024166" lon="10.84091245462861"><ele>20.0</ele><time>2026-04-26T14:42:30.999Z</time></trkpt><trkpt lat="44.850126251614206" lon="10.84099891462587"><ele>20.0</ele><time>2026-04-26T14:42:31.999Z</time></trkpt><trkpt lat="44.85024028634765" lon="10.841096577581666"><ele>20.75</ele><time>2026-04-26T14:42:32.999Z</time></trkpt><trkpt lat="44.850364219407886" lon="10.841195131285193"><ele>21.5</ele><time>2026-04-26T14:42:33.999Z</time></trkpt><trkpt lat="44.85048175997163" lon="10.841314798996885"><ele>22.25</ele><time>2026-04-26T14:42:34.999Z</time></trkpt><trkpt lat="44.85061307919007" lon="10.841420895586822"><ele>23.0</ele><time>2026-04-26T14:42:35.999Z</time></trkpt><trkpt lat="44.85074608476061" lon="10.84151634205781"><ele>23.0</ele><time>2026-04-26T14:42:36.999Z</time></trkpt><trkpt lat="44.850885520577464" lon="10.841611695693542"><ele>23.0</ele><time>2026-04-26T14:42:37.999Z</time></trkpt><trkpt lat="44.85102046105928" lon="10.841704393219041"><ele>23.0</ele><time>2026-04-26T14:42:39Z</time></trkpt><trkpt lat="44.8511598207791" lon="10.841800642727774"><ele>22.0</ele><time>2026-04-26T14:42:40Z</time></trkpt><trkpt lat="44.85129605356909" lon="10.841905230447246"><ele>21.0</ele><time>2026-04-26T14:42:41Z</time></trkpt><trkpt lat="44.85142648797879" lon="10.842014235619816"><ele>20.0</ele><time>2026-04-26T14:42:42Z</time></trkpt><trkpt lat="44.85154814696357" lon="10.842130340019116"><ele>20.0</ele><time>2026-04-26T14:42:43Z</time></trkpt><trkpt lat="44.851664429028034" lon="10.842254125789387"><ele>20.0</ele><time>2026-04-26T14:42:44Z</time></trkpt><trkpt lat="44.85177449896142" lon="10.842389625170089"><ele>20.0</ele><time>2026-04-26T14:42:45Z</time></trkpt><trkpt lat="44.85189630604095" lon="10.84250992269822"><ele>20.0</ele><time>2026-04-26T14:42:46Z</time></trkpt><trkpt lat="44.85201216374206" lon="10.842634741635162"><ele>19.333333333333336</ele><time>2026-04-26T14:42:47Z</time></trkpt><trkpt lat="44.85213237859479" lon="10.842759973083194"><ele>18.666666666666668</ele><time>2026-04-26T14:42:48Z</time></trkpt><trkpt lat="44.85225569935062" lon="10.842885778983714"><ele>18.0</ele><time>2026-04-26T14:42:49Z</time></trkpt><trkpt lat="44.85238160044579" lon="10.84300677274296"><ele>18.0</ele><time>2026-04-26T14:42:50Z</time></trkpt><trkpt lat="44.852507073205" lon="10.84311943382718"><ele>18.0</ele><time>2026-04-26T14:42:51Z</time></trkpt><trkpt lat="44.8526387275841" lon="10.843228251497255"><ele>18.0</ele><time>2026-04-26T14:42:52Z</time></trkpt><trkpt lat="44.85277381073362" lon="10.84333205487857"><ele>18.666666666666668</ele><time>2026-04-26T14:42:53Z</time></trkpt><trkpt lat="44.85291358465526" lon="10.843424766504084"><ele>19.333333333333336</ele><time>2026-04-26T14:42:54Z</time></trkpt><trkpt lat="44.85305851019343" lon="10.84350919747194"><ele>20.0</ele><time>2026-04-26T14:42:55Z</time></trkpt><trkpt lat="44.8532053832919" lon="10.843582443117755"><ele>20.333333333333336</ele><time>2026-04-26T14:42:56Z</time></trkpt><trkpt lat="44.85335892534535" lon="10.843653332596023"><ele>20.666666666666668</ele><time>2026-04-26T14:42:57Z</time></trkpt><trkpt lat="44.85350913573309" lon="10.843722505127424"><ele>21.0</ele><time>2026-04-26T14:42:58Z</time></trkpt><trkpt lat="44.85365422297466" lon="10.843796046820314"><ele>20.333333333333332</ele><time>2026-04-26T14:42:59Z</time></trkpt><trkpt lat="44.853796455470274" lon="10.843874577512652"><ele>19.666666666666664</ele><time>2026-04-26T14:43:00Z</time></trkpt><trkpt lat="44.85393148247088" lon="10.843980488104368"><ele>19.0</ele><time>2026-04-26T14:43:01Z</time></trkpt><trkpt lat="44.85406317832665" lon="10.844093551291808"><ele>19.0</ele><time>2026-04-26T14:43:02Z</time></trkpt><trkpt lat="44.85419666828491" lon="10.844195620909488"><ele>19.0</ele><time>2026-04-26T14:43:03Z</time></trkpt><trkpt lat="44.854340410085186" lon="10.84429162822148"><ele>19.0</ele><time>2026-04-26T14:43:04Z</time></trkpt><trkpt lat="44.85448832915367" lon="10.84437205205551"><ele>19.0</ele><time>2026-04-26T14:43:05Z</time></trkpt><trkpt lat="44.85463707083612" lon="10.844448529083627"><ele>19.0</ele><time>2026-04-26T14:43:06Z</time></trkpt><trkpt lat="44.85479265716545" lon="10.844506590973962"><ele>19.0</ele><time>2026-04-26T14:43:07Z</time></trkpt><trkpt lat="44.854950414951425" lon="10.84455554980799"><ele>19.0</ele><time>2026-04-26T14:43:08Z</time></trkpt><trkpt lat="44.85511130147787" lon="10.844584541233287"><ele>19.0</ele><time>2026-04-26T14:43:09Z</time></trkpt><trkpt lat="44.855266834877774" lon="10.844612291802143"><ele>19.0</ele><time>2026-04-26T14:43:10Z</time></trkpt><trkpt lat="44.85541159352838" lon="10.844670839572167"><ele>18.5</ele><time>2026-04-26T14:43:11Z</time></trkpt><trkpt lat="44.855546886097045" lon="10.84471809372399"><ele>18.0</ele><time>2026-04-26T14:43:12Z</time></trkpt><trkpt lat="44.85568514555616" lon="10.844781937716812"><ele>17.5</ele><time>2026-04-26T14:43:13Z</time></trkpt><trkpt lat="44.85583430802595" lon="10.844831970012264"><ele>17.0</ele><time>2026-04-26T14:43:14Z</time></trkpt><trkpt lat="44.855983701036436" lon="10.844902053736302"><ele>17.0</ele><time>2026-04-26T14:43:15Z</time></trkpt><trkpt lat="44.85613862118347" lon="10.84495027939235"><ele>17.0</ele><time>2026-04-26T14:43:16Z</time></trkpt><trkpt lat="44.85628285131787" lon="10.844998939688228"><ele>17.0</ele><time>2026-04-26T14:43:17Z</time></trkpt><trkpt lat="44.856418505454265" lon="10.845050404783672"><ele>17.0</ele><time>2026-04-26T14:43:18Z</time></trkpt><trkpt lat="44.856560782018136" lon="10.845123899320946"><ele>17.25</ele><time>2026-04-26T14:43:19Z</time></trkpt><trkpt lat="44.856694498470425" lon="10.845204701648672"><ele>17.5</ele><time>2026-04-26T14:43:20Z</time></trkpt><trkpt lat="44.85682532877914" lon="10.845309094644211"><ele>17.75</ele><time>2026-04-26T14:43:21Z</time></trkpt><trkpt lat="44.85695077985624" lon="10.845430138213215"><ele>18.0</ele><time>2026-04-26T14:43:22Z</time></trkpt><trkpt lat="44.857085060771894" lon="10.84553410344509"><ele>19.0</ele><time>2026-04-26T14:43:23Z</time></trkpt><trkpt lat="44.85723146083078" lon="10.845620201337333"><ele>20.0</ele><time>2026-04-26T14:43:24Z</time></trkpt><trkpt lat="44.857381575549184" lon="10.84568521808528"><ele>21.0</ele><time>2026-04-26T14:43:25Z</time></trkpt><trkpt lat="44.857530922483996" lon="10.845749875920099"><ele>21.0</ele><time>2026-04-26T14:43:26Z</time></trkpt><trkpt lat="44.85766591884223" lon="10.84586409191909"><ele>21.0</ele><time>2026-04-26T14:43:27Z</time></trkpt><trkpt lat="44.857816698894254" lon="10.845941623900774"><ele>21.0</ele><time>2026-04-26T14:43:28Z</time></trkpt><trkpt lat="44.85797121215999" lon="10.846027796404782"><ele>20.333333333333332</ele><time>2026-04-26T14:43:29Z</time></trkpt><trkpt lat="44.85813017810054" lon="10.846091564395099"><ele>19.666666666666664</ele><time>2026-04-26T14:43:30Z</time></trkpt><trkpt lat="44.858280256429296" lon="10.846153061288828"><ele>19.0</ele><time>2026-04-26T14:43:31Z</time></trkpt><trkpt lat="44.858428367727505" lon="10.84622405399926"><ele>19.25</ele><time>2026-04-26T14:43:32Z</time></trkpt><trkpt lat="44.8585671994085" lon="10.846316581968223"><ele>19.5</ele><time>2026-04-26T14:43:33Z</time></trkpt><trkpt lat="44.858708780147126" lon="10.846380926665983"><ele>19.75</ele><time>2026-04-26T14:43:34Z</time></trkpt><trkpt lat="44.858846861967166" lon="10.846428975490529"><ele>20.0</ele><time>2026-04-26T14:43:35Z</time></trkpt><trkpt lat="44.85897374337815" lon="10.846436629254182"><ele>20.0</ele><time>2026-04-26T14:43:36Z</time></trkpt><trkpt lat="44.85908712813078" lon="10.846463325674074"><ele>20.0</ele><time>2026-04-26T14:43:36.999Z</time></trkpt><trkpt lat="44.85919221533302" lon="10.846489352818471"><ele>20.0</ele><time>2026-04-26T14:43:37.999Z</time></trkpt><trkpt lat="44.85929718468561" lon="10.84649649806961"><ele>20.0</ele><time>2026-04-26T14:43:38.999Z</time></trkpt><trkpt lat="44.85939532774109" lon="10.846510978633495"><ele>20.0</ele><time>2026-04-26T14:43:39.999Z</time></trkpt><trkpt lat="44.85948567897947" lon="10.846526545425052"><ele>20.0</ele><time>2026-04-26T14:43:40.999Z</time></trkpt><trkpt lat="44.85956263601349" lon="10.846539327861272"><ele>20.0</ele><time>2026-04-26T14:43:41.999Z</time></trkpt><trkpt lat="44.85963229761938" lon="10.846555369253478"><ele>20.0</ele><time>2026-04-26T14:43:42.999Z</time></trkpt><trkpt lat="44.859694369054594" lon="10.846529142827581"><ele>20.0</ele><time>2026-04-26T14:43:43.999Z</time></trkpt><trkpt lat="44.85973459974649" lon="10.846396742470583"><ele>20.0</ele><time>2026-04-26T14:43:44.999Z</time></trkpt><trkpt lat="44.85977836813586" lon="10.846254453824123"><ele>20.0</ele><time>2026-04-26T14:43:46.999Z</time></trkpt><trkpt lat="44.85979723830694" lon="10.846165411434798"><ele>20.0</ele><time>2026-04-26T14:43:48.999Z</time></trkpt><trkpt lat="44.85963329081568" lon="10.846037325773539"><ele>20.0</ele><time>2026-04-26T14:43:49.999Z</time></trkpt><trkpt lat="44.859566530967754" lon="10.845978335526828"><ele>20.0</ele><time>2026-04-26T14:43:50.999Z</time></trkpt><trkpt lat="44.85948651738134" lon="10.84592892210859"><ele>20.0</ele><time>2026-04-26T14:43:51.999Z</time></trkpt><trkpt lat="44.85939593820153" lon="10.84587118567521"><ele>19.75</ele><time>2026-04-26T14:43:52.999Z</time></trkpt><trkpt lat="44.85929825325067" lon="10.845802092709127"><ele>19.5</ele><time>2026-04-26T14:43:53.999Z</time></trkpt><trkpt lat="44.85919858477317" lon="10.845722303724413"><ele>19.25</ele><time>2026-04-26T14:43:54.999Z</time></trkpt><trkpt lat="44.859103378044026" lon="10.84563221000234"><ele>19.0</ele><time>2026-04-26T14:43:55.999Z</time></trkpt><trkpt lat="44.859014708913996" lon="10.845535109929346"><ele>19.0</ele><time>2026-04-26T14:43:56.999Z</time></trkpt><trkpt lat="44.85892960095692" lon="10.845436174905895"><ele>19.0</ele><time>2026-04-26T14:43:57.999Z</time></trkpt><trkpt lat="44.85886295312973" lon="10.84532453497271"><ele>19.0</ele><time>2026-04-26T14:43:58.999Z</time></trkpt><trkpt lat="44.85878070507488" lon="10.84524135867845"><ele>19.0</ele><time>2026-04-26T14:43:59.999Z</time></trkpt><trkpt lat="44.858727764872214" lon="10.845135107013311"><ele>19.0</ele><time>2026-04-26T14:44:00.999Z</time></trkpt><trkpt lat="44.85868212699078" lon="10.845068443603072"><ele>19.0</ele><time>2026-04-26T14:44:01.999Z</time></trkpt><trkpt lat="44.85863468344062" lon="10.844998273741826"><ele>19.0</ele><time>2026-04-26T14:44:03.999Z</time></trkpt><trkpt lat="44.858698529423705" lon="10.844885138002532"><ele>19.0</ele><time>2026-04-26T14:44:05.999Z</time></trkpt><trkpt lat="44.85875125222355" lon="10.84482411449323"><ele>19.0</ele><time>2026-04-26T14:44:07.999Z</time></trkpt><trkpt lat="44.85880478753166" lon="10.84477234366747"><ele>19.0</ele><time>2026-04-26T14:44:21.999Z</time></trkpt><trkpt lat="44.85873772711879" lon="10.844848191586092"><ele>19.0</ele><time>2026-04-26T14:46:04.999Z</time></trkpt><trkpt lat="44.85868782849873" lon="10.844919550146292"><ele>19.0</ele><time>2026-04-26T14:46:06.999Z</time></trkpt><trkpt lat="44.858613116000484" lon="10.844972005585564"><ele>19.0</ele><time>2026-04-26T14:46:09.999Z</time></trkpt><trkpt lat="44.858520867431864" lon="10.844887213149459"><ele>19.0</ele><time>2026-04-26T14:46:11.999Z</time></trkpt><trkpt lat="44.858499595215605" lon="10.844786316832632"><ele>19.0</ele><time>2026-04-26T14:46:12.999Z</time></trkpt><trkpt lat="44.85845353472271" lon="10.844714306810411"><ele>19.0</ele><time>2026-04-26T14:46:13.999Z</time></trkpt><trkpt lat="44.85840340607364" lon="10.84463593675153"><ele>19.0</ele><time>2026-04-26T14:46:14.999Z</time></trkpt><trkpt lat="44.858347173137204" lon="10.844548023376403"><ele>19.166666666666664</ele><time>2026-04-26T14:46:15.999Z</time></trkpt><trkpt lat="44.8582902291707" lon="10.844458998403505"><ele>19.333333333333332</ele><time>2026-04-26T14:46:16.999Z</time></trkpt><trkpt lat="44.85823336051948" lon="10.844370091153836"><ele>19.5</ele><time>2026-04-26T14:46:17.999Z</time></trkpt><trkpt lat="44.858176736300685" lon="10.844281566045542"><ele>19.666666666666668</ele><time>2026-04-26T14:46:18.999Z</time></trkpt><trkpt lat="44.85811817762656" lon="10.844190016653698"><ele>19.833333333333336</ele><time>2026-04-26T14:46:19.999Z</time></trkpt><trkpt lat="44.858058489525476" lon="10.844096701551445"><ele>20.0</ele><time>2026-04-26T14:46:20.999Z</time></trkpt><trkpt lat="44.857999082057226" lon="10.84400382517884"><ele>20.0</ele><time>2026-04-26T14:46:21.999Z</time></trkpt><trkpt lat="44.85792765858701" lon="10.843921772355982"><ele>20.0</ele><time>2026-04-26T14:46:22.999Z</time></trkpt><trkpt lat="44.85786742326562" lon="10.843820997795103"><ele>20.0</ele><time>2026-04-26T14:46:23.999Z</time></trkpt><trkpt lat="44.85780525513522" lon="10.843723685089033"><ele>20.0</ele><time>2026-04-26T14:46:24.999Z</time></trkpt><trkpt lat="44.8577401647249" lon="10.843625777473536"><ele>20.0</ele><time>2026-04-26T14:46:25.999Z</time></trkpt><trkpt lat="44.85767603202671" lon="10.843520863065372"><ele>19.8</ele><time>2026-04-26T14:46:26.999Z</time></trkpt><trkpt lat="44.857614880285105" lon="10.84341490534386"><ele>19.6</ele><time>2026-04-26T14:46:27.999Z</time></trkpt><trkpt lat="44.857548067962135" lon="10.843301093737544"><ele>19.4</ele><time>2026-04-26T14:46:28.999Z</time></trkpt><trkpt lat="44.857475852159226" lon="10.843189083048738"><ele>19.2</ele><time>2026-04-26T14:46:29.999Z</time></trkpt><trkpt lat="44.85740317969347" lon="10.843075606174613"><ele>19.0</ele><time>2026-04-26T14:46:30.999Z</time></trkpt><trkpt lat="44.857331557646255" lon="10.842955837923206"><ele>19.0</ele><time>2026-04-26T14:46:31.999Z</time></trkpt><trkpt lat="44.85725701754142" lon="10.842838197441269"><ele>19.0</ele><time>2026-04-26T14:46:32.999Z</time></trkpt><trkpt lat="44.85718002863673" lon="10.842712847584522"><ele>19.0</ele><time>2026-04-26T14:46:33.999Z</time></trkpt><trkpt lat="44.85709585575079" lon="10.842577506884698"><ele>19.0</ele><time>2026-04-26T14:46:34.999Z</time></trkpt><trkpt lat="44.85701451911474" lon="10.842438387901653"><ele>19.0</ele><time>2026-04-26T14:46:35.999Z</time></trkpt><trkpt lat="44.856938020332876" lon="10.842297987412802"><ele>19.0</ele><time>2026-04-26T14:46:36.999Z</time></trkpt><trkpt lat="44.85686402165141" lon="10.842154877529536"><ele>19.0</ele><time>2026-04-26T14:46:37.999Z</time></trkpt><trkpt lat="44.8567919512017" lon="10.842014805840211"><ele>19.0</ele><time>2026-04-26T14:46:38.999Z</time></trkpt><trkpt lat="44.85672559151165" lon="10.84188858713827"><ele>18.75</ele><time>2026-04-26T14:46:39.999Z</time></trkpt><trkpt lat="44.85666136378926" lon="10.84176172505557"><ele>18.5</ele><time>2026-04-26T14:46:40.999Z</time></trkpt><trkpt lat="44.85659731866364" lon="10.841632087115874"><ele>18.25</ele><time>2026-04-26T14:46:41.999Z</time></trkpt><trkpt lat="44.85653172799898" lon="10.841502293014331"><ele>18.0</ele><time>2026-04-26T14:46:42.999Z</time></trkpt><trkpt lat="44.85646439840435" lon="10.841369270840675"><ele>18.0</ele><time>2026-04-26T14:46:43.999Z</time></trkpt><trkpt lat="44.85639836545917" lon="10.841238011691122"><ele>18.0</ele><time>2026-04-26T14:46:44.999Z</time></trkpt><trkpt lat="44.85633207347496" lon="10.841107319379818"><ele>18.0</ele><time>2026-04-26T14:46:45.999Z</time></trkpt><trkpt lat="44.85626490802926" lon="10.840977199180017"><ele>18.0</ele><time>2026-04-26T14:46:46.999Z</time></trkpt><trkpt lat="44.856195594296366" lon="10.840849623478904"><ele>18.0</ele><time>2026-04-26T14:46:47.999Z</time></trkpt><trkpt lat="44.85612756167261" lon="10.840722016794212"><ele>18.0</ele><time>2026-04-26T14:46:48.999Z</time></trkpt><trkpt lat="44.856063021744056" lon="10.84059299753207"><ele>18.0</ele><time>2026-04-26T14:46:50Z</time></trkpt><trkpt lat="44.85599910625253" lon="10.84046735021509"><ele>18.0</ele><time>2026-04-26T14:46:51Z</time></trkpt><trkpt lat="44.85593905671258" lon="10.840345069816014"><ele>18.0</ele><time>2026-04-26T14:46:52Z</time></trkpt><trkpt lat="44.85588030326242" lon="10.840223542372456"><ele>18.0</ele><time>2026-04-26T14:46:53Z</time></trkpt><trkpt lat="44.855832122973425" lon="10.84012643197817"><ele>18.0</ele><time>2026-04-26T14:46:54Z</time></trkpt><trkpt lat="44.85579729033233" lon="10.8400485903082"><ele>18.0</ele><time>2026-04-26T14:46:55Z</time></trkpt><trkpt lat="44.855816738381" lon="10.839924710241187"><ele>18.0</ele><time>2026-04-26T14:46:57Z</time></trkpt><trkpt lat="44.85587962338898" lon="10.839886254494944"><ele>18.0</ele><time>2026-04-26T14:46:58Z</time></trkpt><trkpt lat="44.85592473422238" lon="10.839819863922457"><ele>18.0</ele><time>2026-04-26T14:46:59Z</time></trkpt><trkpt lat="44.85597959140983" lon="10.839737963438942"><ele>18.0</ele><time>2026-04-26T14:47:00Z</time></trkpt><trkpt lat="44.856037950990476" lon="10.839645362255359"><ele>18.0</ele><time>2026-04-26T14:47:01Z</time></trkpt><trkpt lat="44.85610168730745" lon="10.839545676149598"><ele>18.0</ele><time>2026-04-26T14:47:02Z</time></trkpt><trkpt lat="44.856171783919145" lon="10.839437424706151"><ele>18.0</ele><time>2026-04-26T14:47:03Z</time></trkpt><trkpt lat="44.85624493078422" lon="10.839324462699157"><ele>18.0</ele><time>2026-04-26T14:47:04Z</time></trkpt><trkpt lat="44.85632300559301" lon="10.83920389039563"><ele>18.25</ele><time>2026-04-26T14:47:05Z</time></trkpt><trkpt lat="44.856402949717946" lon="10.839079068553485"><ele>18.5</ele><time>2026-04-26T14:47:06Z</time></trkpt><trkpt lat="44.85648164126928" lon="10.838955855169473"><ele>18.75</ele><time>2026-04-26T14:47:07Z</time></trkpt><trkpt lat="44.85656294905452" lon="10.838828545324215"><ele>19.0</ele><time>2026-04-26T14:47:08Z</time></trkpt><trkpt lat="44.85664172177809" lon="10.838705204823253"><ele>19.0</ele><time>2026-04-26T14:47:09Z</time></trkpt><trkpt lat="44.8567101268655" lon="10.838564945607223"><ele>19.0</ele><time>2026-04-26T14:47:10Z</time></trkpt><trkpt lat="44.85679596751501" lon="10.838446053361801"><ele>19.0</ele><time>2026-04-26T14:47:11Z</time></trkpt><trkpt lat="44.85687413553606" lon="10.83831678116272"><ele>19.0</ele><time>2026-04-26T14:47:12Z</time></trkpt><trkpt lat="44.8569554983505" lon="10.838191273738827"><ele>18.8</ele><time>2026-04-26T14:47:13Z</time></trkpt><trkpt lat="44.85703422463231" lon="10.8380657120521"><ele>18.599999999999998</ele><time>2026-04-26T14:47:14Z</time></trkpt><trkpt lat="44.85711115403618" lon="10.83794606032297"><ele>18.4</ele><time>2026-04-26T14:47:15Z</time></trkpt><trkpt lat="44.85718453378575" lon="10.83783252788226"><ele>18.2</ele><time>2026-04-26T14:47:16Z</time></trkpt><trkpt lat="44.8572547984352" lon="10.837718565507734"><ele>18.0</ele><time>2026-04-26T14:47:17Z</time></trkpt><trkpt lat="44.85733734437627" lon="10.837626760882904"><ele>18.0</ele><time>2026-04-26T14:47:18Z</time></trkpt><trkpt lat="44.85740937891043" lon="10.837522190712882"><ele>18.0</ele><time>2026-04-26T14:47:19Z</time></trkpt><trkpt lat="44.85747747163371" lon="10.837422801758295"><ele>18.0</ele><time>2026-04-26T14:47:20Z</time></trkpt><trkpt lat="44.85754367154945" lon="10.837322526995862"><ele>18.0</ele><time>2026-04-26T14:47:21Z</time></trkpt><trkpt lat="44.85761366636864" lon="10.837216503976618"><ele>18.0</ele><time>2026-04-26T14:47:22Z</time></trkpt><trkpt lat="44.85768427051654" lon="10.837107626176463"><ele>18.0</ele><time>2026-04-26T14:47:23Z</time></trkpt><trkpt lat="44.85776095915096" lon="10.836989139468733"><ele>18.0</ele><time>2026-04-26T14:47:24Z</time></trkpt><trkpt lat="44.85782646360742" lon="10.836853442670868"><ele>18.0</ele><time>2026-04-26T14:47:25Z</time></trkpt><trkpt lat="44.857900378949886" lon="10.836735968528998"><ele>18.0</ele><time>2026-04-26T14:47:26Z</time></trkpt><trkpt lat="44.857991400394354" lon="10.836627193342766"><ele>18.0</ele><time>2026-04-26T14:47:27Z</time></trkpt><trkpt lat="44.858064888569736" lon="10.836488816483637"><ele>18.0</ele><time>2026-04-26T14:47:28Z</time></trkpt><trkpt lat="44.858160348683484" lon="10.836378603430713"><ele>18.0</ele><time>2026-04-26T14:47:29Z</time></trkpt><trkpt lat="44.85824525120642" lon="10.83624916228219"><ele>18.0</ele><time>2026-04-26T14:47:30Z</time></trkpt><trkpt lat="44.85832572818133" lon="10.836119140043213"><ele>18.0</ele><time>2026-04-26T14:47:31Z</time></trkpt><trkpt lat="44.85840532670482" lon="10.835993427848814"><ele>18.0</ele><time>2026-04-26T14:47:32Z</time></trkpt><trkpt lat="44.85848288611842" lon="10.835876624448838"><ele>18.0</ele><time>2026-04-26T14:47:33Z</time></trkpt><trkpt lat="44.858553006958296" lon="10.835771098933458"><ele>18.0</ele><time>2026-04-26T14:47:34Z</time></trkpt><trkpt lat="44.85862981425882" lon="10.835658698444066"><ele>18.0</ele><time>2026-04-26T14:47:35Z</time></trkpt><trkpt lat="44.8587107418541" lon="10.83554012913944"><ele>18.0</ele><time>2026-04-26T14:47:36Z</time></trkpt><trkpt lat="44.858789349255915" lon="10.835423340565148"><ele>18.0</ele><time>2026-04-26T14:47:37Z</time></trkpt><trkpt lat="44.85886665904705" lon="10.835300727565485"><ele>18.0</ele><time>2026-04-26T14:47:38Z</time></trkpt><trkpt lat="44.85893557900951" lon="10.835167894761472"><ele>18.0</ele><time>2026-04-26T14:47:39Z</time></trkpt><trkpt lat="44.85899369349966" lon="10.835043701472749"><ele>18.0</ele><time>2026-04-26T14:47:40Z</time></trkpt><trkpt lat="44.85904580179595" lon="10.834905716139039"><ele>18.0</ele><time>2026-04-26T14:47:41Z</time></trkpt><trkpt lat="44.859086762651586" lon="10.83478313305472"><ele>18.0</ele><time>2026-04-26T14:47:42Z</time></trkpt><trkpt lat="44.859120679716476" lon="10.834674628097115"><ele>18.0</ele><time>2026-04-26T14:47:43Z</time></trkpt><trkpt lat="44.8591508100839" lon="10.834568665292174"><ele>18.0</ele><time>2026-04-26T14:47:44Z</time></trkpt><trkpt lat="44.85917506520876" lon="10.83447685180507"><ele>18.0</ele><time>2026-04-26T14:47:45Z</time></trkpt><trkpt lat="44.85920426058515" lon="10.83436648585299"><ele>18.2</ele><time>2026-04-26T14:47:46Z</time></trkpt><trkpt lat="44.85923418561597" lon="10.834256318126348"><ele>18.4</ele><time>2026-04-26T14:47:47Z</time></trkpt><trkpt lat="44.859266877874305" lon="10.834137309846867"><ele>18.599999999999998</ele><time>2026-04-26T14:47:48Z</time></trkpt><trkpt lat="44.85930261185813" lon="10.834003606349365"><ele>18.8</ele><time>2026-04-26T14:47:49Z</time></trkpt><trkpt lat="44.85933493370564" lon="10.833876585285282"><ele>19.0</ele><time>2026-04-26T14:47:50Z</time></trkpt><trkpt lat="44.859369718051276" lon="10.833739886841949"><ele>19.0</ele><time>2026-04-26T14:47:51Z</time></trkpt><trkpt lat="44.85939235296947" lon="10.833592705324607"><ele>19.0</ele><time>2026-04-26T14:47:52Z</time></trkpt><trkpt lat="44.859429532822766" lon="10.833473036341754"><ele>19.0</ele><time>2026-04-26T14:47:53Z</time></trkpt><trkpt lat="44.85948109194328" lon="10.833323258655385"><ele>19.0</ele><time>2026-04-26T14:47:54Z</time></trkpt><trkpt lat="44.859519597987514" lon="10.833183132738313"><ele>19.0</ele><time>2026-04-26T14:47:55Z</time></trkpt><trkpt lat="44.85955851200125" lon="10.833038539031092"><ele>18.8</ele><time>2026-04-26T14:47:56Z</time></trkpt><trkpt lat="44.859591499052264" lon="10.832915968232124"><ele>18.599999999999998</ele><time>2026-04-26T14:47:57Z</time></trkpt><trkpt lat="44.8596120752446" lon="10.832776061103377"><ele>18.4</ele><time>2026-04-26T14:47:58Z</time></trkpt><trkpt lat="44.85966854996428" lon="10.832629668278216"><ele>18.2</ele><time>2026-04-26T14:47:59Z</time></trkpt><trkpt lat="44.85970848769301" lon="10.832482119638797"><ele>18.0</ele><time>2026-04-26T14:48:00Z</time></trkpt><trkpt lat="44.859748834666455" lon="10.83233493391265"><ele>17.75</ele><time>2026-04-26T14:48:01Z</time></trkpt><trkpt lat="44.85978971658462" lon="10.832185796669014"><ele>17.5</ele><time>2026-04-26T14:48:02Z</time></trkpt><trkpt lat="44.85983006622435" lon="10.832038601195046"><ele>17.25</ele><time>2026-04-26T14:48:03Z</time></trkpt><trkpt lat="44.85987131333923" lon="10.83188813168534"><ele>17.0</ele><time>2026-04-26T14:48:04Z</time></trkpt><trkpt lat="44.859912027811774" lon="10.83173960530387"><ele>17.5</ele><time>2026-04-26T14:48:05Z</time></trkpt><trkpt lat="44.85995692579374" lon="10.83157581749165"><ele>18.0</ele><time>2026-04-26T14:48:06Z</time></trkpt><trkpt lat="44.86000033812545" lon="10.831412320797586"><ele>18.5</ele><time>2026-04-26T14:48:07Z</time></trkpt><trkpt lat="44.8600401871589" lon="10.831262070788856"><ele>19.0</ele><time>2026-04-26T14:48:08Z</time></trkpt><trkpt lat="44.86007742228127" lon="10.831121676547049"><ele>19.0</ele><time>2026-04-26T14:48:08.999Z</time></trkpt><trkpt lat="44.86011066505196" lon="10.83099741718343"><ele>19.0</ele><time>2026-04-26T14:48:09.999Z</time></trkpt><trkpt lat="44.86014740834731" lon="10.830862629550614"><ele>19.0</ele><time>2026-04-26T14:48:10.999Z</time></trkpt><trkpt lat="44.86018703393246" lon="10.830717268759036"><ele>19.0</ele><time>2026-04-26T14:48:11.999Z</time></trkpt><trkpt lat="44.86022567432956" lon="10.830575521974051"><ele>19.0</ele><time>2026-04-26T14:48:12.999Z</time></trkpt><trkpt lat="44.86026255958395" lon="10.830440213604522"><ele>19.0</ele><time>2026-04-26T14:48:13.999Z</time></trkpt><trkpt lat="44.860293862694185" lon="10.830325382602283"><ele>19.0</ele><time>2026-04-26T14:48:14.999Z</time></trkpt><trkpt lat="44.86032623952157" lon="10.830206612495564"><ele>19.0</ele><time>2026-04-26T14:48:15.999Z</time></trkpt><trkpt lat="44.860359601438915" lon="10.830075676371122"><ele>19.0</ele><time>2026-04-26T14:48:16.999Z</time></trkpt><trkpt lat="44.86039831805994" lon="10.829925895867204"><ele>19.0</ele><time>2026-04-26T14:48:17.999Z</time></trkpt><trkpt lat="44.86043536877258" lon="10.829782560025004"><ele>19.0</ele><time>2026-04-26T14:48:18.999Z</time></trkpt><trkpt lat="44.86047543840155" lon="10.829627545133103"><ele>19.0</ele><time>2026-04-26T14:48:19.999Z</time></trkpt><trkpt lat="44.86051606662991" lon="10.829470369215107"><ele>19.0</ele><time>2026-04-26T14:48:20.999Z</time></trkpt><trkpt lat="44.86055502584427" lon="10.82932370046614"><ele>19.0</ele><time>2026-04-26T14:48:21.999Z</time></trkpt><trkpt lat="44.86059268299244" lon="10.829182813262067"><ele>19.166666666666664</ele><time>2026-04-26T14:48:22.999Z</time></trkpt><trkpt lat="44.860629912821885" lon="10.82904413788292"><ele>19.333333333333332</ele><time>2026-04-26T14:48:23.999Z</time></trkpt><trkpt lat="44.86066730366824" lon="10.828917377755815"><ele>19.5</ele><time>2026-04-26T14:48:24.999Z</time></trkpt><trkpt lat="44.860703634699234" lon="10.828819971434582"><ele>19.666666666666668</ele><time>2026-04-26T14:48:25.999Z</time></trkpt><trkpt lat="44.860746492371966" lon="10.82873562007654"><ele>19.833333333333336</ele><time>2026-04-26T14:48:26.999Z</time></trkpt><trkpt lat="44.86080180738487" lon="10.82865413959661"><ele>20.0</ele><time>2026-04-26T14:48:27.999Z</time></trkpt><trkpt lat="44.860863572993125" lon="10.828586306701697"><ele>19.8</ele><time>2026-04-26T14:48:28.999Z</time></trkpt><trkpt lat="44.86097377002993" lon="10.828537679650339"><ele>19.6</ele><time>2026-04-26T14:48:30.999Z</time></trkpt><trkpt lat="44.86107563694967" lon="10.828511800235724"><ele>19.4</ele><time>2026-04-26T14:48:32.999Z</time></trkpt><trkpt lat="44.86117718553473" lon="10.82852760204768"><ele>19.2</ele><time>2026-04-26T14:48:34.999Z</time></trkpt><trkpt lat="44.86126134419004" lon="10.828548801372104"><ele>19.0</ele><time>2026-04-26T14:48:36.999Z</time></trkpt><trkpt lat="44.86134635228702" lon="10.828578022111994"><ele>19.0</ele><time>2026-04-26T14:48:38.999Z</time></trkpt><trkpt lat="44.86144743006106" lon="10.828614495765283"><ele>19.0</ele><time>2026-04-26T14:48:40.999Z</time></trkpt><trkpt lat="44.86150956625596" lon="10.828638697224621"><ele>19.0</ele><time>2026-04-26T14:48:41.999Z</time></trkpt><trkpt lat="44.861575090622736" lon="10.828667070713902"><ele>19.0</ele><time>2026-04-26T14:48:42.999Z</time></trkpt><trkpt lat="44.86164456153526" lon="10.828695936720857"><ele>19.0</ele><time>2026-04-26T14:48:43.999Z</time></trkpt><trkpt lat="44.861718961171185" lon="10.828720086499882"><ele>19.0</ele><time>2026-04-26T14:48:44.999Z</time></trkpt><trkpt lat="44.86179225803872" lon="10.828772151119077"><ele>19.0</ele><time>2026-04-26T14:48:45.999Z</time></trkpt><trkpt lat="44.8618732988472" lon="10.828782672036727"><ele>19.0</ele><time>2026-04-26T14:48:46.999Z</time></trkpt><trkpt lat="44.861953633934654" lon="10.828819958038554"><ele>19.0</ele><time>2026-04-26T14:48:47.999Z</time></trkpt><trkpt lat="44.86204838774354" lon="10.828857586117001"><ele>19.0</ele><time>2026-04-26T14:48:48.999Z</time></trkpt><trkpt lat="44.86215022007111" lon="10.828896528226291"><ele>19.0</ele><time>2026-04-26T14:48:49.999Z</time></trkpt><trkpt lat="44.86225866608611" lon="10.828936194477217"><ele>19.0</ele><time>2026-04-26T14:48:50.999Z</time></trkpt><trkpt lat="44.8623561790809" lon="10.828975332309138"><ele>19.0</ele><time>2026-04-26T14:48:51.999Z</time></trkpt><trkpt lat="44.862455175282726" lon="10.82902023407976"><ele>19.0</ele><time>2026-04-26T14:48:52.999Z</time></trkpt><trkpt lat="44.86256359964663" lon="10.829066994358058"><ele>19.0</ele><time>2026-04-26T14:48:53.999Z</time></trkpt><trkpt lat="44.862667580394564" lon="10.829108161796762"><ele>19.0</ele><time>2026-04-26T14:48:54.999Z</time></trkpt><trkpt lat="44.86277286978768" lon="10.829143283025175"><ele>19.0</ele><time>2026-04-26T14:48:56Z</time></trkpt><trkpt lat="44.86289116548566" lon="10.829182961313846"><ele>19.0</ele><time>2026-04-26T14:48:57Z</time></trkpt><trkpt lat="44.86301059355448" lon="10.829230540649396"><ele>19.0</ele><time>2026-04-26T14:48:58Z</time></trkpt><trkpt lat="44.863130293048" lon="10.829274291633865"><ele>19.0</ele><time>2026-04-26T14:48:59Z</time></trkpt><trkpt lat="44.86325149750517" lon="10.829320678686841"><ele>19.0</ele><time>2026-04-26T14:49:00Z</time></trkpt><trkpt lat="44.863364172938276" lon="10.829362915205488"><ele>19.0</ele><time>2026-04-26T14:49:01Z</time></trkpt><trkpt lat="44.86347208379082" lon="10.82940189424858"><ele>19.0</ele><time>2026-04-26T14:49:02Z</time></trkpt><trkpt lat="44.86357862765103" lon="10.829442125069795"><ele>19.0</ele><time>2026-04-26T14:49:03Z</time></trkpt><trkpt lat="44.86367962255369" lon="10.82948149086327"><ele>19.0</ele><time>2026-04-26T14:49:04Z</time></trkpt><trkpt lat="44.86378446118154" lon="10.829526657718997"><ele>19.0</ele><time>2026-04-26T14:49:05Z</time></trkpt><trkpt lat="44.863887684802854" lon="10.829577705338254"><ele>19.0</ele><time>2026-04-26T14:49:06Z</time></trkpt><trkpt lat="44.86398159537057" lon="10.829596497808396"><ele>19.0</ele><time>2026-04-26T14:49:07Z</time></trkpt><trkpt lat="44.86406876396426" lon="10.829620197259548"><ele>19.0</ele><time>2026-04-26T14:49:08Z</time></trkpt><trkpt lat="44.864149691963775" lon="10.829635427515468"><ele>19.0</ele><time>2026-04-26T14:49:09Z</time></trkpt><trkpt lat="44.86422135896508" lon="10.82964326175558"><ele>19.0</ele><time>2026-04-26T14:49:10Z</time></trkpt><trkpt lat="44.864289998758686" lon="10.82965223155934"><ele>19.0</ele><time>2026-04-26T14:49:11Z</time></trkpt><trkpt lat="44.86440980647682" lon="10.829663409003002"><ele>19.0</ele><time>2026-04-26T14:49:13Z</time></trkpt><trkpt lat="44.86452461612737" lon="10.82966973927947"><ele>19.0</ele><time>2026-04-26T14:49:15Z</time></trkpt><trkpt lat="44.86464711214822" lon="10.829674438502101"><ele>19.0</ele><time>2026-04-26T14:49:17Z</time></trkpt><trkpt lat="44.864712610203306" lon="10.82968042511785"><ele>19.0</ele><time>2026-04-26T14:49:18Z</time></trkpt><trkpt lat="44.86477585041672" lon="10.829691121403007"><ele>19.0</ele><time>2026-04-26T14:49:19Z</time></trkpt><trkpt lat="44.864842414953756" lon="10.829693489398311"><ele>19.0</ele><time>2026-04-26T14:49:20Z</time></trkpt><trkpt lat="44.86490762701948" lon="10.829699500790774"><ele>19.0</ele><time>2026-04-26T14:49:21Z</time></trkpt><trkpt lat="44.86497253931649" lon="10.829711946826954"><ele>19.0</ele><time>2026-04-26T14:49:22Z</time></trkpt><trkpt lat="44.8650401020349" lon="10.829707445296103"><ele>19.0</ele><time>2026-04-26T14:49:23Z</time></trkpt><trkpt lat="44.86510470798892" lon="10.829709821042936"><ele>19.0</ele><time>2026-04-26T14:49:24Z</time></trkpt><trkpt lat="44.865165761808576" lon="10.829735986850144"><ele>19.0</ele><time>2026-04-26T14:49:25Z</time></trkpt><trkpt lat="44.86528235915586" lon="10.829722603499935"><ele>19.2</ele><time>2026-04-26T14:49:27Z</time></trkpt><trkpt lat="44.86539900569142" lon="10.829727764042447"><ele>19.4</ele><time>2026-04-26T14:49:29Z</time></trkpt><trkpt lat="44.86552305034769" lon="10.829742513155583"><ele>19.6</ele><time>2026-04-26T14:49:31Z</time></trkpt><trkpt lat="44.86559126833019" lon="10.829751401138344"><ele>19.8</ele><time>2026-04-26T14:49:32Z</time></trkpt><trkpt lat="44.865660759932375" lon="10.829754450914386"><ele>20.0</ele><time>2026-04-26T14:49:33Z</time></trkpt><trkpt lat="44.865738595585036" lon="10.829755218255169"><ele>20.0</ele><time>2026-04-26T14:49:34Z</time></trkpt><trkpt lat="44.86581776407333" lon="10.829766211622118"><ele>20.0</ele><time>2026-04-26T14:49:35Z</time></trkpt><trkpt lat="44.86588604968042" lon="10.829787790238605"><ele>20.0</ele><time>2026-04-26T14:49:36Z</time></trkpt><trkpt lat="44.865970122923926" lon="10.829795188365605"><ele>20.0</ele><time>2026-04-26T14:49:37Z</time></trkpt><trkpt lat="44.86605345105145" lon="10.829802520926922"><ele>20.0</ele><time>2026-04-26T14:49:38Z</time></trkpt><trkpt lat="44.866140192271004" lon="10.829810153827806"><ele>20.0</ele><time>2026-04-26T14:49:39Z</time></trkpt><trkpt lat="44.866229624720674" lon="10.82981658346601"><ele>20.0</ele><time>2026-04-26T14:49:40Z</time></trkpt><trkpt lat="44.866314110471535" lon="10.82981756367057"><ele>20.0</ele><time>2026-04-26T14:49:41Z</time></trkpt><trkpt lat="44.86638968448361" lon="10.82981449302824"><ele>20.0</ele><time>2026-04-26T14:49:42Z</time></trkpt><trkpt lat="44.86646166198491" lon="10.829810666170436"><ele>20.0</ele><time>2026-04-26T14:49:43Z</time></trkpt><trkpt lat="44.86654327703789" lon="10.82978800536071"><ele>20.0</ele><time>2026-04-26T14:49:44Z</time></trkpt><trkpt lat="44.86663161174284" lon="10.8298051677226"><ele>20.0</ele><time>2026-04-26T14:49:45Z</time></trkpt><trkpt lat="44.86672335773526" lon="10.82980134358455"><ele>20.0</ele><time>2026-04-26T14:49:46Z</time></trkpt><trkpt lat="44.86680964465665" lon="10.829792378961647"><ele>20.0</ele><time>2026-04-26T14:49:47Z</time></trkpt><trkpt lat="44.866891814307806" lon="10.829765553448789"><ele>20.0</ele><time>2026-04-26T14:49:48Z</time></trkpt><trkpt lat="44.86697631130343" lon="10.829781801864469"><ele>20.0</ele><time>2026-04-26T14:49:49Z</time></trkpt><trkpt lat="44.8670697384797" lon="10.829840995249047"><ele>20.0</ele><time>2026-04-26T14:49:50Z</time></trkpt><trkpt lat="44.867171823178296" lon="10.829866589569713"><ele>20.0</ele><time>2026-04-26T14:49:51Z</time></trkpt><trkpt lat="44.86727500708515" lon="10.829873257716931"><ele>20.0</ele><time>2026-04-26T14:49:52Z</time></trkpt><trkpt lat="44.8673736198066" lon="10.829904231100613"><ele>20.0</ele><time>2026-04-26T14:49:53Z</time></trkpt><trkpt lat="44.8674647395273" lon="10.829915190291347"><ele>20.0</ele><time>2026-04-26T14:49:54Z</time></trkpt><trkpt lat="44.86756891411873" lon="10.829921927926563"><ele>20.0</ele><time>2026-04-26T14:49:55Z</time></trkpt><trkpt lat="44.867677496564" lon="10.82992637694756"><ele>20.2</ele><time>2026-04-26T14:49:56Z</time></trkpt><trkpt lat="44.8677766127652" lon="10.8299246534369"><ele>20.4</ele><time>2026-04-26T14:49:57Z</time></trkpt><trkpt lat="44.86787242055994" lon="10.829921052810002"><ele>20.6</ele><time>2026-04-26T14:49:58Z</time></trkpt><trkpt lat="44.86796924079353" lon="10.829914040612099"><ele>20.8</ele><time>2026-04-26T14:49:59Z</time></trkpt><trkpt lat="44.86806206134073" lon="10.829902423506407"><ele>21.0</ele><time>2026-04-26T14:50:00Z</time></trkpt><trkpt lat="44.868152143896005" lon="10.829882618438887"><ele>21.0</ele><time>2026-04-26T14:50:01Z</time></trkpt><trkpt lat="44.86824670191835" lon="10.829864662841675"><ele>21.0</ele><time>2026-04-26T14:50:02Z</time></trkpt><trkpt lat="44.86834394693056" lon="10.829846906018984"><ele>21.0</ele><time>2026-04-26T14:50:03Z</time></trkpt><trkpt lat="44.86843974341119" lon="10.829829580187528"><ele>21.0</ele><time>2026-04-26T14:50:04Z</time></trkpt><trkpt lat="44.86853351707476" lon="10.829808822480413"><ele>21.0</ele><time>2026-04-26T14:50:05Z</time></trkpt><trkpt lat="44.86863202574917" lon="10.829791937395164"><ele>20.833333333333332</ele><time>2026-04-26T14:50:06Z</time></trkpt><trkpt lat="44.86872765761246" lon="10.82978233365868"><ele>20.666666666666668</ele><time>2026-04-26T14:50:07Z</time></trkpt><trkpt lat="44.868817603550454" lon="10.8297752257328"><ele>20.5</ele><time>2026-04-26T14:50:08Z</time></trkpt><trkpt lat="44.86889026424344" lon="10.829777452047235"><ele>20.333333333333336</ele><time>2026-04-26T14:50:09Z</time></trkpt><trkpt lat="44.868956993113805" lon="10.829777525646238"><ele>20.166666666666668</ele><time>2026-04-26T14:50:10Z</time></trkpt><trkpt lat="44.8690213553091" lon="10.829783971699037"><ele>20.0</ele><time>2026-04-26T14:50:11Z</time></trkpt><trkpt lat="44.86913989791303" lon="10.829802037963798"><ele>20.0</ele><time>2026-04-26T14:50:13Z</time></trkpt><trkpt lat="44.86926907374867" lon="10.829830049401403"><ele>20.0</ele><time>2026-04-26T14:50:15Z</time></trkpt><trkpt lat="44.86936232536419" lon="10.829852035304645"><ele>20.0</ele><time>2026-04-26T14:50:16Z</time></trkpt><trkpt lat="44.869467397060106" lon="10.829875204330541"><ele>20.0</ele><time>2026-04-26T14:50:17Z</time></trkpt><trkpt lat="44.86957740883967" lon="10.829897159284497"><ele>20.0</ele><time>2026-04-26T14:50:18Z</time></trkpt><trkpt lat="44.86969862856524" lon="10.829923615486889"><ele>19.75</ele><time>2026-04-26T14:50:19Z</time></trkpt><trkpt lat="44.86981920208445" lon="10.829951029068035"><ele>19.5</ele><time>2026-04-26T14:50:20Z</time></trkpt><trkpt lat="44.86993967460452" lon="10.829978054254257"><ele>19.25</ele><time>2026-04-26T14:50:21Z</time></trkpt><trkpt lat="44.870058275174536" lon="10.830006899408842"><ele>19.0</ele><time>2026-04-26T14:50:22Z</time></trkpt><trkpt lat="44.870172440875464" lon="10.830042865966602"><ele>19.5</ele><time>2026-04-26T14:50:22.999Z</time></trkpt><trkpt lat="44.87028290515783" lon="10.83009196721248"><ele>20.0</ele><time>2026-04-26T14:50:23.999Z</time></trkpt><trkpt lat="44.87039594432934" lon="10.83015666793976"><ele>20.5</ele><time>2026-04-26T14:50:24.999Z</time></trkpt><trkpt lat="44.87051050094583" lon="10.830223090348683"><ele>21.0</ele><time>2026-04-26T14:50:25.999Z</time></trkpt><trkpt lat="44.8706300361145" lon="10.830292147443522"><ele>21.0</ele><time>2026-04-26T14:50:26.999Z</time></trkpt><trkpt lat="44.87074913806305" lon="10.830362000964833"><ele>21.0</ele><time>2026-04-26T14:50:27.999Z</time></trkpt><trkpt lat="44.87087021181437" lon="10.830431608486911"><ele>21.0</ele><time>2026-04-26T14:50:28.999Z</time></trkpt><trkpt lat="44.8710038713144" lon="10.830506091485223"><ele>21.0</ele><time>2026-04-26T14:50:29.999Z</time></trkpt><trkpt lat="44.87114208175301" lon="10.830587500317312"><ele>21.0</ele><time>2026-04-26T14:50:30.999Z</time></trkpt><trkpt lat="44.87127365312915" lon="10.830661605282316"><ele>21.0</ele><time>2026-04-26T14:50:31.999Z</time></trkpt><trkpt lat="44.87138849916178" lon="10.830728071357031"><ele>21.0</ele><time>2026-04-26T14:50:32.999Z</time></trkpt><trkpt lat="44.87149853650962" lon="10.83079048589617"><ele>21.0</ele><time>2026-04-26T14:50:33.999Z</time></trkpt><trkpt lat="44.871603672223664" lon="10.830850739569398"><ele>21.0</ele><time>2026-04-26T14:50:34.999Z</time></trkpt><trkpt lat="44.87169830548291" lon="10.830909614813075"><ele>21.0</ele><time>2026-04-26T14:50:35.999Z</time></trkpt><trkpt lat="44.87180026134146" lon="10.83096828176478"><ele>21.0</ele><time>2026-04-26T14:50:36.999Z</time></trkpt><trkpt lat="44.87191907955982" lon="10.831026409839243"><ele>21.0</ele><time>2026-04-26T14:50:37.999Z</time></trkpt><trkpt lat="44.87204533930864" lon="10.831083549843022"><ele>21.25</ele><time>2026-04-26T14:50:38.999Z</time></trkpt><trkpt lat="44.872177276925626" lon="10.831142472013683"><ele>21.5</ele><time>2026-04-26T14:50:39.999Z</time></trkpt><trkpt lat="44.87231433293231" lon="10.8311931732781"><ele>21.75</ele><time>2026-04-26T14:50:40.999Z</time></trkpt><trkpt lat="44.872450414014295" lon="10.831237351492362"><ele>22.0</ele><time>2026-04-26T14:50:41.999Z</time></trkpt><trkpt lat="44.87257980403284" lon="10.831280290933787"><ele>21.5</ele><time>2026-04-26T14:50:42.999Z</time></trkpt><trkpt lat="44.872715741788404" lon="10.831329813203645"><ele>21.0</ele><time>2026-04-26T14:50:43.999Z</time></trkpt><trkpt lat="44.872844501147355" lon="10.831381743277232"><ele>20.5</ele><time>2026-04-26T14:50:44.999Z</time></trkpt><trkpt lat="44.872969972326686" lon="10.83143955470377"><ele>20.0</ele><time>2026-04-26T14:50:45.999Z</time></trkpt><trkpt lat="44.87309187727547" lon="10.831504011473816"><ele>20.0</ele><time>2026-04-26T14:50:46.999Z</time></trkpt><trkpt lat="44.873206446150384" lon="10.831580761745794"><ele>20.0</ele><time>2026-04-26T14:50:47.999Z</time></trkpt><trkpt lat="44.87330646011809" lon="10.831666159796788"><ele>20.0</ele><time>2026-04-26T14:50:48.999Z</time></trkpt><trkpt lat="44.87338537682397" lon="10.831768884546802"><ele>20.0</ele><time>2026-04-26T14:50:49.999Z</time></trkpt><trkpt lat="44.87345736288107" lon="10.831891009106158"><ele>20.5</ele><time>2026-04-26T14:50:50.999Z</time></trkpt><trkpt lat="44.873531467519165" lon="10.832012550771557"><ele>21.0</ele><time>2026-04-26T14:50:51.999Z</time></trkpt><trkpt lat="44.873619620661024" lon="10.832118543384075"><ele>21.5</ele><time>2026-04-26T14:50:52.999Z</time></trkpt><trkpt lat="44.873720234897156" lon="10.832196345607807"><ele>22.0</ele><time>2026-04-26T14:50:53.999Z</time></trkpt><trkpt lat="44.873821258825195" lon="10.832247345966511"><ele>22.0</ele><time>2026-04-26T14:50:54.999Z</time></trkpt><trkpt lat="44.873939274818646" lon="10.83227071747083"><ele>22.0</ele><time>2026-04-26T14:50:55.999Z</time></trkpt><trkpt lat="44.87406677905086" lon="10.832282267583539"><ele>22.0</ele><time>2026-04-26T14:50:56.999Z</time></trkpt><trkpt lat="44.87419115303541" lon="10.832298489606822"><ele>22.0</ele><time>2026-04-26T14:50:57.999Z</time></trkpt><trkpt lat="44.87431854900128" lon="10.83233044433757"><ele>21.75</ele><time>2026-04-26T14:50:58.999Z</time></trkpt><trkpt lat="44.87444094577508" lon="10.832371700178857"><ele>21.5</ele><time>2026-04-26T14:50:59.999Z</time></trkpt><trkpt lat="44.87456183292423" lon="10.832428761571906"><ele>21.25</ele><time>2026-04-26T14:51:00.999Z</time></trkpt><trkpt lat="44.87467905775393" lon="10.832488971737018"><ele>21.0</ele><time>2026-04-26T14:51:02Z</time></trkpt><trkpt lat="44.87478730695773" lon="10.832540718355608"><ele>21.0</ele><time>2026-04-26T14:51:03Z</time></trkpt><trkpt lat="44.87488540528854" lon="10.832583766054576"><ele>21.0</ele><time>2026-04-26T14:51:04Z</time></trkpt><trkpt lat="44.874975139934335" lon="10.832627632867778"><ele>21.0</ele><time>2026-04-26T14:51:05Z</time></trkpt><trkpt lat="44.875062007760555" lon="10.832668356453295"><ele>21.0</ele><time>2026-04-26T14:51:06Z</time></trkpt><trkpt lat="44.875146030765535" lon="10.832694613402982"><ele>21.0</ele><time>2026-04-26T14:51:07Z</time></trkpt><trkpt lat="44.875223892655825" lon="10.832712932269025"><ele>21.0</ele><time>2026-04-26T14:51:08Z</time></trkpt><trkpt lat="44.875288972165066" lon="10.8327263420558"><ele>21.0</ele><time>2026-04-26T14:51:09Z</time></trkpt><trkpt lat="44.875381704183056" lon="10.832727853496108"><ele>21.0</ele><time>2026-04-26T14:51:11Z</time></trkpt><trkpt lat="44.875471595346845" lon="10.83274836607852"><ele>21.0</ele><time>2026-04-26T14:51:14Z</time></trkpt><trkpt lat="44.875483948434656" lon="10.832536595584566"><ele>21.0</ele><time>2026-04-26T14:51:15Z</time></trkpt><trkpt lat="44.875474146078886" lon="10.832342927828684"><ele>21.0</ele><time>2026-04-26T14:51:17Z</time></trkpt><trkpt lat="44.87545621567896" lon="10.832240801433297"><ele>21.0</ele><time>2026-04-26T14:51:18Z</time></trkpt><trkpt lat="44.875442315733295" lon="10.832126901658572"><ele>21.0</ele><time>2026-04-26T14:51:19Z</time></trkpt><trkpt lat="44.87543255383674" lon="10.832020251321357"><ele>21.0</ele><time>2026-04-26T14:51:20Z</time></trkpt><trkpt lat="44.87542505244789" lon="10.83190665227212"><ele>21.0</ele><time>2026-04-26T14:51:21Z</time></trkpt><trkpt lat="44.87541209319893" lon="10.831785637322813"><ele>21.0</ele><time>2026-04-26T14:51:22Z</time></trkpt><trkpt lat="44.87541646046228" lon="10.83166396090156"><ele>21.200000000000003</ele><time>2026-04-26T14:51:23Z</time></trkpt><trkpt lat="44.87538845872069" lon="10.831534439452485"><ele>21.400000000000002</ele><time>2026-04-26T14:51:24Z</time></trkpt><trkpt lat="44.87538443408058" lon="10.831397218625671"><ele>21.6</ele><time>2026-04-26T14:51:25Z</time></trkpt><trkpt lat="44.87537290231133" lon="10.831255984250902"><ele>21.8</ele><time>2026-04-26T14:51:26Z</time></trkpt><trkpt lat="44.87535381865286" lon="10.831103747912053"><ele>22.0</ele><time>2026-04-26T14:51:27Z</time></trkpt><trkpt lat="44.875338504969996" lon="10.830947563084145"><ele>22.0</ele><time>2026-04-26T14:51:28Z</time></trkpt><trkpt lat="44.87532783701956" lon="10.830775374701936"><ele>22.0</ele><time>2026-04-26T14:51:29Z</time></trkpt><trkpt lat="44.87531468318718" lon="10.830605704886757"><ele>22.0</ele><time>2026-04-26T14:51:30Z</time></trkpt><trkpt lat="44.875292638467535" lon="10.83043718407245"><ele>22.0</ele><time>2026-04-26T14:51:31Z</time></trkpt><trkpt lat="44.8752905968048" lon="10.830257253659683"><ele>22.0</ele><time>2026-04-26T14:51:32Z</time></trkpt><trkpt lat="44.87527318293241" lon="10.830066897222936"><ele>22.0</ele><time>2026-04-26T14:51:33Z</time></trkpt><trkpt lat="44.875249055787066" lon="10.829876901878704"><ele>22.0</ele><time>2026-04-26T14:51:34Z</time></trkpt><trkpt lat="44.87522790583918" lon="10.829687653615881"><ele>22.0</ele><time>2026-04-26T14:51:35Z</time></trkpt><trkpt lat="44.8752109806967" lon="10.829495973633838"><ele>21.75</ele><time>2026-04-26T14:51:36Z</time></trkpt><trkpt lat="44.875194111682234" lon="10.829307140604985"><ele>21.5</ele><time>2026-04-26T14:51:37Z</time></trkpt><trkpt lat="44.87517558017884" lon="10.829117942779133"><ele>21.25</ele><time>2026-04-26T14:51:38Z</time></trkpt><trkpt lat="44.87516038747388" lon="10.828946515504185"><ele>21.0</ele><time>2026-04-26T14:51:39Z</time></trkpt><trkpt lat="44.875144303451094" lon="10.828740798680547"><ele>21.0</ele><time>2026-04-26T14:51:40Z</time></trkpt><trkpt lat="44.87512406522738" lon="10.82854445346465"><ele>21.0</ele><time>2026-04-26T14:51:41Z</time></trkpt><trkpt lat="44.875093483945825" lon="10.828347335218082"><ele>21.0</ele><time>2026-04-26T14:51:42Z</time></trkpt><trkpt lat="44.8750656919427" lon="10.82814787284757"><ele>21.0</ele><time>2026-04-26T14:51:43Z</time></trkpt><trkpt lat="44.87502792783752" lon="10.827947105950686"><ele>21.0</ele><time>2026-04-26T14:51:44Z</time></trkpt><trkpt lat="44.87498728679028" lon="10.827749927417406"><ele>21.0</ele><time>2026-04-26T14:51:45Z</time></trkpt><trkpt lat="44.87494465518225" lon="10.827551921781158"><ele>21.0</ele><time>2026-04-26T14:51:46Z</time></trkpt><trkpt lat="44.87490079505355" lon="10.827356235487597"><ele>21.0</ele><time>2026-04-26T14:51:47Z</time></trkpt><trkpt lat="44.87485862838305" lon="10.827159843660064"><ele>21.0</ele><time>2026-04-26T14:51:48Z</time></trkpt><trkpt lat="44.87481883821128" lon="10.826966965391753"><ele>21.0</ele><time>2026-04-26T14:51:49Z</time></trkpt><trkpt lat="44.874779130864376" lon="10.826769321208356"><ele>21.0</ele><time>2026-04-26T14:51:50Z</time></trkpt><trkpt lat="44.87473684989397" lon="10.826574810136721"><ele>21.0</ele><time>2026-04-26T14:51:51Z</time></trkpt><trkpt lat="44.87469502030019" lon="10.826381879494509"><ele>21.25</ele><time>2026-04-26T14:51:52Z</time></trkpt><trkpt lat="44.87465446533133" lon="10.826186593568984"><ele>21.5</ele><time>2026-04-26T14:51:53Z</time></trkpt><trkpt lat="44.87463007146498" lon="10.825988201478939"><ele>21.75</ele><time>2026-04-26T14:51:54Z</time></trkpt><trkpt lat="44.874592989307615" lon="10.825797655534641"><ele>22.0</ele><time>2026-04-26T14:51:55Z</time></trkpt><trkpt lat="44.87456138440635" lon="10.825602339071851"><ele>22.25</ele><time>2026-04-26T14:51:56Z</time></trkpt><trkpt lat="44.87454273481448" lon="10.825405846391636"><ele>22.5</ele><time>2026-04-26T14:51:57Z</time></trkpt><trkpt lat="44.87453664336212" lon="10.825202346571041"><ele>22.75</ele><time>2026-04-26T14:51:58Z</time></trkpt><trkpt lat="44.87454408165953" lon="10.824999556093706"><ele>23.0</ele><time>2026-04-26T14:51:59Z</time></trkpt><trkpt lat="44.87455341176029" lon="10.82479470956075"><ele>23.25</ele><time>2026-04-26T14:52:00Z</time></trkpt><trkpt lat="44.87456279367256" lon="10.824588725822004"><ele>23.5</ele><time>2026-04-26T14:52:01Z</time></trkpt><trkpt lat="44.8745718254287" lon="10.824385141138928"><ele>23.75</ele><time>2026-04-26T14:52:02Z</time></trkpt><trkpt lat="44.87458010694557" lon="10.824184348777125"><ele>24.0</ele><time>2026-04-26T14:52:03Z</time></trkpt><trkpt lat="44.874588517991754" lon="10.823980415917315"><ele>24.25</ele><time>2026-04-26T14:52:04Z</time></trkpt><trkpt lat="44.87459709839894" lon="10.823772376749199"><ele>24.5</ele><time>2026-04-26T14:52:05Z</time></trkpt><trkpt lat="44.87460571239092" lon="10.823563523247111"><ele>24.75</ele><time>2026-04-26T14:52:06Z</time></trkpt><trkpt lat="44.87461433925979" lon="10.823354357557147"><ele>25.0</ele><time>2026-04-26T14:52:07Z</time></trkpt><trkpt lat="44.87462298072827" lon="10.823144837896384"><ele>24.25</ele><time>2026-04-26T14:52:08Z</time></trkpt><trkpt lat="44.87463092355717" lon="10.822942097137863"><ele>23.5</ele><time>2026-04-26T14:52:09Z</time></trkpt><trkpt lat="44.87462237945055" lon="10.822735806347895"><ele>22.75</ele><time>2026-04-26T14:52:10Z</time></trkpt><trkpt lat="44.87464659858847" lon="10.822540234444919"><ele>22.0</ele><time>2026-04-26T14:52:11Z</time></trkpt><trkpt lat="44.87465478910192" lon="10.822330253373446"><ele>21.666666666666664</ele><time>2026-04-26T14:52:12Z</time></trkpt><trkpt lat="44.87466276313123" lon="10.822114916513927"><ele>21.333333333333332</ele><time>2026-04-26T14:52:13Z</time></trkpt><trkpt lat="44.87467004511681" lon="10.82190208534768"><ele>21.0</ele><time>2026-04-26T14:52:14Z</time></trkpt><trkpt lat="44.8746771442966" lon="10.82169459705917"><ele>21.25</ele><time>2026-04-26T14:52:15Z</time></trkpt><trkpt lat="44.874684493519915" lon="10.82149256206562"><ele>21.5</ele><time>2026-04-26T14:52:16Z</time></trkpt><trkpt lat="44.874693768018965" lon="10.821294500807808"><ele>21.75</ele><time>2026-04-26T14:52:17Z</time></trkpt><trkpt lat="44.87470297353383" lon="10.82111347813871"><ele>22.0</ele><time>2026-04-26T14:52:18Z</time></trkpt><trkpt lat="44.874710644663594" lon="10.820940296164048"><ele>22.0</ele><time>2026-04-26T14:52:19Z</time></trkpt><trkpt lat="44.87469832660132" lon="10.820772420547778"><ele>22.0</ele><time>2026-04-26T14:52:20Z</time></trkpt><trkpt lat="44.87470546078101" lon="10.82060329648418"><ele>22.0</ele><time>2026-04-26T14:52:21Z</time></trkpt><trkpt lat="44.87465479805525" lon="10.820425088881617"><ele>22.0</ele><time>2026-04-26T14:52:22Z</time></trkpt><trkpt lat="44.874617094601376" lon="10.820242690839057"><ele>22.200000000000003</ele><time>2026-04-26T14:52:23Z</time></trkpt><trkpt lat="44.874574415318754" lon="10.820089415454378"><ele>22.4</ele><time>2026-04-26T14:52:24Z</time></trkpt><trkpt lat="44.87452962682413" lon="10.819934970142743"><ele>22.6</ele><time>2026-04-26T14:52:24.999Z</time></trkpt><trkpt lat="44.87449406720572" lon="10.819812619177059"><ele>22.799999999999997</ele><time>2026-04-26T14:52:25.999Z</time></trkpt><trkpt lat="44.87445792266112" lon="10.819688255476215"><ele>23.0</ele><time>2026-04-26T14:52:26.999Z</time></trkpt><trkpt lat="44.87442704950381" lon="10.819582029349139"><ele>23.0</ele><time>2026-04-26T14:52:27.999Z</time></trkpt><trkpt lat="44.87439545938131" lon="10.819473337015712"><ele>23.0</ele><time>2026-04-26T14:52:28.999Z</time></trkpt><trkpt lat="44.8743633771796" lon="10.819362283674996"><ele>23.0</ele><time>2026-04-26T14:52:29.999Z</time></trkpt><trkpt lat="44.874330812202075" lon="10.819252250803293"><ele>23.0</ele><time>2026-04-26T14:52:30.999Z</time></trkpt><trkpt lat="44.874281978295166" lon="10.819149397485516"><ele>23.0</ele><time>2026-04-26T14:52:31.999Z</time></trkpt><trkpt lat="44.87425358238386" lon="10.819051066187683"><ele>23.0</ele><time>2026-04-26T14:52:32.999Z</time></trkpt><trkpt lat="44.874222182005596" lon="10.818962636239355"><ele>22.799999999999997</ele><time>2026-04-26T14:52:33.999Z</time></trkpt><trkpt lat="44.874198170876866" lon="10.818878760942878"><ele>22.6</ele><time>2026-04-26T14:52:34.999Z</time></trkpt><trkpt lat="44.87420002497208" lon="10.818709000549157"><ele>22.4</ele><time>2026-04-26T14:52:36.999Z</time></trkpt><trkpt lat="44.874302530648734" lon="10.818627260597587"><ele>22.200000000000003</ele><time>2026-04-26T14:52:37.999Z</time></trkpt><trkpt lat="44.87434663963183" lon="10.818531758564593"><ele>22.0</ele><time>2026-04-26T14:52:38.999Z</time></trkpt><trkpt lat="44.87440424756672" lon="10.818453022832617"><ele>22.285714285714285</ele><time>2026-04-26T14:52:39.999Z</time></trkpt><trkpt lat="44.87446778087252" lon="10.818384358970425"><ele>22.57142857142857</ele><time>2026-04-26T14:52:40.999Z</time></trkpt><trkpt lat="44.87451623340921" lon="10.818309345436301"><ele>22.857142857142854</ele><time>2026-04-26T14:52:41.999Z</time></trkpt><trkpt lat="44.8745506397344" lon="10.818234701965672"><ele>23.142857142857142</ele><time>2026-04-26T14:52:42.999Z</time></trkpt><trkpt lat="44.874609424016036" lon="10.818192856215852"><ele>23.428571428571427</ele><time>2026-04-26T14:52:43.999Z</time></trkpt><trkpt lat="44.8746722604398" lon="10.818166505820257"><ele>23.71428571428571</ele><time>2026-04-26T14:52:44.999Z</time></trkpt><trkpt lat="44.87472837925509" lon="10.818115574954202"><ele>24.0</ele><time>2026-04-26T14:52:45.999Z</time></trkpt><trkpt lat="44.87475368634792" lon="10.818026135856408"><ele>24.0</ele><time>2026-04-26T14:52:46.999Z</time></trkpt><trkpt lat="44.87475775652202" lon="10.81791758492802"><ele>24.0</ele><time>2026-04-26T14:52:47.999Z</time></trkpt><trkpt lat="44.874792118876414" lon="10.817802972205447"><ele>24.0</ele><time>2026-04-26T14:52:48.999Z</time></trkpt><trkpt lat="44.87483000892375" lon="10.817667306376178"><ele>24.0</ele><time>2026-04-26T14:52:49.999Z</time></trkpt><trkpt lat="44.874857280533085" lon="10.81751885693642"><ele>24.0</ele><time>2026-04-26T14:52:50.999Z</time></trkpt><trkpt lat="44.87486776601792" lon="10.817357547990305"><ele>24.0</ele><time>2026-04-26T14:52:51.999Z</time></trkpt><trkpt lat="44.87486071088995" lon="10.817186283448857"><ele>24.0</ele><time>2026-04-26T14:52:52.999Z</time></trkpt><trkpt lat="44.87481999594435" lon="10.81702326825895"><ele>24.0</ele><time>2026-04-26T14:52:53.999Z</time></trkpt><trkpt lat="44.874790577329904" lon="10.816868595983278"><ele>24.0</ele><time>2026-04-26T14:52:54.999Z</time></trkpt><trkpt lat="44.87479087517578" lon="10.816708247475885"><ele>23.75</ele><time>2026-04-26T14:52:55.999Z</time></trkpt><trkpt lat="44.87479874923346" lon="10.816559153088066"><ele>23.5</ele><time>2026-04-26T14:52:56.999Z</time></trkpt><trkpt lat="44.87481773518553" lon="10.816398377614783"><ele>23.25</ele><time>2026-04-26T14:52:57.999Z</time></trkpt><trkpt lat="44.87486783165183" lon="10.81624559177472"><ele>23.0</ele><time>2026-04-26T14:52:58.999Z</time></trkpt><trkpt lat="44.87492613827451" lon="10.816077405633436"><ele>23.25</ele><time>2026-04-26T14:52:59.999Z</time></trkpt><trkpt lat="44.874986964703425" lon="10.81590029729053"><ele>23.5</ele><time>2026-04-26T14:53:00.999Z</time></trkpt><trkpt lat="44.87504536881344" lon="10.815723148509493"><ele>23.75</ele><time>2026-04-26T14:53:01.999Z</time></trkpt><trkpt lat="44.875102740971215" lon="10.81554791132624"><ele>24.0</ele><time>2026-04-26T14:53:02.999Z</time></trkpt><trkpt lat="44.87515808464888" lon="10.815378869972083"><ele>23.5</ele><time>2026-04-26T14:53:03.999Z</time></trkpt><trkpt lat="44.875215070505085" lon="10.815207505515646"><ele>23.0</ele><time>2026-04-26T14:53:04.999Z</time></trkpt><trkpt lat="44.87527567075652" lon="10.815025542478654"><ele>22.5</ele><time>2026-04-26T14:53:05.999Z</time></trkpt><trkpt lat="44.875335791747226" lon="10.814845018196374"><ele>22.0</ele><time>2026-04-26T14:53:06.999Z</time></trkpt><trkpt lat="44.87537764062142" lon="10.814719359508585"><ele>22.0</ele><time>2026-04-26T14:53:08Z</time></trkpt><trkpt lat="44.87542775634547" lon="10.814568877935264"><ele>22.0</ele><time>2026-04-26T14:53:09Z</time></trkpt><trkpt lat="44.87546192466521" lon="10.81443464198129"><ele>22.0</ele><time>2026-04-26T14:53:10Z</time></trkpt><trkpt lat="44.87550628115264" lon="10.814285421613745"><ele>22.0</ele><time>2026-04-26T14:53:11Z</time></trkpt><trkpt lat="44.87555687909969" lon="10.814144036784509"><ele>22.0</ele><time>2026-04-26T14:53:12Z</time></trkpt><trkpt lat="44.87560133992133" lon="10.814006921923927"><ele>22.200000000000003</ele><time>2026-04-26T14:53:13Z</time></trkpt><trkpt lat="44.87565082762618" lon="10.813868896047284"><ele>22.4</ele><time>2026-04-26T14:53:14Z</time></trkpt><trkpt lat="44.8756922521117" lon="10.813730318891388"><ele>22.6</ele><time>2026-04-26T14:53:15Z</time></trkpt><trkpt lat="44.87573865744879" lon="10.81359114853204"><ele>22.799999999999997</ele><time>2026-04-26T14:53:16Z</time></trkpt><trkpt lat="44.87578775378247" lon="10.813474894136338"><ele>23.0</ele><time>2026-04-26T14:53:17Z</time></trkpt><trkpt lat="44.875809326391554" lon="10.813353646484305"><ele>23.166666666666668</ele><time>2026-04-26T14:53:18Z</time></trkpt><trkpt lat="44.875857953719795" lon="10.81325398426514"><ele>23.333333333333336</ele><time>2026-04-26T14:53:19Z</time></trkpt><trkpt lat="44.87588599967622" lon="10.813139181125564"><ele>23.5</ele><time>2026-04-26T14:53:20Z</time></trkpt><trkpt lat="44.875944206517104" lon="10.813064188637675"><ele>23.666666666666668</ele><time>2026-04-26T14:53:21Z</time></trkpt><trkpt lat="44.87599280233076" lon="10.812991071934766"><ele>23.833333333333332</ele><time>2026-04-26T14:53:22Z</time></trkpt><trkpt lat="44.87603948169203" lon="10.812920698733983"><ele>24.0</ele><time>2026-04-26T14:53:23Z</time></trkpt><trkpt lat="44.876072497123026" lon="10.812837268304628"><ele>24.0</ele><time>2026-04-26T14:53:24Z</time></trkpt><trkpt lat="44.87612389084907" lon="10.81276910870367"><ele>24.0</ele><time>2026-04-26T14:53:25Z</time></trkpt><trkpt lat="44.876175568352444" lon="10.812689570189436"><ele>24.0</ele><time>2026-04-26T14:53:26Z</time></trkpt><trkpt lat="44.87623385137856" lon="10.812600794570525"><ele>24.0</ele><time>2026-04-26T14:53:27Z</time></trkpt><trkpt lat="44.87629383100481" lon="10.812512647902171"><ele>24.0</ele><time>2026-04-26T14:53:28Z</time></trkpt><trkpt lat="44.87635475974957" lon="10.812420925633223"><ele>24.0</ele><time>2026-04-26T14:53:29Z</time></trkpt><trkpt lat="44.87641508688953" lon="10.81233352140943"><ele>23.666666666666668</ele><time>2026-04-26T14:53:30Z</time></trkpt><trkpt lat="44.876476278980064" lon="10.812236638942402"><ele>23.333333333333332</ele><time>2026-04-26T14:53:31Z</time></trkpt><trkpt lat="44.876535994817196" lon="10.812140782302379"><ele>23.0</ele><time>2026-04-26T14:53:32Z</time></trkpt><trkpt lat="44.87660063570234" lon="10.81204954201329"><ele>22.666666666666664</ele><time>2026-04-26T14:53:33Z</time></trkpt><trkpt lat="44.876661433100665" lon="10.811964447536324"><ele>22.333333333333332</ele><time>2026-04-26T14:53:34Z</time></trkpt><trkpt lat="44.876720013656985" lon="10.811878162307629"><ele>22.0</ele><time>2026-04-26T14:53:35Z</time></trkpt><trkpt lat="44.87677331913605" lon="10.811797320412584"><ele>22.0</ele><time>2026-04-26T14:53:36Z</time></trkpt><trkpt lat="44.8768290810557" lon="10.811706472046694"><ele>22.0</ele><time>2026-04-26T14:53:37Z</time></trkpt><trkpt lat="44.87689018069574" lon="10.811606316140418"><ele>22.0</ele><time>2026-04-26T14:53:38Z</time></trkpt><trkpt lat="44.87696646625164" lon="10.811520893777665"><ele>22.0</ele><time>2026-04-26T14:53:39Z</time></trkpt><trkpt lat="44.87703801402886" lon="10.811409732449567"><ele>22.0</ele><time>2026-04-26T14:53:40Z</time></trkpt><trkpt lat="44.877103381853296" lon="10.811275549360717"><ele>22.0</ele><time>2026-04-26T14:53:41Z</time></trkpt><trkpt lat="44.8771807057327" lon="10.811151339417483"><ele>22.0</ele><time>2026-04-26T14:53:42Z</time></trkpt><trkpt lat="44.87725797867291" lon="10.811025040605136"><ele>22.0</ele><time>2026-04-26T14:53:43Z</time></trkpt><trkpt lat="44.87734043986232" lon="10.810899867476673"><ele>22.0</ele><time>2026-04-26T14:53:44Z</time></trkpt><trkpt lat="44.877424748986684" lon="10.810776516148533"><ele>21.5</ele><time>2026-04-26T14:53:45Z</time></trkpt><trkpt lat="44.87750611656292" lon="10.810648858828522"><ele>21.0</ele><time>2026-04-26T14:53:46Z</time></trkpt><trkpt lat="44.87760101717068" lon="10.810537543330216"><ele>20.5</ele><time>2026-04-26T14:53:47Z</time></trkpt><trkpt lat="44.87766680316184" lon="10.810402917190016"><ele>20.0</ele><time>2026-04-26T14:53:48Z</time></trkpt><trkpt lat="44.87773754233781" lon="10.81029616254359"><ele>20.0</ele><time>2026-04-26T14:53:49Z</time></trkpt><trkpt lat="44.87780016197547" lon="10.810197565523822"><ele>20.0</ele><time>2026-04-26T14:53:50Z</time></trkpt><trkpt lat="44.87786570590945" lon="10.810101294312519"><ele>20.0</ele><time>2026-04-26T14:53:51Z</time></trkpt><trkpt lat="44.87793473493649" lon="10.809997903497493"><ele>20.0</ele><time>2026-04-26T14:53:52Z</time></trkpt><trkpt lat="44.877999944552165" lon="10.809898847584067"><ele>20.0</ele><time>2026-04-26T14:53:53Z</time></trkpt><trkpt lat="44.878066590574214" lon="10.809799484406696"><ele>20.0</ele><time>2026-04-26T14:53:54Z</time></trkpt><trkpt lat="44.878133758314405" lon="10.809701762588789"><ele>20.0</ele><time>2026-04-26T14:53:55Z</time></trkpt><trkpt lat="44.87819869651004" lon="10.809602580461274"><ele>20.0</ele><time>2026-04-26T14:53:56Z</time></trkpt><trkpt lat="44.87826453749822" lon="10.809495827985218"><ele>20.0</ele><time>2026-04-26T14:53:57Z</time></trkpt><trkpt lat="44.87832407724969" lon="10.809388437239704"><ele>20.0</ele><time>2026-04-26T14:53:58Z</time></trkpt><trkpt lat="44.878387302600515" lon="10.809297554305916"><ele>20.0</ele><time>2026-04-26T14:53:59Z</time></trkpt><trkpt lat="44.87845188016644" lon="10.809224621373323"><ele>20.0</ele><time>2026-04-26T14:54:00Z</time></trkpt><trkpt lat="44.878525856276944" lon="10.809195563432171"><ele>20.0</ele><time>2026-04-26T14:54:01Z</time></trkpt><trkpt lat="44.8786018357469" lon="10.809209559924586"><ele>20.0</ele><time>2026-04-26T14:54:02Z</time></trkpt><trkpt lat="44.87868323630036" lon="10.809235301244946"><ele>20.0</ele><time>2026-04-26T14:54:03Z</time></trkpt><trkpt lat="44.87877257271024" lon="10.809280723136354"><ele>20.0</ele><time>2026-04-26T14:54:04Z</time></trkpt><trkpt lat="44.87886229384547" lon="10.809344055818777"><ele>19.6</ele><time>2026-04-26T14:54:05Z</time></trkpt><trkpt lat="44.87894176417731" lon="10.809418767196274"><ele>19.2</ele><time>2026-04-26T14:54:06Z</time></trkpt><trkpt lat="44.87902596807698" lon="10.809496546366587"><ele>18.8</ele><time>2026-04-26T14:54:07Z</time></trkpt><trkpt lat="44.87910525557766" lon="10.809567150749245"><ele>18.4</ele><time>2026-04-26T14:54:08Z</time></trkpt><trkpt lat="44.879178356069204" lon="10.809634986448495"><ele>18.0</ele><time>2026-04-26T14:54:09Z</time></trkpt><trkpt lat="44.8792406721148" lon="10.80970388328622"><ele>18.0</ele><time>2026-04-26T14:54:10Z</time></trkpt><trkpt lat="44.87930177182484" lon="10.809744946836167"><ele>18.0</ele><time>2026-04-26T14:54:11Z</time></trkpt><trkpt lat="44.87930925210079" lon="10.809895504220206"><ele>18.0</ele><time>2026-04-26T14:54:12Z</time></trkpt><trkpt lat="44.87934232728562" lon="10.810002926821307"><ele>18.0</ele><time>2026-04-26T14:54:13Z</time></trkpt><trkpt lat="44.879386672845236" lon="10.810097281015246"><ele>18.0</ele><time>2026-04-26T14:54:14Z</time></trkpt><trkpt lat="44.87944381712113" lon="10.810171325404895"><ele>18.0</ele><time>2026-04-26T14:54:15Z</time></trkpt><trkpt lat="44.87951469028591" lon="10.810202908967709"><ele>18.0</ele><time>2026-04-26T14:54:16Z</time></trkpt><trkpt lat="44.8795834361578" lon="10.810200669660537"><ele>18.0</ele><time>2026-04-26T14:54:17Z</time></trkpt><trkpt lat="44.87965100704444" lon="10.810154212807454"><ele>18.0</ele><time>2026-04-26T14:54:18Z</time></trkpt><trkpt lat="44.87971479910746" lon="10.810091100870979"><ele>18.0</ele><time>2026-04-26T14:54:19Z</time></trkpt><trkpt lat="44.87978125576627" lon="10.810013345311386"><ele>18.0</ele><time>2026-04-26T14:54:20Z</time></trkpt><trkpt lat="44.8798531635214" lon="10.809937674452213"><ele>18.0</ele><time>2026-04-26T14:54:21Z</time></trkpt><trkpt lat="44.87994070284356" lon="10.809921973285768"><ele>18.2</ele><time>2026-04-26T14:54:22Z</time></trkpt><trkpt lat="44.88003880601013" lon="10.809915025165594"><ele>18.4</ele><time>2026-04-26T14:54:23Z</time></trkpt><trkpt lat="44.88013764884089" lon="10.809888038204049"><ele>18.599999999999998</ele><time>2026-04-26T14:54:24Z</time></trkpt><trkpt lat="44.88024158577926" lon="10.809879157464884"><ele>18.8</ele><time>2026-04-26T14:54:25Z</time></trkpt><trkpt lat="44.88034237440627" lon="10.809849400356109"><ele>19.0</ele><time>2026-04-26T14:54:26Z</time></trkpt><trkpt lat="44.88043140170312" lon="10.809784942584539"><ele>19.4</ele><time>2026-04-26T14:54:27Z</time></trkpt><trkpt lat="44.88052281257072" lon="10.809704153157005"><ele>19.799999999999997</ele><time>2026-04-26T14:54:28Z</time></trkpt><trkpt lat="44.880609221310735" lon="10.809627293842025"><ele>20.200000000000003</ele><time>2026-04-26T14:54:29Z</time></trkpt><trkpt lat="44.88068952441143" lon="10.809553061815915"><ele>20.6</ele><time>2026-04-26T14:54:30Z</time></trkpt><trkpt lat="44.8807779148262" lon="10.809487848903975"><ele>21.0</ele><time>2026-04-26T14:54:31Z</time></trkpt><trkpt lat="44.880877475623045" lon="10.809485917608516"><ele>20.8</ele><time>2026-04-26T14:54:32Z</time></trkpt><trkpt lat="44.88097682541268" lon="10.809477193201277"><ele>20.6</ele><time>2026-04-26T14:54:33Z</time></trkpt><trkpt lat="44.88108692431901" lon="10.809451643953926"><ele>20.4</ele><time>2026-04-26T14:54:34Z</time></trkpt><trkpt lat="44.881199644950186" lon="10.809457222768318"><ele>20.2</ele><time>2026-04-26T14:54:35Z</time></trkpt><trkpt lat="44.88131066757606" lon="10.809452128575955"><ele>20.0</ele><time>2026-04-26T14:54:35.999Z</time></trkpt><trkpt lat="44.88142258409901" lon="10.809463960351428"><ele>20.0</ele><time>2026-04-26T14:54:36.999Z</time></trkpt><trkpt lat="44.881537520412365" lon="10.809469601298511"><ele>20.0</ele><time>2026-04-26T14:54:37.999Z</time></trkpt><trkpt lat="44.88165146156195" lon="10.809481874725154"><ele>20.0</ele><time>2026-04-26T14:54:38.999Z</time></trkpt><trkpt lat="44.88176723055201" lon="10.80949807010936"><ele>20.0</ele><time>2026-04-26T14:54:39.999Z</time></trkpt><trkpt lat="44.88188144689089" lon="10.809507258632745"><ele>19.6</ele><time>2026-04-26T14:54:40.999Z</time></trkpt><trkpt lat="44.88199582518293" lon="10.809521786262744"><ele>19.2</ele><time>2026-04-26T14:54:41.999Z</time></trkpt><trkpt lat="44.88210435650505" lon="10.809546243652667"><ele>18.8</ele><time>2026-04-26T14:54:42.999Z</time></trkpt><trkpt lat="44.88220155127726" lon="10.80960806018613"><ele>18.4</ele><time>2026-04-26T14:54:43.999Z</time></trkpt><trkpt lat="44.882302815018235" lon="10.809659842778535"><ele>18.0</ele><time>2026-04-26T14:54:44.999Z</time></trkpt><trkpt lat="44.88240079641611" lon="10.809719063539319"><ele>18.0</ele><time>2026-04-26T14:54:45.999Z</time></trkpt><trkpt lat="44.88250167322188" lon="10.809767273397313"><ele>18.0</ele><time>2026-04-26T14:54:46.999Z</time></trkpt><trkpt lat="44.882594962472986" lon="10.809844471826757"><ele>18.0</ele><time>2026-04-26T14:54:47.999Z</time></trkpt><trkpt lat="44.88268768308464" lon="10.8099336181493"><ele>18.0</ele><time>2026-04-26T14:54:48.999Z</time></trkpt><trkpt lat="44.88277429689419" lon="10.810021149834396"><ele>18.0</ele><time>2026-04-26T14:54:49.999Z</time></trkpt><trkpt lat="44.88284635904117" lon="10.8101328524353"><ele>18.2</ele><time>2026-04-26T14:54:50.999Z</time></trkpt><trkpt lat="44.8829262932308" lon="10.810209779377"><ele>18.4</ele><time>2026-04-26T14:54:51.999Z</time></trkpt><trkpt lat="44.88299429877032" lon="10.810299291709509"><ele>18.599999999999998</ele><time>2026-04-26T14:54:52.999Z</time></trkpt><trkpt lat="44.88306047079998" lon="10.81039216152373"><ele>18.8</ele><time>2026-04-26T14:54:53.999Z</time></trkpt><trkpt lat="44.88312865628458" lon="10.810493099340437"><ele>19.0</ele><time>2026-04-26T14:54:54.999Z</time></trkpt><trkpt lat="44.883201447590174" lon="10.810594736530017"><ele>19.0</ele><time>2026-04-26T14:54:55.999Z</time></trkpt><trkpt lat="44.883276375722275" lon="10.810687026401474"><ele>19.0</ele><time>2026-04-26T14:54:56.999Z</time></trkpt><trkpt lat="44.88335358674604" lon="10.81078223195381"><ele>19.0</ele><time>2026-04-26T14:54:57.999Z</time></trkpt><trkpt lat="44.88343590397108" lon="10.810867841953806"><ele>19.0</ele><time>2026-04-26T14:54:58.999Z</time></trkpt><trkpt lat="44.88351966371392" lon="10.810952544187328"><ele>19.0</ele><time>2026-04-26T14:54:59.999Z</time></trkpt><trkpt lat="44.88360596526423" lon="10.811026657112924"><ele>19.25</ele><time>2026-04-26T14:55:00.999Z</time></trkpt><trkpt lat="44.88369782479868" lon="10.811117020034448"><ele>19.5</ele><time>2026-04-26T14:55:01.999Z</time></trkpt><trkpt lat="44.88378997790201" lon="10.81120640576241"><ele>19.75</ele><time>2026-04-26T14:55:02.999Z</time></trkpt><trkpt lat="44.883886360915206" lon="10.811300870136945"><ele>20.0</ele><time>2026-04-26T14:55:03.999Z</time></trkpt><trkpt lat="44.88398994474661" lon="10.811393177560145"><ele>20.0</ele><time>2026-04-26T14:55:04.999Z</time></trkpt><trkpt lat="44.88409947346124" lon="10.811483431569473"><ele>20.0</ele><time>2026-04-26T14:55:05.999Z</time></trkpt><trkpt lat="44.884210055638675" lon="10.811579638211697"><ele>20.0</ele><time>2026-04-26T14:55:06.999Z</time></trkpt><trkpt lat="44.88431838590101" lon="10.81167252080379"><ele>20.0</ele><time>2026-04-26T14:55:07.999Z</time></trkpt><trkpt lat="44.884417047736726" lon="10.811748648630624"><ele>20.0</ele><time>2026-04-26T14:55:08.999Z</time></trkpt><trkpt lat="44.88451025353872" lon="10.811809545251544"><ele>20.0</ele><time>2026-04-26T14:55:09.999Z</time></trkpt><trkpt lat="44.88459116632787" lon="10.811857625011717"><ele>20.0</ele><time>2026-04-26T14:55:10.999Z</time></trkpt><trkpt lat="44.88466730533416" lon="10.811901408373268"><ele>20.0</ele><time>2026-04-26T14:55:11.999Z</time></trkpt><trkpt lat="44.88474292027894" lon="10.811938902630413"><ele>20.0</ele><time>2026-04-26T14:55:12.999Z</time></trkpt><trkpt lat="44.88481623187055" lon="10.81197615536594"><ele>20.0</ele><time>2026-04-26T14:55:14Z</time></trkpt><trkpt lat="44.8849027063049" lon="10.812016656869709"><ele>19.6</ele><time>2026-04-26T14:55:15Z</time></trkpt><trkpt lat="44.884990826986034" lon="10.812049296877849"><ele>19.2</ele><time>2026-04-26T14:55:16Z</time></trkpt><trkpt lat="44.885086205469136" lon="10.81208434487761"><ele>18.8</ele><time>2026-04-26T14:55:17Z</time></trkpt><trkpt lat="44.885184656700105" lon="10.81212802823431"><ele>18.4</ele><time>2026-04-26T14:55:18Z</time></trkpt><trkpt lat="44.88528311391147" lon="10.812168040458202"><ele>18.0</ele><time>2026-04-26T14:55:19Z</time></trkpt><trkpt lat="44.88538096542886" lon="10.812213033170245"><ele>17.833333333333332</ele><time>2026-04-26T14:55:20Z</time></trkpt><trkpt lat="44.88547658625249" lon="10.812257163729166"><ele>17.666666666666668</ele><time>2026-04-26T14:55:21Z</time></trkpt><trkpt lat="44.88556072659352" lon="10.812289458878162"><ele>17.5</ele><time>2026-04-26T14:55:22Z</time></trkpt><trkpt lat="44.88563398833178" lon="10.812320996957876"><ele>17.333333333333336</ele><time>2026-04-26T14:55:23Z</time></trkpt><trkpt lat="44.88569485960946" lon="10.812346506842351"><ele>17.166666666666668</ele><time>2026-04-26T14:55:24Z</time></trkpt><trkpt lat="44.8857763659799" lon="10.812386774013014"><ele>17.0</ele><time>2026-04-26T14:55:26Z</time></trkpt><trkpt lat="44.8858402552663" lon="10.812413092710525"><ele>17.2</ele><time>2026-04-26T14:55:28Z</time></trkpt><trkpt lat="44.88593330621751" lon="10.812435096246436"><ele>17.4</ele><time>2026-04-26T14:56:00Z</time></trkpt><trkpt lat="44.885997143819594" lon="10.812460181275831"><ele>17.6</ele><time>2026-04-26T14:56:01Z</time></trkpt><trkpt lat="44.88608109199976" lon="10.812491723299512"><ele>17.8</ele><time>2026-04-26T14:56:02Z</time></trkpt><trkpt lat="44.88618581764551" lon="10.812541860730668"><ele>18.0</ele><time>2026-04-26T14:56:03Z</time></trkpt><trkpt lat="44.88630015994225" lon="10.81259045822765"><ele>18.0</ele><time>2026-04-26T14:56:04Z</time></trkpt><trkpt lat="44.8864341407273" lon="10.812642888138306"><ele>18.0</ele><time>2026-04-26T14:56:05Z</time></trkpt><trkpt lat="44.88658837012488" lon="10.812700935453751"><ele>18.0</ele><time>2026-04-26T14:56:06Z</time></trkpt><trkpt lat="44.88674900003779" lon="10.81276004519305"><ele>17.75</ele><time>2026-04-26T14:56:07Z</time></trkpt><trkpt lat="44.88689007547745" lon="10.812821194019133"><ele>17.5</ele><time>2026-04-26T14:56:08Z</time></trkpt><trkpt lat="44.887013094769195" lon="10.81287496996634"><ele>17.25</ele><time>2026-04-26T14:56:09Z</time></trkpt><trkpt lat="44.88712474765458" lon="10.812933166457217"><ele>17.0</ele><time>2026-04-26T14:56:10Z</time></trkpt><trkpt lat="44.88722434867743" lon="10.812997630007258"><ele>17.0</ele><time>2026-04-26T14:56:11Z</time></trkpt><trkpt lat="44.8873149417825" lon="10.81305587990844"><ele>17.0</ele><time>2026-04-26T14:56:12Z</time></trkpt><trkpt lat="44.8873995671797" lon="10.813109548939872"><ele>17.0</ele><time>2026-04-26T14:56:13Z</time></trkpt><trkpt lat="44.887476620479354" lon="10.813156278024081"><ele>17.0</ele><time>2026-04-26T14:56:14Z</time></trkpt><trkpt lat="44.887546255090804" lon="10.813205131516304"><ele>17.0</ele><time>2026-04-26T14:56:15Z</time></trkpt><trkpt lat="44.88761450752199" lon="10.813246115107566"><ele>17.0</ele><time>2026-04-26T14:56:16Z</time></trkpt><trkpt lat="44.8876808518129" lon="10.813277735601845"><ele>17.0</ele><time>2026-04-26T14:56:17Z</time></trkpt><trkpt lat="44.88774344598499" lon="10.813311498656091"><ele>17.0</ele><time>2026-04-26T14:56:18Z</time></trkpt><trkpt lat="44.88784710316983" lon="10.813376814430466"><ele>17.0</ele><time>2026-04-26T14:56:20Z</time></trkpt><trkpt lat="44.88792402877581" lon="10.813425884271847"><ele>17.0</ele><time>2026-04-26T14:56:21Z</time></trkpt><trkpt lat="44.8880199704406" lon="10.813494042481732"><ele>17.0</ele><time>2026-04-26T14:56:22Z</time></trkpt><trkpt lat="44.888131351716105" lon="10.813566461703635"><ele>17.0</ele><time>2026-04-26T14:56:23Z</time></trkpt><trkpt lat="44.88824043007162" lon="10.813638330255008"><ele>17.0</ele><time>2026-04-26T14:56:24Z</time></trkpt><trkpt lat="44.88835272757685" lon="10.81372276591073"><ele>17.0</ele><time>2026-04-26T14:56:25Z</time></trkpt><trkpt lat="44.8884770671263" lon="10.81380668111809"><ele>17.0</ele><time>2026-04-26T14:56:26Z</time></trkpt><trkpt lat="44.88861133718056" lon="10.813892468851614"><ele>17.25</ele><time>2026-04-26T14:56:27Z</time></trkpt><trkpt lat="44.888741819841435" lon="10.813975179563558"><ele>17.5</ele><time>2026-04-26T14:56:28Z</time></trkpt><trkpt lat="44.888873040449774" lon="10.814024909034432"><ele>17.75</ele><time>2026-04-26T14:56:29Z</time></trkpt><trkpt lat="44.889005092815616" lon="10.814072209281969"><ele>18.0</ele><time>2026-04-26T14:56:30Z</time></trkpt><trkpt lat="44.88914317474168" lon="10.814108700293776"><ele>17.666666666666668</ele><time>2026-04-26T14:56:31Z</time></trkpt><trkpt lat="44.88929367862048" lon="10.814143311795627"><ele>17.333333333333336</ele><time>2026-04-26T14:56:32Z</time></trkpt><trkpt lat="44.889450787411356" lon="10.814173618880549"><ele>17.0</ele><time>2026-04-26T14:56:33Z</time></trkpt><trkpt lat="44.88960429737499" lon="10.814195270077352"><ele>17.0</ele><time>2026-04-26T14:56:34Z</time></trkpt><trkpt lat="44.88976157647355" lon="10.81421994190265"><ele>17.0</ele><time>2026-04-26T14:56:35Z</time></trkpt><trkpt lat="44.88992972964735" lon="10.814243383085575"><ele>17.0</ele><time>2026-04-26T14:56:36Z</time></trkpt><trkpt lat="44.89009880422893" lon="10.814269648471967"><ele>17.25</ele><time>2026-04-26T14:56:37Z</time></trkpt><trkpt lat="44.89024901164557" lon="10.814297986275403"><ele>17.5</ele><time>2026-04-26T14:56:38Z</time></trkpt><trkpt lat="44.89038259408186" lon="10.81433405903438"><ele>17.75</ele><time>2026-04-26T14:56:39Z</time></trkpt><trkpt lat="44.8905047225377" lon="10.814376426958304"><ele>18.0</ele><time>2026-04-26T14:56:40Z</time></trkpt><trkpt lat="44.890621431368245" lon="10.814438857950924"><ele>18.0</ele><time>2026-04-26T14:56:41Z</time></trkpt><trkpt lat="44.890740788088856" lon="10.814519105281846"><ele>18.0</ele><time>2026-04-26T14:56:42Z</time></trkpt><trkpt lat="44.89086089650631" lon="10.814625165273211"><ele>18.0</ele><time>2026-04-26T14:56:43Z</time></trkpt><trkpt lat="44.89097579212421" lon="10.814739839239346"><ele>18.0</ele><time>2026-04-26T14:56:44Z</time></trkpt><trkpt lat="44.891094960461444" lon="10.814858011016147"><ele>18.0</ele><time>2026-04-26T14:56:45Z</time></trkpt><trkpt lat="44.89121833250601" lon="10.814982057858732"><ele>18.0</ele><time>2026-04-26T14:56:46Z</time></trkpt><trkpt lat="44.89134014126114" lon="10.815113101706858"><ele>18.0</ele><time>2026-04-26T14:56:47Z</time></trkpt><trkpt lat="44.89145667214815" lon="10.815245623812107"><ele>18.0</ele><time>2026-04-26T14:56:48Z</time></trkpt><trkpt lat="44.89156444535811" lon="10.815374947224115"><ele>18.0</ele><time>2026-04-26T14:56:49Z</time></trkpt><trkpt lat="44.89166475713608" lon="10.815487977736145"><ele>18.0</ele><time>2026-04-26T14:56:49.999Z</time></trkpt><trkpt lat="44.89175945814898" lon="10.815584888752133"><ele>18.0</ele><time>2026-04-26T14:56:50.999Z</time></trkpt><trkpt lat="44.89185228450458" lon="10.81566686017929"><ele>17.8</ele><time>2026-04-26T14:56:51.999Z</time></trkpt><trkpt lat="44.89194429090234" lon="10.815723008500905"><ele>17.6</ele><time>2026-04-26T14:56:52.999Z</time></trkpt><trkpt lat="44.892047423648236" lon="10.815769919864678"><ele>17.4</ele><time>2026-04-26T14:56:53.999Z</time></trkpt><trkpt lat="44.89215578047748" lon="10.81580057884642"><ele>17.2</ele><time>2026-04-26T14:56:54.999Z</time></trkpt><trkpt lat="44.89226301115193" lon="10.815824846415422"><ele>17.0</ele><time>2026-04-26T14:56:55.999Z</time></trkpt><trkpt lat="44.89235381865326" lon="10.815845653986852"><ele>17.0</ele><time>2026-04-26T14:56:56.999Z</time></trkpt><trkpt lat="44.89243893219147" lon="10.815858948625031"><ele>17.0</ele><time>2026-04-26T14:56:57.999Z</time></trkpt><trkpt lat="44.89250912776672" lon="10.815867303480122"><ele>17.0</ele><time>2026-04-26T14:56:58.999Z</time></trkpt><trkpt lat="44.89261074825915" lon="10.815869328637385"><ele>17.0</ele><time>2026-04-26T14:57:00.999Z</time></trkpt><trkpt lat="44.892682442236215" lon="10.81587258464497"><ele>17.0</ele><time>2026-04-26T14:57:02.999Z</time></trkpt><trkpt lat="44.89274937504166" lon="10.815879261527828"><ele>17.0</ele><time>2026-04-26T14:57:04.999Z</time></trkpt><trkpt lat="44.892804621559705" lon="10.815665702203638"><ele>16.8</ele><time>2026-04-26T14:57:07.999Z</time></trkpt><trkpt lat="44.89280401295565" lon="10.815504517456818"><ele>16.6</ele><time>2026-04-26T14:57:09.999Z</time></trkpt><trkpt lat="44.892797326019" lon="10.815394227799358"><ele>16.400000000000002</ele><time>2026-04-26T14:57:10.999Z</time></trkpt><trkpt lat="44.89279018463127" lon="10.81526215036805"><ele>16.2</ele><time>2026-04-26T14:57:11.999Z</time></trkpt><trkpt lat="44.89278269974398" lon="10.815111393025605"><ele>16.0</ele><time>2026-04-26T14:57:12.999Z</time></trkpt><trkpt lat="44.89277874929455" lon="10.814954970334263"><ele>15.75</ele><time>2026-04-26T14:57:13.999Z</time></trkpt><trkpt lat="44.892779031266166" lon="10.81478438197568"><ele>15.5</ele><time>2026-04-26T14:57:14.999Z</time></trkpt><trkpt lat="44.892786559190284" lon="10.814613120393213"><ele>15.25</ele><time>2026-04-26T14:57:15.999Z</time></trkpt><trkpt lat="44.892798155066856" lon="10.814442323872559"><ele>15.0</ele><time>2026-04-26T14:57:16.999Z</time></trkpt><trkpt lat="44.89279779519888" lon="10.814261715584724"><ele>15.0</ele><time>2026-04-26T14:57:17.999Z</time></trkpt><trkpt lat="44.89283373607023" lon="10.814083315142085"><ele>15.0</ele><time>2026-04-26T14:57:18.999Z</time></trkpt><trkpt lat="44.89285967796545" lon="10.813910674513918"><ele>15.0</ele><time>2026-04-26T14:57:20Z</time></trkpt><trkpt lat="44.892891920357435" lon="10.813736521252176"><ele>15.0</ele><time>2026-04-26T14:57:21Z</time></trkpt><trkpt lat="44.892926596774124" lon="10.813574165971048"><ele>15.0</ele><time>2026-04-26T14:57:22Z</time></trkpt><trkpt lat="44.89296087272944" lon="10.813414965184624"><ele>15.0</ele><time>2026-04-26T14:57:23Z</time></trkpt><trkpt lat="44.89298872063471" lon="10.813244494112196"><ele>15.0</ele><time>2026-04-26T14:57:24Z</time></trkpt><trkpt lat="44.89302459357685" lon="10.813082403015384"><ele>15.0</ele><time>2026-04-26T14:57:25Z</time></trkpt><trkpt lat="44.89306127497515" lon="10.812916813461914"><ele>15.0</ele><time>2026-04-26T14:57:26Z</time></trkpt><trkpt lat="44.893100618748214" lon="10.812751391899868"><ele>15.0</ele><time>2026-04-26T14:57:27Z</time></trkpt><trkpt lat="44.893140205859616" lon="10.812587172500104"><ele>15.0</ele><time>2026-04-26T14:57:28Z</time></trkpt><trkpt lat="44.89318119609098" lon="10.812423319429843"><ele>15.0</ele><time>2026-04-26T14:57:29Z</time></trkpt><trkpt lat="44.89322085309232" lon="10.812261802613845"><ele>15.5</ele><time>2026-04-26T14:57:30Z</time></trkpt><trkpt lat="44.893263018070776" lon="10.812100374625027"><ele>16.0</ele><time>2026-04-26T14:57:31Z</time></trkpt><trkpt lat="44.89329996899337" lon="10.811949626670742"><ele>16.5</ele><time>2026-04-26T14:57:32Z</time></trkpt><trkpt lat="44.89333057092511" lon="10.811789041909643"><ele>17.0</ele><time>2026-04-26T14:57:33Z</time></trkpt><trkpt lat="44.89337142935417" lon="10.81163760308662"><ele>17.0</ele><time>2026-04-26T14:57:34Z</time></trkpt><trkpt lat="44.89341180258028" lon="10.811476020916993"><ele>17.0</ele><time>2026-04-26T14:57:35Z</time></trkpt><trkpt lat="44.8934220364061" lon="10.811323678505456"><ele>17.0</ele><time>2026-04-26T14:57:36Z</time></trkpt><trkpt lat="44.89347080642046" lon="10.811164450941256"><ele>17.0</ele><time>2026-04-26T14:57:37Z</time></trkpt><trkpt lat="44.89350417862882" lon="10.811012014892205"><ele>16.75</ele><time>2026-04-26T14:57:38Z</time></trkpt><trkpt lat="44.893541212124056" lon="10.81084556966959"><ele>16.5</ele><time>2026-04-26T14:57:39Z</time></trkpt><trkpt lat="44.89357827986873" lon="10.810681325492679"><ele>16.25</ele><time>2026-04-26T14:57:40Z</time></trkpt><trkpt lat="44.893619121382415" lon="10.810508977159888"><ele>16.0</ele><time>2026-04-26T14:57:41Z</time></trkpt><trkpt lat="44.89365864519911" lon="10.810338809645293"><ele>16.0</ele><time>2026-04-26T14:57:41.999Z</time></trkpt><trkpt lat="44.89369850989544" lon="10.810167565846022"><ele>16.0</ele><time>2026-04-26T14:57:42.999Z</time></trkpt><trkpt lat="44.89373934263613" lon="10.809992178321572"><ele>16.0</ele><time>2026-04-26T14:57:43.999Z</time></trkpt><trkpt lat="44.893780450649075" lon="10.80981515814804"><ele>16.0</ele><time>2026-04-26T14:57:44.999Z</time></trkpt><trkpt lat="44.89382193527924" lon="10.809634727877876"><ele>16.0</ele><time>2026-04-26T14:57:45.999Z</time></trkpt><trkpt lat="44.89386471043987" lon="10.809448685285037"><ele>16.0</ele><time>2026-04-26T14:57:46.999Z</time></trkpt><trkpt lat="44.89390821043128" lon="10.809259490603225"><ele>16.0</ele><time>2026-04-26T14:57:47.999Z</time></trkpt><trkpt lat="44.893951255810094" lon="10.80907304044575"><ele>16.0</ele><time>2026-04-26T14:57:48.999Z</time></trkpt><trkpt lat="44.893991753350726" lon="10.808897693232131"><ele>16.25</ele><time>2026-04-26T14:57:49.999Z</time></trkpt><trkpt lat="44.894034312241885" lon="10.80871502513133"><ele>16.5</ele><time>2026-04-26T14:57:50.999Z</time></trkpt><trkpt lat="44.894076982313855" lon="10.808532121788817"><ele>16.75</ele><time>2026-04-26T14:57:51.999Z</time></trkpt><trkpt lat="44.89412139087629" lon="10.80834176692388"><ele>17.0</ele><time>2026-04-26T14:57:52.999Z</time></trkpt><trkpt lat="44.894163390024055" lon="10.80815926946974"><ele>17.0</ele><time>2026-04-26T14:57:53.999Z</time></trkpt><trkpt lat="44.894208899348264" lon="10.807960481068527"><ele>17.0</ele><time>2026-04-26T14:57:54.999Z</time></trkpt><trkpt lat="44.89424865084044" lon="10.80778637786239"><ele>17.0</ele><time>2026-04-26T14:57:55.999Z</time></trkpt><trkpt lat="44.89429270958584" lon="10.807590821934275"><ele>17.0</ele><time>2026-04-26T14:57:56.999Z</time></trkpt><trkpt lat="44.89433588895204" lon="10.807396842517887"><ele>17.0</ele><time>2026-04-26T14:57:57.999Z</time></trkpt><trkpt lat="44.89438017361402" lon="10.807197897830372"><ele>17.0</ele><time>2026-04-26T14:57:58.999Z</time></trkpt><trkpt lat="44.89442486677293" lon="10.806999543596302"><ele>17.0</ele><time>2026-04-26T14:57:59.999Z</time></trkpt><trkpt lat="44.89446947604271" lon="10.806797758787239"><ele>17.0</ele><time>2026-04-26T14:58:00.999Z</time></trkpt><trkpt lat="44.8945133820722" lon="10.80659915522556"><ele>16.75</ele><time>2026-04-26T14:58:01.999Z</time></trkpt><trkpt lat="44.894558142152924" lon="10.806401804676732"><ele>16.5</ele><time>2026-04-26T14:58:02.999Z</time></trkpt><trkpt lat="44.89460250441433" lon="10.8062087278996"><ele>16.25</ele><time>2026-04-26T14:58:03.999Z</time></trkpt><trkpt lat="44.89464999294407" lon="10.806012972113901"><ele>16.0</ele><time>2026-04-26T14:58:04.999Z</time></trkpt><trkpt lat="44.894695593606585" lon="10.80582499762232"><ele>16.0</ele><time>2026-04-26T14:58:05.999Z</time></trkpt><trkpt lat="44.89474113938881" lon="10.805630907529137"><ele>16.0</ele><time>2026-04-26T14:58:06.999Z</time></trkpt><trkpt lat="44.894786438386525" lon="10.805438339255817"><ele>16.0</ele><time>2026-04-26T14:58:07.999Z</time></trkpt><trkpt lat="44.89483081915771" lon="10.805243848840362"><ele>16.0</ele><time>2026-04-26T14:58:08.999Z</time></trkpt><trkpt lat="44.89487558567236" lon="10.805047494150795"><ele>16.0</ele><time>2026-04-26T14:58:09.999Z</time></trkpt><trkpt lat="44.894917861827516" lon="10.804861656483293"><ele>16.0</ele><time>2026-04-26T14:58:10.999Z</time></trkpt><trkpt lat="44.89496151311945" lon="10.80466966976952"><ele>16.0</ele><time>2026-04-26T14:58:11.999Z</time></trkpt><trkpt lat="44.895005120536645" lon="10.804477848178108"><ele>16.0</ele><time>2026-04-26T14:58:12.999Z</time></trkpt><trkpt lat="44.8950444572996" lon="10.804305394229589"><ele>16.2</ele><time>2026-04-26T14:58:13.999Z</time></trkpt><trkpt lat="44.89508140502745" lon="10.804145423908562"><ele>16.400000000000002</ele><time>2026-04-26T14:58:14.999Z</time></trkpt><trkpt lat="44.895116716430614" lon="10.803992750009979"><ele>16.6</ele><time>2026-04-26T14:58:15.999Z</time></trkpt><trkpt lat="44.89514859734819" lon="10.803855494309891"><ele>16.8</ele><time>2026-04-26T14:58:16.999Z</time></trkpt><trkpt lat="44.89517915043001" lon="10.803723192952784"><ele>17.0</ele><time>2026-04-26T14:58:17.999Z</time></trkpt><trkpt lat="44.89520909068974" lon="10.803592692460319"><ele>17.0</ele><time>2026-04-26T14:58:18.999Z</time></trkpt><trkpt lat="44.895235318929" lon="10.803479644921934"><ele>17.0</ele><time>2026-04-26T14:58:19.999Z</time></trkpt><trkpt lat="44.89526211640864" lon="10.803364304314243"><ele>17.0</ele><time>2026-04-26T14:58:20.999Z</time></trkpt><trkpt lat="44.89529083012825" lon="10.803241794844835"><ele>17.0</ele><time>2026-04-26T14:58:21.999Z</time></trkpt><trkpt lat="44.895316501307505" lon="10.803129364848184"><ele>17.0</ele><time>2026-04-26T14:58:22.999Z</time></trkpt><trkpt lat="44.89533884349674" lon="10.803031816618489"><ele>17.0</ele><time>2026-04-26T14:58:23.999Z</time></trkpt><trkpt lat="44.8953595353948" lon="10.802942846290062"><ele>17.0</ele><time>2026-04-26T14:58:24.999Z</time></trkpt><trkpt lat="44.89538964544439" lon="10.80281384237987"><ele>17.0</ele><time>2026-04-26T14:58:26.999Z</time></trkpt><trkpt lat="44.89542455346332" lon="10.80266402140134"><ele>17.0</ele><time>2026-04-26T14:58:28.999Z</time></trkpt><trkpt lat="44.89544550956501" lon="10.802573161124586"><ele>17.0</ele><time>2026-04-26T14:58:29.999Z</time></trkpt><trkpt lat="44.89546762442038" lon="10.802475776108379"><ele>17.0</ele><time>2026-04-26T14:58:30.999Z</time></trkpt><trkpt lat="44.895491740378986" lon="10.802367848425895"><ele>17.0</ele><time>2026-04-26T14:58:31.999Z</time></trkpt><trkpt lat="44.895517256114836" lon="10.802251856197612"><ele>16.8</ele><time>2026-04-26T14:58:32.999Z</time></trkpt><trkpt lat="44.89554417325645" lon="10.802129539350497"><ele>16.6</ele><time>2026-04-26T14:58:33.999Z</time></trkpt><trkpt lat="44.89557281902214" lon="10.801999600789138"><ele>16.400000000000002</ele><time>2026-04-26T14:58:34.999Z</time></trkpt><trkpt lat="44.89560261963536" lon="10.801866082390282"><ele>16.2</ele><time>2026-04-26T14:58:35.999Z</time></trkpt><trkpt lat="44.89563194294183" lon="10.801738444176362"><ele>16.0</ele><time>2026-04-26T14:58:36.999Z</time></trkpt><trkpt lat="44.89566245778876" lon="10.801605619715916"><ele>16.0</ele><time>2026-04-26T14:58:37.999Z</time></trkpt><trkpt lat="44.89569551699699" lon="10.801461720118542"><ele>16.0</ele><time>2026-04-26T14:58:38.999Z</time></trkpt><trkpt lat="44.89572929687554" lon="10.80131616188891"><ele>16.0</ele><time>2026-04-26T14:58:39.999Z</time></trkpt><trkpt lat="44.89576363710515" lon="10.801169201298729"><ele>16.0</ele><time>2026-04-26T14:58:40.999Z</time></trkpt><trkpt lat="44.89579889482268" lon="10.80101896080741"><ele>16.0</ele><time>2026-04-26T14:58:41.999Z</time></trkpt><trkpt lat="44.895832016008804" lon="10.800879416670728"><ele>16.0</ele><time>2026-04-26T14:58:42.999Z</time></trkpt><trkpt lat="44.89586619482036" lon="10.80074285066553"><ele>16.0</ele><time>2026-04-26T14:58:43.999Z</time></trkpt><trkpt lat="44.8959011385269" lon="10.800604747415083"><ele>16.0</ele><time>2026-04-26T14:58:44.999Z</time></trkpt><trkpt lat="44.895934698821414" lon="10.800453606874632"><ele>16.0</ele><time>2026-04-26T14:58:45.999Z</time></trkpt><trkpt lat="44.895963656405065" lon="10.800317882682606"><ele>16.0</ele><time>2026-04-26T14:58:46.999Z</time></trkpt><trkpt lat="44.89599384612537" lon="10.800176017625821"><ele>16.2</ele><time>2026-04-26T14:58:47.999Z</time></trkpt><trkpt lat="44.8960237801277" lon="10.800041448512717"><ele>16.400000000000002</ele><time>2026-04-26T14:58:48.999Z</time></trkpt><trkpt lat="44.8960550285079" lon="10.79990419575327"><ele>16.6</ele><time>2026-04-26T14:58:49.999Z</time></trkpt><trkpt lat="44.89608909839008" lon="10.799757616065271"><ele>16.8</ele><time>2026-04-26T14:58:50.999Z</time></trkpt><trkpt lat="44.89612152910115" lon="10.799618088321433"><ele>17.0</ele><time>2026-04-26T14:58:51.999Z</time></trkpt><trkpt lat="44.89615700726703" lon="10.79946528475902"><ele>16.8</ele><time>2026-04-26T14:58:52.999Z</time></trkpt><trkpt lat="44.89619209026991" lon="10.799315901100917"><ele>16.6</ele><time>2026-04-26T14:58:53.999Z</time></trkpt><trkpt lat="44.89622352662035" lon="10.799182045119382"><ele>16.400000000000002</ele><time>2026-04-26T14:58:54.999Z</time></trkpt><trkpt lat="44.89625209127516" lon="10.799060417712962"><ele>16.2</ele><time>2026-04-26T14:58:55.999Z</time></trkpt><trkpt lat="44.89628045191601" lon="10.798934160648601"><ele>16.0</ele><time>2026-04-26T14:58:56.999Z</time></trkpt><trkpt lat="44.8963139822431" lon="10.798785325187014"><ele>16.0</ele><time>2026-04-26T14:58:57.999Z</time></trkpt><trkpt lat="44.89634788492412" lon="10.798634001935895"><ele>16.0</ele><time>2026-04-26T14:58:58.999Z</time></trkpt><trkpt lat="44.89638218688587" lon="10.798480551298887"><ele>16.0</ele><time>2026-04-26T14:58:59.999Z</time></trkpt><trkpt lat="44.89641642037722" lon="10.798327407238427"><ele>16.0</ele><time>2026-04-26T14:59:00.999Z</time></trkpt><trkpt lat="44.896448071568464" lon="10.798185814884903"><ele>16.0</ele><time>2026-04-26T14:59:01.999Z</time></trkpt><trkpt lat="44.89648106630552" lon="10.798038212484341"><ele>16.2</ele><time>2026-04-26T14:59:02.999Z</time></trkpt><trkpt lat="44.896514005312156" lon="10.797893486556458"><ele>16.400000000000002</ele><time>2026-04-26T14:59:03.999Z</time></trkpt><trkpt lat="44.896549027874535" lon="10.797742907240501"><ele>16.6</ele><time>2026-04-26T14:59:04.999Z</time></trkpt><trkpt lat="44.896584069313455" lon="10.797595786639093"><ele>16.8</ele><time>2026-04-26T14:59:05.999Z</time></trkpt><trkpt lat="44.896618888522326" lon="10.797450607814708"><ele>17.0</ele><time>2026-04-26T14:59:06.999Z</time></trkpt><trkpt lat="44.89665572194597" lon="10.797299784694319"><ele>17.0</ele><time>2026-04-26T14:59:07.999Z</time></trkpt><trkpt lat="44.89669196640436" lon="10.797150700884963"><ele>17.0</ele><time>2026-04-26T14:59:08.999Z</time></trkpt><trkpt lat="44.89672958585646" lon="10.79699425391025"><ele>17.0</ele><time>2026-04-26T14:59:09.999Z</time></trkpt><trkpt lat="44.89676632127217" lon="10.796839657429274"><ele>17.0</ele><time>2026-04-26T14:59:10.999Z</time></trkpt><trkpt lat="44.89680186093711" lon="10.796688652497988"><ele>17.25</ele><time>2026-04-26T14:59:11.999Z</time></trkpt><trkpt lat="44.896839518361176" lon="10.796528649523864"><ele>17.5</ele><time>2026-04-26T14:59:12.999Z</time></trkpt><trkpt lat="44.89687507180638" lon="10.796373678728898"><ele>17.75</ele><time>2026-04-26T14:59:13.999Z</time></trkpt><trkpt lat="44.896909898426266" lon="10.796215997788163"><ele>18.0</ele><time>2026-04-26T14:59:14.999Z</time></trkpt><trkpt lat="44.89694641491878" lon="10.79604828734149"><ele>17.75</ele><time>2026-04-26T14:59:15.999Z</time></trkpt><trkpt lat="44.89697939576963" lon="10.795888320804425"><ele>17.5</ele><time>2026-04-26T14:59:16.999Z</time></trkpt><trkpt lat="44.89701358643372" lon="10.795722486533524"><ele>17.25</ele><time>2026-04-26T14:59:17.999Z</time></trkpt><trkpt lat="44.897046523567" lon="10.795562732025346"><ele>17.0</ele><time>2026-04-26T14:59:18.999Z</time></trkpt><trkpt lat="44.89707715897118" lon="10.795414141824697"><ele>17.0</ele><time>2026-04-26T14:59:19.999Z</time></trkpt><trkpt lat="44.897111010986826" lon="10.795258233185692"><ele>17.0</ele><time>2026-04-26T14:59:20.999Z</time></trkpt><trkpt lat="44.897145713878125" lon="10.795099382698561"><ele>17.0</ele><time>2026-04-26T14:59:21.999Z</time></trkpt><trkpt lat="44.897181263659945" lon="10.79494921386195"><ele>17.0</ele><time>2026-04-26T14:59:22.999Z</time></trkpt><trkpt lat="44.89721617428025" lon="10.794804485945297"><ele>17.0</ele><time>2026-04-26T14:59:23.999Z</time></trkpt><trkpt lat="44.8972545318013" lon="10.79465226726126"><ele>17.0</ele><time>2026-04-26T14:59:24.999Z</time></trkpt><trkpt lat="44.897293638732485" lon="10.794496917887566"><ele>17.0</ele><time>2026-04-26T14:59:26Z</time></trkpt><trkpt lat="44.89733248751603" lon="10.794338149903302"><ele>17.0</ele><time>2026-04-26T14:59:27Z</time></trkpt><trkpt lat="44.89736915155213" lon="10.794188310694713"><ele>16.75</ele><time>2026-04-26T14:59:28Z</time></trkpt><trkpt lat="44.89740577539259" lon="10.794038636434465"><ele>16.5</ele><time>2026-04-26T14:59:29Z</time></trkpt><trkpt lat="44.89744155640343" lon="10.79388890122927"><ele>16.25</ele><time>2026-04-26T14:59:30Z</time></trkpt><trkpt lat="44.89747813443376" lon="10.793729076734904"><ele>16.0</ele><time>2026-04-26T14:59:31Z</time></trkpt><trkpt lat="44.897511167071904" lon="10.79357286712064"><ele>16.25</ele><time>2026-04-26T14:59:32Z</time></trkpt><trkpt lat="44.89754473501052" lon="10.793417792035122"><ele>16.5</ele><time>2026-04-26T14:59:33Z</time></trkpt><trkpt lat="44.89758085366802" lon="10.793261881862062"><ele>16.75</ele><time>2026-04-26T14:59:34Z</time></trkpt><trkpt lat="44.897616675806745" lon="10.793107687693519"><ele>17.0</ele><time>2026-04-26T14:59:35Z</time></trkpt><trkpt lat="44.89765149304552" lon="10.792957819060996"><ele>17.0</ele><time>2026-04-26T14:59:36Z</time></trkpt><trkpt lat="44.89768677960655" lon="10.792805930262448"><ele>17.0</ele><time>2026-04-26T14:59:37Z</time></trkpt><trkpt lat="44.897722894756136" lon="10.792650474854954"><ele>17.0</ele><time>2026-04-26T14:59:38Z</time></trkpt><trkpt lat="44.897758559594344" lon="10.792488292010644"><ele>17.0</ele><time>2026-04-26T14:59:39Z</time></trkpt><trkpt lat="44.89779151788794" lon="10.792331037278297"><ele>16.5</ele><time>2026-04-26T14:59:40Z</time></trkpt><trkpt lat="44.89782533111478" lon="10.792175294651809"><ele>16.0</ele><time>2026-04-26T14:59:41Z</time></trkpt><trkpt lat="44.89786126412546" lon="10.792018077578783"><ele>15.5</ele><time>2026-04-26T14:59:42Z</time></trkpt><trkpt lat="44.89789682292209" lon="10.791864871152928"><ele>15.0</ele><time>2026-04-26T14:59:43Z</time></trkpt><trkpt lat="44.897933891095484" lon="10.791705161539507"><ele>15.0</ele><time>2026-04-26T14:59:44Z</time></trkpt><trkpt lat="44.897970250458684" lon="10.79154850586106"><ele>15.0</ele><time>2026-04-26T14:59:45Z</time></trkpt><trkpt lat="44.8980076705741" lon="10.791387279894396"><ele>15.0</ele><time>2026-04-26T14:59:46Z</time></trkpt><trkpt lat="44.89804574806889" lon="10.791223221588393"><ele>15.0</ele><time>2026-04-26T14:59:47Z</time></trkpt><trkpt lat="44.89808348087034" lon="10.791060648146656"><ele>15.25</ele><time>2026-04-26T14:59:48Z</time></trkpt><trkpt lat="44.89812238988012" lon="10.790893554511554"><ele>15.5</ele><time>2026-04-26T14:59:49Z</time></trkpt><trkpt lat="44.89816170604322" lon="10.790724574064647"><ele>15.75</ele><time>2026-04-26T14:59:50Z</time></trkpt><trkpt lat="44.89819949486807" lon="10.790562158092863"><ele>16.0</ele><time>2026-04-26T14:59:51Z</time></trkpt><trkpt lat="44.898237076111684" lon="10.790400634289945"><ele>16.0</ele><time>2026-04-26T14:59:52Z</time></trkpt><trkpt lat="44.898274973762746" lon="10.790237750571556"><ele>16.0</ele><time>2026-04-26T14:59:53Z</time></trkpt><trkpt lat="44.898317097198436" lon="10.790056704455994"><ele>16.0</ele><time>2026-04-26T14:59:54Z</time></trkpt><trkpt lat="44.898349290579304" lon="10.789921659740948"><ele>16.0</ele><time>2026-04-26T14:59:55Z</time></trkpt><trkpt lat="44.8983879353129" lon="10.789761646063434"><ele>16.75</ele><time>2026-04-26T14:59:55.999Z</time></trkpt><trkpt lat="44.89842287784279" lon="10.789607379675347"><ele>17.5</ele><time>2026-04-26T14:59:56.999Z</time></trkpt><trkpt lat="44.89845932880349" lon="10.7894464537506"><ele>18.25</ele><time>2026-04-26T14:59:57.999Z</time></trkpt><trkpt lat="44.89849540913551" lon="10.7892957261679"><ele>19.0</ele><time>2026-04-26T14:59:58.999Z</time></trkpt><trkpt lat="44.89853859967425" lon="10.78913453895231"><ele>19.0</ele><time>2026-04-26T14:59:59.999Z</time></trkpt><trkpt lat="44.898584945090434" lon="10.788984258027059"><ele>19.0</ele><time>2026-04-26T15:00:00.999Z</time></trkpt><trkpt lat="44.89864330454045" lon="10.788820097878327"><ele>19.0</ele><time>2026-04-26T15:00:01.999Z</time></trkpt><trkpt lat="44.89869523665907" lon="10.788689678484543"><ele>19.0</ele><time>2026-04-26T15:00:02.999Z</time></trkpt><trkpt lat="44.898755258237586" lon="10.788549883949246"><ele>18.75</ele><time>2026-04-26T15:00:03.999Z</time></trkpt><trkpt lat="44.898818448159446" lon="10.788410413275633"><ele>18.5</ele><time>2026-04-26T15:00:04.999Z</time></trkpt><trkpt lat="44.89888459986887" lon="10.788270597902649"><ele>18.25</ele><time>2026-04-26T15:00:05.999Z</time></trkpt><trkpt lat="44.89894742260953" lon="10.788138778840535"><ele>18.0</ele><time>2026-04-26T15:00:06.999Z</time></trkpt><trkpt lat="44.89901113295282" lon="10.788003915562593"><ele>18.0</ele><time>2026-04-26T15:00:07.999Z</time></trkpt><trkpt lat="44.899073337857125" lon="10.787869772192034"><ele>18.0</ele><time>2026-04-26T15:00:08.999Z</time></trkpt><trkpt lat="44.89913187026267" lon="10.787736021508275"><ele>18.0</ele><time>2026-04-26T15:00:09.999Z</time></trkpt><trkpt lat="44.89918596549136" lon="10.787607933407438"><ele>18.0</ele><time>2026-04-26T15:00:10.999Z</time></trkpt><trkpt lat="44.89923117522169" lon="10.787500884433134"><ele>18.0</ele><time>2026-04-26T15:00:11.999Z</time></trkpt><trkpt lat="44.89928723183348" lon="10.787374672224164"><ele>18.4</ele><time>2026-04-26T15:00:13.999Z</time></trkpt><trkpt lat="44.89935802880102" lon="10.787335709670675"><ele>18.8</ele><time>2026-04-26T15:00:17.999Z</time></trkpt><trkpt lat="44.89944002613445" lon="10.787449054720721"><ele>19.2</ele><time>2026-04-26T15:00:19.999Z</time></trkpt><trkpt lat="44.899504555651575" lon="10.787501593384995"><ele>19.6</ele><time>2026-04-26T15:00:20.999Z</time></trkpt><trkpt lat="44.89961583649945" lon="10.787612512074041"><ele>20.0</ele><time>2026-04-26T15:00:22.999Z</time></trkpt><trkpt lat="44.899682004760336" lon="10.787672069944472"><ele>19.833333333333336</ele><time>2026-04-26T15:00:23.999Z</time></trkpt><trkpt lat="44.89973725065161" lon="10.787723800239117"><ele>19.666666666666668</ele><time>2026-04-26T15:00:24.999Z</time></trkpt><trkpt lat="44.8997951587074" lon="10.787772068694677"><ele>19.5</ele><time>2026-04-26T15:00:25.999Z</time></trkpt><trkpt lat="44.899900521325975" lon="10.787867470110964"><ele>19.333333333333332</ele><time>2026-04-26T15:00:27.999Z</time></trkpt><trkpt lat="44.8999519786063" lon="10.787925158261793"><ele>19.166666666666664</ele><time>2026-04-26T15:00:28.999Z</time></trkpt><trkpt lat="44.90000680075482" lon="10.787983774858155"><ele>19.0</ele><time>2026-04-26T15:00:29.999Z</time></trkpt><trkpt lat="44.90008204583909" lon="10.788052759784216"><ele>18.5</ele><time>2026-04-26T15:00:31.999Z</time></trkpt><trkpt lat="44.90013984098975" lon="10.78810642633631"><ele>18.0</ele><time>2026-04-26T15:00:33.999Z</time></trkpt><trkpt lat="44.900193380030245" lon="10.78815493493424"><ele>17.5</ele><time>2026-04-26T15:00:36.999Z</time></trkpt><trkpt lat="44.90025719695034" lon="10.788197446937051"><ele>17.0</ele><time>2026-04-26T15:00:39.999Z</time></trkpt><trkpt lat="44.90032064609708" lon="10.788241499847533"><ele>16.5</ele><time>2026-04-26T15:00:42.999Z</time></trkpt><trkpt lat="44.900267359018194" lon="10.78817583941622"><ele>16.0</ele><time>2026-04-26T15:00:47.999Z</time></trkpt><trkpt lat="44.90033172810015" lon="10.787988740534292"><ele>16.0</ele><time>2026-04-26T15:00:48.999Z</time></trkpt><trkpt lat="44.900394253559554" lon="10.787885602567215"><ele>16.0</ele><time>2026-04-26T15:00:50.999Z</time></trkpt><trkpt lat="44.90046885539848" lon="10.78777515777243"><ele>16.0</ele><time>2026-04-26T15:00:52.999Z</time></trkpt><trkpt lat="44.9005310278483" lon="10.787654456834355"><ele>16.0</ele><time>2026-04-26T15:00:54.999Z</time></trkpt><trkpt lat="44.90060336913566" lon="10.787529777106672"><ele>16.0</ele><time>2026-04-26T15:00:56.999Z</time></trkpt><trkpt lat="44.90067450435573" lon="10.787407570305694"><ele>16.166666666666664</ele><time>2026-04-26T15:00:58.999Z</time></trkpt><trkpt lat="44.90073688351424" lon="10.787311294232154"><ele>16.333333333333332</ele><time>2026-04-26T15:01:00.999Z</time></trkpt><trkpt lat="44.90080898026341" lon="10.787188755947408"><ele>16.5</ele><time>2026-04-26T15:01:02.999Z</time></trkpt><trkpt lat="44.90085424768414" lon="10.787116932684675"><ele>16.666666666666668</ele><time>2026-04-26T15:01:03.999Z</time></trkpt><trkpt lat="44.900900849506925" lon="10.78704635162455"><ele>16.833333333333336</ele><time>2026-04-26T15:01:04.999Z</time></trkpt><trkpt lat="44.90095191306855" lon="10.786970639137259"><ele>17.0</ele><time>2026-04-26T15:01:05.999Z</time></trkpt><trkpt lat="44.90100391476684" lon="10.786897267237498"><ele>17.0</ele><time>2026-04-26T15:01:06.999Z</time></trkpt><trkpt lat="44.901063239890895" lon="10.78681790851689"><ele>17.0</ele><time>2026-04-26T15:01:07.999Z</time></trkpt><trkpt lat="44.901119020777315" lon="10.78674688808541"><ele>17.0</ele><time>2026-04-26T15:01:08.999Z</time></trkpt><trkpt lat="44.90117743156366" lon="10.786677913277291"><ele>17.0</ele><time>2026-04-26T15:01:09.999Z</time></trkpt><trkpt lat="44.901237055578235" lon="10.786621543709066"><ele>17.0</ele><time>2026-04-26T15:01:10.999Z</time></trkpt><trkpt lat="44.901300594979205" lon="10.786551215605783"><ele>17.0</ele><time>2026-04-26T15:01:11.999Z</time></trkpt><trkpt lat="44.9013668645276" lon="10.786476556970326"><ele>17.0</ele><time>2026-04-26T15:01:12.999Z</time></trkpt><trkpt lat="44.90142325704884" lon="10.78640671203203"><ele>17.0</ele><time>2026-04-26T15:01:13.999Z</time></trkpt><trkpt lat="44.9014811947817" lon="10.78633339539229"><ele>17.0</ele><time>2026-04-26T15:01:14.999Z</time></trkpt><trkpt lat="44.901541264628186" lon="10.78625808586435"><ele>17.0</ele><time>2026-04-26T15:01:15.999Z</time></trkpt><trkpt lat="44.90159412990293" lon="10.786187168208622"><ele>17.0</ele><time>2026-04-26T15:01:16.999Z</time></trkpt><trkpt lat="44.9016517070883" lon="10.786105115975746"><ele>17.0</ele><time>2026-04-26T15:01:17.999Z</time></trkpt><trkpt lat="44.901706061270126" lon="10.78602955489116"><ele>17.285714285714285</ele><time>2026-04-26T15:01:18.999Z</time></trkpt><trkpt lat="44.901763112933686" lon="10.785960551951106"><ele>17.57142857142857</ele><time>2026-04-26T15:01:19.999Z</time></trkpt><trkpt lat="44.90181893818684" lon="10.785885651201651"><ele>17.857142857142854</ele><time>2026-04-26T15:01:20.999Z</time></trkpt><trkpt lat="44.90186797503696" lon="10.785815542537838"><ele>18.142857142857142</ele><time>2026-04-26T15:01:21.999Z</time></trkpt><trkpt lat="44.90192502836535" lon="10.78574072946701"><ele>18.42857142857143</ele><time>2026-04-26T15:01:22.999Z</time></trkpt><trkpt lat="44.901977824722096" lon="10.785674665111593"><ele>18.71428571428571</ele><time>2026-04-26T15:01:23.999Z</time></trkpt><trkpt lat="44.90202557581865" lon="10.785606399374908"><ele>19.0</ele><time>2026-04-26T15:01:24.999Z</time></trkpt><trkpt lat="44.90207595828834" lon="10.785528798845112"><ele>19.0</ele><time>2026-04-26T15:01:25.999Z</time></trkpt><trkpt lat="44.90212395989226" lon="10.785455936569813"><ele>19.0</ele><time>2026-04-26T15:01:26.999Z</time></trkpt><trkpt lat="44.902173522251985" lon="10.78538880074529"><ele>19.0</ele><time>2026-04-26T15:01:27.999Z</time></trkpt><trkpt lat="44.902226731068446" lon="10.785309317105497"><ele>19.0</ele><time>2026-04-26T15:01:28.999Z</time></trkpt><trkpt lat="44.90228063448468" lon="10.785237130773467"><ele>19.0</ele><time>2026-04-26T15:01:29.999Z</time></trkpt><trkpt lat="44.9023306814851" lon="10.785164620391281"><ele>19.0</ele><time>2026-04-26T15:01:30.999Z</time></trkpt><trkpt lat="44.902377429259346" lon="10.785081690866507"><ele>19.0</ele><time>2026-04-26T15:01:32Z</time></trkpt><trkpt lat="44.90242302577498" lon="10.78500089146384"><ele>18.833333333333332</ele><time>2026-04-26T15:01:33Z</time></trkpt><trkpt lat="44.90249553293188" lon="10.784856583128608"><ele>18.666666666666664</ele><time>2026-04-26T15:01:35Z</time></trkpt><trkpt lat="44.90253467120675" lon="10.784782436533629"><ele>18.5</ele><time>2026-04-26T15:01:36Z</time></trkpt><trkpt lat="44.90257590986587" lon="10.78469785629647"><ele>18.333333333333332</ele><time>2026-04-26T15:01:37Z</time></trkpt><trkpt lat="44.90261309897974" lon="10.784616361354377"><ele>18.166666666666668</ele><time>2026-04-26T15:01:38Z</time></trkpt><trkpt lat="44.902661158379" lon="10.784523465665702"><ele>18.0</ele><time>2026-04-26T15:01:39Z</time></trkpt><trkpt lat="44.90270743932203" lon="10.784435505683636"><ele>17.833333333333332</ele><time>2026-04-26T15:01:40Z</time></trkpt><trkpt lat="44.90276168393007" lon="10.784339080622683"><ele>17.666666666666668</ele><time>2026-04-26T15:01:41Z</time></trkpt><trkpt lat="44.90281654655863" lon="10.784245874052187"><ele>17.5</ele><time>2026-04-26T15:01:42Z</time></trkpt><trkpt lat="44.902866778651266" lon="10.784157125809793"><ele>17.333333333333336</ele><time>2026-04-26T15:01:43Z</time></trkpt><trkpt lat="44.902916768047064" lon="10.784068920673436"><ele>17.166666666666668</ele><time>2026-04-26T15:01:44Z</time></trkpt><trkpt lat="44.902961725346756" lon="10.783988546832724"><ele>17.0</ele><time>2026-04-26T15:01:45Z</time></trkpt><trkpt lat="44.903011310598686" lon="10.783894381551358"><ele>17.0</ele><time>2026-04-26T15:01:46Z</time></trkpt><trkpt lat="44.90305966880145" lon="10.78380672931203"><ele>17.0</ele><time>2026-04-26T15:01:47Z</time></trkpt><trkpt lat="44.903114034875934" lon="10.783719882550479"><ele>17.0</ele><time>2026-04-26T15:01:48Z</time></trkpt><trkpt lat="44.90316736772352" lon="10.783633285339477"><ele>17.0</ele><time>2026-04-26T15:01:49Z</time></trkpt><trkpt lat="44.90321757019695" lon="10.783536588557315"><ele>17.0</ele><time>2026-04-26T15:01:50Z</time></trkpt><trkpt lat="44.903261822464344" lon="10.783451569447093"><ele>17.0</ele><time>2026-04-26T15:01:51Z</time></trkpt><trkpt lat="44.9033090877689" lon="10.783361649437584"><ele>17.0</ele><time>2026-04-26T15:01:52Z</time></trkpt><trkpt lat="44.90335042865683" lon="10.783284015618241"><ele>17.0</ele><time>2026-04-26T15:01:53Z</time></trkpt><trkpt lat="44.903396921553146" lon="10.783200705547477"><ele>17.0</ele><time>2026-04-26T15:01:54Z</time></trkpt><trkpt lat="44.903440754282784" lon="10.783116573224232"><ele>17.0</ele><time>2026-04-26T15:01:55Z</time></trkpt><trkpt lat="44.90348300794221" lon="10.782955071539515"><ele>17.0</ele><time>2026-04-26T15:01:57Z</time></trkpt><trkpt lat="44.903533613545484" lon="10.782889539745488"><ele>17.0</ele><time>2026-04-26T15:01:58Z</time></trkpt><trkpt lat="44.90362143787793" lon="10.782752221452007"><ele>16.666666666666668</ele><time>2026-04-26T15:02:00Z</time></trkpt><trkpt lat="44.903661610882644" lon="10.78267345181906"><ele>16.333333333333336</ele><time>2026-04-26T15:02:01Z</time></trkpt><trkpt lat="44.903705571779405" lon="10.782590464945972"><ele>16.0</ele><time>2026-04-26T15:02:02Z</time></trkpt><trkpt lat="44.903738770817355" lon="10.78249581497202"><ele>15.666666666666668</ele><time>2026-04-26T15:02:03Z</time></trkpt><trkpt lat="44.90376924442032" lon="10.782400845625984"><ele>15.333333333333334</ele><time>2026-04-26T15:02:04Z</time></trkpt><trkpt lat="44.903794188466655" lon="10.782253957443384"><ele>15.0</ele><time>2026-04-26T15:02:06Z</time></trkpt><trkpt lat="44.903800035591075" lon="10.782115091899202"><ele>15.0</ele><time>2026-04-26T15:02:08Z</time></trkpt><trkpt lat="44.90380350519103" lon="10.781943751179075"><ele>15.0</ele><time>2026-04-26T15:02:10Z</time></trkpt><trkpt lat="44.903793685081205" lon="10.781845028984645"><ele>15.0</ele><time>2026-04-26T15:02:11Z</time></trkpt><trkpt lat="44.903780765642644" lon="10.781747990367869"><ele>15.0</ele><time>2026-04-26T15:02:12Z</time></trkpt><trkpt lat="44.903756181104654" lon="10.781586856960418"><ele>15.0</ele><time>2026-04-26T15:02:14Z</time></trkpt><trkpt lat="44.903743970636086" lon="10.781492069114304"><ele>15.0</ele><time>2026-04-26T15:02:15Z</time></trkpt><trkpt lat="44.9037336291389" lon="10.781398673704818"><ele>15.0</ele><time>2026-04-26T15:02:16Z</time></trkpt><trkpt lat="44.90372027155832" lon="10.781311512867786"><ele>15.0</ele><time>2026-04-26T15:02:17Z</time></trkpt><trkpt lat="44.903707908134024" lon="10.78117407215436"><ele>15.0</ele><time>2026-04-26T15:02:19Z</time></trkpt><trkpt lat="44.90372277676423" lon="10.781085586270715"><ele>15.0</ele><time>2026-04-26T15:02:20.999Z</time></trkpt><trkpt lat="44.90376689423124" lon="10.781020027917986"><ele>15.0</ele><time>2026-04-26T15:02:22.999Z</time></trkpt><trkpt lat="44.903860300781275" lon="10.78100649132879"><ele>15.0</ele><time>2026-04-26T15:02:24.999Z</time></trkpt><trkpt lat="44.90395940734747" lon="10.781020930202557"><ele>15.166666666666666</ele><time>2026-04-26T15:02:26.999Z</time></trkpt><trkpt lat="44.90405488315402" lon="10.781002610982666"><ele>15.333333333333332</ele><time>2026-04-26T15:02:28.999Z</time></trkpt><trkpt lat="44.90411820401606" lon="10.78098313792978"><ele>15.5</ele><time>2026-04-26T15:02:29.999Z</time></trkpt><trkpt lat="44.90418528819609" lon="10.780966710441037"><ele>15.666666666666666</ele><time>2026-04-26T15:02:30.999Z</time></trkpt><trkpt lat="44.904308981307395" lon="10.780942737232479"><ele>15.833333333333332</ele><time>2026-04-26T15:02:32.999Z</time></trkpt><trkpt lat="44.904383949996365" lon="10.780939029227207"><ele>16.0</ele><time>2026-04-26T15:02:33.999Z</time></trkpt><trkpt lat="44.904466639794" lon="10.780938221477662"><ele>16.0</ele><time>2026-04-26T15:02:34.999Z</time></trkpt><trkpt lat="44.90455618825157" lon="10.78093766939733"><ele>16.0</ele><time>2026-04-26T15:02:35.999Z</time></trkpt><trkpt lat="44.9046461495522" lon="10.780945013865354"><ele>16.0</ele><time>2026-04-26T15:02:36.999Z</time></trkpt><trkpt lat="44.90474349987364" lon="10.780959843197401"><ele>16.0</ele><time>2026-04-26T15:02:37.999Z</time></trkpt><trkpt lat="44.90483119020837" lon="10.780989952740061"><ele>16.0</ele><time>2026-04-26T15:02:38.999Z</time></trkpt><trkpt lat="44.90492125637346" lon="10.781029660137508"><ele>15.999999999999998</ele><time>2026-04-26T15:02:39.999Z</time></trkpt><trkpt lat="44.905003949393134" lon="10.781065088592394"><ele>16.0</ele><time>2026-04-26T15:02:40.999Z</time></trkpt><trkpt lat="44.905086204313214" lon="10.781099906202172"><ele>16.0</ele><time>2026-04-26T15:02:41.999Z</time></trkpt><trkpt lat="44.905167487961386" lon="10.781137783064382"><ele>16.0</ele><time>2026-04-26T15:02:42.999Z</time></trkpt><trkpt lat="44.905238387866895" lon="10.781172304295783"><ele>15.999999999999998</ele><time>2026-04-26T15:02:43.999Z</time></trkpt><trkpt lat="44.905317086499224" lon="10.781202024246989"><ele>16.0</ele><time>2026-04-26T15:02:44.999Z</time></trkpt><trkpt lat="44.90539672889813" lon="10.781227582470306"><ele>15.999999999999998</ele><time>2026-04-26T15:02:45.999Z</time></trkpt><trkpt lat="44.90547235561319" lon="10.7812320919693"><ele>16.0</ele><time>2026-04-26T15:02:46.999Z</time></trkpt><trkpt lat="44.90554743932064" lon="10.781215238337408"><ele>16.0</ele><time>2026-04-26T15:02:47.999Z</time></trkpt><trkpt lat="44.90562459823343" lon="10.781176944433515"><ele>16.0</ele><time>2026-04-26T15:02:48.999Z</time></trkpt><trkpt lat="44.90570117099169" lon="10.781120702910266"><ele>15.999999999999998</ele><time>2026-04-26T15:02:49.999Z</time></trkpt><trkpt lat="44.90578365743614" lon="10.781058030214112"><ele>16.0</ele><time>2026-04-26T15:02:50.999Z</time></trkpt><trkpt lat="44.90586613118383" lon="10.780994411387887"><ele>15.8</ele><time>2026-04-26T15:02:51.999Z</time></trkpt><trkpt lat="44.90595057214246" lon="10.780927779205799"><ele>15.600000000000001</ele><time>2026-04-26T15:02:52.999Z</time></trkpt><trkpt lat="44.9060272887597" lon="10.780864263352273"><ele>15.4</ele><time>2026-04-26T15:02:53.999Z</time></trkpt><trkpt lat="44.906099296050456" lon="10.780801414363953"><ele>15.2</ele><time>2026-04-26T15:02:54.999Z</time></trkpt><trkpt lat="44.906174964874374" lon="10.780734263951473"><ele>15.0</ele><time>2026-04-26T15:02:55.999Z</time></trkpt><trkpt lat="44.906258804572595" lon="10.780665717576044"><ele>15.0</ele><time>2026-04-26T15:02:56.999Z</time></trkpt><trkpt lat="44.90634428800044" lon="10.780599845701502"><ele>15.0</ele><time>2026-04-26T15:02:57.999Z</time></trkpt><trkpt lat="44.906426496890155" lon="10.780531920586943"><ele>15.0</ele><time>2026-04-26T15:02:58.999Z</time></trkpt><trkpt lat="44.90650771354583" lon="10.780465589297771"><ele>15.0</ele><time>2026-04-26T15:02:59.999Z</time></trkpt><trkpt lat="44.90659339432967" lon="10.780389782517819"><ele>15.0</ele><time>2026-04-26T15:03:00.999Z</time></trkpt><trkpt lat="44.906679636890274" lon="10.780315520397405"><ele>15.0</ele><time>2026-04-26T15:03:01.999Z</time></trkpt><trkpt lat="44.90677457781246" lon="10.780239615065616"><ele>15.0</ele><time>2026-04-26T15:03:02.999Z</time></trkpt><trkpt lat="44.90688013349112" lon="10.780160199067883"><ele>15.0</ele><time>2026-04-26T15:03:03.999Z</time></trkpt><trkpt lat="44.906986763349444" lon="10.780084626810028"><ele>15.0</ele><time>2026-04-26T15:03:04.999Z</time></trkpt><trkpt lat="44.907094691410755" lon="10.780003802708755"><ele>15.0</ele><time>2026-04-26T15:03:05.999Z</time></trkpt><trkpt lat="44.907195186792" lon="10.779917009969221"><ele>15.0</ele><time>2026-04-26T15:03:06.999Z</time></trkpt><trkpt lat="44.90729253109504" lon="10.779821835571742"><ele>15.0</ele><time>2026-04-26T15:03:07.999Z</time></trkpt><trkpt lat="44.90738662774577" lon="10.779731273682229"><ele>15.0</ele><time>2026-04-26T15:03:08.999Z</time></trkpt><trkpt lat="44.90747224505346" lon="10.779636263035362"><ele>15.0</ele><time>2026-04-26T15:03:09.999Z</time></trkpt><trkpt lat="44.90754880588634" lon="10.779536219351453"><ele>15.0</ele><time>2026-04-26T15:03:10.999Z</time></trkpt><trkpt lat="44.907608961430974" lon="10.77943999123077"><ele>15.0</ele><time>2026-04-26T15:03:11.999Z</time></trkpt><trkpt lat="44.90765094680194" lon="10.779345535218255"><ele>15.0</ele><time>2026-04-26T15:03:12.999Z</time></trkpt><trkpt lat="44.90769738940312" lon="10.779241578292288"><ele>15.0</ele><time>2026-04-26T15:03:13.999Z</time></trkpt><trkpt lat="44.90774080269395" lon="10.779151959941196"><ele>15.0</ele><time>2026-04-26T15:03:14.999Z</time></trkpt><trkpt lat="44.90778817801346" lon="10.779024855450844"><ele>15.0</ele><time>2026-04-26T15:03:16.999Z</time></trkpt><trkpt lat="44.90785496995864" lon="10.778999128920692"><ele>15.0</ele><time>2026-04-26T15:03:18.999Z</time></trkpt><trkpt lat="44.90790839425609" lon="10.77905594665588"><ele>15.0</ele><time>2026-04-26T15:03:23.999Z</time></trkpt><trkpt lat="44.9080592607311" lon="10.779197519392904"><ele>15.0</ele><time>2026-04-26T15:03:25.999Z</time></trkpt><trkpt lat="44.908133469605275" lon="10.7792720065205"><ele>15.0</ele><time>2026-04-26T15:03:26.999Z</time></trkpt><trkpt lat="44.90821341983175" lon="10.779344927397474"><ele>15.0</ele><time>2026-04-26T15:03:27.999Z</time></trkpt><trkpt lat="44.908293536393884" lon="10.779425838813905"><ele>15.0</ele><time>2026-04-26T15:03:28.999Z</time></trkpt><trkpt lat="44.90837802355484" lon="10.779515804870819"><ele>15.0</ele><time>2026-04-26T15:03:29.999Z</time></trkpt><trkpt lat="44.90846947636846" lon="10.77960696744937"><ele>15.0</ele><time>2026-04-26T15:03:30.999Z</time></trkpt><trkpt lat="44.908564099950034" lon="10.779701448657564"><ele>15.0</ele><time>2026-04-26T15:03:31.999Z</time></trkpt><trkpt lat="44.90865501606134" lon="10.779789343119589"><ele>15.6</ele><time>2026-04-26T15:03:32.999Z</time></trkpt><trkpt lat="44.90874013251305" lon="10.77987407560754"><ele>16.2</ele><time>2026-04-26T15:03:33.999Z</time></trkpt><trkpt lat="44.90884521254777" lon="10.779955360611384"><ele>16.8</ele><time>2026-04-26T15:03:34.999Z</time></trkpt><trkpt lat="44.908927709454645" lon="10.780055560631418"><ele>17.4</ele><time>2026-04-26T15:03:35.999Z</time></trkpt><trkpt lat="44.90900919845327" lon="10.780141606854587"><ele>18.0</ele><time>2026-04-26T15:03:36.999Z</time></trkpt><trkpt lat="44.909095742483395" lon="10.780230644059053"><ele>18.0</ele><time>2026-04-26T15:03:38Z</time></trkpt><trkpt lat="44.909179487383575" lon="10.780317455467374"><ele>18.0</ele><time>2026-04-26T15:03:39Z</time></trkpt><trkpt lat="44.90926027667687" lon="10.780400793950744"><ele>18.0</ele><time>2026-04-26T15:03:40Z</time></trkpt><trkpt lat="44.90933680649955" lon="10.780489108213589"><ele>18.0</ele><time>2026-04-26T15:03:41Z</time></trkpt><trkpt lat="44.90941500687714" lon="10.780573424654834"><ele>18.0</ele><time>2026-04-26T15:03:42Z</time></trkpt><trkpt lat="44.9094940011897" lon="10.780669329806331"><ele>18.333333333333332</ele><time>2026-04-26T15:03:43Z</time></trkpt><trkpt lat="44.90957769941643" lon="10.780732330382495"><ele>18.666666666666668</ele><time>2026-04-26T15:03:44Z</time></trkpt><trkpt lat="44.90964501355597" lon="10.780770125562809"><ele>19.0</ele><time>2026-04-26T15:03:45Z</time></trkpt><trkpt lat="44.90971335246872" lon="10.780818340698152"><ele>19.333333333333336</ele><time>2026-04-26T15:03:46Z</time></trkpt><trkpt lat="44.90977481566868" lon="10.780858976995704"><ele>19.666666666666668</ele><time>2026-04-26T15:03:47Z</time></trkpt><trkpt lat="44.909850230869964" lon="10.780908026387525"><ele>20.0</ele><time>2026-04-26T15:03:49Z</time></trkpt><trkpt lat="44.90992257066014" lon="10.780960402214223"><ele>20.0</ele><time>2026-04-26T15:03:53Z</time></trkpt><trkpt lat="44.909980797930174" lon="10.781007434060356"><ele>20.0</ele><time>2026-04-26T15:03:55Z</time></trkpt><trkpt lat="44.91002439456284" lon="10.78108277247533"><ele>20.0</ele><time>2026-04-26T15:03:57Z</time></trkpt><trkpt lat="44.91008728031969" lon="10.781138818403395"><ele>20.0</ele><time>2026-04-26T15:03:59Z</time></trkpt><trkpt lat="44.91010308414266" lon="10.781237268383338"><ele>20.0</ele><time>2026-04-26T15:04:01Z</time></trkpt><trkpt lat="44.91011192546247" lon="10.781326798441873"><ele>20.0</ele><time>2026-04-26T15:04:03Z</time></trkpt><trkpt lat="44.9101657686446" lon="10.781400567185482"><ele>20.0</ele><time>2026-04-26T15:04:05Z</time></trkpt><trkpt lat="44.91024026441488" lon="10.781495262183542"><ele>19.833333333333336</ele><time>2026-04-26T15:04:07Z</time></trkpt><trkpt lat="44.9103381144985" lon="10.781508018391381"><ele>19.666666666666668</ele><time>2026-04-26T15:04:09Z</time></trkpt><trkpt lat="44.91041277129926" lon="10.781504932078727"><ele>19.5</ele><time>2026-04-26T15:04:11Z</time></trkpt><trkpt lat="44.91048399774742" lon="10.781483197480753"><ele>19.333333333333332</ele><time>2026-04-26T15:04:15Z</time></trkpt><trkpt lat="44.910550224282375" lon="10.781455406768208"><ele>19.166666666666664</ele><time>2026-04-26T15:04:21Z</time></trkpt><trkpt lat="44.91062240999852" lon="10.781450648940238"><ele>19.0</ele><time>2026-04-26T15:05:29.999Z</time></trkpt><trkpt lat="44.91071276238309" lon="10.781488548017679"><ele>19.0</ele><time>2026-04-26T15:05:31.999Z</time></trkpt><trkpt lat="44.91080977598093" lon="10.78155786807872"><ele>19.0</ele><time>2026-04-26T15:05:33.999Z</time></trkpt><trkpt lat="44.910871487400115" lon="10.781599148300996"><ele>19.0</ele><time>2026-04-26T15:05:34.999Z</time></trkpt><trkpt lat="44.9109429854621" lon="10.781644300807354"><ele>19.0</ele><time>2026-04-26T15:05:35.999Z</time></trkpt><trkpt lat="44.91102098156777" lon="10.781690270072335"><ele>19.0</ele><time>2026-04-26T15:05:36.999Z</time></trkpt><trkpt lat="44.911092215085716" lon="10.781744884076854"><ele>19.0</ele><time>2026-04-26T15:05:37.999Z</time></trkpt><trkpt lat="44.91116451614766" lon="10.781788779576884"><ele>18.8</ele><time>2026-04-26T15:05:38.999Z</time></trkpt><trkpt lat="44.91124496781681" lon="10.781831355292976"><ele>18.599999999999998</ele><time>2026-04-26T15:05:39.999Z</time></trkpt><trkpt lat="44.91130918655223" lon="10.781874890007726"><ele>18.4</ele><time>2026-04-26T15:05:40.999Z</time></trkpt><trkpt lat="44.91141725408808" lon="10.781943318278884"><ele>18.2</ele><time>2026-04-26T15:05:42.999Z</time></trkpt><trkpt lat="44.911491346607065" lon="10.781997190285958"><ele>18.0</ele><time>2026-04-26T15:05:45Z</time></trkpt><trkpt lat="44.9115972709096" lon="10.781814488652296"><ele>18.0</ele><time>2026-04-26T15:05:52Z</time></trkpt><trkpt lat="44.911622705093166" lon="10.781715199417219"><ele>18.0</ele><time>2026-04-26T15:05:55Z</time></trkpt><trkpt lat="44.911673609278544" lon="10.781574505730092"><ele>18.0</ele><time>2026-04-26T15:05:57Z</time></trkpt><trkpt lat="44.9117143818919" lon="10.781450311693817"><ele>18.0</ele><time>2026-04-26T15:05:59Z</time></trkpt><trkpt lat="44.91180110647323" lon="10.78140211350847"><ele>18.0</ele><time>2026-04-26T15:06:02Z</time></trkpt><trkpt lat="44.91191156431062" lon="10.781452084280543"><ele>18.000000000000004</ele><time>2026-04-26T15:06:04Z</time></trkpt><trkpt lat="44.91196918774357" lon="10.781500164737682"><ele>18.0</ele><time>2026-04-26T15:06:05Z</time></trkpt><trkpt lat="44.91203093170858" lon="10.78154174865398"><ele>18.0</ele><time>2026-04-26T15:06:06Z</time></trkpt><trkpt lat="44.91208934318965" lon="10.78158991421513"><ele>18.0</ele><time>2026-04-26T15:06:07Z</time></trkpt><trkpt lat="44.912152772706484" lon="10.781647746711501"><ele>18.0</ele><time>2026-04-26T15:06:08Z</time></trkpt><trkpt lat="44.91222013352805" lon="10.781693352179689"><ele>18.000000000000004</ele><time>2026-04-26T15:06:09Z</time></trkpt><trkpt lat="44.912287127658686" lon="10.78173951879952"><ele>18.0</ele><time>2026-04-26T15:06:10Z</time></trkpt><trkpt lat="44.91236111246901" lon="10.781783598169579"><ele>18.0</ele><time>2026-04-26T15:06:11Z</time></trkpt><trkpt lat="44.912428206869265" lon="10.781824292117719"><ele>18.0</ele><time>2026-04-26T15:06:12Z</time></trkpt><trkpt lat="44.91249709695027" lon="10.78187041844435"><ele>18.0</ele><time>2026-04-26T15:06:13Z</time></trkpt><trkpt lat="44.91257045910269" lon="10.78191844901257"><ele>18.0</ele><time>2026-04-26T15:06:14Z</time></trkpt><trkpt lat="44.91263946933324" lon="10.78196367263221"><ele>18.0</ele><time>2026-04-26T15:06:15Z</time></trkpt><trkpt lat="44.912713359481096" lon="10.782012982865885"><ele>18.0</ele><time>2026-04-26T15:06:16Z</time></trkpt><trkpt lat="44.91278603551409" lon="10.782057323517991"><ele>17.833333333333332</ele><time>2026-04-26T15:06:17Z</time></trkpt><trkpt lat="44.91286061715545" lon="10.782111908891029"><ele>17.666666666666668</ele><time>2026-04-26T15:06:18Z</time></trkpt><trkpt lat="44.9129375703934" lon="10.782161845305975"><ele>17.5</ele><time>2026-04-26T15:06:19Z</time></trkpt><trkpt lat="44.91301271902588" lon="10.782206944200828"><ele>17.333333333333336</ele><time>2026-04-26T15:06:20Z</time></trkpt><trkpt lat="44.91309102543848" lon="10.782261343856469"><ele>17.166666666666668</ele><time>2026-04-26T15:06:21Z</time></trkpt><trkpt lat="44.913167489947746" lon="10.78231127205273"><ele>17.0</ele><time>2026-04-26T15:06:22Z</time></trkpt><trkpt lat="44.91323854007006" lon="10.78235781211183"><ele>17.0</ele><time>2026-04-26T15:06:23Z</time></trkpt><trkpt lat="44.91331441895443" lon="10.782409826581672"><ele>17.0</ele><time>2026-04-26T15:06:24Z</time></trkpt><trkpt lat="44.91339259135082" lon="10.782462230509507"><ele>17.0</ele><time>2026-04-26T15:06:25Z</time></trkpt><trkpt lat="44.91346815028647" lon="10.782510026707286"><ele>17.0</ele><time>2026-04-26T15:06:26Z</time></trkpt><trkpt lat="44.91354409828019" lon="10.782561123317626"><ele>17.0</ele><time>2026-04-26T15:06:27Z</time></trkpt><trkpt lat="44.91361835988804" lon="10.782607565839033"><ele>17.0</ele><time>2026-04-26T15:06:28Z</time></trkpt><trkpt lat="44.91368960048651" lon="10.782659698145105"><ele>17.142857142857142</ele><time>2026-04-26T15:06:29Z</time></trkpt><trkpt lat="44.91375884671573" lon="10.782703974055172"><ele>17.285714285714285</ele><time>2026-04-26T15:06:30Z</time></trkpt><trkpt lat="44.91382484199163" lon="10.78274565625678"><ele>17.42857142857143</ele><time>2026-04-26T15:06:31Z</time></trkpt><trkpt lat="44.91389170524875" lon="10.782786401920072"><ele>17.57142857142857</ele><time>2026-04-26T15:06:32Z</time></trkpt><trkpt lat="44.91395912832805" lon="10.782829925128345"><ele>17.714285714285715</ele><time>2026-04-26T15:06:33Z</time></trkpt><trkpt lat="44.91401894703633" lon="10.782866697635313"><ele>17.857142857142858</ele><time>2026-04-26T15:06:34Z</time></trkpt><trkpt lat="44.914093513395784" lon="10.782924589255467"><ele>18.0</ele><time>2026-04-26T15:06:36Z</time></trkpt><trkpt lat="44.91415963552995" lon="10.782967621997399"><ele>18.000000000000004</ele><time>2026-04-26T15:06:54Z</time></trkpt><trkpt lat="44.91423698203988" lon="10.78299392600417"><ele>18.0</ele><time>2026-04-26T15:06:56.999Z</time></trkpt><trkpt lat="44.914289579908214" lon="10.78304393109147"><ele>18.0</ele><time>2026-04-26T15:06:58.999Z</time></trkpt><trkpt lat="44.914348254629914" lon="10.783092528538944"><ele>18.0</ele><time>2026-04-26T15:07:00.999Z</time></trkpt><trkpt lat="44.914410815477986" lon="10.783137850725987"><ele>18.0</ele><time>2026-04-26T15:07:02.999Z</time></trkpt><trkpt lat="44.91447432506258" lon="10.783183605723515"><ele>18.000000000000004</ele><time>2026-04-26T15:07:04.999Z</time></trkpt><trkpt lat="44.91453909983451" lon="10.783229406215904"><ele>18.0</ele><time>2026-04-26T15:07:06.999Z</time></trkpt><trkpt lat="44.91460832399654" lon="10.783274748498298"><ele>18.0</ele><time>2026-04-26T15:07:08.999Z</time></trkpt><trkpt lat="44.9146788842186" lon="10.783325436341578"><ele>18.0</ele><time>2026-04-26T15:07:10.999Z</time></trkpt><trkpt lat="44.91475039666979" lon="10.783380788903552"><ele>18.0</ele><time>2026-04-26T15:07:12.999Z</time></trkpt><trkpt lat="44.91482136925444" lon="10.783432668849434"><ele>18.0</ele><time>2026-04-26T15:07:14.999Z</time></trkpt><trkpt lat="44.91489562447423" lon="10.783477643781607"><ele>18.0</ele><time>2026-04-26T15:07:16.999Z</time></trkpt><trkpt lat="44.91497194337007" lon="10.783537529252545"><ele>18.0</ele><time>2026-04-26T15:07:18.999Z</time></trkpt><trkpt lat="44.915052281261175" lon="10.783587623455784"><ele>17.8</ele><time>2026-04-26T15:07:20.999Z</time></trkpt><trkpt lat="44.91513249598092" lon="10.783644544407752"><ele>17.6</ele><time>2026-04-26T15:07:22.999Z</time></trkpt><trkpt lat="44.915222194623475" lon="10.783697853507608"><ele>17.4</ele><time>2026-04-26T15:07:24.999Z</time></trkpt><trkpt lat="44.91531268899456" lon="10.7837582273596"><ele>17.2</ele><time>2026-04-26T15:07:26.999Z</time></trkpt><trkpt lat="44.91540875332597" lon="10.783826886176499"><ele>17.0</ele><time>2026-04-26T15:07:28.999Z</time></trkpt><trkpt lat="44.915507270243815" lon="10.783896633904448"><ele>17.0</ele><time>2026-04-26T15:07:30.999Z</time></trkpt><trkpt lat="44.91559179909352" lon="10.783948839766822"><ele>17.0</ele><time>2026-04-26T15:07:32.999Z</time></trkpt><trkpt lat="44.915678183816695" lon="10.784006204883445"><ele>17.0</ele><time>2026-04-26T15:07:34.999Z</time></trkpt><trkpt lat="44.915771459481206" lon="10.784064746085566"><ele>17.0</ele><time>2026-04-26T15:07:36.999Z</time></trkpt><trkpt lat="44.91586302358322" lon="10.78412298585487"><ele>17.0</ele><time>2026-04-26T15:07:38.999Z</time></trkpt><trkpt lat="44.91592654397204" lon="10.784167629266166"><ele>17.0</ele><time>2026-04-26T15:07:40.999Z</time></trkpt><trkpt lat="44.9159895497087" lon="10.784213718810552"><ele>17.0</ele><time>2026-04-26T15:07:42.999Z</time></trkpt><trkpt lat="44.91607533055154" lon="10.784273709523255"><ele>17.0</ele><time>2026-04-26T15:07:44.999Z</time></trkpt><trkpt lat="44.916162462830506" lon="10.784328429366802"><ele>17.0</ele><time>2026-04-26T15:07:46.999Z</time></trkpt><trkpt lat="44.91625887280852" lon="10.784384382335425"><ele>17.0</ele><time>2026-04-26T15:07:48.999Z</time></trkpt><trkpt lat="44.91635832274862" lon="10.784451106490442"><ele>17.0</ele><time>2026-04-26T15:07:51Z</time></trkpt><trkpt lat="44.91645548319993" lon="10.784516288547318"><ele>17.0</ele><time>2026-04-26T15:07:53Z</time></trkpt><trkpt lat="44.91656155816359" lon="10.784579097989267"><ele>17.0</ele><time>2026-04-26T15:07:55Z</time></trkpt><trkpt lat="44.91664906391034" lon="10.784636229968902"><ele>17.0</ele><time>2026-04-26T15:07:57Z</time></trkpt><trkpt lat="44.91672401251031" lon="10.784686248805196"><ele>17.0</ele><time>2026-04-26T15:07:59Z</time></trkpt><trkpt lat="44.91681501515022" lon="10.78474535864696"><ele>17.0</ele><time>2026-04-26T15:08:01Z</time></trkpt><trkpt lat="44.916874225541015" lon="10.784782535378309"><ele>17.0</ele><time>2026-04-26T15:08:02Z</time></trkpt><trkpt lat="44.91695185112252" lon="10.784843573182595"><ele>17.0</ele><time>2026-04-26T15:08:04Z</time></trkpt><trkpt lat="44.917025249963245" lon="10.784893462339925"><ele>17.0</ele><time>2026-04-26T15:08:06Z</time></trkpt><trkpt lat="44.9171138827602" lon="10.784947462028999"><ele>17.0</ele><time>2026-04-26T15:08:08Z</time></trkpt><trkpt lat="44.9171999356785" lon="10.784995852400513"><ele>17.0</ele><time>2026-04-26T15:08:10Z</time></trkpt><trkpt lat="44.91728445886086" lon="10.785049444280535"><ele>17.0</ele><time>2026-04-26T15:08:12Z</time></trkpt><trkpt lat="44.91736473747213" lon="10.785093921902796"><ele>17.0</ele><time>2026-04-26T15:08:15Z</time></trkpt><trkpt lat="44.917417888847844" lon="10.785159935008265"><ele>17.0</ele><time>2026-04-26T15:08:27Z</time></trkpt><trkpt lat="44.91735676514683" lon="10.785183671954277"><ele>17.0</ele><time>2026-04-26T15:08:39Z</time></trkpt><trkpt lat="44.917310516003575" lon="10.785100692439995"><ele>17.0</ele><time>2026-04-26T15:08:42Z</time></trkpt><trkpt lat="44.91723631395757" lon="10.78502343689928"><ele>17.0</ele><time>2026-04-26T15:08:45Z</time></trkpt><trkpt lat="44.917173373426" lon="10.784984558718806"><ele>17.0</ele><time>2026-04-26T15:08:47Z</time></trkpt><trkpt lat="44.917085312419516" lon="10.784936664709909"><ele>17.0</ele><time>2026-04-26T15:08:49Z</time></trkpt><trkpt lat="44.91701424414113" lon="10.784887206099658"><ele>17.0</ele><time>2026-04-26T15:08:51Z</time></trkpt><trkpt lat="44.91694487121892" lon="10.784842719864383"><ele>17.0</ele><time>2026-04-26T15:08:53Z</time></trkpt><trkpt lat="44.91687027432327" lon="10.784787799468948"><ele>17.0</ele><time>2026-04-26T15:08:55Z</time></trkpt><trkpt lat="44.91678530418313" lon="10.784730927058728"><ele>17.0</ele><time>2026-04-26T15:08:57Z</time></trkpt><trkpt lat="44.91669359214402" lon="10.784668635734707"><ele>17.0</ele><time>2026-04-26T15:08:59Z</time></trkpt><trkpt lat="44.916598385692936" lon="10.784610966271625"><ele>17.0</ele><time>2026-04-26T15:09:01Z</time></trkpt><trkpt lat="44.916500183567116" lon="10.784548877434561"><ele>17.0</ele><time>2026-04-26T15:09:03Z</time></trkpt><trkpt lat="44.916397941860644" lon="10.784488536574806"><ele>17.0</ele><time>2026-04-26T15:09:05Z</time></trkpt><trkpt lat="44.916299224710336" lon="10.784414186772212"><ele>17.0</ele><time>2026-04-26T15:09:07Z</time></trkpt><trkpt lat="44.916198019471224" lon="10.78435401715485"><ele>17.0</ele><time>2026-04-26T15:09:08.999Z</time></trkpt><trkpt lat="44.916101572460526" lon="10.784295264683701"><ele>17.0</ele><time>2026-04-26T15:09:10.999Z</time></trkpt><trkpt lat="44.91600490965226" lon="10.78422405644515"><ele>17.0</ele><time>2026-04-26T15:09:12.999Z</time></trkpt><trkpt lat="44.9159151629322" lon="10.784169409207049"><ele>17.0</ele><time>2026-04-26T15:09:14.999Z</time></trkpt><trkpt lat="44.91584546000561" lon="10.784114410090181"><ele>17.0</ele><time>2026-04-26T15:09:17.999Z</time></trkpt><trkpt lat="44.91577855090545" lon="10.784071429973471"><ele>17.0</ele><time>2026-04-26T15:09:19.999Z</time></trkpt><trkpt lat="44.9156952051378" lon="10.78401916053586"><ele>17.0</ele><time>2026-04-26T15:09:21.999Z</time></trkpt><trkpt lat="44.91559915355063" lon="10.783960153048515"><ele>17.0</ele><time>2026-04-26T15:09:23.999Z</time></trkpt><trkpt lat="44.91549980811826" lon="10.783893466438803"><ele>17.0</ele><time>2026-04-26T15:09:25.999Z</time></trkpt><trkpt lat="44.91540439513858" lon="10.783828613814286"><ele>17.0</ele><time>2026-04-26T15:09:27.999Z</time></trkpt><trkpt lat="44.91530866048263" lon="10.78376216206848"><ele>17.0</ele><time>2026-04-26T15:09:29.999Z</time></trkpt><trkpt lat="44.91521226619199" lon="10.783697411940665"><ele>17.0</ele><time>2026-04-26T15:09:31.999Z</time></trkpt><trkpt lat="44.91511068768163" lon="10.783637266137935"><ele>17.0</ele><time>2026-04-26T15:09:33.999Z</time></trkpt><trkpt lat="44.915014087865266" lon="10.78356230914832"><ele>17.0</ele><time>2026-04-26T15:09:35.999Z</time></trkpt><trkpt lat="44.91491133507065" lon="10.783499003281605"><ele>17.0</ele><time>2026-04-26T15:09:37.999Z</time></trkpt><trkpt lat="44.914809967208775" lon="10.783425240171146"><ele>17.4</ele><time>2026-04-26T15:09:39.999Z</time></trkpt><trkpt lat="44.91471785885723" lon="10.783365900446137"><ele>17.799999999999997</ele><time>2026-04-26T15:09:41.999Z</time></trkpt><trkpt lat="44.91462059521726" lon="10.783291358724815"><ele>18.2</ele><time>2026-04-26T15:09:43.999Z</time></trkpt><trkpt lat="44.91452109842243" lon="10.783224581029396"><ele>18.599999999999998</ele><time>2026-04-26T15:09:45.999Z</time></trkpt><trkpt lat="44.91442152169007" lon="10.783154072067632"><ele>19.0</ele><time>2026-04-26T15:09:47.999Z</time></trkpt><trkpt lat="44.91432390079874" lon="10.783085937755098"><ele>19.0</ele><time>2026-04-26T15:09:49.999Z</time></trkpt><trkpt lat="44.91424609840804" lon="10.783021197617842"><ele>19.0</ele><time>2026-04-26T15:09:51.999Z</time></trkpt><trkpt lat="44.914170631870824" lon="10.782973397220736"><ele>19.0</ele><time>2026-04-26T15:09:53.999Z</time></trkpt><trkpt lat="44.914092739467016" lon="10.78293127905255"><ele>19.0</ele><time>2026-04-26T15:09:57Z</time></trkpt><trkpt lat="44.914011568107355" lon="10.782863507252644"><ele>19.0</ele><time>2026-04-26T15:13:14Z</time></trkpt><trkpt lat="44.91391437803589" lon="10.782799288447656"><ele>18.833333333333332</ele><time>2026-04-26T15:13:16Z</time></trkpt><trkpt lat="44.913792321243605" lon="10.782716016136924"><ele>18.666666666666664</ele><time>2026-04-26T15:13:18Z</time></trkpt><trkpt lat="44.913719392433606" lon="10.782665149980616"><ele>18.5</ele><time>2026-04-26T15:13:19Z</time></trkpt><trkpt lat="44.91365150708282" lon="10.78261846100683"><ele>18.333333333333332</ele><time>2026-04-26T15:13:20Z</time></trkpt><trkpt lat="44.91357936523708" lon="10.782572239568697"><ele>18.166666666666668</ele><time>2026-04-26T15:13:21Z</time></trkpt><trkpt lat="44.9135133804688" lon="10.782527688083318"><ele>18.0</ele><time>2026-04-26T15:13:22Z</time></trkpt><trkpt lat="44.913453497842454" lon="10.782486376796017"><ele>17.8</ele><time>2026-04-26T15:13:23Z</time></trkpt><trkpt lat="44.91339286286646" lon="10.782448633819357"><ele>17.6</ele><time>2026-04-26T15:13:24Z</time></trkpt><trkpt lat="44.91327740691332" lon="10.782377457724593"><ele>17.4</ele><time>2026-04-26T15:13:26Z</time></trkpt><trkpt lat="44.91317822817513" lon="10.782310249020803"><ele>17.2</ele><time>2026-04-26T15:13:28Z</time></trkpt><trkpt lat="44.91311487122514" lon="10.782267673194239"><ele>17.0</ele><time>2026-04-26T15:13:29Z</time></trkpt><trkpt lat="44.913041522987434" lon="10.782216614018344"><ele>16.999999999999996</ele><time>2026-04-26T15:13:30Z</time></trkpt><trkpt lat="44.912974038282684" lon="10.782176693721444"><ele>17.0</ele><time>2026-04-26T15:13:31Z</time></trkpt><trkpt lat="44.91291324342441" lon="10.782138542239087"><ele>17.0</ele><time>2026-04-26T15:13:32Z</time></trkpt><trkpt lat="44.91284680924247" lon="10.782094848903084"><ele>17.0</ele><time>2026-04-26T15:13:33Z</time></trkpt><trkpt lat="44.9127768135194" lon="10.78204567839614"><ele>17.0</ele><time>2026-04-26T15:13:34Z</time></trkpt><trkpt lat="44.91270911574276" lon="10.781999851882551"><ele>16.999999999999996</ele><time>2026-04-26T15:13:35Z</time></trkpt><trkpt lat="44.912634879504225" lon="10.781952095176612"><ele>17.0</ele><time>2026-04-26T15:13:36Z</time></trkpt><trkpt lat="44.912568263382866" lon="10.781909455646089"><ele>17.166666666666668</ele><time>2026-04-26T15:13:37Z</time></trkpt><trkpt lat="44.912497455550174" lon="10.781862425967295"><ele>17.333333333333336</ele><time>2026-04-26T15:13:38Z</time></trkpt><trkpt lat="44.91242801219591" lon="10.781817742876278"><ele>17.5</ele><time>2026-04-26T15:13:39Z</time></trkpt><trkpt lat="44.91236479359379" lon="10.781780013753512"><ele>17.666666666666668</ele><time>2026-04-26T15:13:40Z</time></trkpt><trkpt lat="44.91229156450007" lon="10.78173605355508"><ele>17.833333333333332</ele><time>2026-04-26T15:13:41Z</time></trkpt><trkpt lat="44.91221845261588" lon="10.781688647279301"><ele>18.0</ele><time>2026-04-26T15:13:42Z</time></trkpt><trkpt lat="44.912152423590236" lon="10.781644402821328"><ele>18.0</ele><time>2026-04-26T15:13:43Z</time></trkpt><trkpt lat="44.912081754850135" lon="10.781596607766788"><ele>18.0</ele><time>2026-04-26T15:13:44Z</time></trkpt><trkpt lat="44.91201247598647" lon="10.781548722718597"><ele>18.0</ele><time>2026-04-26T15:13:45Z</time></trkpt><trkpt lat="44.91195207922273" lon="10.781507243645235"><ele>18.0</ele><time>2026-04-26T15:13:46Z</time></trkpt><trkpt lat="44.91185463648387" lon="10.781440165475892"><ele>18.0</ele><time>2026-04-26T15:13:48Z</time></trkpt><trkpt lat="44.91179135678505" lon="10.781405208497812"><ele>18.0</ele><time>2026-04-26T15:13:49.999Z</time></trkpt><trkpt lat="44.911720290683775" lon="10.781416742895795"><ele>18.0</ele><time>2026-04-26T15:13:53.999Z</time></trkpt><trkpt lat="44.91167303083349" lon="10.781524052601496"><ele>18.0</ele><time>2026-04-26T15:13:55.999Z</time></trkpt><trkpt lat="44.911652647853764" lon="10.781609148313851"><ele>18.0</ele><time>2026-04-26T15:13:56.999Z</time></trkpt><trkpt lat="44.91161250947433" lon="10.781760906250573"><ele>18.0</ele><time>2026-04-26T15:13:58.999Z</time></trkpt><trkpt lat="44.91156696747344" lon="10.781897226993596"><ele>18.0</ele><time>2026-04-26T15:14:00.999Z</time></trkpt><trkpt lat="44.91151587117613" lon="10.781970763158627"><ele>18.0</ele><time>2026-04-26T15:14:03.999Z</time></trkpt><trkpt lat="44.91150098112131" lon="10.78206215174882"><ele>18.0</ele><time>2026-04-26T15:14:15.001Z</time></trkpt><trkpt lat="44.911484168570766" lon="10.782234555169028"><ele>18.0</ele><time>2026-04-26T15:14:17.001Z</time></trkpt><trkpt lat="44.91141712491063" lon="10.782409462992474"><ele>18.0</ele><time>2026-04-26T15:14:19.001Z</time></trkpt><trkpt lat="44.9113758972856" lon="10.78251956069059"><ele>18.0</ele><time>2026-04-26T15:14:20.001Z</time></trkpt><trkpt lat="44.91133780817318" lon="10.782636687011783"><ele>18.0</ele><time>2026-04-26T15:14:21.001Z</time></trkpt><trkpt lat="44.91129885790314" lon="10.782766835100063"><ele>17.8</ele><time>2026-04-26T15:14:22.001Z</time></trkpt><trkpt lat="44.91125588370307" lon="10.782896719021613"><ele>17.6</ele><time>2026-04-26T15:14:23.001Z</time></trkpt><trkpt lat="44.911211812380955" lon="10.783034295826408"><ele>17.4</ele><time>2026-04-26T15:14:24.001Z</time></trkpt><trkpt lat="44.91116238650061" lon="10.783186696282527"><ele>17.2</ele><time>2026-04-26T15:14:25.001Z</time></trkpt><trkpt lat="44.911114620446654" lon="10.783339351873362"><ele>17.0</ele><time>2026-04-26T15:14:26.001Z</time></trkpt><trkpt lat="44.91106492146363" lon="10.783492428277457"><ele>17.0</ele><time>2026-04-26T15:14:27.001Z</time></trkpt><trkpt lat="44.911018465947485" lon="10.783650522693614"><ele>17.0</ele><time>2026-04-26T15:14:28Z</time></trkpt><trkpt lat="44.910973994790965" lon="10.783809025301458"><ele>17.0</ele><time>2026-04-26T15:14:29Z</time></trkpt><trkpt lat="44.910929504585624" lon="10.783966664649958"><ele>17.0</ele><time>2026-04-26T15:14:30Z</time></trkpt><trkpt lat="44.910884625883675" lon="10.78412012479306"><ele>16.75</ele><time>2026-04-26T15:14:31Z</time></trkpt><trkpt lat="44.91084188807392" lon="10.784274038662533"><ele>16.5</ele><time>2026-04-26T15:14:32Z</time></trkpt><trkpt lat="44.910797932154146" lon="10.784423793267441"><ele>16.25</ele><time>2026-04-26T15:14:33Z</time></trkpt><trkpt lat="44.91075376242189" lon="10.784576594172218"><ele>16.0</ele><time>2026-04-26T15:14:34Z</time></trkpt><trkpt lat="44.910709132520495" lon="10.784729737683149"><ele>15.75</ele><time>2026-04-26T15:14:35Z</time></trkpt><trkpt lat="44.91066319876519" lon="10.784882014268806"><ele>15.5</ele><time>2026-04-26T15:14:36Z</time></trkpt><trkpt lat="44.910616261386004" lon="10.785031825843722"><ele>15.25</ele><time>2026-04-26T15:14:37Z</time></trkpt><trkpt lat="44.91057115048474" lon="10.785181571909789"><ele>15.0</ele><time>2026-04-26T15:14:38Z</time></trkpt><trkpt lat="44.91052831677673" lon="10.785320823738617"><ele>15.0</ele><time>2026-04-26T15:14:39Z</time></trkpt><trkpt lat="44.91048132617849" lon="10.785450412183259"><ele>15.0</ele><time>2026-04-26T15:14:40Z</time></trkpt><trkpt lat="44.910434096783376" lon="10.78555773861052"><ele>15.0</ele><time>2026-04-26T15:14:41Z</time></trkpt><trkpt lat="44.9103992948457" lon="10.785647486978213"><ele>15.0</ele><time>2026-04-26T15:14:42Z</time></trkpt><trkpt lat="44.91040182605751" lon="10.78578805344404"><ele>15.0</ele><time>2026-04-26T15:14:44Z</time></trkpt><trkpt lat="44.91051638776222" lon="10.785884054759775"><ele>15.0</ele><time>2026-04-26T15:14:46Z</time></trkpt><trkpt lat="44.91059513175837" lon="10.785926991932353"><ele>15.0</ele><time>2026-04-26T15:14:47Z</time></trkpt><trkpt lat="44.910672019314006" lon="10.785963045797452"><ele>15.0</ele><time>2026-04-26T15:14:48Z</time></trkpt><trkpt lat="44.91075004908768" lon="10.786003555234153"><ele>15.0</ele><time>2026-04-26T15:14:49Z</time></trkpt><trkpt lat="44.91081175491542" lon="10.78606485838163"><ele>15.0</ele><time>2026-04-26T15:14:50Z</time></trkpt><trkpt lat="44.91087069732572" lon="10.786102273453041"><ele>15.0</ele><time>2026-04-26T15:14:51Z</time></trkpt><trkpt lat="44.91093661896956" lon="10.786122723851625"><ele>15.333333333333334</ele><time>2026-04-26T15:14:52Z</time></trkpt><trkpt lat="44.91104010570374" lon="10.786195801190052"><ele>15.666666666666668</ele><time>2026-04-26T15:14:54Z</time></trkpt><trkpt lat="44.91114624537904" lon="10.786289920497081"><ele>16.0</ele><time>2026-04-26T15:14:56Z</time></trkpt><trkpt lat="44.91120394397821" lon="10.786330423922442"><ele>16.333333333333336</ele><time>2026-04-26T15:14:57Z</time></trkpt><trkpt lat="44.911261241024114" lon="10.78637064542031"><ele>16.666666666666668</ele><time>2026-04-26T15:14:58Z</time></trkpt><trkpt lat="44.911323428121214" lon="10.786388733558931"><ele>17.0</ele><time>2026-04-26T15:14:59Z</time></trkpt><trkpt lat="44.91138119457918" lon="10.786428210192554"><ele>16.999999999999996</ele><time>2026-04-26T15:15:00Z</time></trkpt><trkpt lat="44.911439446118905" lon="10.78647267817211"><ele>17.0</ele><time>2026-04-26T15:15:01Z</time></trkpt><trkpt lat="44.91150225970796" lon="10.786517380306915"><ele>17.0</ele><time>2026-04-26T15:15:02Z</time></trkpt><trkpt lat="44.9115705684208" lon="10.786566488228422"><ele>17.0</ele><time>2026-04-26T15:15:03Z</time></trkpt><trkpt lat="44.91163558334617" lon="10.786605979253817"><ele>17.0</ele><time>2026-04-26T15:15:04Z</time></trkpt><trkpt lat="44.91169430438298" lon="10.786651653921998"><ele>16.999999999999996</ele><time>2026-04-26T15:15:05Z</time></trkpt><trkpt lat="44.91173754332394" lon="10.786717971949214"><ele>17.0</ele><time>2026-04-26T15:15:06Z</time></trkpt><trkpt lat="44.911755937347465" lon="10.78680837197756"><ele>17.0</ele><time>2026-04-26T15:15:07Z</time></trkpt><trkpt lat="44.91173787370391" lon="10.786966427568437"><ele>17.0</ele><time>2026-04-26T15:15:09Z</time></trkpt><trkpt lat="44.9116845120555" lon="10.787087090870298"><ele>17.0</ele><time>2026-04-26T15:15:11Z</time></trkpt><trkpt lat="44.91162909772616" lon="10.787220487440296"><ele>17.0</ele><time>2026-04-26T15:15:13Z</time></trkpt><trkpt lat="44.91160273399443" lon="10.78733473637167"><ele>17.0</ele><time>2026-04-26T15:15:15Z</time></trkpt><trkpt lat="44.91165379065198" lon="10.787424541318334"><ele>16.8</ele><time>2026-04-26T15:15:17Z</time></trkpt><trkpt lat="44.91175382583663" lon="10.787454173225225"><ele>16.6</ele><time>2026-04-26T15:15:19Z</time></trkpt><trkpt lat="44.911869899914315" lon="10.78753652282531"><ele>16.400000000000002</ele><time>2026-04-26T15:15:21Z</time></trkpt><trkpt lat="44.911950973111686" lon="10.78756095388161"><ele>16.2</ele><time>2026-04-26T15:15:22Z</time></trkpt><trkpt lat="44.91202055280516" lon="10.787615897031465"><ele>16.0</ele><time>2026-04-26T15:15:23Z</time></trkpt><trkpt lat="44.912084850727126" lon="10.787666047035936"><ele>15.666666666666666</ele><time>2026-04-26T15:15:24Z</time></trkpt><trkpt lat="44.91216179878869" lon="10.787712828958094"><ele>15.333333333333332</ele><time>2026-04-26T15:15:25Z</time></trkpt><trkpt lat="44.912230166699935" lon="10.787754467790693"><ele>15.0</ele><time>2026-04-26T15:15:26Z</time></trkpt><trkpt lat="44.91230054388174" lon="10.787802300589101"><ele>14.666666666666668</ele><time>2026-04-26T15:15:27Z</time></trkpt><trkpt lat="44.91236653576023" lon="10.787855372365865"><ele>14.333333333333334</ele><time>2026-04-26T15:15:28Z</time></trkpt><trkpt lat="44.912438118471876" lon="10.78790676481513"><ele>14.0</ele><time>2026-04-26T15:15:29Z</time></trkpt><trkpt lat="44.912512596968924" lon="10.787954270951582"><ele>14.166666666666668</ele><time>2026-04-26T15:15:30Z</time></trkpt><trkpt lat="44.912585279964034" lon="10.788003492721206"><ele>14.333333333333334</ele><time>2026-04-26T15:15:31Z</time></trkpt><trkpt lat="44.91265961879122" lon="10.78804795371903"><ele>14.5</ele><time>2026-04-26T15:15:32Z</time></trkpt><trkpt lat="44.91273266113877" lon="10.7881081773899"><ele>14.666666666666668</ele><time>2026-04-26T15:15:33Z</time></trkpt><trkpt lat="44.91281324060716" lon="10.788165683214377"><ele>14.833333333333334</ele><time>2026-04-26T15:15:34Z</time></trkpt><trkpt lat="44.912892550981624" lon="10.788214437331236"><ele>15.0</ele><time>2026-04-26T15:15:35Z</time></trkpt><trkpt lat="44.912975267131785" lon="10.788264857915452"><ele>15.0</ele><time>2026-04-26T15:15:36Z</time></trkpt><trkpt lat="44.91305690629102" lon="10.788321857070999"><ele>15.0</ele><time>2026-04-26T15:15:37Z</time></trkpt><trkpt lat="44.91314407552204" lon="10.788388687480573"><ele>15.0</ele><time>2026-04-26T15:15:38Z</time></trkpt><trkpt lat="44.91323880805124" lon="10.788455045972098"><ele>15.0</ele><time>2026-04-26T15:15:39Z</time></trkpt><trkpt lat="44.9133493855724" lon="10.788527678955681"><ele>15.0</ele><time>2026-04-26T15:15:40Z</time></trkpt><trkpt lat="44.91346660867129" lon="10.788608126663595"><ele>15.25</ele><time>2026-04-26T15:15:41Z</time></trkpt><trkpt lat="44.91358918396283" lon="10.788689554169952"><ele>15.5</ele><time>2026-04-26T15:15:42Z</time></trkpt><trkpt lat="44.91371143537537" lon="10.788777845136188"><ele>15.75</ele><time>2026-04-26T15:15:43Z</time></trkpt><trkpt lat="44.913838161709066" lon="10.78886138029882"><ele>16.0</ele><time>2026-04-26T15:15:44Z</time></trkpt><trkpt lat="44.91396551001957" lon="10.788950117723328"><ele>16.0</ele><time>2026-04-26T15:15:45Z</time></trkpt><trkpt lat="44.91409671817292" lon="10.7890367249932"><ele>16.0</ele><time>2026-04-26T15:15:46Z</time></trkpt><trkpt lat="44.91422549949324" lon="10.7891256178318"><ele>16.0</ele><time>2026-04-26T15:15:47Z</time></trkpt><trkpt lat="44.914353644253055" lon="10.78921576242422"><ele>16.0</ele><time>2026-04-26T15:15:48Z</time></trkpt><trkpt lat="44.914482438375536" lon="10.789303665785617"><ele>16.25</ele><time>2026-04-26T15:15:49Z</time></trkpt><trkpt lat="44.91461152438671" lon="10.789391254181876"><ele>16.5</ele><time>2026-04-26T15:15:50Z</time></trkpt><trkpt lat="44.914746925578356" lon="10.789480831995188"><ele>16.75</ele><time>2026-04-26T15:15:51Z</time></trkpt><trkpt lat="44.91485995778296" lon="10.789549956158226"><ele>17.0</ele><time>2026-04-26T15:15:51.999Z</time></trkpt><trkpt lat="44.914949983711885" lon="10.789637622621164"><ele>17.0</ele><time>2026-04-26T15:15:52.999Z</time></trkpt><trkpt lat="44.91503195654738" lon="10.789694083021415"><ele>17.0</ele><time>2026-04-26T15:15:53.999Z</time></trkpt><trkpt lat="44.91510675763981" lon="10.789745603736286"><ele>17.0</ele><time>2026-04-26T15:15:54.999Z</time></trkpt><trkpt lat="44.91517485600757" lon="10.7897925078608"><ele>17.0</ele><time>2026-04-26T15:15:55.999Z</time></trkpt><trkpt lat="44.91524104053417" lon="10.789838464502422"><ele>17.0</ele><time>2026-04-26T15:15:56.999Z</time></trkpt><trkpt lat="44.915304968586426" lon="10.7898831150866"><ele>17.0</ele><time>2026-04-26T15:15:57.999Z</time></trkpt><trkpt lat="44.91537768588661" lon="10.78993390450344"><ele>17.0</ele><time>2026-04-26T15:15:58.999Z</time></trkpt><trkpt lat="44.9154600605186" lon="10.789991362759716"><ele>17.0</ele><time>2026-04-26T15:15:59.999Z</time></trkpt><trkpt lat="44.91555006331404" lon="10.790052999769868"><ele>17.0</ele><time>2026-04-26T15:16:00.999Z</time></trkpt><trkpt lat="44.91564540615929" lon="10.790118293728913"><ele>17.0</ele><time>2026-04-26T15:16:01.999Z</time></trkpt><trkpt lat="44.915747442166435" lon="10.790172660399522"><ele>17.0</ele><time>2026-04-26T15:16:02.999Z</time></trkpt><trkpt lat="44.91585389884964" lon="10.790236943839453"><ele>16.75</ele><time>2026-04-26T15:16:03.999Z</time></trkpt><trkpt lat="44.9159550087757" lon="10.790313190058535"><ele>16.5</ele><time>2026-04-26T15:16:04.999Z</time></trkpt><trkpt lat="44.91606397737232" lon="10.79039563843426"><ele>16.25</ele><time>2026-04-26T15:16:05.999Z</time></trkpt><trkpt lat="44.9161724466048" lon="10.79047538978148"><ele>16.0</ele><time>2026-04-26T15:16:06.999Z</time></trkpt><trkpt lat="44.91628881015707" lon="10.790555131984545"><ele>16.0</ele><time>2026-04-26T15:16:07.999Z</time></trkpt><trkpt lat="44.916401237185774" lon="10.79063022666566"><ele>16.0</ele><time>2026-04-26T15:16:08.999Z</time></trkpt><trkpt lat="44.91651642203797" lon="10.790712187394929"><ele>16.0</ele><time>2026-04-26T15:16:09.999Z</time></trkpt><trkpt lat="44.916631440731365" lon="10.790791030686833"><ele>16.0</ele><time>2026-04-26T15:16:10.999Z</time></trkpt><trkpt lat="44.91674967640337" lon="10.79087184526675"><ele>16.0</ele><time>2026-04-26T15:16:11.998Z</time></trkpt><trkpt lat="44.91686322462433" lon="10.790951395318631"><ele>16.0</ele><time>2026-04-26T15:16:13Z</time></trkpt><trkpt lat="44.916978978077395" lon="10.791032628822528"><ele>16.0</ele><time>2026-04-26T15:16:14Z</time></trkpt><trkpt lat="44.91709180022026" lon="10.791112811249912"><ele>16.0</ele><time>2026-04-26T15:16:15Z</time></trkpt><trkpt lat="44.917204956811716" lon="10.791192060158304"><ele>16.5</ele><time>2026-04-26T15:16:16Z</time></trkpt><trkpt lat="44.91731938744503" lon="10.791272520935612"><ele>17.0</ele><time>2026-04-26T15:16:17Z</time></trkpt><trkpt lat="44.91743103425339" lon="10.791357612829858"><ele>17.5</ele><time>2026-04-26T15:16:18Z</time></trkpt><trkpt lat="44.91754039761148" lon="10.791435187570528"><ele>18.0</ele><time>2026-04-26T15:16:19Z</time></trkpt><trkpt lat="44.91764957548328" lon="10.79151641434823"><ele>18.4</ele><time>2026-04-26T15:16:20Z</time></trkpt><trkpt lat="44.9177541688354" lon="10.791592982891817"><ele>18.8</ele><time>2026-04-26T15:16:21Z</time></trkpt><trkpt lat="44.917860282209595" lon="10.791668711512424"><ele>19.2</ele><time>2026-04-26T15:16:22Z</time></trkpt><trkpt lat="44.91795670865486" lon="10.791740489159666"><ele>19.6</ele><time>2026-04-26T15:16:23Z</time></trkpt><trkpt lat="44.91804361617718" lon="10.791796523799135"><ele>20.0</ele><time>2026-04-26T15:16:24Z</time></trkpt><trkpt lat="44.91811852614688" lon="10.79185387154638"><ele>20.2</ele><time>2026-04-26T15:16:25Z</time></trkpt><trkpt lat="44.91822074359305" lon="10.791931177425546"><ele>20.4</ele><time>2026-04-26T15:16:27Z</time></trkpt><trkpt lat="44.918276281089945" lon="10.791991163962303"><ele>20.6</ele><time>2026-04-26T15:16:29Z</time></trkpt><trkpt lat="44.918346917587385" lon="10.792023059617943"><ele>20.8</ele><time>2026-04-26T15:16:31Z</time></trkpt><trkpt lat="44.91846892469911" lon="10.792051710149945"><ele>21.0</ele><time>2026-04-26T15:16:33Z</time></trkpt><trkpt lat="44.918551240537354" lon="10.79201528346523"><ele>21.0</ele><time>2026-04-26T15:16:34Z</time></trkpt><trkpt lat="44.91863258659915" lon="10.792069385105684"><ele>21.0</ele><time>2026-04-26T15:16:35Z</time></trkpt><trkpt lat="44.918711923150575" lon="10.79212397364315"><ele>21.0</ele><time>2026-04-26T15:16:36Z</time></trkpt><trkpt lat="44.91878045558614" lon="10.792185354985419"><ele>21.0</ele><time>2026-04-26T15:16:37Z</time></trkpt><trkpt lat="44.91883533864626" lon="10.792239391494583"><ele>21.0</ele><time>2026-04-26T15:16:38Z</time></trkpt><trkpt lat="44.91888918338745" lon="10.792306877062336"><ele>21.0</ele><time>2026-04-26T15:16:40Z</time></trkpt><trkpt lat="44.91889356704499" lon="10.792398231368965"><ele>21.0</ele><time>2026-04-26T15:16:43Z</time></trkpt><trkpt lat="44.91886999463736" lon="10.79249300685833"><ele>21.0</ele><time>2026-04-26T15:16:46Z</time></trkpt><trkpt lat="44.918845411829956" lon="10.792595369511583"><ele>21.0</ele><time>2026-04-26T15:16:50Z</time></trkpt><trkpt lat="44.9188360107896" lon="10.792687769754298"><ele>21.0</ele><time>2026-04-26T15:16:51.999Z</time></trkpt><trkpt lat="44.918824358596964" lon="10.792776088008639"><ele>21.0</ele><time>2026-04-26T15:16:52.999Z</time></trkpt><trkpt lat="44.91880481711035" lon="10.792879447407783"><ele>21.0</ele><time>2026-04-26T15:16:53.999Z</time></trkpt><trkpt lat="44.918780800566054" lon="10.79299706081674"><ele>21.0</ele><time>2026-04-26T15:16:54.999Z</time></trkpt><trkpt lat="44.91876149344506" lon="10.793112866705775"><ele>21.0</ele><time>2026-04-26T15:16:55.999Z</time></trkpt><trkpt lat="44.918744985776975" lon="10.793238225798039"><ele>21.0</ele><time>2026-04-26T15:16:56.999Z</time></trkpt><trkpt lat="44.91872301133663" lon="10.793370636733451"><ele>21.0</ele><time>2026-04-26T15:16:57.999Z</time></trkpt><trkpt lat="44.91869648237811" lon="10.793516424287793"><ele>21.0</ele><time>2026-04-26T15:16:58.999Z</time></trkpt><trkpt lat="44.91867164342364" lon="10.793658983270719"><ele>21.0</ele><time>2026-04-26T15:16:59.999Z</time></trkpt><trkpt lat="44.91864515215054" lon="10.79380461780087"><ele>20.8</ele><time>2026-04-26T15:17:00.999Z</time></trkpt><trkpt lat="44.91861973591607" lon="10.793954012247433"><ele>20.6</ele><time>2026-04-26T15:17:01.999Z</time></trkpt><trkpt lat="44.91858820690631" lon="10.794104504782288"><ele>20.4</ele><time>2026-04-26T15:17:02.999Z</time></trkpt><trkpt lat="44.91855603606407" lon="10.794254216425"><ele>20.2</ele><time>2026-04-26T15:17:03.999Z</time></trkpt><trkpt lat="44.918525050713875" lon="10.794409551645625"><ele>20.0</ele><time>2026-04-26T15:17:04.999Z</time></trkpt><trkpt lat="44.91849068799624" lon="10.794567825715172"><ele>19.75</ele><time>2026-04-26T15:17:05.999Z</time></trkpt><trkpt lat="44.918455686943766" lon="10.79472330034532"><ele>19.5</ele><time>2026-04-26T15:17:06.999Z</time></trkpt><trkpt lat="44.91841448219477" lon="10.794869209110336"><ele>19.25</ele><time>2026-04-26T15:17:07.999Z</time></trkpt><trkpt lat="44.91836922746456" lon="10.795015219569892"><ele>19.0</ele><time>2026-04-26T15:17:08.999Z</time></trkpt><trkpt lat="44.91832231217538" lon="10.795156505146112"><ele>19.0</ele><time>2026-04-26T15:17:09.999Z</time></trkpt><trkpt lat="44.9182746456995" lon="10.795300087596223"><ele>19.0</ele><time>2026-04-26T15:17:10.999Z</time></trkpt><trkpt lat="44.91823228605305" lon="10.79544318669323"><ele>19.0</ele><time>2026-04-26T15:17:11.999Z</time></trkpt><trkpt lat="44.9181909004147" lon="10.795587239658014"><ele>19.0</ele><time>2026-04-26T15:17:12.999Z</time></trkpt><trkpt lat="44.918152901582296" lon="10.795729143442964"><ele>19.0</ele><time>2026-04-26T15:17:13.999Z</time></trkpt><trkpt lat="44.9181184386314" lon="10.795860325006787"><ele>19.0</ele><time>2026-04-26T15:17:14.999Z</time></trkpt><trkpt lat="44.918088152846025" lon="10.795975432923903"><ele>19.0</ele><time>2026-04-26T15:17:15.999Z</time></trkpt><trkpt lat="44.91806052428977" lon="10.796088784754"><ele>19.0</ele><time>2026-04-26T15:17:16.999Z</time></trkpt><trkpt lat="44.91803140802187" lon="10.796188324926066"><ele>19.0</ele><time>2026-04-26T15:17:17.999Z</time></trkpt><trkpt lat="44.91800589392313" lon="10.79629702568418"><ele>19.0</ele><time>2026-04-26T15:17:18.999Z</time></trkpt><trkpt lat="44.91798675879415" lon="10.79642102547719"><ele>19.0</ele><time>2026-04-26T15:17:19.999Z</time></trkpt><trkpt lat="44.91797602354556" lon="10.796546119133671"><ele>19.0</ele><time>2026-04-26T15:17:20.999Z</time></trkpt><trkpt lat="44.917968179352904" lon="10.796682147286461"><ele>19.0</ele><time>2026-04-26T15:17:21.999Z</time></trkpt><trkpt lat="44.91797361012921" lon="10.796816771823966"><ele>19.0</ele><time>2026-04-26T15:17:22.999Z</time></trkpt><trkpt lat="44.917991931595516" lon="10.79695720737578"><ele>19.0</ele><time>2026-04-26T15:17:23.999Z</time></trkpt><trkpt lat="44.91801978942485" lon="10.797095158940538"><ele>19.0</ele><time>2026-04-26T15:17:24.999Z</time></trkpt><trkpt lat="44.91804997290716" lon="10.79723278013351"><ele>19.2</ele><time>2026-04-26T15:17:25.999Z</time></trkpt><trkpt lat="44.918064746151074" lon="10.79737453186607"><ele>19.4</ele><time>2026-04-26T15:17:26.999Z</time></trkpt><trkpt lat="44.91805354944068" lon="10.797513539202292"><ele>19.6</ele><time>2026-04-26T15:17:27.999Z</time></trkpt><trkpt lat="44.91803489542132" lon="10.797654471470137"><ele>19.8</ele><time>2026-04-26T15:17:28.999Z</time></trkpt><trkpt lat="44.91800613548963" lon="10.797786433820677"><ele>20.0</ele><time>2026-04-26T15:17:29.999Z</time></trkpt><trkpt lat="44.91797078020612" lon="10.797908844101562"><ele>20.166666666666668</ele><time>2026-04-26T15:17:30.999Z</time></trkpt><trkpt lat="44.917943470887714" lon="10.798011181141717"><ele>20.333333333333336</ele><time>2026-04-26T15:17:31.999Z</time></trkpt><trkpt lat="44.91792052339018" lon="10.798100000109958"><ele>20.5</ele><time>2026-04-26T15:17:32.999Z</time></trkpt><trkpt lat="44.917871011580544" lon="10.798222529295542"><ele>20.666666666666668</ele><time>2026-04-26T15:17:34.999Z</time></trkpt><trkpt lat="44.91778142603382" lon="10.798239327918859"><ele>20.833333333333332</ele><time>2026-04-26T15:17:35.999Z</time></trkpt><trkpt lat="44.91773208410013" lon="10.798300863301762"><ele>21.0</ele><time>2026-04-26T15:17:36.999Z</time></trkpt><trkpt lat="44.917722052375055" lon="10.798394914886574"><ele>21.0</ele><time>2026-04-26T15:17:37.999Z</time></trkpt><trkpt lat="44.91774737469672" lon="10.798478211579948"><ele>21.0</ele><time>2026-04-26T15:17:38.999Z</time></trkpt><trkpt lat="44.91780275888488" lon="10.798527843420828"><ele>21.0</ele><time>2026-04-26T15:17:39.999Z</time></trkpt><trkpt lat="44.917877786734394" lon="10.7985300410714"><ele>21.0</ele><time>2026-04-26T15:17:40.999Z</time></trkpt><trkpt lat="44.91796817259225" lon="10.798511524286784"><ele>21.0</ele><time>2026-04-26T15:17:41.999Z</time></trkpt><trkpt lat="44.91806409468752" lon="10.798516723418944"><ele>21.0</ele><time>2026-04-26T15:17:42.999Z</time></trkpt><trkpt lat="44.91816248066644" lon="10.798553330173066"><ele>21.0</ele><time>2026-04-26T15:17:43.999Z</time></trkpt><trkpt lat="44.91825995856281" lon="10.79860172928977"><ele>21.0</ele><time>2026-04-26T15:17:44.999Z</time></trkpt><trkpt lat="44.918355541248616" lon="10.798649585970661"><ele>21.0</ele><time>2026-04-26T15:17:45.999Z</time></trkpt><trkpt lat="44.91845817973579" lon="10.798696305059588"><ele>21.0</ele><time>2026-04-26T15:17:46.999Z</time></trkpt><trkpt lat="44.91856483111166" lon="10.7987454545694"><ele>21.0</ele><time>2026-04-26T15:17:47.999Z</time></trkpt><trkpt lat="44.91866412963457" lon="10.798793382293304"><ele>20.833333333333332</ele><time>2026-04-26T15:17:48.999Z</time></trkpt><trkpt lat="44.91875206329853" lon="10.798835196689177"><ele>20.666666666666668</ele><time>2026-04-26T15:17:49.999Z</time></trkpt><trkpt lat="44.91883067977354" lon="10.798876344204626"><ele>20.5</ele><time>2026-04-26T15:17:50.999Z</time></trkpt><trkpt lat="44.91890966166006" lon="10.798919218549617"><ele>20.333333333333336</ele><time>2026-04-26T15:17:51.999Z</time></trkpt><trkpt lat="44.91898797508934" lon="10.798970835180272"><ele>20.166666666666668</ele><time>2026-04-26T15:17:52.999Z</time></trkpt><trkpt lat="44.91905860464851" lon="10.79905284291355"><ele>20.0</ele><time>2026-04-26T15:17:53.999Z</time></trkpt><trkpt lat="44.919107156810234" lon="10.799157292879396"><ele>20.0</ele><time>2026-04-26T15:17:54.999Z</time></trkpt><trkpt lat="44.919150140801705" lon="10.799243148831057"><ele>20.0</ele><time>2026-04-26T15:17:55.999Z</time></trkpt><trkpt lat="44.91921901100153" lon="10.799277587179246"><ele>20.0</ele><time>2026-04-26T15:17:56.999Z</time></trkpt><trkpt lat="44.919294898867555" lon="10.799247733832301"><ele>20.0</ele><time>2026-04-26T15:17:57.999Z</time></trkpt><trkpt lat="44.91935799842377" lon="10.799200069817767"><ele>20.0</ele><time>2026-04-26T15:17:58.999Z</time></trkpt><trkpt lat="44.9193540602768" lon="10.798959403897706"><ele>19.6</ele><time>2026-04-26T15:18:00.999Z</time></trkpt><trkpt lat="44.919328264025715" lon="10.798833259135568"><ele>19.2</ele><time>2026-04-26T15:18:01.999Z</time></trkpt><trkpt lat="44.91932371468104" lon="10.798688457250348"><ele>18.8</ele><time>2026-04-26T15:18:02.999Z</time></trkpt><trkpt lat="44.91934726191751" lon="10.798537972154797"><ele>18.4</ele><time>2026-04-26T15:18:03.999Z</time></trkpt><trkpt lat="44.91938449835869" lon="10.798402983439473"><ele>18.0</ele><time>2026-04-26T15:18:04.999Z</time></trkpt><trkpt lat="44.91942592266813" lon="10.79826541040623"><ele>18.0</ele><time>2026-04-26T15:18:05.999Z</time></trkpt><trkpt lat="44.91946177025737" lon="10.798136253326508"><ele>18.0</ele><time>2026-04-26T15:18:06.999Z</time></trkpt><trkpt lat="44.9194980653825" lon="10.79800437920383"><ele>18.0</ele><time>2026-04-26T15:18:07.999Z</time></trkpt><trkpt lat="44.91953341720796" lon="10.797880051069374"><ele>18.0</ele><time>2026-04-26T15:18:08.999Z</time></trkpt><trkpt lat="44.919567753056945" lon="10.797761190218244"><ele>18.0</ele><time>2026-04-26T15:18:09.999Z</time></trkpt><trkpt lat="44.91962050146672" lon="10.797649073368888"><ele>18.0</ele><time>2026-04-26T15:18:10.999Z</time></trkpt><trkpt lat="44.91966023700051" lon="10.797529370957545"><ele>18.0</ele><time>2026-04-26T15:18:11.999Z</time></trkpt><trkpt lat="44.91970236190443" lon="10.79740755249198"><ele>18.0</ele><time>2026-04-26T15:18:12.999Z</time></trkpt><trkpt lat="44.9197454092895" lon="10.797283243205325"><ele>18.0</ele><time>2026-04-26T15:18:13.999Z</time></trkpt><trkpt lat="44.91978929333449" lon="10.797159110426927"><ele>18.0</ele><time>2026-04-26T15:18:14.999Z</time></trkpt><trkpt lat="44.91983592239363" lon="10.797031035414047"><ele>18.0</ele><time>2026-04-26T15:18:15.999Z</time></trkpt><trkpt lat="44.919881852598586" lon="10.796905723756408"><ele>18.0</ele><time>2026-04-26T15:18:16.999Z</time></trkpt><trkpt lat="44.91992149206149" lon="10.796763632402387"><ele>18.0</ele><time>2026-04-26T15:18:17.999Z</time></trkpt><trkpt lat="44.919975968685115" lon="10.796651752213979"><ele>18.0</ele><time>2026-04-26T15:18:19Z</time></trkpt><trkpt lat="44.920024821697545" lon="10.796522139896549"><ele>18.0</ele><time>2026-04-26T15:18:20Z</time></trkpt><trkpt lat="44.92007213386018" lon="10.796396794165089"><ele>18.0</ele><time>2026-04-26T15:18:21Z</time></trkpt><trkpt lat="44.92012052850494" lon="10.7962694597697"><ele>18.0</ele><time>2026-04-26T15:18:22Z</time></trkpt><trkpt lat="44.92015683507011" lon="10.796135995467186"><ele>18.0</ele><time>2026-04-26T15:18:23Z</time></trkpt><trkpt lat="44.92020692484928" lon="10.79601107754155"><ele>18.0</ele><time>2026-04-26T15:18:24Z</time></trkpt><trkpt lat="44.92025481217873" lon="10.79588423998627"><ele>18.0</ele><time>2026-04-26T15:18:25Z</time></trkpt><trkpt lat="44.92030346405126" lon="10.795758337938405"><ele>18.0</ele><time>2026-04-26T15:18:26Z</time></trkpt><trkpt lat="44.92034953099091" lon="10.795629022100062"><ele>18.0</ele><time>2026-04-26T15:18:27Z</time></trkpt><trkpt lat="44.92039839083645" lon="10.795501443236594"><ele>18.0</ele><time>2026-04-26T15:18:28Z</time></trkpt><trkpt lat="44.92044690649572" lon="10.795368467416006"><ele>18.0</ele><time>2026-04-26T15:18:29Z</time></trkpt><trkpt lat="44.92049438067882" lon="10.795242757733677"><ele>18.0</ele><time>2026-04-26T15:18:30Z</time></trkpt><trkpt lat="44.920541726536705" lon="10.795117706173327"><ele>17.75</ele><time>2026-04-26T15:18:31Z</time></trkpt><trkpt lat="44.920593765232034" lon="10.794986918170157"><ele>17.5</ele><time>2026-04-26T15:18:32Z</time></trkpt><trkpt lat="44.92064093526151" lon="10.794853141222198"><ele>17.25</ele><time>2026-04-26T15:18:33Z</time></trkpt><trkpt lat="44.92069380235082" lon="10.79470666134883"><ele>17.0</ele><time>2026-04-26T15:18:34Z</time></trkpt><trkpt lat="44.920740311928476" lon="10.794541082860494"><ele>17.0</ele><time>2026-04-26T15:18:35Z</time></trkpt><trkpt lat="44.92081674579881" lon="10.794311337642805"><ele>17.0</ele><time>2026-04-26T15:18:36Z</time></trkpt><trkpt lat="44.92087047924877" lon="10.794004645938761"><ele>17.0</ele><time>2026-04-26T15:18:37Z</time></trkpt><trkpt lat="44.920941791893334" lon="10.79367773661325"><ele>17.0</ele><time>2026-04-26T15:18:38Z</time></trkpt><trkpt lat="44.92097831981469" lon="10.793317590254595"><ele>17.0</ele><time>2026-04-26T15:18:39Z</time></trkpt><trkpt lat="44.921003298274144" lon="10.792935513591887"><ele>17.0</ele><time>2026-04-26T15:18:40Z</time></trkpt><trkpt lat="44.92101792789744" lon="10.792610524125477"><ele>17.0</ele><time>2026-04-26T15:18:41Z</time></trkpt><trkpt lat="44.92104845859962" lon="10.792330014849409"><ele>17.0</ele><time>2026-04-26T15:18:42Z</time></trkpt><trkpt lat="44.921064135662085" lon="10.792070671028013"><ele>17.0</ele><time>2026-04-26T15:18:43Z</time></trkpt><trkpt lat="44.921079678433976" lon="10.791827291857329"><ele>17.0</ele><time>2026-04-26T15:18:44Z</time></trkpt><trkpt lat="44.92109311638716" lon="10.791599592672274"><ele>17.0</ele><time>2026-04-26T15:18:45Z</time></trkpt><trkpt lat="44.921087684877435" lon="10.791376742201727"><ele>17.0</ele><time>2026-04-26T15:18:46Z</time></trkpt><trkpt lat="44.92109650371137" lon="10.791168872155593"><ele>17.0</ele><time>2026-04-26T15:18:47Z</time></trkpt><trkpt lat="44.92110627523409" lon="10.790977782480027"><ele>17.0</ele><time>2026-04-26T15:18:48Z</time></trkpt><trkpt lat="44.92111919397813" lon="10.790800803283451"><ele>17.0</ele><time>2026-04-26T15:18:49Z</time></trkpt><trkpt lat="44.921150574295616" lon="10.790636148553025"><ele>17.2</ele><time>2026-04-26T15:18:50Z</time></trkpt><trkpt lat="44.921159038833764" lon="10.790484115649578"><ele>17.4</ele><time>2026-04-26T15:18:51Z</time></trkpt><trkpt lat="44.92116790472658" lon="10.790335330582177"><ele>17.6</ele><time>2026-04-26T15:18:52Z</time></trkpt><trkpt lat="44.921176527265295" lon="10.790193219507769"><ele>17.8</ele><time>2026-04-26T15:18:53Z</time></trkpt><trkpt lat="44.921184450924095" lon="10.790059582923217"><ele>18.0</ele><time>2026-04-26T15:18:54Z</time></trkpt><trkpt lat="44.92119428723668" lon="10.789901994360976"><ele>18.25</ele><time>2026-04-26T15:18:55Z</time></trkpt><trkpt lat="44.92120233971969" lon="10.789723111969808"><ele>18.5</ele><time>2026-04-26T15:18:56Z</time></trkpt><trkpt lat="44.921204748064994" lon="10.789531673988446"><ele>18.75</ele><time>2026-04-26T15:18:57Z</time></trkpt><trkpt lat="44.92119922310314" lon="10.789330859081998"><ele>19.0</ele><time>2026-04-26T15:18:58Z</time></trkpt><trkpt lat="44.92118702238464" lon="10.789120759251785"><ele>19.0</ele><time>2026-04-26T15:18:59Z</time></trkpt><trkpt lat="44.921173499390264" lon="10.78890537016268"><ele>19.0</ele><time>2026-04-26T15:19:00Z</time></trkpt><trkpt lat="44.92115738303788" lon="10.78868394533774"><ele>19.0</ele><time>2026-04-26T15:19:01Z</time></trkpt><trkpt lat="44.9211392525204" lon="10.78846044478232"><ele>19.0</ele><time>2026-04-26T15:19:02Z</time></trkpt><trkpt lat="44.92112094263342" lon="10.788241414503212"><ele>19.0</ele><time>2026-04-26T15:19:03Z</time></trkpt><trkpt lat="44.921101982552614" lon="10.788014606374011"><ele>19.0</ele><time>2026-04-26T15:19:04Z</time></trkpt><trkpt lat="44.921082797232565" lon="10.787785103722195"><ele>18.333333333333332</ele><time>2026-04-26T15:19:05Z</time></trkpt><trkpt lat="44.92106391006165" lon="10.787559167713955"><ele>17.666666666666668</ele><time>2026-04-26T15:19:06Z</time></trkpt><trkpt lat="44.92104499645457" lon="10.787332915470722"><ele>17.0</ele><time>2026-04-26T15:19:07Z</time></trkpt><trkpt lat="44.92102596714286" lon="10.787101437761898"><ele>17.0</ele><time>2026-04-26T15:19:08Z</time></trkpt><trkpt lat="44.92100717191733" lon="10.786872135924023"><ele>17.0</ele><time>2026-04-26T15:19:08.999Z</time></trkpt><trkpt lat="44.92098884986448" lon="10.786648610715751"><ele>17.0</ele><time>2026-04-26T15:19:09.999Z</time></trkpt><trkpt lat="44.9209674591552" lon="10.786411376980357"><ele>17.0</ele><time>2026-04-26T15:19:10.999Z</time></trkpt><trkpt lat="44.920948413264526" lon="10.78616651896374"><ele>17.0</ele><time>2026-04-26T15:19:11.999Z</time></trkpt><trkpt lat="44.92092967008846" lon="10.785914512696015"><ele>17.0</ele><time>2026-04-26T15:19:12.999Z</time></trkpt><trkpt lat="44.9209120288783" lon="10.78566024007316"><ele>17.0</ele><time>2026-04-26T15:19:13.999Z</time></trkpt><trkpt lat="44.92089693742775" lon="10.785410886737067"><ele>17.0</ele><time>2026-04-26T15:19:14.999Z</time></trkpt><trkpt lat="44.920885596042154" lon="10.785158459805828"><ele>17.0</ele><time>2026-04-26T15:19:15.999Z</time></trkpt><trkpt lat="44.92087794826445" lon="10.784907780816237"><ele>17.333333333333336</ele><time>2026-04-26T15:19:16.999Z</time></trkpt><trkpt lat="44.92087620751783" lon="10.784647069606669"><ele>17.666666666666668</ele><time>2026-04-26T15:19:17.999Z</time></trkpt><trkpt lat="44.92087536319295" lon="10.784393078778958"><ele>18.0</ele><time>2026-04-26T15:19:18.999Z</time></trkpt><trkpt lat="44.92087454251148" lon="10.784146200122223"><ele>18.0</ele><time>2026-04-26T15:19:19.999Z</time></trkpt><trkpt lat="44.92087210162071" lon="10.783893500664403"><ele>18.0</ele><time>2026-04-26T15:19:20.999Z</time></trkpt><trkpt lat="44.9208693493143" lon="10.78364277964193"><ele>18.0</ele><time>2026-04-26T15:19:21.999Z</time></trkpt><trkpt lat="44.920867472333704" lon="10.78338637427556"><ele>18.0</ele><time>2026-04-26T15:19:22.999Z</time></trkpt><trkpt lat="44.92086654707722" lon="10.783128587172305"><ele>18.0</ele><time>2026-04-26T15:19:23.999Z</time></trkpt><trkpt lat="44.9208645167142" lon="10.782871617245839"><ele>18.0</ele><time>2026-04-26T15:19:24.999Z</time></trkpt><trkpt lat="44.92086206273901" lon="10.78261433741778"><ele>18.0</ele><time>2026-04-26T15:19:25.999Z</time></trkpt><trkpt lat="44.92086299830948" lon="10.782359827411923"><ele>18.0</ele><time>2026-04-26T15:19:26.999Z</time></trkpt><trkpt lat="44.92086725168137" lon="10.782100866046237"><ele>18.0</ele><time>2026-04-26T15:19:27.999Z</time></trkpt><trkpt lat="44.920875702917684" lon="10.781844868362443"><ele>18.0</ele><time>2026-04-26T15:19:28.999Z</time></trkpt><trkpt lat="44.92089102671992" lon="10.781594461702486"><ele>18.0</ele><time>2026-04-26T15:19:29.999Z</time></trkpt><trkpt lat="44.920913045777944" lon="10.781339630238142"><ele>18.0</ele><time>2026-04-26T15:19:30.999Z</time></trkpt><trkpt lat="44.92094029679756" lon="10.781078701136881"><ele>18.333333333333332</ele><time>2026-04-26T15:19:31.999Z</time></trkpt><trkpt lat="44.92096624083528" lon="10.780830286319645"><ele>18.666666666666664</ele><time>2026-04-26T15:19:32.999Z</time></trkpt><trkpt lat="44.92099256952338" lon="10.780578188554236"><ele>19.0</ele><time>2026-04-26T15:19:33.999Z</time></trkpt><trkpt lat="44.92101984879142" lon="10.780316987156663"><ele>19.0</ele><time>2026-04-26T15:19:34.999Z</time></trkpt><trkpt lat="44.92104758469522" lon="10.780067627665897"><ele>19.0</ele><time>2026-04-26T15:19:35.999Z</time></trkpt><trkpt lat="44.92107454159727" lon="10.779817512659278"><ele>19.0</ele><time>2026-04-26T15:19:36.999Z</time></trkpt><trkpt lat="44.92110141090392" lon="10.779571750542194"><ele>19.0</ele><time>2026-04-26T15:19:37.999Z</time></trkpt><trkpt lat="44.921128346083655" lon="10.779327561818471"><ele>19.0</ele><time>2026-04-26T15:19:38.999Z</time></trkpt><trkpt lat="44.92115554672203" lon="10.779080966569117"><ele>19.0</ele><time>2026-04-26T15:19:39.999Z</time></trkpt><trkpt lat="44.92118259155027" lon="10.778834278769805"><ele>19.0</ele><time>2026-04-26T15:19:40.999Z</time></trkpt><trkpt lat="44.92121082655544" lon="10.778575321687486"><ele>19.0</ele><time>2026-04-26T15:19:41.999Z</time></trkpt><trkpt lat="44.9212375745881" lon="10.77831698008466"><ele>19.0</ele><time>2026-04-26T15:19:42.999Z</time></trkpt><trkpt lat="44.921263306731056" lon="10.778064874025233"><ele>19.0</ele><time>2026-04-26T15:19:43.999Z</time></trkpt><trkpt lat="44.92128808029441" lon="10.777804594683785"><ele>19.0</ele><time>2026-04-26T15:19:44.999Z</time></trkpt><trkpt lat="44.92131172008969" lon="10.777547370872146"><ele>19.0</ele><time>2026-04-26T15:19:45.999Z</time></trkpt><trkpt lat="44.921332313126385" lon="10.777295933294269"><ele>19.0</ele><time>2026-04-26T15:19:46.999Z</time></trkpt><trkpt lat="44.92133413846988" lon="10.777036291655197"><ele>19.0</ele><time>2026-04-26T15:19:47.999Z</time></trkpt><trkpt lat="44.921367044975256" lon="10.776779917553082"><ele>19.0</ele><time>2026-04-26T15:19:48.999Z</time></trkpt><trkpt lat="44.921382640312004" lon="10.776522878559627"><ele>19.333333333333332</ele><time>2026-04-26T15:19:49.999Z</time></trkpt><trkpt lat="44.9213962753865" lon="10.776277295993108"><ele>19.666666666666668</ele><time>2026-04-26T15:19:50.999Z</time></trkpt><trkpt lat="44.92141010623908" lon="10.776020518780706"><ele>20.0</ele><time>2026-04-26T15:19:51.999Z</time></trkpt><trkpt lat="44.92142412703627" lon="10.775760628387218"><ele>20.0</ele><time>2026-04-26T15:19:52.999Z</time></trkpt><trkpt lat="44.92143759183236" lon="10.77551104420831"><ele>20.0</ele><time>2026-04-26T15:19:53.999Z</time></trkpt><trkpt lat="44.921451072189875" lon="10.775261169348573"><ele>20.0</ele><time>2026-04-26T15:19:54.999Z</time></trkpt><trkpt lat="44.921464223754015" lon="10.775012667114122"><ele>20.0</ele><time>2026-04-26T15:19:55.999Z</time></trkpt><trkpt lat="44.92147747427154" lon="10.774756592016573"><ele>20.0</ele><time>2026-04-26T15:19:56.999Z</time></trkpt><trkpt lat="44.92149155222876" lon="10.77450843814803"><ele>20.0</ele><time>2026-04-26T15:19:57.999Z</time></trkpt><trkpt lat="44.92150640675006" lon="10.774258151733902"><ele>20.0</ele><time>2026-04-26T15:19:58.999Z</time></trkpt><trkpt lat="44.92152146129088" lon="10.774004495108757"><ele>20.0</ele><time>2026-04-26T15:19:59.999Z</time></trkpt><trkpt lat="44.92153723585101" lon="10.773752774563539"><ele>20.0</ele><time>2026-04-26T15:20:00.999Z</time></trkpt><trkpt lat="44.9215552885839" lon="10.773499800397408"><ele>19.666666666666668</ele><time>2026-04-26T15:20:01.999Z</time></trkpt><trkpt lat="44.9215767940012" lon="10.77324776649406"><ele>19.333333333333332</ele><time>2026-04-26T15:20:02.999Z</time></trkpt><trkpt lat="44.92160091714265" lon="10.772996731180704"><ele>19.0</ele><time>2026-04-26T15:20:03.999Z</time></trkpt><trkpt lat="44.92162893395332" lon="10.772741038107135"><ele>19.0</ele><time>2026-04-26T15:20:04.999Z</time></trkpt><trkpt lat="44.92165827793553" lon="10.77248864715945"><ele>19.0</ele><time>2026-04-26T15:20:05.999Z</time></trkpt><trkpt lat="44.92168567944655" lon="10.772237061061277"><ele>19.0</ele><time>2026-04-26T15:20:06.999Z</time></trkpt><trkpt lat="44.921713166911225" lon="10.771981658292866"><ele>18.666666666666664</ele><time>2026-04-26T15:20:07.999Z</time></trkpt><trkpt lat="44.92174109516422" lon="10.771723826094133"><ele>18.333333333333332</ele><time>2026-04-26T15:20:08.999Z</time></trkpt><trkpt lat="44.92176924482887" lon="10.771468409323813"><ele>18.0</ele><time>2026-04-26T15:20:09.999Z</time></trkpt><trkpt lat="44.92179808736436" lon="10.771213618014423"><ele>18.666666666666668</ele><time>2026-04-26T15:20:10.999Z</time></trkpt><trkpt lat="44.92182787036693" lon="10.770951744286377"><ele>19.333333333333336</ele><time>2026-04-26T15:20:11.999Z</time></trkpt><trkpt lat="44.92185643237834" lon="10.770700467954951"><ele>20.0</ele><time>2026-04-26T15:20:12.999Z</time></trkpt><trkpt lat="44.92188403020722" lon="10.770446261913994"><ele>20.0</ele><time>2026-04-26T15:20:13.999Z</time></trkpt><trkpt lat="44.92191163564212" lon="10.770191368735276"><ele>20.0</ele><time>2026-04-26T15:20:14.999Z</time></trkpt><trkpt lat="44.92193846225277" lon="10.769943666835028"><ele>20.0</ele><time>2026-04-26T15:20:15.999Z</time></trkpt><trkpt lat="44.9219493743875" lon="10.769694108691933"><ele>20.0</ele><time>2026-04-26T15:20:16.999Z</time></trkpt><trkpt lat="44.921973888920476" lon="10.769466401586328"><ele>20.0</ele><time>2026-04-26T15:20:17.999Z</time></trkpt><trkpt lat="44.92201421644408" lon="10.769251360688353"><ele>20.0</ele><time>2026-04-26T15:20:18.999Z</time></trkpt><trkpt lat="44.92203632831408" lon="10.769049657712792"><ele>19.75</ele><time>2026-04-26T15:20:19.999Z</time></trkpt><trkpt lat="44.92205750566829" lon="10.768856479294024"><ele>19.5</ele><time>2026-04-26T15:20:20.999Z</time></trkpt><trkpt lat="44.922076782666245" lon="10.768680053880182"><ele>19.25</ele><time>2026-04-26T15:20:21.999Z</time></trkpt><trkpt lat="44.922093366127235" lon="10.768509540797764"><ele>19.0</ele><time>2026-04-26T15:20:22.999Z</time></trkpt><trkpt lat="44.92210812432306" lon="10.768353342365476"><ele>19.0</ele><time>2026-04-26T15:20:23.999Z</time></trkpt><trkpt lat="44.92211988978424" lon="10.768204896539402"><ele>19.0</ele><time>2026-04-26T15:20:25Z</time></trkpt><trkpt lat="44.9221298651668" lon="10.768071383296977"><ele>19.0</ele><time>2026-04-26T15:20:26Z</time></trkpt><trkpt lat="44.92213811508916" lon="10.767952989588284"><ele>19.0</ele><time>2026-04-26T15:20:27Z</time></trkpt><trkpt lat="44.92214539887724" lon="10.767842356438345"><ele>19.0</ele><time>2026-04-26T15:20:28Z</time></trkpt><trkpt lat="44.922151255867924" lon="10.767744115019864"><ele>19.0</ele><time>2026-04-26T15:20:29Z</time></trkpt><trkpt lat="44.92216116949986" lon="10.767577830186413"><ele>19.333333333333332</ele><time>2026-04-26T15:20:31Z</time></trkpt><trkpt lat="44.922168105742095" lon="10.767461486075563"><ele>19.666666666666664</ele><time>2026-04-26T15:20:33Z</time></trkpt><trkpt lat="44.9221733972006" lon="10.767372730525182"><ele>20.0</ele><time>2026-04-26T15:20:35Z</time></trkpt><trkpt lat="44.92216573920116" lon="10.76725201662532"><ele>20.333333333333332</ele><time>2026-04-26T15:20:38Z</time></trkpt><trkpt lat="44.922172628378014" lon="10.767158184078498"><ele>20.666666666666668</ele><time>2026-04-26T15:20:47Z</time></trkpt><trkpt lat="44.92218158358106" lon="10.766993589836044"><ele>21.0</ele><time>2026-04-26T15:20:49Z</time></trkpt><trkpt lat="44.92218949558183" lon="10.766868878756549"><ele>21.25</ele><time>2026-04-26T15:20:50Z</time></trkpt><trkpt lat="44.92219774854414" lon="10.766704829270694"><ele>21.5</ele><time>2026-04-26T15:20:51Z</time></trkpt><trkpt lat="44.92220874288042" lon="10.76650939275631"><ele>21.75</ele><time>2026-04-26T15:20:52Z</time></trkpt><trkpt lat="44.92221944207088" lon="10.766296674829857"><ele>22.0</ele><time>2026-04-26T15:20:53Z</time></trkpt><trkpt lat="44.922249205877165" lon="10.766068139600964"><ele>21.666666666666664</ele><time>2026-04-26T15:20:54Z</time></trkpt><trkpt lat="44.92226459857176" lon="10.765826090211842"><ele>21.333333333333332</ele><time>2026-04-26T15:20:55Z</time></trkpt><trkpt lat="44.92228109182414" lon="10.76558177162103"><ele>21.0</ele><time>2026-04-26T15:20:56Z</time></trkpt><trkpt lat="44.92229955540191" lon="10.765322652835472"><ele>20.666666666666668</ele><time>2026-04-26T15:20:57Z</time></trkpt><trkpt lat="44.922322089199675" lon="10.765054001257829"><ele>20.333333333333336</ele><time>2026-04-26T15:20:58Z</time></trkpt><trkpt lat="44.92234318121682" lon="10.7647893861926"><ele>20.0</ele><time>2026-04-26T15:20:59Z</time></trkpt><trkpt lat="44.92236467755731" lon="10.764511619653728"><ele>20.333333333333336</ele><time>2026-04-26T15:21:00Z</time></trkpt><trkpt lat="44.92238587284821" lon="10.764237742560804"><ele>20.666666666666668</ele><time>2026-04-26T15:21:01Z</time></trkpt><trkpt lat="44.92240519768847" lon="10.763963667806923"><ele>21.0</ele><time>2026-04-26T15:21:02Z</time></trkpt><trkpt lat="44.92242446163578" lon="10.763693449273092"><ele>21.333333333333332</ele><time>2026-04-26T15:21:03Z</time></trkpt><trkpt lat="44.92244287629933" lon="10.763436098529326"><ele>21.666666666666664</ele><time>2026-04-26T15:21:04Z</time></trkpt><trkpt lat="44.9224632539936" lon="10.76317398895656"><ele>22.0</ele><time>2026-04-26T15:21:05Z</time></trkpt><trkpt lat="44.922483013608954" lon="10.762919827474976"><ele>21.666666666666664</ele><time>2026-04-26T15:21:06Z</time></trkpt><trkpt lat="44.92247062452527" lon="10.762655484650884"><ele>21.333333333333332</ele><time>2026-04-26T15:21:07Z</time></trkpt><trkpt lat="44.92249492793331" lon="10.762397381355479"><ele>21.0</ele><time>2026-04-26T15:21:08Z</time></trkpt><trkpt lat="44.92251239523266" lon="10.762140587602252"><ele>21.0</ele><time>2026-04-26T15:21:09Z</time></trkpt><trkpt lat="44.92253099278854" lon="10.761882224002232"><ele>21.0</ele><time>2026-04-26T15:21:10Z</time></trkpt><trkpt lat="44.922549936452945" lon="10.761621794468356"><ele>21.0</ele><time>2026-04-26T15:21:11Z</time></trkpt><trkpt lat="44.9225829657503" lon="10.761367459427436"><ele>20.666666666666668</ele><time>2026-04-26T15:21:12Z</time></trkpt><trkpt lat="44.92259872587558" lon="10.761103071795315"><ele>20.333333333333336</ele><time>2026-04-26T15:21:13Z</time></trkpt><trkpt lat="44.92261460745226" lon="10.760845540680075"><ele>20.0</ele><time>2026-04-26T15:21:14Z</time></trkpt><trkpt lat="44.92263017719562" lon="10.760593066027425"><ele>20.0</ele><time>2026-04-26T15:21:15Z</time></trkpt><trkpt lat="44.92264725359374" lon="10.760328936512938"><ele>20.0</ele><time>2026-04-26T15:21:16Z</time></trkpt><trkpt lat="44.92266452666705" lon="10.76007944634237"><ele>20.0</ele><time>2026-04-26T15:21:17Z</time></trkpt><trkpt lat="44.922683213059784" lon="10.759829886087275"><ele>20.0</ele><time>2026-04-26T15:21:18Z</time></trkpt><trkpt lat="44.92270024508847" lon="10.759577865689163"><ele>20.0</ele><time>2026-04-26T15:21:19Z</time></trkpt><trkpt lat="44.922713201866415" lon="10.759369125054354"><ele>20.0</ele><time>2026-04-26T15:21:20Z</time></trkpt><trkpt lat="44.92272815311596" lon="10.759157755873781"><ele>20.0</ele><time>2026-04-26T15:21:21Z</time></trkpt><trkpt lat="44.92274497439499" lon="10.758937482641159"><ele>20.0</ele><time>2026-04-26T15:21:22Z</time></trkpt><trkpt lat="44.92275985066018" lon="10.758712844438987"><ele>20.0</ele><time>2026-04-26T15:21:23Z</time></trkpt><trkpt lat="44.92278107920189" lon="10.758498709223188"><ele>20.0</ele><time>2026-04-26T15:21:24Z</time></trkpt><trkpt lat="44.92280948450875" lon="10.758279256636797"><ele>20.0</ele><time>2026-04-26T15:21:25Z</time></trkpt><trkpt lat="44.92283840005148" lon="10.758060114328373"><ele>20.0</ele><time>2026-04-26T15:21:26Z</time></trkpt><trkpt lat="44.92286589244813" lon="10.757846841525604"><ele>20.0</ele><time>2026-04-26T15:21:27Z</time></trkpt><trkpt lat="44.92288920164945" lon="10.757657359301328"><ele>20.0</ele><time>2026-04-26T15:21:28Z</time></trkpt><trkpt lat="44.92291028874651" lon="10.757475025643517"><ele>20.0</ele><time>2026-04-26T15:21:29Z</time></trkpt><trkpt lat="44.92293089945233" lon="10.75729681105923"><ele>20.0</ele><time>2026-04-26T15:21:30Z</time></trkpt><trkpt lat="44.922950663614024" lon="10.757131700491994"><ele>20.0</ele><time>2026-04-26T15:21:31Z</time></trkpt><trkpt lat="44.922971093111514" lon="10.75698648730687"><ele>20.0</ele><time>2026-04-26T15:21:31.999Z</time></trkpt><trkpt lat="44.92305742896302" lon="10.75689305074293"><ele>20.0</ele><time>2026-04-26T15:21:32.999Z</time></trkpt><trkpt lat="44.92311189988468" lon="10.756774871647336"><ele>20.0</ele><time>2026-04-26T15:21:33.999Z</time></trkpt><trkpt lat="44.923103717601755" lon="10.75662695253346"><ele>20.0</ele><time>2026-04-26T15:21:34.999Z</time></trkpt><trkpt lat="44.92305800270361" lon="10.756481782770777"><ele>20.0</ele><time>2026-04-26T15:21:35.999Z</time></trkpt><trkpt lat="44.9229908560177" lon="10.756301494588117"><ele>20.0</ele><time>2026-04-26T15:21:36.999Z</time></trkpt><trkpt lat="44.92298760940615" lon="10.756101527419347"><ele>20.0</ele><time>2026-04-26T15:21:37.999Z</time></trkpt><trkpt lat="44.92302443702032" lon="10.755908426095678"><ele>20.0</ele><time>2026-04-26T15:21:38.999Z</time></trkpt><trkpt lat="44.92304171157145" lon="10.755741762110876"><ele>20.0</ele><time>2026-04-26T15:21:39.999Z</time></trkpt><trkpt lat="44.923051568503375" lon="10.755565501180222"><ele>20.0</ele><time>2026-04-26T15:21:40.999Z</time></trkpt><trkpt lat="44.923109953108735" lon="10.75538715146594"><ele>20.0</ele><time>2026-04-26T15:21:41.999Z</time></trkpt><trkpt lat="44.92312066407887" lon="10.755205527438669"><ele>20.0</ele><time>2026-04-26T15:21:42.999Z</time></trkpt><trkpt lat="44.92313138634691" lon="10.755023711872273"><ele>19.75</ele><time>2026-04-26T15:21:43.999Z</time></trkpt><trkpt lat="44.92314222899626" lon="10.754839854970808"><ele>19.5</ele><time>2026-04-26T15:21:44.999Z</time></trkpt><trkpt lat="44.923153047037495" lon="10.754656415350151"><ele>19.25</ele><time>2026-04-26T15:21:45.999Z</time></trkpt><trkpt lat="44.923163222178324" lon="10.754471078015532"><ele>19.0</ele><time>2026-04-26T15:21:46.999Z</time></trkpt><trkpt lat="44.92317383672463" lon="10.754286778046986"><ele>19.0</ele><time>2026-04-26T15:21:47.999Z</time></trkpt><trkpt lat="44.923184737826965" lon="10.754099451184931"><ele>19.0</ele><time>2026-04-26T15:21:48.999Z</time></trkpt><trkpt lat="44.92319572344692" lon="10.75391067195061"><ele>19.0</ele><time>2026-04-26T15:21:49.999Z</time></trkpt><trkpt lat="44.92320700323927" lon="10.753716837596622"><ele>19.0</ele><time>2026-04-26T15:21:50.999Z</time></trkpt><trkpt lat="44.923218163169125" lon="10.753525063059028"><ele>19.5</ele><time>2026-04-26T15:21:51.999Z</time></trkpt><trkpt lat="44.92322961274162" lon="10.753328311155563"><ele>20.0</ele><time>2026-04-26T15:21:52.999Z</time></trkpt><trkpt lat="44.92324121829846" lon="10.753128877239194"><ele>20.5</ele><time>2026-04-26T15:21:53.999Z</time></trkpt><trkpt lat="44.92322691368714" lon="10.752926171439995"><ele>21.0</ele><time>2026-04-26T15:21:54.999Z</time></trkpt><trkpt lat="44.923245057288106" lon="10.752728148424417"><ele>21.0</ele><time>2026-04-26T15:21:55.999Z</time></trkpt><trkpt lat="44.923257853642575" lon="10.752523578812927"><ele>21.0</ele><time>2026-04-26T15:21:56.999Z</time></trkpt><trkpt lat="44.923267572040245" lon="10.752318079807138"><ele>21.0</ele><time>2026-04-26T15:21:57.999Z</time></trkpt><trkpt lat="44.923300175462714" lon="10.752115209903392"><ele>21.0</ele><time>2026-04-26T15:21:58.999Z</time></trkpt><trkpt lat="44.92331175070592" lon="10.75190560389903"><ele>21.0</ele><time>2026-04-26T15:21:59.999Z</time></trkpt><trkpt lat="44.92332208302644" lon="10.751694881397656"><ele>21.0</ele><time>2026-04-26T15:22:00.999Z</time></trkpt><trkpt lat="44.92332895496046" lon="10.751493589824651"><ele>21.0</ele><time>2026-04-26T15:22:01.999Z</time></trkpt><trkpt lat="44.9233326945154" lon="10.751306951018194"><ele>21.0</ele><time>2026-04-26T15:22:02.999Z</time></trkpt><trkpt lat="44.923333592721974" lon="10.751149607578455"><ele>21.0</ele><time>2026-04-26T15:22:03.999Z</time></trkpt><trkpt lat="44.92333214637847" lon="10.75093315219806"><ele>21.0</ele><time>2026-04-26T15:22:04.999Z</time></trkpt><trkpt lat="44.923302075250234" lon="10.750767559802068"><ele>21.0</ele><time>2026-04-26T15:22:05.999Z</time></trkpt><trkpt lat="44.92330008371873" lon="10.750605452250877"><ele>21.0</ele><time>2026-04-26T15:22:06.999Z</time></trkpt><trkpt lat="44.92329979079444" lon="10.750458717915567"><ele>21.0</ele><time>2026-04-26T15:22:07.999Z</time></trkpt><trkpt lat="44.92329513577838" lon="10.750315156941777"><ele>21.0</ele><time>2026-04-26T15:22:08.999Z</time></trkpt><trkpt lat="44.92331901750239" lon="10.750171069003281"><ele>21.0</ele><time>2026-04-26T15:22:09.999Z</time></trkpt><trkpt lat="44.923316523903814" lon="10.750033248157102"><ele>21.0</ele><time>2026-04-26T15:22:10.999Z</time></trkpt><trkpt lat="44.923314139424136" lon="10.749901451469434"><ele>21.0</ele><time>2026-04-26T15:22:11.999Z</time></trkpt><trkpt lat="44.92331186132484" lon="10.74977553452983"><ele>21.166666666666668</ele><time>2026-04-26T15:22:12.999Z</time></trkpt><trkpt lat="44.92330985469775" lon="10.74966303236256"><ele>21.333333333333332</ele><time>2026-04-26T15:22:13.999Z</time></trkpt><trkpt lat="44.92330795370861" lon="10.749556577010278"><ele>21.5</ele><time>2026-04-26T15:22:14.999Z</time></trkpt><trkpt lat="44.92330614977024" lon="10.749455556092013"><ele>21.666666666666664</ele><time>2026-04-26T15:22:15.999Z</time></trkpt><trkpt lat="44.923304890793524" lon="10.74936487774453"><ele>21.833333333333332</ele><time>2026-04-26T15:22:16.999Z</time></trkpt><trkpt lat="44.923286207735295" lon="10.749203559736795"><ele>22.0</ele><time>2026-04-26T15:22:18.999Z</time></trkpt><trkpt lat="44.92328616794107" lon="10.749068455273267"><ele>22.166666666666664</ele><time>2026-04-26T15:22:20.999Z</time></trkpt><trkpt lat="44.923300218474274" lon="10.748946481586454"><ele>22.333333333333332</ele><time>2026-04-26T15:22:22.999Z</time></trkpt><trkpt lat="44.92328559642019" lon="10.748841035863702"><ele>22.5</ele><time>2026-04-26T15:22:24.999Z</time></trkpt><trkpt lat="44.92329154644353" lon="10.748744036288505"><ele>22.666666666666668</ele><time>2026-04-26T15:22:51Z</time></trkpt><trkpt lat="44.9232972473863" lon="10.748606738632832"><ele>22.833333333333336</ele><time>2026-04-26T15:22:53Z</time></trkpt><trkpt lat="44.923320885998855" lon="10.748517700651599"><ele>23.0</ele><time>2026-04-26T15:22:54Z</time></trkpt><trkpt lat="44.92333300051576" lon="10.748422942626457"><ele>23.0</ele><time>2026-04-26T15:22:55Z</time></trkpt><trkpt lat="44.9233461375485" lon="10.748316573749737"><ele>23.0</ele><time>2026-04-26T15:22:56Z</time></trkpt><trkpt lat="44.92335820920608" lon="10.748200400463137"><ele>23.0</ele><time>2026-04-26T15:22:57Z</time></trkpt><trkpt lat="44.923366783808355" lon="10.748068613379832"><ele>23.0</ele><time>2026-04-26T15:22:58Z</time></trkpt><trkpt lat="44.92337176116791" lon="10.747935880682444"><ele>23.0</ele><time>2026-04-26T15:22:59Z</time></trkpt><trkpt lat="44.92337701741549" lon="10.747796396409132"><ele>23.0</ele><time>2026-04-26T15:23:00Z</time></trkpt><trkpt lat="44.92338190042522" lon="10.74765278950645"><ele>22.75</ele><time>2026-04-26T15:23:01Z</time></trkpt><trkpt lat="44.92338646999298" lon="10.747505604291693"><ele>22.5</ele><time>2026-04-26T15:23:02Z</time></trkpt><trkpt lat="44.923391472969385" lon="10.747344459060137"><ele>22.25</ele><time>2026-04-26T15:23:03Z</time></trkpt><trkpt lat="44.923396101285455" lon="10.74717928167399"><ele>22.0</ele><time>2026-04-26T15:23:04Z</time></trkpt><trkpt lat="44.92339863059833" lon="10.747009640279668"><ele>21.75</ele><time>2026-04-26T15:23:05Z</time></trkpt><trkpt lat="44.92340134707262" lon="10.746833685400636"><ele>21.5</ele><time>2026-04-26T15:23:06Z</time></trkpt><trkpt lat="44.923399733625715" lon="10.746652342639367"><ele>21.25</ele><time>2026-04-26T15:23:07Z</time></trkpt><trkpt lat="44.92339452944684" lon="10.746470468523928"><ele>21.0</ele><time>2026-04-26T15:23:08Z</time></trkpt><trkpt lat="44.923383620745525" lon="10.746283997876501"><ele>21.0</ele><time>2026-04-26T15:23:09Z</time></trkpt><trkpt lat="44.92337244469299" lon="10.746090330623183"><ele>21.0</ele><time>2026-04-26T15:23:10Z</time></trkpt><trkpt lat="44.92336144037757" lon="10.74587395483383"><ele>21.0</ele><time>2026-04-26T15:23:11Z</time></trkpt><trkpt lat="44.92335384806142" lon="10.745642148973888"><ele>21.0</ele><time>2026-04-26T15:23:12Z</time></trkpt><trkpt lat="44.923350381021955" lon="10.745408714740401"><ele>21.0</ele><time>2026-04-26T15:23:13Z</time></trkpt><trkpt lat="44.92335369025847" lon="10.745187469962717"><ele>21.0</ele><time>2026-04-26T15:23:14Z</time></trkpt><trkpt lat="44.92336622307532" lon="10.744974859789982"><ele>21.0</ele><time>2026-04-26T15:23:15Z</time></trkpt><trkpt lat="44.92338892892893" lon="10.744758708138324"><ele>21.0</ele><time>2026-04-26T15:23:16Z</time></trkpt><trkpt lat="44.92339310926085" lon="10.744533168284725"><ele>21.0</ele><time>2026-04-26T15:23:17Z</time></trkpt><trkpt lat="44.923427995961354" lon="10.744317968782514"><ele>21.0</ele><time>2026-04-26T15:23:18Z</time></trkpt><trkpt lat="44.92346807462706" lon="10.744098970716818"><ele>21.0</ele><time>2026-04-26T15:23:19Z</time></trkpt><trkpt lat="44.92350446316759" lon="10.743883999267963"><ele>21.0</ele><time>2026-04-26T15:23:20Z</time></trkpt><trkpt lat="44.92356324586333" lon="10.743672090216107"><ele>20.666666666666668</ele><time>2026-04-26T15:23:21Z</time></trkpt><trkpt lat="44.92360269027153" lon="10.743452039434663"><ele>20.333333333333336</ele><time>2026-04-26T15:23:22Z</time></trkpt><trkpt lat="44.92364285028076" lon="10.743230125347406"><ele>20.0</ele><time>2026-04-26T15:23:23Z</time></trkpt><trkpt lat="44.9236827420893" lon="10.743006562213397"><ele>20.0</ele><time>2026-04-26T15:23:24Z</time></trkpt><trkpt lat="44.92372157532403" lon="10.742786622846141"><ele>20.0</ele><time>2026-04-26T15:23:25Z</time></trkpt><trkpt lat="44.92376051309629" lon="10.742566091315688"><ele>20.0</ele><time>2026-04-26T15:23:26Z</time></trkpt><trkpt lat="44.92380050141259" lon="10.742339609850939"><ele>20.0</ele><time>2026-04-26T15:23:27Z</time></trkpt><trkpt lat="44.923839950167924" lon="10.742116184327784"><ele>20.0</ele><time>2026-04-26T15:23:28Z</time></trkpt><trkpt lat="44.92387882266046" lon="10.741896022533949"><ele>20.0</ele><time>2026-04-26T15:23:29Z</time></trkpt><trkpt lat="44.923918130503786" lon="10.741673395090807"><ele>20.666666666666668</ele><time>2026-04-26T15:23:30Z</time></trkpt><trkpt lat="44.923956857761965" lon="10.741451762420773"><ele>21.333333333333332</ele><time>2026-04-26T15:23:31Z</time></trkpt><trkpt lat="44.923995242527724" lon="10.741231218406526"><ele>22.0</ele><time>2026-04-26T15:23:32Z</time></trkpt><trkpt lat="44.924014169312535" lon="10.741006485232976"><ele>22.0</ele><time>2026-04-26T15:23:33Z</time></trkpt><trkpt lat="44.92405481779376" lon="10.740779611909097"><ele>22.0</ele><time>2026-04-26T15:23:34Z</time></trkpt><trkpt lat="44.92409322592468" lon="10.740556022579309"><ele>22.0</ele><time>2026-04-26T15:23:35Z</time></trkpt><trkpt lat="44.924131221755005" lon="10.740331261797447"><ele>22.333333333333332</ele><time>2026-04-26T15:23:36Z</time></trkpt><trkpt lat="44.92419292189557" lon="10.740100969612985"><ele>22.666666666666668</ele><time>2026-04-26T15:23:37Z</time></trkpt><trkpt lat="44.92423370894365" lon="10.739870040245659"><ele>23.0</ele><time>2026-04-26T15:23:38Z</time></trkpt><trkpt lat="44.92427624965943" lon="10.739629797110364"><ele>23.0</ele><time>2026-04-26T15:23:38.999Z</time></trkpt><trkpt lat="44.924318934374874" lon="10.739390002777865"><ele>23.0</ele><time>2026-04-26T15:23:39.999Z</time></trkpt><trkpt lat="44.924357484993834" lon="10.739173463084544"><ele>23.0</ele><time>2026-04-26T15:23:40.999Z</time></trkpt><trkpt lat="44.92439719089827" lon="10.738955018083264"><ele>22.333333333333336</ele><time>2026-04-26T15:23:41.999Z</time></trkpt><trkpt lat="44.92443548359775" lon="10.738745671458947"><ele>21.666666666666668</ele><time>2026-04-26T15:23:42.999Z</time></trkpt><trkpt lat="44.92447411387499" lon="10.738534479332902"><ele>21.0</ele><time>2026-04-26T15:23:43.999Z</time></trkpt><trkpt lat="44.924513189231796" lon="10.738320853986767"><ele>21.0</ele><time>2026-04-26T15:23:44.999Z</time></trkpt><trkpt lat="44.92455177884361" lon="10.738109884222494"><ele>21.0</ele><time>2026-04-26T15:23:45.999Z</time></trkpt><trkpt lat="44.924591105516136" lon="10.737898640722438"><ele>21.0</ele><time>2026-04-26T15:23:46.999Z</time></trkpt><trkpt lat="44.924632750463445" lon="10.737685425766271"><ele>21.0</ele><time>2026-04-26T15:23:47.999Z</time></trkpt><trkpt lat="44.92467350953283" lon="10.737476746427669"><ele>21.0</ele><time>2026-04-26T15:23:48.999Z</time></trkpt><trkpt lat="44.92471468869345" lon="10.737265916217687"><ele>21.0</ele><time>2026-04-26T15:23:49.999Z</time></trkpt><trkpt lat="44.924756059251074" lon="10.737054106112714"><ele>20.666666666666668</ele><time>2026-04-26T15:23:50.999Z</time></trkpt><trkpt lat="44.9247972044841" lon="10.736843449648294"><ele>20.333333333333336</ele><time>2026-04-26T15:23:51.999Z</time></trkpt><trkpt lat="44.924838110466936" lon="10.73663401808735"><ele>20.0</ele><time>2026-04-26T15:23:52.999Z</time></trkpt><trkpt lat="44.924879424838764" lon="10.736422495640484"><ele>20.0</ele><time>2026-04-26T15:23:53.999Z</time></trkpt><trkpt lat="44.92492176105057" lon="10.736205156665486"><ele>20.0</ele><time>2026-04-26T15:23:54.999Z</time></trkpt><trkpt lat="44.92496455769728" lon="10.7359846316458"><ele>20.0</ele><time>2026-04-26T15:23:55.999Z</time></trkpt><trkpt lat="44.92500858026991" lon="10.735757789558432"><ele>20.0</ele><time>2026-04-26T15:23:56.999Z</time></trkpt><trkpt lat="44.925051879942394" lon="10.73553467244428"><ele>20.0</ele><time>2026-04-26T15:23:57.999Z</time></trkpt><trkpt lat="44.92509746053659" lon="10.735299802254762"><ele>20.0</ele><time>2026-04-26T15:23:58.999Z</time></trkpt><trkpt lat="44.92514170702753" lon="10.735071806061974"><ele>20.666666666666668</ele><time>2026-04-26T15:23:59.999Z</time></trkpt><trkpt lat="44.92518741863756" lon="10.734836260560783"><ele>21.333333333333332</ele><time>2026-04-26T15:24:00.999Z</time></trkpt><trkpt lat="44.92523342888476" lon="10.734599176302272"><ele>22.0</ele><time>2026-04-26T15:24:01.999Z</time></trkpt><trkpt lat="44.92527817878655" lon="10.734367625827964"><ele>22.0</ele><time>2026-04-26T15:24:02.999Z</time></trkpt><trkpt lat="44.92532338943029" lon="10.73413327513264"><ele>22.0</ele><time>2026-04-26T15:24:03.999Z</time></trkpt><trkpt lat="44.925368251500295" lon="10.733900731262501"><ele>22.0</ele><time>2026-04-26T15:24:04.999Z</time></trkpt><trkpt lat="44.925413367153645" lon="10.733666873012785"><ele>22.0</ele><time>2026-04-26T15:24:05.999Z</time></trkpt><trkpt lat="44.92545319483199" lon="10.73343454681595"><ele>22.0</ele><time>2026-04-26T15:24:06.999Z</time></trkpt><trkpt lat="44.92549586538546" lon="10.733208279144787"><ele>22.0</ele><time>2026-04-26T15:24:07.999Z</time></trkpt><trkpt lat="44.925533450370736" lon="10.732974878339832"><ele>22.0</ele><time>2026-04-26T15:24:08.999Z</time></trkpt><trkpt lat="44.9255876683831" lon="10.732750433710185"><ele>22.0</ele><time>2026-04-26T15:24:09.999Z</time></trkpt><trkpt lat="44.925663011738635" lon="10.73253672726882"><ele>22.0</ele><time>2026-04-26T15:24:10.999Z</time></trkpt><trkpt lat="44.925727050811126" lon="10.732323106601692"><ele>22.0</ele><time>2026-04-26T15:24:11.999Z</time></trkpt><trkpt lat="44.92578945739393" lon="10.732118774927907"><ele>22.0</ele><time>2026-04-26T15:24:12.999Z</time></trkpt><trkpt lat="44.92585291685709" lon="10.731919911596409"><ele>22.0</ele><time>2026-04-26T15:24:13.999Z</time></trkpt><trkpt lat="44.92591432049955" lon="10.731728057938762"><ele>21.0</ele><time>2026-04-26T15:24:14.999Z</time></trkpt><trkpt lat="44.92596563571992" lon="10.731524911508401"><ele>20.0</ele><time>2026-04-26T15:24:15.999Z</time></trkpt><trkpt lat="44.92603144632053" lon="10.731315975513802"><ele>19.0</ele><time>2026-04-26T15:24:16.999Z</time></trkpt><trkpt lat="44.926095333069064" lon="10.731109110656877"><ele>18.666666666666664</ele><time>2026-04-26T15:24:17.999Z</time></trkpt><trkpt lat="44.92616032292811" lon="10.73089661473226"><ele>18.333333333333332</ele><time>2026-04-26T15:24:18.999Z</time></trkpt><trkpt lat="44.926248534938445" lon="10.730692389236836"><ele>18.0</ele><time>2026-04-26T15:24:19.999Z</time></trkpt><trkpt lat="44.92633010500073" lon="10.730481169974363"><ele>18.0</ele><time>2026-04-26T15:24:20.999Z</time></trkpt><trkpt lat="44.92641983407882" lon="10.730269307610993"><ele>18.0</ele><time>2026-04-26T15:24:21.999Z</time></trkpt><trkpt lat="44.92650827346268" lon="10.730080926629713"><ele>18.0</ele><time>2026-04-26T15:24:22.999Z</time></trkpt><trkpt lat="44.926601278005734" lon="10.729874975068444"><ele>18.0</ele><time>2026-04-26T15:24:23.999Z</time></trkpt><trkpt lat="44.926706460756584" lon="10.729686760853566"><ele>18.0</ele><time>2026-04-26T15:24:24.999Z</time></trkpt><trkpt lat="44.92679196531976" lon="10.729458075561789"><ele>18.0</ele><time>2026-04-26T15:24:25.999Z</time></trkpt><trkpt lat="44.92688497526913" lon="10.729239644070544"><ele>19.333333333333332</ele><time>2026-04-26T15:24:26.999Z</time></trkpt><trkpt lat="44.92698294594917" lon="10.729028206895746"><ele>20.666666666666664</ele><time>2026-04-26T15:24:27.999Z</time></trkpt><trkpt lat="44.92708045303428" lon="10.728820305792869"><ele>22.0</ele><time>2026-04-26T15:24:28.999Z</time></trkpt><trkpt lat="44.9271745629981" lon="10.728613071353314"><ele>21.333333333333332</ele><time>2026-04-26T15:24:29.999Z</time></trkpt><trkpt lat="44.92727888512292" lon="10.728420260549374"><ele>20.666666666666668</ele><time>2026-04-26T15:24:30.999Z</time></trkpt><trkpt lat="44.92738249291375" lon="10.728207736741668"><ele>20.0</ele><time>2026-04-26T15:24:31.999Z</time></trkpt><trkpt lat="44.927487929275756" lon="10.727997378949295"><ele>20.666666666666668</ele><time>2026-04-26T15:24:32.999Z</time></trkpt><trkpt lat="44.92757087600876" lon="10.727808148442431"><ele>21.333333333333332</ele><time>2026-04-26T15:24:33.999Z</time></trkpt><trkpt lat="44.927689770197595" lon="10.727614095427786"><ele>22.0</ele><time>2026-04-26T15:24:34.999Z</time></trkpt><trkpt lat="44.927795436898414" lon="10.727415089408266"><ele>22.666666666666664</ele><time>2026-04-26T15:24:35.999Z</time></trkpt><trkpt lat="44.927896884296075" lon="10.727224029759068"><ele>23.333333333333332</ele><time>2026-04-26T15:24:37Z</time></trkpt><trkpt lat="44.92799751010047" lon="10.727034517546373"><ele>24.0</ele><time>2026-04-26T15:24:38Z</time></trkpt><trkpt lat="44.9280981992743" lon="10.72684335305503"><ele>24.666666666666664</ele><time>2026-04-26T15:24:39Z</time></trkpt><trkpt lat="44.92819802865055" lon="10.726653285047357"><ele>25.333333333333332</ele><time>2026-04-26T15:24:40Z</time></trkpt><trkpt lat="44.92829834204809" lon="10.72646229550201"><ele>26.0</ele><time>2026-04-26T15:24:41Z</time></trkpt><trkpt lat="44.92838940421014" lon="10.726254060418146"><ele>27.0</ele><time>2026-04-26T15:24:42Z</time></trkpt><trkpt lat="44.928505664045545" lon="10.726070093844868"><ele>28.0</ele><time>2026-04-26T15:24:43Z</time></trkpt><trkpt lat="44.9286079819145" lon="10.725876731069116"><ele>29.0</ele><time>2026-04-26T15:24:44Z</time></trkpt><trkpt lat="44.9287114738528" lon="10.72568114947474"><ele>29.0</ele><time>2026-04-26T15:24:45Z</time></trkpt><trkpt lat="44.92881749627158" lon="10.725480785711662"><ele>29.0</ele><time>2026-04-26T15:24:46Z</time></trkpt><trkpt lat="44.928923357811" lon="10.725280726044405"><ele>29.0</ele><time>2026-04-26T15:24:47Z</time></trkpt><trkpt lat="44.92902946082393" lon="10.725078707687029"><ele>27.0</ele><time>2026-04-26T15:24:48Z</time></trkpt><trkpt lat="44.92913250823424" lon="10.724874030441363"><ele>25.0</ele><time>2026-04-26T15:24:49Z</time></trkpt><trkpt lat="44.92922751560446" lon="10.724665559053397"><ele>23.0</ele><time>2026-04-26T15:24:50Z</time></trkpt><trkpt lat="44.92931658556655" lon="10.72445359647095"><ele>22.0</ele><time>2026-04-26T15:24:51Z</time></trkpt><trkpt lat="44.92940313351255" lon="10.724247863974812"><ele>21.0</ele><time>2026-04-26T15:24:52Z</time></trkpt><trkpt lat="44.92948600837577" lon="10.724051580209125"><ele>20.0</ele><time>2026-04-26T15:24:53Z</time></trkpt><trkpt lat="44.92956808475766" lon="10.723857187580778"><ele>20.0</ele><time>2026-04-26T15:24:54Z</time></trkpt><trkpt lat="44.92963966114794" lon="10.723654234620883"><ele>20.0</ele><time>2026-04-26T15:24:55Z</time></trkpt><trkpt lat="44.92971607217477" lon="10.723479997704993"><ele>20.0</ele><time>2026-04-26T15:24:56Z</time></trkpt><trkpt lat="44.92980616229171" lon="10.723293316300355"><ele>20.25</ele><time>2026-04-26T15:24:57Z</time></trkpt><trkpt lat="44.929886453234886" lon="10.723103152562155"><ele>20.5</ele><time>2026-04-26T15:24:58Z</time></trkpt><trkpt lat="44.929951334545734" lon="10.722918604127207"><ele>20.75</ele><time>2026-04-26T15:24:59Z</time></trkpt><trkpt lat="44.9300255766195" lon="10.722760082377405"><ele>21.0</ele><time>2026-04-26T15:25:00Z</time></trkpt><trkpt lat="44.930095728553376" lon="10.722607611970789"><ele>21.0</ele><time>2026-04-26T15:25:01Z</time></trkpt><trkpt lat="44.93015554716838" lon="10.722459061378178"><ele>21.0</ele><time>2026-04-26T15:25:02Z</time></trkpt><trkpt lat="44.93026877797964" lon="10.722198531944782"><ele>21.0</ele><time>2026-04-26T15:25:03Z</time></trkpt><trkpt lat="44.93033294236663" lon="10.722046849858017"><ele>21.0</ele><time>2026-04-26T15:25:04Z</time></trkpt><trkpt lat="44.93039480567021" lon="10.721900607689737"><ele>21.0</ele><time>2026-04-26T15:25:05Z</time></trkpt><trkpt lat="44.93045369936081" lon="10.721761385877592"><ele>21.0</ele><time>2026-04-26T15:25:06Z</time></trkpt><trkpt lat="44.93051053904585" lon="10.721625231247268"><ele>21.0</ele><time>2026-04-26T15:25:07Z</time></trkpt><trkpt lat="44.93056610195437" lon="10.721491036810153"><ele>21.25</ele><time>2026-04-26T15:25:08Z</time></trkpt><trkpt lat="44.930624273351846" lon="10.721347531277322"><ele>21.5</ele><time>2026-04-26T15:25:09Z</time></trkpt><trkpt lat="44.930683121336735" lon="10.721197847096139"><ele>21.75</ele><time>2026-04-26T15:25:10Z</time></trkpt><trkpt lat="44.93074306663413" lon="10.72103840803052"><ele>22.0</ele><time>2026-04-26T15:25:11Z</time></trkpt><trkpt lat="44.930800427753915" lon="10.720873366537674"><ele>21.5</ele><time>2026-04-26T15:25:12Z</time></trkpt><trkpt lat="44.930852387602144" lon="10.720708834470052"><ele>21.0</ele><time>2026-04-26T15:25:13Z</time></trkpt><trkpt lat="44.930899298548965" lon="10.720543053262647"><ele>20.5</ele><time>2026-04-26T15:25:14Z</time></trkpt><trkpt lat="44.930945933884296" lon="10.72036165259121"><ele>20.0</ele><time>2026-04-26T15:25:15Z</time></trkpt><trkpt lat="44.93099124326071" lon="10.720175193812025"><ele>20.0</ele><time>2026-04-26T15:25:16Z</time></trkpt><trkpt lat="44.93103603078395" lon="10.7199889684716"><ele>20.0</ele><time>2026-04-26T15:25:17Z</time></trkpt><trkpt lat="44.93108129522244" lon="10.719800760086017"><ele>20.0</ele><time>2026-04-26T15:25:18Z</time></trkpt><trkpt lat="44.93112709140713" lon="10.719610340796494"><ele>20.0</ele><time>2026-04-26T15:25:19Z</time></trkpt><trkpt lat="44.93117432540151" lon="10.719413808765035"><ele>20.5</ele><time>2026-04-26T15:25:20Z</time></trkpt><trkpt lat="44.931222703275225" lon="10.71921223433224"><ele>21.0</ele><time>2026-04-26T15:25:21Z</time></trkpt><trkpt lat="44.93126900775087" lon="10.719011458326436"><ele>21.5</ele><time>2026-04-26T15:25:22Z</time></trkpt><trkpt lat="44.93131318885293" lon="10.718810279432255"><ele>22.0</ele><time>2026-04-26T15:25:23Z</time></trkpt><trkpt lat="44.9313580038561" lon="10.718602060587171"><ele>21.666666666666664</ele><time>2026-04-26T15:25:24Z</time></trkpt><trkpt lat="44.93140084673594" lon="10.718388377562404"><ele>21.333333333333332</ele><time>2026-04-26T15:25:25Z</time></trkpt><trkpt lat="44.931439541135624" lon="10.718173322117538"><ele>21.0</ele><time>2026-04-26T15:25:26Z</time></trkpt><trkpt lat="44.931472235601404" lon="10.717954215891428"><ele>21.0</ele><time>2026-04-26T15:25:27Z</time></trkpt><trkpt lat="44.93149827833017" lon="10.717737093799"><ele>21.0</ele><time>2026-04-26T15:25:28Z</time></trkpt><trkpt lat="44.93152252119548" lon="10.717518337040342"><ele>21.0</ele><time>2026-04-26T15:25:29Z</time></trkpt><trkpt lat="44.931545056434906" lon="10.71730004039818"><ele>21.0</ele><time>2026-04-26T15:25:30Z</time></trkpt><trkpt lat="44.93156606416318" lon="10.717084284863907"><ele>21.0</ele><time>2026-04-26T15:25:31Z</time></trkpt><trkpt lat="44.93158771638337" lon="10.716861893752066"><ele>21.0</ele><time>2026-04-26T15:25:32Z</time></trkpt><trkpt lat="44.93160986573318" lon="10.71663439665308"><ele>21.0</ele><time>2026-04-26T15:25:33Z</time></trkpt><trkpt lat="44.93163168864325" lon="10.716406362781138"><ele>21.0</ele><time>2026-04-26T15:25:34Z</time></trkpt><trkpt lat="44.93165380274204" lon="10.71617110579139"><ele>21.0</ele><time>2026-04-26T15:25:35Z</time></trkpt><trkpt lat="44.931677722224066" lon="10.715916642522693"><ele>21.0</ele><time>2026-04-26T15:25:36Z</time></trkpt><trkpt lat="44.93170135980502" lon="10.715665769608194"><ele>21.0</ele><time>2026-04-26T15:25:37Z</time></trkpt><trkpt lat="44.93172553062777" lon="10.715418407417022"><ele>21.0</ele><time>2026-04-26T15:25:38Z</time></trkpt><trkpt lat="44.931749810052324" lon="10.715173339434422"><ele>20.666666666666668</ele><time>2026-04-26T15:25:39Z</time></trkpt><trkpt lat="44.93177309975875" lon="10.714940039628258"><ele>20.333333333333336</ele><time>2026-04-26T15:25:40Z</time></trkpt><trkpt lat="44.931796140633885" lon="10.714709232332405"><ele>20.0</ele><time>2026-04-26T15:25:41Z</time></trkpt><trkpt lat="44.93181938448208" lon="10.714476391803855"><ele>20.333333333333336</ele><time>2026-04-26T15:25:42Z</time></trkpt><trkpt lat="44.93184107196702" lon="10.714259141919683"><ele>20.666666666666668</ele><time>2026-04-26T15:25:43Z</time></trkpt><trkpt lat="44.93186280856723" lon="10.714039817232122"><ele>21.0</ele><time>2026-04-26T15:25:44Z</time></trkpt><trkpt lat="44.931881832340515" lon="10.713829289475152"><ele>21.0</ele><time>2026-04-26T15:25:44.999Z</time></trkpt><trkpt lat="44.93190081605471" lon="10.71361920493128"><ele>21.0</ele><time>2026-04-26T15:25:45.999Z</time></trkpt><trkpt lat="44.93192033135929" lon="10.713403237581755"><ele>21.0</ele><time>2026-04-26T15:25:46.999Z</time></trkpt><trkpt lat="44.931937968473065" lon="10.713183995200218"><ele>21.0</ele><time>2026-04-26T15:25:47.999Z</time></trkpt><trkpt lat="44.93195339335167" lon="10.712959049125692"><ele>21.0</ele><time>2026-04-26T15:25:48.999Z</time></trkpt><trkpt lat="44.93196602052614" lon="10.712730828042263"><ele>21.0</ele><time>2026-04-26T15:25:49.999Z</time></trkpt><trkpt lat="44.93197216594499" lon="10.712489904362606"><ele>20.666666666666668</ele><time>2026-04-26T15:25:50.999Z</time></trkpt><trkpt lat="44.93197740336369" lon="10.712241586499333"><ele>20.333333333333336</ele><time>2026-04-26T15:25:51.999Z</time></trkpt><trkpt lat="44.93198236630331" lon="10.712006282217178"><ele>20.0</ele><time>2026-04-26T15:25:52.999Z</time></trkpt><trkpt lat="44.93198330178123" lon="10.711773381196014"><ele>20.0</ele><time>2026-04-26T15:25:53.999Z</time></trkpt><trkpt lat="44.931976393196614" lon="10.711534528384469"><ele>20.0</ele><time>2026-04-26T15:25:54.999Z</time></trkpt><trkpt lat="44.931953324312744" lon="10.711293046706883"><ele>20.0</ele><time>2026-04-26T15:25:55.999Z</time></trkpt><trkpt lat="44.93189387027447" lon="10.711054426532495"><ele>20.0</ele><time>2026-04-26T15:25:56.999Z</time></trkpt><trkpt lat="44.931833577695656" lon="10.710810736103344"><ele>20.0</ele><time>2026-04-26T15:25:57.999Z</time></trkpt><trkpt lat="44.93175530613637" lon="10.710581410364206"><ele>20.0</ele><time>2026-04-26T15:25:58.999Z</time></trkpt><trkpt lat="44.93166205009776" lon="10.710364719643986"><ele>19.333333333333336</ele><time>2026-04-26T15:25:59.999Z</time></trkpt><trkpt lat="44.9315558397398" lon="10.710159755628377"><ele>18.666666666666668</ele><time>2026-04-26T15:26:00.999Z</time></trkpt><trkpt lat="44.93144376756942" lon="10.70997109084382"><ele>18.0</ele><time>2026-04-26T15:26:01.999Z</time></trkpt><trkpt lat="44.93133459995463" lon="10.709788232078488"><ele>18.0</ele><time>2026-04-26T15:26:02.999Z</time></trkpt><trkpt lat="44.931229945578075" lon="10.709606796431192"><ele>18.0</ele><time>2026-04-26T15:26:03.999Z</time></trkpt><trkpt lat="44.931127438823076" lon="10.709424572496314"><ele>18.0</ele><time>2026-04-26T15:26:04.999Z</time></trkpt><trkpt lat="44.931031047555955" lon="10.709252807276673"><ele>18.25</ele><time>2026-04-26T15:26:05.999Z</time></trkpt><trkpt lat="44.93093442574182" lon="10.709083925511331"><ele>18.5</ele><time>2026-04-26T15:26:06.999Z</time></trkpt><trkpt lat="44.930841414616225" lon="10.708927605437884"><ele>18.75</ele><time>2026-04-26T15:26:07.999Z</time></trkpt><trkpt lat="44.93075190208998" lon="10.70876893890702"><ele>19.0</ele><time>2026-04-26T15:26:08.999Z</time></trkpt><trkpt lat="44.93066638425649" lon="10.708615900080886"><ele>19.25</ele><time>2026-04-26T15:26:09.999Z</time></trkpt><trkpt lat="44.93059067110105" lon="10.708474664500134"><ele>19.5</ele><time>2026-04-26T15:26:10.999Z</time></trkpt><trkpt lat="44.930524194324384" lon="10.708342056559736"><ele>19.75</ele><time>2026-04-26T15:26:11.999Z</time></trkpt><trkpt lat="44.93047282263188" lon="10.708205826576641"><ele>20.0</ele><time>2026-04-26T15:26:12.999Z</time></trkpt><trkpt lat="44.930445469211" lon="10.708064599977922"><ele>20.0</ele><time>2026-04-26T15:26:13.999Z</time></trkpt><trkpt lat="44.930450017341045" lon="10.707924076830434"><ele>20.0</ele><time>2026-04-26T15:26:14.999Z</time></trkpt><trkpt lat="44.9304944603416" lon="10.707803023059945"><ele>20.0</ele><time>2026-04-26T15:26:15.999Z</time></trkpt><trkpt lat="44.93056180712764" lon="10.707715328378935"><ele>20.0</ele><time>2026-04-26T15:26:16.999Z</time></trkpt><trkpt lat="44.930643376583355" lon="10.70765922608878"><ele>20.0</ele><time>2026-04-26T15:26:17.999Z</time></trkpt><trkpt lat="44.930734931202345" lon="10.707626203165676"><ele>20.0</ele><time>2026-04-26T15:26:18.999Z</time></trkpt><trkpt lat="44.93083774580677" lon="10.707618566779965"><ele>20.0</ele><time>2026-04-26T15:26:19.999Z</time></trkpt><trkpt lat="44.930941455261284" lon="10.70763634779678"><ele>20.0</ele><time>2026-04-26T15:26:20.999Z</time></trkpt><trkpt lat="44.93104395570892" lon="10.707651921367884"><ele>20.0</ele><time>2026-04-26T15:26:21.999Z</time></trkpt><trkpt lat="44.931142787984896" lon="10.70765093148492"><ele>20.0</ele><time>2026-04-26T15:26:22.999Z</time></trkpt><trkpt lat="44.93124330028021" lon="10.707633535051043"><ele>20.0</ele><time>2026-04-26T15:26:23.999Z</time></trkpt><trkpt lat="44.931342951290134" lon="10.707597718820354"><ele>20.0</ele><time>2026-04-26T15:26:24.999Z</time></trkpt><trkpt lat="44.93144255042909" lon="10.707551956920994"><ele>20.0</ele><time>2026-04-26T15:26:25.999Z</time></trkpt><trkpt lat="44.93154358849026" lon="10.707492765602499"><ele>20.0</ele><time>2026-04-26T15:26:26.999Z</time></trkpt><trkpt lat="44.931643870718716" lon="10.707417709766506"><ele>20.0</ele><time>2026-04-26T15:26:27.999Z</time></trkpt><trkpt lat="44.931737422139484" lon="10.707311825892694"><ele>19.75</ele><time>2026-04-26T15:26:28.999Z</time></trkpt><trkpt lat="44.93182644189384" lon="10.707192979765376"><ele>19.5</ele><time>2026-04-26T15:26:29.999Z</time></trkpt><trkpt lat="44.93190704655947" lon="10.707061342038733"><ele>19.25</ele><time>2026-04-26T15:26:30.999Z</time></trkpt><trkpt lat="44.93197286369816" lon="10.70691416771908"><ele>19.0</ele><time>2026-04-26T15:26:31.999Z</time></trkpt><trkpt lat="44.932024088233334" lon="10.706752428079268"><ele>19.0</ele><time>2026-04-26T15:26:32.999Z</time></trkpt><trkpt lat="44.932055876685844" lon="10.706580208963263"><ele>19.0</ele><time>2026-04-26T15:26:33.999Z</time></trkpt><trkpt lat="44.93207158512995" lon="10.706408508792734"><ele>19.0</ele><time>2026-04-26T15:26:34.999Z</time></trkpt><trkpt lat="44.932071437461154" lon="10.70623664371756"><ele>19.0</ele><time>2026-04-26T15:26:35.999Z</time></trkpt><trkpt lat="44.932045511369125" lon="10.70607045316505"><ele>19.25</ele><time>2026-04-26T15:26:36.999Z</time></trkpt><trkpt lat="44.932010807733874" lon="10.70591072954709"><ele>19.5</ele><time>2026-04-26T15:26:37.999Z</time></trkpt><trkpt lat="44.931964308749095" lon="10.705756619494426"><ele>19.75</ele><time>2026-04-26T15:26:38.999Z</time></trkpt><trkpt lat="44.9319112366001" lon="10.705606515360236"><ele>20.0</ele><time>2026-04-26T15:26:39.999Z</time></trkpt><trkpt lat="44.93183982125939" lon="10.70546636781973"><ele>20.0</ele><time>2026-04-26T15:26:40.999Z</time></trkpt><trkpt lat="44.931751870962124" lon="10.705336965394851"><ele>20.0</ele><time>2026-04-26T15:26:41.999Z</time></trkpt><trkpt lat="44.93165507262134" lon="10.705224554092693"><ele>20.0</ele><time>2026-04-26T15:26:43Z</time></trkpt><trkpt lat="44.931543890260265" lon="10.705135058920188"><ele>20.0</ele><time>2026-04-26T15:26:44Z</time></trkpt><trkpt lat="44.93142191360165" lon="10.705071338351676"><ele>19.75</ele><time>2026-04-26T15:26:45Z</time></trkpt><trkpt lat="44.931297516191044" lon="10.705031930176508"><ele>19.5</ele><time>2026-04-26T15:26:46Z</time></trkpt><trkpt lat="44.931172637224385" lon="10.705008665794754"><ele>19.25</ele><time>2026-04-26T15:26:47Z</time></trkpt><trkpt lat="44.931049964973006" lon="10.704999759227167"><ele>19.0</ele><time>2026-04-26T15:26:48Z</time></trkpt><trkpt lat="44.930927636230045" lon="10.704997689253256"><ele>19.25</ele><time>2026-04-26T15:26:49Z</time></trkpt><trkpt lat="44.93080651596773" lon="10.704991690504052"><ele>19.5</ele><time>2026-04-26T15:26:50Z</time></trkpt><trkpt lat="44.930683306448394" lon="10.704971732877636"><ele>19.75</ele><time>2026-04-26T15:26:51Z</time></trkpt><trkpt lat="44.93055817831661" lon="10.704917142194772"><ele>20.0</ele><time>2026-04-26T15:26:52Z</time></trkpt><trkpt lat="44.93044312254233" lon="10.704822412983368"><ele>20.0</ele><time>2026-04-26T15:26:53Z</time></trkpt><trkpt lat="44.9303513305578" lon="10.704692198849612"><ele>20.0</ele><time>2026-04-26T15:26:54Z</time></trkpt><trkpt lat="44.93027109784133" lon="10.70454737438202"><ele>20.0</ele><time>2026-04-26T15:26:55Z</time></trkpt><trkpt lat="44.93019568728906" lon="10.704418745638916"><ele>20.0</ele><time>2026-04-26T15:26:56Z</time></trkpt><trkpt lat="44.93012088059025" lon="10.7043001110106"><ele>19.75</ele><time>2026-04-26T15:26:57Z</time></trkpt><trkpt lat="44.93004070280486" lon="10.704194689116244"><ele>19.5</ele><time>2026-04-26T15:26:58Z</time></trkpt><trkpt lat="44.92994837949191" lon="10.704093206463035"><ele>19.25</ele><time>2026-04-26T15:26:59Z</time></trkpt><trkpt lat="44.929853042868416" lon="10.704009539144652"><ele>19.0</ele><time>2026-04-26T15:27:00Z</time></trkpt><trkpt lat="44.92975229146896" lon="10.703943971741184"><ele>19.0</ele><time>2026-04-26T15:27:01Z</time></trkpt><trkpt lat="44.929660217056984" lon="10.70387181272511"><ele>19.0</ele><time>2026-04-26T15:27:02Z</time></trkpt><trkpt lat="44.92957681668877" lon="10.703768709815352"><ele>19.0</ele><time>2026-04-26T15:27:03Z</time></trkpt><trkpt lat="44.929495858338385" lon="10.70365169320543"><ele>19.0</ele><time>2026-04-26T15:27:04Z</time></trkpt><trkpt lat="44.92942261080953" lon="10.70353188872586"><ele>19.0</ele><time>2026-04-26T15:27:05Z</time></trkpt><trkpt lat="44.929333283946136" lon="10.703399779327576"><ele>19.25</ele><time>2026-04-26T15:27:06Z</time></trkpt><trkpt lat="44.92924164828065" lon="10.703271711076523"><ele>19.5</ele><time>2026-04-26T15:27:07Z</time></trkpt><trkpt lat="44.92916005366514" lon="10.703157676146676"><ele>19.75</ele><time>2026-04-26T15:27:08Z</time></trkpt><trkpt lat="44.92906859795489" lon="10.703033178872083"><ele>20.0</ele><time>2026-04-26T15:27:09Z</time></trkpt><trkpt lat="44.92897594343738" lon="10.70292222690841"><ele>19.25</ele><time>2026-04-26T15:27:10Z</time></trkpt><trkpt lat="44.928870350465594" lon="10.702802472921372"><ele>18.5</ele><time>2026-04-26T15:27:11Z</time></trkpt><trkpt lat="44.92877243935998" lon="10.70267793115463"><ele>17.75</ele><time>2026-04-26T15:27:12Z</time></trkpt><trkpt lat="44.92867186335022" lon="10.702552280154768"><ele>17.0</ele><time>2026-04-26T15:27:13Z</time></trkpt><trkpt lat="44.92856666480541" lon="10.70242747176735"><ele>17.0</ele><time>2026-04-26T15:27:14Z</time></trkpt><trkpt lat="44.928459385451006" lon="10.70230384711724"><ele>17.0</ele><time>2026-04-26T15:27:15Z</time></trkpt><trkpt lat="44.92834870842269" lon="10.7021822412042"><ele>17.0</ele><time>2026-04-26T15:27:16Z</time></trkpt><trkpt lat="44.92823341548386" lon="10.702063073023826"><ele>17.0</ele><time>2026-04-26T15:27:17Z</time></trkpt><trkpt lat="44.92811391996507" lon="10.701950257430816"><ele>17.5</ele><time>2026-04-26T15:27:18Z</time></trkpt><trkpt lat="44.92799726367083" lon="10.701831731288788"><ele>18.0</ele><time>2026-04-26T15:27:19Z</time></trkpt><trkpt lat="44.927879645338955" lon="10.701710783086243"><ele>18.5</ele><time>2026-04-26T15:27:20Z</time></trkpt><trkpt lat="44.92775606882948" lon="10.701598468451603"><ele>19.0</ele><time>2026-04-26T15:27:21Z</time></trkpt><trkpt lat="44.927623307774056" lon="10.701486366377061"><ele>19.333333333333332</ele><time>2026-04-26T15:27:22Z</time></trkpt><trkpt lat="44.927486439741394" lon="10.701364642693129"><ele>19.666666666666668</ele><time>2026-04-26T15:27:23Z</time></trkpt><trkpt lat="44.9273489522902" lon="10.701246383112162"><ele>20.0</ele><time>2026-04-26T15:27:24Z</time></trkpt><trkpt lat="44.92720853332499" lon="10.701134159940466"><ele>19.0</ele><time>2026-04-26T15:27:25Z</time></trkpt><trkpt lat="44.92706739141032" lon="10.701023755401058"><ele>18.0</ele><time>2026-04-26T15:27:26Z</time></trkpt><trkpt lat="44.926923706859235" lon="10.700916064572045"><ele>17.0</ele><time>2026-04-26T15:27:27Z</time></trkpt><trkpt lat="44.926780327618296" lon="10.70081115954738"><ele>17.333333333333336</ele><time>2026-04-26T15:27:28Z</time></trkpt><trkpt lat="44.9266383857623" lon="10.700713866636635"><ele>17.666666666666668</ele><time>2026-04-26T15:27:29Z</time></trkpt><trkpt lat="44.92649356250909" lon="10.700620628430066"><ele>18.0</ele><time>2026-04-26T15:27:30Z</time></trkpt><trkpt lat="44.9263552574626" lon="10.700505887485875"><ele>18.0</ele><time>2026-04-26T15:27:31Z</time></trkpt><trkpt lat="44.926201185743984" lon="10.700431343627194"><ele>18.0</ele><time>2026-04-26T15:27:32Z</time></trkpt><trkpt lat="44.92605347689973" lon="10.700337457845604"><ele>18.0</ele><time>2026-04-26T15:27:33Z</time></trkpt><trkpt lat="44.92590580481687" lon="10.700246943755118"><ele>18.0</ele><time>2026-04-26T15:27:34Z</time></trkpt><trkpt lat="44.92575849435806" lon="10.700156987895516"><ele>18.0</ele><time>2026-04-26T15:27:35Z</time></trkpt><trkpt lat="44.92560749734139" lon="10.700063562737336"><ele>18.0</ele><time>2026-04-26T15:27:36Z</time></trkpt><trkpt lat="44.92545536080758" lon="10.699968554335243"><ele>18.0</ele><time>2026-04-26T15:27:37Z</time></trkpt><trkpt lat="44.925308060394045" lon="10.699881631942711"><ele>18.0</ele><time>2026-04-26T15:27:38Z</time></trkpt><trkpt lat="44.92515162317955" lon="10.699784888087072"><ele>18.0</ele><time>2026-04-26T15:27:39Z</time></trkpt><trkpt lat="44.924997473665826" lon="10.69969149792548"><ele>18.0</ele><time>2026-04-26T15:27:40Z</time></trkpt><trkpt lat="44.9248428993625" lon="10.699597210418387"><ele>18.0</ele><time>2026-04-26T15:27:41Z</time></trkpt><trkpt lat="44.924685984206405" lon="10.69950405078889"><ele>18.0</ele><time>2026-04-26T15:27:42Z</time></trkpt><trkpt lat="44.92453163655016" lon="10.699407449567655"><ele>18.0</ele><time>2026-04-26T15:27:43Z</time></trkpt><trkpt lat="44.92437591541003" lon="10.69931198685941"><ele>18.0</ele><time>2026-04-26T15:27:44Z</time></trkpt><trkpt lat="44.924223315025614" lon="10.699211275128466"><ele>18.0</ele><time>2026-04-26T15:27:45Z</time></trkpt><trkpt lat="44.92406685191785" lon="10.69911832205727"><ele>18.0</ele><time>2026-04-26T15:27:46Z</time></trkpt><trkpt lat="44.9239201084909" lon="10.699007529073063"><ele>18.0</ele><time>2026-04-26T15:27:47Z</time></trkpt><trkpt lat="44.923756024269096" lon="10.698923402595506"><ele>18.0</ele><time>2026-04-26T15:27:47.999Z</time></trkpt><trkpt lat="44.92359573821123" lon="10.698829009291318"><ele>18.0</ele><time>2026-04-26T15:27:48.999Z</time></trkpt><trkpt lat="44.92344332150871" lon="10.698713959850013"><ele>18.0</ele><time>2026-04-26T15:27:49.999Z</time></trkpt><trkpt lat="44.92328635664164" lon="10.698617312807007"><ele>18.0</ele><time>2026-04-26T15:27:50.999Z</time></trkpt><trkpt lat="44.923120592606" lon="10.69854001065218"><ele>17.333333333333332</ele><time>2026-04-26T15:27:51.999Z</time></trkpt><trkpt lat="44.92296691968268" lon="10.698443523391978"><ele>16.666666666666664</ele><time>2026-04-26T15:27:52.999Z</time></trkpt><trkpt lat="44.9228137866428" lon="10.698341769776718"><ele>16.0</ele><time>2026-04-26T15:27:53.999Z</time></trkpt><trkpt lat="44.9226521111848" lon="10.698238338540644"><ele>16.333333333333332</ele><time>2026-04-26T15:27:54.999Z</time></trkpt><trkpt lat="44.92249250543837" lon="10.698139810608497"><ele>16.666666666666668</ele><time>2026-04-26T15:27:55.999Z</time></trkpt><trkpt lat="44.92234276393113" lon="10.698047618982336"><ele>17.0</ele><time>2026-04-26T15:27:56.999Z</time></trkpt><trkpt lat="44.92219804911592" lon="10.697957663819532"><ele>17.0</ele><time>2026-04-26T15:27:57.999Z</time></trkpt><trkpt lat="44.92206865890294" lon="10.697873515131734"><ele>17.0</ele><time>2026-04-26T15:27:58.999Z</time></trkpt><trkpt lat="44.92194647133485" lon="10.697796563198622"><ele>17.0</ele><time>2026-04-26T15:27:59.999Z</time></trkpt><trkpt lat="44.92183317448679" lon="10.697729957329926"><ele>17.0</ele><time>2026-04-26T15:28:00.999Z</time></trkpt><trkpt lat="44.92172202395261" lon="10.697663106108276"><ele>17.0</ele><time>2026-04-26T15:28:01.999Z</time></trkpt><trkpt lat="44.92161239305368" lon="10.69759393808038"><ele>17.0</ele><time>2026-04-26T15:28:02.999Z</time></trkpt><trkpt lat="44.92150251071836" lon="10.697522866784297"><ele>17.0</ele><time>2026-04-26T15:28:03.999Z</time></trkpt><trkpt lat="44.92139706496576" lon="10.697456991188005"><ele>17.0</ele><time>2026-04-26T15:28:04.999Z</time></trkpt><trkpt lat="44.92129725738817" lon="10.697396482794824"><ele>17.0</ele><time>2026-04-26T15:28:05.999Z</time></trkpt><trkpt lat="44.921207163938334" lon="10.697342679862915"><ele>17.0</ele><time>2026-04-26T15:28:06.999Z</time></trkpt><trkpt lat="44.92112329361819" lon="10.697286234446596"><ele>17.0</ele><time>2026-04-26T15:28:07.999Z</time></trkpt><trkpt lat="44.921030871316574" lon="10.697228442991962"><ele>17.0</ele><time>2026-04-26T15:28:08.999Z</time></trkpt><trkpt lat="44.92091832291349" lon="10.697165691491719"><ele>17.0</ele><time>2026-04-26T15:28:09.999Z</time></trkpt><trkpt lat="44.92079222802667" lon="10.697095493423138"><ele>17.25</ele><time>2026-04-26T15:28:10.999Z</time></trkpt><trkpt lat="44.92066262819245" lon="10.697022379837927"><ele>17.5</ele><time>2026-04-26T15:28:11.999Z</time></trkpt><trkpt lat="44.92052845545268" lon="10.696945723131316"><ele>17.75</ele><time>2026-04-26T15:28:12.999Z</time></trkpt><trkpt lat="44.92039030725629" lon="10.696864072022956"><ele>18.0</ele><time>2026-04-26T15:28:13.999Z</time></trkpt><trkpt lat="44.920250489602694" lon="10.69678391094232"><ele>18.0</ele><time>2026-04-26T15:28:14.999Z</time></trkpt><trkpt lat="44.920107233613386" lon="10.696705786174881"><ele>18.0</ele><time>2026-04-26T15:28:15.999Z</time></trkpt><trkpt lat="44.91996477019557" lon="10.696631365036696"><ele>18.0</ele><time>2026-04-26T15:28:16.999Z</time></trkpt><trkpt lat="44.919825291151184" lon="10.696559301888938"><ele>18.5</ele><time>2026-04-26T15:28:17.999Z</time></trkpt><trkpt lat="44.91969130482849" lon="10.69649180118312"><ele>19.0</ele><time>2026-04-26T15:28:18.999Z</time></trkpt><trkpt lat="44.91955923212856" lon="10.696419438955504"><ele>19.5</ele><time>2026-04-26T15:28:19.999Z</time></trkpt><trkpt lat="44.9194359703642" lon="10.696352286307363"><ele>20.0</ele><time>2026-04-26T15:28:20.999Z</time></trkpt><trkpt lat="44.91931745288152" lon="10.696279810306224"><ele>19.6</ele><time>2026-04-26T15:28:21.999Z</time></trkpt><trkpt lat="44.91920542821378" lon="10.696215736866622"><ele>19.2</ele><time>2026-04-26T15:28:22.999Z</time></trkpt><trkpt lat="44.91909771413749" lon="10.696156222922589"><ele>18.8</ele><time>2026-04-26T15:28:23.999Z</time></trkpt><trkpt lat="44.91900160051883" lon="10.69610014527789"><ele>18.4</ele><time>2026-04-26T15:28:24.999Z</time></trkpt><trkpt lat="44.91891406159793" lon="10.696044354935122"><ele>18.0</ele><time>2026-04-26T15:28:25.999Z</time></trkpt><trkpt lat="44.91883274579818" lon="10.695986135467004"><ele>18.000000000000004</ele><time>2026-04-26T15:28:26.999Z</time></trkpt><trkpt lat="44.91875803024207" lon="10.695939277613059"><ele>18.0</ele><time>2026-04-26T15:28:27.999Z</time></trkpt><trkpt lat="44.91868647258256" lon="10.695891282511221"><ele>18.0</ele><time>2026-04-26T15:28:28.999Z</time></trkpt><trkpt lat="44.91862035842252" lon="10.695851569260668"><ele>18.0</ele><time>2026-04-26T15:28:29.999Z</time></trkpt><trkpt lat="44.918558632351136" lon="10.695808094657123"><ele>18.0</ele><time>2026-04-26T15:28:30.999Z</time></trkpt><trkpt lat="44.91850156467522" lon="10.695770086472402"><ele>18.000000000000004</ele><time>2026-04-26T15:28:31.999Z</time></trkpt><trkpt lat="44.91844876705328" lon="10.695720026416861"><ele>18.0</ele><time>2026-04-26T15:28:32.999Z</time></trkpt><trkpt lat="44.918396892931874" lon="10.69565241241501"><ele>18.000000000000004</ele><time>2026-04-26T15:28:33.999Z</time></trkpt><trkpt lat="44.91834531397" lon="10.695561523255208"><ele>18.0</ele><time>2026-04-26T15:28:34.999Z</time></trkpt><trkpt lat="44.918296213988256" lon="10.695481643548128"><ele>18.0</ele><time>2026-04-26T15:28:35.999Z</time></trkpt><trkpt lat="44.918234867500665" lon="10.695431805373765"><ele>18.0</ele><time>2026-04-26T15:28:36.999Z</time></trkpt><trkpt lat="44.91816744021651" lon="10.695421117784631"><ele>18.0</ele><time>2026-04-26T15:28:37.999Z</time></trkpt><trkpt lat="44.91809430523734" lon="10.69543788304793"><ele>18.000000000000004</ele><time>2026-04-26T15:28:38.999Z</time></trkpt><trkpt lat="44.91802321638366" lon="10.695472525445497"><ele>18.0</ele><time>2026-04-26T15:28:39.999Z</time></trkpt><trkpt lat="44.917944429987045" lon="10.695482776048076"><ele>18.0</ele><time>2026-04-26T15:28:40.999Z</time></trkpt><trkpt lat="44.91785962347187" lon="10.695462585753063"><ele>18.0</ele><time>2026-04-26T15:28:41.999Z</time></trkpt><trkpt lat="44.91777526286487" lon="10.69541569652005"><ele>18.0</ele><time>2026-04-26T15:28:42.999Z</time></trkpt><trkpt lat="44.9176894710725" lon="10.695360999486988"><ele>18.0</ele><time>2026-04-26T15:28:43.999Z</time></trkpt><trkpt lat="44.91760196560406" lon="10.695303807954451"><ele>18.0</ele><time>2026-04-26T15:28:44.999Z</time></trkpt><trkpt lat="44.917521805818765" lon="10.695252993021077"><ele>18.2</ele><time>2026-04-26T15:28:45.999Z</time></trkpt><trkpt lat="44.917452190994766" lon="10.695213129992585"><ele>18.4</ele><time>2026-04-26T15:28:46.999Z</time></trkpt><trkpt lat="44.917352740299926" lon="10.69516006215116"><ele>18.599999999999998</ele><time>2026-04-26T15:28:49Z</time></trkpt><trkpt lat="44.91727916795626" lon="10.695129476162183"><ele>18.8</ele><time>2026-04-26T15:30:20.997Z</time></trkpt><trkpt lat="44.91714520173638" lon="10.695093498499537"><ele>19.0</ele><time>2026-04-26T15:30:22.997Z</time></trkpt><trkpt lat="44.917044350222" lon="10.695059288602081"><ele>19.0</ele><time>2026-04-26T15:30:23.997Z</time></trkpt><trkpt lat="44.916932008528335" lon="10.695007980639101"><ele>19.0</ele><time>2026-04-26T15:30:24.997Z</time></trkpt><trkpt lat="44.916798715274275" lon="10.694933190656492"><ele>19.0</ele><time>2026-04-26T15:30:25.997Z</time></trkpt><trkpt lat="44.9166574999852" lon="10.694851145740929"><ele>19.0</ele><time>2026-04-26T15:30:26.997Z</time></trkpt><trkpt lat="44.9165148164087" lon="10.694798645320681"><ele>18.666666666666664</ele><time>2026-04-26T15:30:27.997Z</time></trkpt><trkpt lat="44.9163589161953" lon="10.694711175731157"><ele>18.333333333333332</ele><time>2026-04-26T15:30:28.997Z</time></trkpt><trkpt lat="44.91618778534248" lon="10.694609828048812"><ele>18.0</ele><time>2026-04-26T15:30:29.997Z</time></trkpt><trkpt lat="44.91601202401719" lon="10.694507931105916"><ele>17.666666666666668</ele><time>2026-04-26T15:30:30.997Z</time></trkpt><trkpt lat="44.915833812722404" lon="10.694412394832408"><ele>17.333333333333336</ele><time>2026-04-26T15:30:31.997Z</time></trkpt><trkpt lat="44.91565701166221" lon="10.694324491179492"><ele>17.0</ele><time>2026-04-26T15:30:32.997Z</time></trkpt><trkpt lat="44.91548571846215" lon="10.694238021644091"><ele>17.0</ele><time>2026-04-26T15:30:33.997Z</time></trkpt><trkpt lat="44.91531505434143" lon="10.694146853918426"><ele>17.0</ele><time>2026-04-26T15:30:34.997Z</time></trkpt><trkpt lat="44.915144878957406" lon="10.694056203276357"><ele>17.0</ele><time>2026-04-26T15:30:35.997Z</time></trkpt><trkpt lat="44.914982485715015" lon="10.693963417798113"><ele>18.0</ele><time>2026-04-26T15:30:36.997Z</time></trkpt><trkpt lat="44.914822399187294" lon="10.693869663172428"><ele>19.0</ele><time>2026-04-26T15:30:37.997Z</time></trkpt><trkpt lat="44.91466380538727" lon="10.693777727719134"><ele>20.0</ele><time>2026-04-26T15:30:38.997Z</time></trkpt><trkpt lat="44.91450991678696" lon="10.69367359414328"><ele>20.0</ele><time>2026-04-26T15:30:39.997Z</time></trkpt><trkpt lat="44.914356917255446" lon="10.693568852125042"><ele>20.0</ele><time>2026-04-26T15:30:40.997Z</time></trkpt><trkpt lat="44.91420635856358" lon="10.693462683072202"><ele>20.0</ele><time>2026-04-26T15:30:41.997Z</time></trkpt><trkpt lat="44.91405835835489" lon="10.693349573648552"><ele>20.0</ele><time>2026-04-26T15:30:42.997Z</time></trkpt><trkpt lat="44.91390662553977" lon="10.693230909521834"><ele>20.0</ele><time>2026-04-26T15:30:43.997Z</time></trkpt><trkpt lat="44.91376339555848" lon="10.693111348056663"><ele>20.0</ele><time>2026-04-26T15:30:44.997Z</time></trkpt><trkpt lat="44.91362319128821" lon="10.692989901140965"><ele>20.0</ele><time>2026-04-26T15:30:45.997Z</time></trkpt><trkpt lat="44.91348540432398" lon="10.692860651354168"><ele>20.0</ele><time>2026-04-26T15:30:46.997Z</time></trkpt><trkpt lat="44.91334818017874" lon="10.69273319820717"><ele>20.0</ele><time>2026-04-26T15:30:47.997Z</time></trkpt><trkpt lat="44.913210869049124" lon="10.692602949197289"><ele>19.666666666666668</ele><time>2026-04-26T15:30:48.997Z</time></trkpt><trkpt lat="44.91307789157441" lon="10.692466548094087"><ele>19.333333333333332</ele><time>2026-04-26T15:30:49.997Z</time></trkpt><trkpt lat="44.912945996105265" lon="10.692322898414064"><ele>19.0</ele><time>2026-04-26T15:30:50.997Z</time></trkpt><trkpt lat="44.912811465511545" lon="10.692175071008563"><ele>19.0</ele><time>2026-04-26T15:30:51.997Z</time></trkpt><trkpt lat="44.91268042517349" lon="10.69201899323145"><ele>19.0</ele><time>2026-04-26T15:30:52.997Z</time></trkpt><trkpt lat="44.91255907911979" lon="10.691859509707356"><ele>19.0</ele><time>2026-04-26T15:30:53.997Z</time></trkpt><trkpt lat="44.9124379054693" lon="10.691697928337348"><ele>19.333333333333332</ele><time>2026-04-26T15:30:54.998Z</time></trkpt><trkpt lat="44.9123198789775" lon="10.691549527776814"><ele>19.666666666666668</ele><time>2026-04-26T15:30:55.998Z</time></trkpt><trkpt lat="44.91221994138687" lon="10.69138492990744"><ele>20.0</ele><time>2026-04-26T15:30:56.998Z</time></trkpt><trkpt lat="44.91210991811717" lon="10.69123801772939"><ele>20.0</ele><time>2026-04-26T15:30:57.998Z</time></trkpt><trkpt lat="44.911991002482836" lon="10.691111269875476"><ele>20.0</ele><time>2026-04-26T15:30:58.998Z</time></trkpt><trkpt lat="44.911887162495255" lon="10.690971857034715"><ele>20.0</ele><time>2026-04-26T15:30:59.999Z</time></trkpt><trkpt lat="44.91178539305196" lon="10.690836265652086"><ele>20.0</ele><time>2026-04-26T15:31:00.999Z</time></trkpt><trkpt lat="44.91168371524138" lon="10.690699092459443"><ele>19.75</ele><time>2026-04-26T15:31:01.999Z</time></trkpt><trkpt lat="44.91158479722309" lon="10.690562722168654"><ele>19.5</ele><time>2026-04-26T15:31:02.999Z</time></trkpt><trkpt lat="44.911487080698116" lon="10.690430552821839"><ele>19.25</ele><time>2026-04-26T15:31:03.999Z</time></trkpt><trkpt lat="44.91139276482653" lon="10.690302516688883"><ele>19.0</ele><time>2026-04-26T15:31:04.999Z</time></trkpt><trkpt lat="44.911305914483854" lon="10.690179361030308"><ele>18.8</ele><time>2026-04-26T15:31:05.999Z</time></trkpt><trkpt lat="44.9112224455787" lon="10.690064795391436"><ele>18.599999999999998</ele><time>2026-04-26T15:31:06.999Z</time></trkpt><trkpt lat="44.911148705086774" lon="10.689966562902402"><ele>18.4</ele><time>2026-04-26T15:31:07.999Z</time></trkpt><trkpt lat="44.911085902352454" lon="10.68987670198356"><ele>18.2</ele><time>2026-04-26T15:31:08.999Z</time></trkpt><trkpt lat="44.911032483049375" lon="10.689800836865212"><ele>18.0</ele><time>2026-04-26T15:31:09.999Z</time></trkpt><trkpt lat="44.91098762807913" lon="10.689730265080865"><ele>18.0</ele><time>2026-04-26T15:31:10.999Z</time></trkpt><trkpt lat="44.91094701487752" lon="10.68965885437723"><ele>18.0</ele><time>2026-04-26T15:31:11.999Z</time></trkpt><trkpt lat="44.91086878891227" lon="10.68955620271212"><ele>18.0</ele><time>2026-04-26T15:31:14Z</time></trkpt><trkpt lat="44.91081436416941" lon="10.689491956409281"><ele>18.0</ele><time>2026-04-26T15:31:15Z</time></trkpt><trkpt lat="44.910740147617474" lon="10.68939432229104"><ele>18.0</ele><time>2026-04-26T15:31:16Z</time></trkpt><trkpt lat="44.910656876888204" lon="10.689288670547732"><ele>18.5</ele><time>2026-04-26T15:31:17Z</time></trkpt><trkpt lat="44.910569157046105" lon="10.68917215699155"><ele>19.0</ele><time>2026-04-26T15:31:18Z</time></trkpt><trkpt lat="44.910471176756026" lon="10.689041694197082"><ele>19.5</ele><time>2026-04-26T15:31:19Z</time></trkpt><trkpt lat="44.91036453530472" lon="10.688898961635761"><ele>20.0</ele><time>2026-04-26T15:31:20Z</time></trkpt><trkpt lat="44.91025340531454" lon="10.688746782071686"><ele>20.0</ele><time>2026-04-26T15:31:21Z</time></trkpt><trkpt lat="44.91013888765088" lon="10.688592367570216"><ele>20.0</ele><time>2026-04-26T15:31:22Z</time></trkpt><trkpt lat="44.91002541109251" lon="10.688438173318753"><ele>20.0</ele><time>2026-04-26T15:31:23Z</time></trkpt><trkpt lat="44.909915225099596" lon="10.688286727905016"><ele>20.25</ele><time>2026-04-26T15:31:24Z</time></trkpt><trkpt lat="44.909810273050056" lon="10.688143313763259"><ele>20.5</ele><time>2026-04-26T15:31:25Z</time></trkpt><trkpt lat="44.90970787779361" lon="10.688004921173173"><ele>20.75</ele><time>2026-04-26T15:31:26Z</time></trkpt><trkpt lat="44.90960210924998" lon="10.687862082498826"><ele>21.0</ele><time>2026-04-26T15:31:27Z</time></trkpt><trkpt lat="44.90949660864832" lon="10.687719425239003"><ele>20.333333333333332</ele><time>2026-04-26T15:31:28Z</time></trkpt><trkpt lat="44.90938234729774" lon="10.687568138701161"><ele>19.666666666666664</ele><time>2026-04-26T15:31:29Z</time></trkpt><trkpt lat="44.90926620093186" lon="10.687416784558"><ele>19.0</ele><time>2026-04-26T15:31:30Z</time></trkpt><trkpt lat="44.90914877755038" lon="10.687256712133093"><ele>18.666666666666664</ele><time>2026-04-26T15:31:31Z</time></trkpt><trkpt lat="44.909033149998436" lon="10.687094710840396"><ele>18.333333333333332</ele><time>2026-04-26T15:31:32Z</time></trkpt><trkpt lat="44.908914901434436" lon="10.686935967955428"><ele>18.0</ele><time>2026-04-26T15:31:33Z</time></trkpt><trkpt lat="44.908790513418275" lon="10.686771481739838"><ele>18.0</ele><time>2026-04-26T15:31:34Z</time></trkpt><trkpt lat="44.90867469503713" lon="10.686612712890328"><ele>18.0</ele><time>2026-04-26T15:31:35Z</time></trkpt><trkpt lat="44.90855118773189" lon="10.686444932413165"><ele>18.0</ele><time>2026-04-26T15:31:36Z</time></trkpt><trkpt lat="44.9084311716134" lon="10.686287660991052"><ele>18.333333333333332</ele><time>2026-04-26T15:31:37Z</time></trkpt><trkpt lat="44.90830696932659" lon="10.686118856472886"><ele>18.666666666666664</ele><time>2026-04-26T15:31:38Z</time></trkpt><trkpt lat="44.908185852421475" lon="10.685953893564982"><ele>19.0</ele><time>2026-04-26T15:31:39Z</time></trkpt><trkpt lat="44.9080660471131" lon="10.685789464516535"><ele>19.0</ele><time>2026-04-26T15:31:40Z</time></trkpt><trkpt lat="44.90794462141038" lon="10.6856256755203"><ele>19.0</ele><time>2026-04-26T15:31:41Z</time></trkpt><trkpt lat="44.90782628880983" lon="10.685460792619354"><ele>19.0</ele><time>2026-04-26T15:31:42Z</time></trkpt><trkpt lat="44.907701540159486" lon="10.68529402174746"><ele>19.0</ele><time>2026-04-26T15:31:43Z</time></trkpt><trkpt lat="44.90758122836086" lon="10.685134809583982"><ele>19.0</ele><time>2026-04-26T15:31:44Z</time></trkpt><trkpt lat="44.90745823042327" lon="10.684970567071788"><ele>19.0</ele><time>2026-04-26T15:31:45Z</time></trkpt><trkpt lat="44.907332983796024" lon="10.684795106974384"><ele>18.666666666666664</ele><time>2026-04-26T15:31:46Z</time></trkpt><trkpt lat="44.90721339934446" lon="10.684631068707057"><ele>18.333333333333332</ele><time>2026-04-26T15:31:47Z</time></trkpt><trkpt lat="44.90709772671649" lon="10.68445403116641"><ele>18.0</ele><time>2026-04-26T15:31:48Z</time></trkpt><trkpt lat="44.906967121649416" lon="10.684304297311384"><ele>18.0</ele><time>2026-04-26T15:31:49Z</time></trkpt><trkpt lat="44.90684473133657" lon="10.684138877727133"><ele>18.0</ele><time>2026-04-26T15:31:50Z</time></trkpt><trkpt lat="44.90672339136801" lon="10.68397163632493"><ele>18.0</ele><time>2026-04-26T15:31:51Z</time></trkpt><trkpt lat="44.90659679774299" lon="10.683795985266984"><ele>18.666666666666668</ele><time>2026-04-26T15:31:52Z</time></trkpt><trkpt lat="44.90647144833908" lon="10.683623686667508"><ele>19.333333333333336</ele><time>2026-04-26T15:31:53Z</time></trkpt><trkpt lat="44.906345400906424" lon="10.683454854413455"><ele>20.0</ele><time>2026-04-26T15:31:54Z</time></trkpt><trkpt lat="44.90622089665744" lon="10.683287654305179"><ele>20.0</ele><time>2026-04-26T15:31:55Z</time></trkpt><trkpt lat="44.906100539071005" lon="10.683123857889797"><ele>20.0</ele><time>2026-04-26T15:31:56Z</time></trkpt><trkpt lat="44.905977598894594" lon="10.682961305129876"><ele>20.0</ele><time>2026-04-26T15:31:57Z</time></trkpt><trkpt lat="44.905854530161946" lon="10.682799729622028"><ele>19.333333333333336</ele><time>2026-04-26T15:31:58Z</time></trkpt><trkpt lat="44.905738594221795" lon="10.6826416216578"><ele>18.666666666666668</ele><time>2026-04-26T15:31:59Z</time></trkpt><trkpt lat="44.90561599382255" lon="10.682476669072624"><ele>18.0</ele><time>2026-04-26T15:32:00Z</time></trkpt><trkpt lat="44.905499256543514" lon="10.682318039469049"><ele>18.0</ele><time>2026-04-26T15:32:01Z</time></trkpt><trkpt lat="44.90537632065082" lon="10.68214832912121"><ele>18.0</ele><time>2026-04-26T15:32:02Z</time></trkpt><trkpt lat="44.90525621424792" lon="10.681987546372339"><ele>18.0</ele><time>2026-04-26T15:32:03Z</time></trkpt><trkpt lat="44.90513390820803" lon="10.681822501585563"><ele>17.666666666666668</ele><time>2026-04-26T15:32:04Z</time></trkpt><trkpt lat="44.90501425149041" lon="10.681663950215786"><ele>17.333333333333336</ele><time>2026-04-26T15:32:05Z</time></trkpt><trkpt lat="44.90489490198923" lon="10.681502930189746"><ele>17.0</ele><time>2026-04-26T15:32:06Z</time></trkpt><trkpt lat="44.90477822200188" lon="10.681349886776195"><ele>17.0</ele><time>2026-04-26T15:32:07Z</time></trkpt><trkpt lat="44.90466223021153" lon="10.681189865612913"><ele>17.0</ele><time>2026-04-26T15:32:08Z</time></trkpt><trkpt lat="44.90454973478481" lon="10.68103133042631"><ele>17.0</ele><time>2026-04-26T15:32:09Z</time></trkpt><trkpt lat="44.904442105010844" lon="10.680884492159418"><ele>16.666666666666668</ele><time>2026-04-26T15:32:10Z</time></trkpt><trkpt lat="44.904332721007094" lon="10.680737928806035"><ele>16.333333333333332</ele><time>2026-04-26T15:32:10.999Z</time></trkpt><trkpt lat="44.90422169706992" lon="10.680589265831523"><ele>16.0</ele><time>2026-04-26T15:32:11.999Z</time></trkpt><trkpt lat="44.90411304105731" lon="10.680444000761517"><ele>16.0</ele><time>2026-04-26T15:32:12.999Z</time></trkpt><trkpt lat="44.90402050847775" lon="10.680312819877694"><ele>16.0</ele><time>2026-04-26T15:32:13.999Z</time></trkpt><trkpt lat="44.90393135065338" lon="10.680190096497299"><ele>16.0</ele><time>2026-04-26T15:32:14.999Z</time></trkpt><trkpt lat="44.903854197128545" lon="10.680076795369976"><ele>16.0</ele><time>2026-04-26T15:32:15.999Z</time></trkpt><trkpt lat="44.90379085560132" lon="10.679964389279284"><ele>16.2</ele><time>2026-04-26T15:32:16.999Z</time></trkpt><trkpt lat="44.903758278348434" lon="10.679837412530466"><ele>16.400000000000002</ele><time>2026-04-26T15:32:17.999Z</time></trkpt><trkpt lat="44.90376454432947" lon="10.679704960936029"><ele>16.6</ele><time>2026-04-26T15:32:18.999Z</time></trkpt><trkpt lat="44.90380766845127" lon="10.679580500862148"><ele>16.8</ele><time>2026-04-26T15:32:19.999Z</time></trkpt><trkpt lat="44.90388173101253" lon="10.679475034083989"><ele>17.0</ele><time>2026-04-26T15:32:20.999Z</time></trkpt><trkpt lat="44.90399397051758" lon="10.67941260316158"><ele>17.25</ele><time>2026-04-26T15:32:21.999Z</time></trkpt><trkpt lat="44.904091188639676" lon="10.679298844895092"><ele>17.5</ele><time>2026-04-26T15:32:22.999Z</time></trkpt><trkpt lat="44.904209998475615" lon="10.679213796580362"><ele>17.75</ele><time>2026-04-26T15:32:23.999Z</time></trkpt><trkpt lat="44.9043143825938" lon="10.679090336704565"><ele>18.0</ele><time>2026-04-26T15:32:24.999Z</time></trkpt><trkpt lat="44.904399891196874" lon="10.678939696950051"><ele>18.25</ele><time>2026-04-26T15:32:25.999Z</time></trkpt><trkpt lat="44.90449401843905" lon="10.678791014326983"><ele>18.5</ele><time>2026-04-26T15:32:26.999Z</time></trkpt><trkpt lat="44.90460292165903" lon="10.678645731518392"><ele>18.75</ele><time>2026-04-26T15:32:27.999Z</time></trkpt><trkpt lat="44.90470088485502" lon="10.678486851734702"><ele>19.0</ele><time>2026-04-26T15:32:28.999Z</time></trkpt><trkpt lat="44.90479778282775" lon="10.678329699608405"><ele>19.25</ele><time>2026-04-26T15:32:29.999Z</time></trkpt><trkpt lat="44.904881752554594" lon="10.678158684151352"><ele>19.5</ele><time>2026-04-26T15:32:30.999Z</time></trkpt><trkpt lat="44.904977555436375" lon="10.678020698118685"><ele>19.75</ele><time>2026-04-26T15:32:31.999Z</time></trkpt><trkpt lat="44.9050598919436" lon="10.677899108220698"><ele>20.0</ele><time>2026-04-26T15:32:32.999Z</time></trkpt><trkpt lat="44.90513293077508" lon="10.677793758828969"><ele>20.0</ele><time>2026-04-26T15:32:33.999Z</time></trkpt><trkpt lat="44.90520235451999" lon="10.677694362037004"><ele>20.0</ele><time>2026-04-26T15:32:34.999Z</time></trkpt><trkpt lat="44.90527812035919" lon="10.677595929060137"><ele>20.0</ele><time>2026-04-26T15:32:35.999Z</time></trkpt><trkpt lat="44.90534203175764" lon="10.677514618227356"><ele>20.0</ele><time>2026-04-26T15:32:36.999Z</time></trkpt><trkpt lat="44.90541648653529" lon="10.677464345725484"><ele>20.0</ele><time>2026-04-26T15:32:37.999Z</time></trkpt><trkpt lat="44.90550497824018" lon="10.677472218889875"><ele>20.0</ele><time>2026-04-26T15:32:38.999Z</time></trkpt><trkpt lat="44.90559771827038" lon="10.67752567990082"><ele>20.0</ele><time>2026-04-26T15:32:39.999Z</time></trkpt><trkpt lat="44.90570204090431" lon="10.677557605252355"><ele>20.0</ele><time>2026-04-26T15:32:40.999Z</time></trkpt><trkpt lat="44.90581685656407" lon="10.677527884393925"><ele>20.0</ele><time>2026-04-26T15:32:41.999Z</time></trkpt><trkpt lat="44.905945974968844" lon="10.677456954805034"><ele>20.5</ele><time>2026-04-26T15:32:42.999Z</time></trkpt><trkpt lat="44.90608281344398" lon="10.67741406043312"><ele>21.0</ele><time>2026-04-26T15:32:43.999Z</time></trkpt><trkpt lat="44.90620774463386" lon="10.67733613623051"><ele>21.5</ele><time>2026-04-26T15:32:44.999Z</time></trkpt><trkpt lat="44.9063350928306" lon="10.677283484739029"><ele>22.0</ele><time>2026-04-26T15:32:45.999Z</time></trkpt><trkpt lat="44.90645915744218" lon="10.6772162866369"><ele>22.0</ele><time>2026-04-26T15:32:46.999Z</time></trkpt><trkpt lat="44.906588675817964" lon="10.677153464282242"><ele>22.0</ele><time>2026-04-26T15:32:47.999Z</time></trkpt><trkpt lat="44.90671144202717" lon="10.67709280054036"><ele>22.0</ele><time>2026-04-26T15:32:48.999Z</time></trkpt><trkpt lat="44.906831207927716" lon="10.677033182568415"><ele>22.0</ele><time>2026-04-26T15:32:49.999Z</time></trkpt><trkpt lat="44.90694979598643" lon="10.676977338113133"><ele>21.8</ele><time>2026-04-26T15:32:50.999Z</time></trkpt><trkpt lat="44.907063393221186" lon="10.676931286231069"><ele>21.6</ele><time>2026-04-26T15:32:51.999Z</time></trkpt><trkpt lat="44.90717113080629" lon="10.676881987022972"><ele>21.400000000000002</ele><time>2026-04-26T15:32:52.999Z</time></trkpt><trkpt lat="44.907277273823446" lon="10.676837071143467"><ele>21.200000000000003</ele><time>2026-04-26T15:32:53.999Z</time></trkpt><trkpt lat="44.90736601298308" lon="10.676805899833575"><ele>21.0</ele><time>2026-04-26T15:32:54.999Z</time></trkpt><trkpt lat="44.90744469302537" lon="10.676788388556794"><ele>21.0</ele><time>2026-04-26T15:32:55.999Z</time></trkpt><trkpt lat="44.907513719097864" lon="10.676764527142815"><ele>21.0</ele><time>2026-04-26T15:32:56.999Z</time></trkpt><trkpt lat="44.90757845542298" lon="10.676710994964685"><ele>21.0</ele><time>2026-04-26T15:32:57.999Z</time></trkpt><trkpt lat="44.90763696997967" lon="10.676633105858379"><ele>21.0</ele><time>2026-04-26T15:32:58.999Z</time></trkpt><trkpt lat="44.90762861663186" lon="10.676476715376568"><ele>21.0</ele><time>2026-04-26T15:32:59.999Z</time></trkpt><trkpt lat="44.907628423422445" lon="10.676328174489738"><ele>21.0</ele><time>2026-04-26T15:33:01Z</time></trkpt><trkpt lat="44.90763521390875" lon="10.676166212287633"><ele>21.0</ele><time>2026-04-26T15:33:02Z</time></trkpt><trkpt lat="44.90766778030608" lon="10.676001774032846"><ele>21.0</ele><time>2026-04-26T15:33:03Z</time></trkpt><trkpt lat="44.90768639080211" lon="10.675829036994807"><ele>21.0</ele><time>2026-04-26T15:33:04Z</time></trkpt><trkpt lat="44.907709671159886" lon="10.67565047777975"><ele>21.0</ele><time>2026-04-26T15:33:05Z</time></trkpt><trkpt lat="44.90773150963215" lon="10.67547427627303"><ele>21.0</ele><time>2026-04-26T15:33:06Z</time></trkpt><trkpt lat="44.90774051105625" lon="10.675292922871883"><ele>21.0</ele><time>2026-04-26T15:33:07Z</time></trkpt><trkpt lat="44.90772584324654" lon="10.675104872574058"><ele>21.0</ele><time>2026-04-26T15:33:08Z</time></trkpt><trkpt lat="44.907691589833796" lon="10.674919612007606"><ele>21.0</ele><time>2026-04-26T15:33:09Z</time></trkpt><trkpt lat="44.907650536121075" lon="10.67473206128406"><ele>20.75</ele><time>2026-04-26T15:33:10Z</time></trkpt><trkpt lat="44.9076083587004" lon="10.67454283019539"><ele>20.5</ele><time>2026-04-26T15:33:11Z</time></trkpt><trkpt lat="44.90756959115065" lon="10.674361328125052"><ele>20.25</ele><time>2026-04-26T15:33:12Z</time></trkpt><trkpt lat="44.90753320953859" lon="10.67418352143785"><ele>20.0</ele><time>2026-04-26T15:33:13Z</time></trkpt><trkpt lat="44.907501116467515" lon="10.674006825847556"><ele>20.0</ele><time>2026-04-26T15:33:14Z</time></trkpt><trkpt lat="44.90747024353084" lon="10.673828171992138"><ele>20.0</ele><time>2026-04-26T15:33:15Z</time></trkpt><trkpt lat="44.907440294558626" lon="10.673646692118295"><ele>20.0</ele><time>2026-04-26T15:33:16Z</time></trkpt><trkpt lat="44.90741069329641" lon="10.673460901080626"><ele>20.0</ele><time>2026-04-26T15:33:17Z</time></trkpt><trkpt lat="44.90738445463395" lon="10.673276538405688"><ele>20.0</ele><time>2026-04-26T15:33:18Z</time></trkpt><trkpt lat="44.90735931283553" lon="10.673088528440152"><ele>20.0</ele><time>2026-04-26T15:33:19Z</time></trkpt><trkpt lat="44.90733606469341" lon="10.672901831683772"><ele>20.0</ele><time>2026-04-26T15:33:20Z</time></trkpt><trkpt lat="44.90731595787433" lon="10.672718677691886"><ele>20.0</ele><time>2026-04-26T15:33:21Z</time></trkpt><trkpt lat="44.907307171592585" lon="10.672538217427832"><ele>20.25</ele><time>2026-04-26T15:33:22Z</time></trkpt><trkpt lat="44.907314349353406" lon="10.672360741647466"><ele>20.5</ele><time>2026-04-26T15:33:23Z</time></trkpt><trkpt lat="44.90734148502326" lon="10.672200269234777"><ele>20.75</ele><time>2026-04-26T15:33:24Z</time></trkpt><trkpt lat="44.90738946048264" lon="10.672041213442768"><ele>21.0</ele><time>2026-04-26T15:33:25Z</time></trkpt><trkpt lat="44.90744896802024" lon="10.671875804084273"><ele>21.0</ele><time>2026-04-26T15:33:26Z</time></trkpt><trkpt lat="44.907512384486076" lon="10.671706328871087"><ele>21.0</ele><time>2026-04-26T15:33:27Z</time></trkpt><trkpt lat="44.90757832766026" lon="10.671531250723449"><ele>21.0</ele><time>2026-04-26T15:33:28Z</time></trkpt><trkpt lat="44.90764749904343" lon="10.67134848313842"><ele>21.0</ele><time>2026-04-26T15:33:29Z</time></trkpt><trkpt lat="44.907716511724104" lon="10.671161639616574"><ele>21.333333333333332</ele><time>2026-04-26T15:33:30Z</time></trkpt><trkpt lat="44.90778470201232" lon="10.670972864944089"><ele>21.666666666666664</ele><time>2026-04-26T15:33:31Z</time></trkpt><trkpt lat="44.90785515888712" lon="10.670781751223997"><ele>22.0</ele><time>2026-04-26T15:33:32Z</time></trkpt><trkpt lat="44.907924820900035" lon="10.670594969937923"><ele>22.0</ele><time>2026-04-26T15:33:33Z</time></trkpt><trkpt lat="44.90799164991512" lon="10.670425720073021"><ele>22.0</ele><time>2026-04-26T15:33:34Z</time></trkpt><trkpt lat="44.9080627772944" lon="10.670275477484823"><ele>22.0</ele><time>2026-04-26T15:33:35Z</time></trkpt><trkpt lat="44.90814457683308" lon="10.670133473651637"><ele>22.0</ele><time>2026-04-26T15:33:36Z</time></trkpt><trkpt lat="44.908228702730455" lon="10.669984784424598"><ele>22.0</ele><time>2026-04-26T15:33:37Z</time></trkpt><trkpt lat="44.9083080095937" lon="10.669822068305818"><ele>22.0</ele><time>2026-04-26T15:33:38Z</time></trkpt><trkpt lat="44.90835406723158" lon="10.669635672463615"><ele>22.0</ele><time>2026-04-26T15:33:39Z</time></trkpt><trkpt lat="44.908396009734766" lon="10.669448852366248"><ele>22.0</ele><time>2026-04-26T15:33:40Z</time></trkpt><trkpt lat="44.90844636836846" lon="10.669273594313152"><ele>22.0</ele><time>2026-04-26T15:33:41Z</time></trkpt><trkpt lat="44.9084871458961" lon="10.669112577307027"><ele>22.0</ele><time>2026-04-26T15:33:42Z</time></trkpt><trkpt lat="44.90854141138464" lon="10.668973817186588"><ele>22.0</ele><time>2026-04-26T15:33:43Z</time></trkpt><trkpt lat="44.90861078988968" lon="10.668859082441388"><ele>22.0</ele><time>2026-04-26T15:33:44Z</time></trkpt><trkpt lat="44.908695889551" lon="10.668763839874172"><ele>22.0</ele><time>2026-04-26T15:33:45Z</time></trkpt><trkpt lat="44.90879728517004" lon="10.668685360403162"><ele>22.0</ele><time>2026-04-26T15:33:46Z</time></trkpt><trkpt lat="44.90890809404938" lon="10.668636630838316"><ele>22.0</ele><time>2026-04-26T15:33:47Z</time></trkpt><trkpt lat="44.909031175010064" lon="10.668636160784668"><ele>22.0</ele><time>2026-04-26T15:33:48Z</time></trkpt><trkpt lat="44.90915950830037" lon="10.668628794020739"><ele>22.0</ele><time>2026-04-26T15:33:49Z</time></trkpt><trkpt lat="44.90929036582344" lon="10.668664972049315"><ele>22.0</ele><time>2026-04-26T15:33:50Z</time></trkpt><trkpt lat="44.909418248586285" lon="10.66867530842045"><ele>22.0</ele><time>2026-04-26T15:33:51Z</time></trkpt><trkpt lat="44.90954353411403" lon="10.668657294330304"><ele>22.0</ele><time>2026-04-26T15:33:52Z</time></trkpt><trkpt lat="44.909662829138604" lon="10.66859032071868"><ele>22.0</ele><time>2026-04-26T15:33:53Z</time></trkpt><trkpt lat="44.90977398506628" lon="10.668486698752998"><ele>22.0</ele><time>2026-04-26T15:33:54Z</time></trkpt><trkpt lat="44.90989627462649" lon="10.668400769056477"><ele>22.0</ele><time>2026-04-26T15:33:55Z</time></trkpt><trkpt lat="44.910011511731156" lon="10.668294131299966"><ele>22.0</ele><time>2026-04-26T15:33:56Z</time></trkpt><trkpt lat="44.91012875345475" lon="10.66818315015223"><ele>22.0</ele><time>2026-04-26T15:33:57Z</time></trkpt><trkpt lat="44.91024430257471" lon="10.668071465279896"><ele>22.25</ele><time>2026-04-26T15:33:58Z</time></trkpt><trkpt lat="44.910362169433775" lon="10.667956790537822"><ele>22.5</ele><time>2026-04-26T15:33:59Z</time></trkpt><trkpt lat="44.910482262283914" lon="10.667843990425382"><ele>22.75</ele><time>2026-04-26T15:34:00Z</time></trkpt><trkpt lat="44.91060218928831" lon="10.667731513913386"><ele>23.0</ele><time>2026-04-26T15:34:01Z</time></trkpt><trkpt lat="44.91072311989745" lon="10.667616716389396"><ele>23.0</ele><time>2026-04-26T15:34:02Z</time></trkpt><trkpt lat="44.91082986360143" lon="10.667474373980015"><ele>23.0</ele><time>2026-04-26T15:34:03Z</time></trkpt><trkpt lat="44.91093962872904" lon="10.66733955719337"><ele>23.0</ele><time>2026-04-26T15:34:04Z</time></trkpt><trkpt lat="44.911055290125326" lon="10.66720834555048"><ele>23.0</ele><time>2026-04-26T15:34:05Z</time></trkpt><trkpt lat="44.91114698936493" lon="10.667056546069343"><ele>23.25</ele><time>2026-04-26T15:34:06Z</time></trkpt><trkpt lat="44.911208284513606" lon="10.666871644660272"><ele>23.5</ele><time>2026-04-26T15:34:07Z</time></trkpt><trkpt lat="44.9112813524646" lon="10.666701354991725"><ele>23.75</ele><time>2026-04-26T15:34:08Z</time></trkpt><trkpt lat="44.91132982259661" lon="10.66651652543278"><ele>24.0</ele><time>2026-04-26T15:34:09Z</time></trkpt><trkpt lat="44.91137663749491" lon="10.666334150891265"><ele>24.0</ele><time>2026-04-26T15:34:10Z</time></trkpt><trkpt lat="44.911422496840196" lon="10.666155498875293"><ele>24.0</ele><time>2026-04-26T15:34:11Z</time></trkpt><trkpt lat="44.91146781054766" lon="10.665978975172003"><ele>24.0</ele><time>2026-04-26T15:34:12Z</time></trkpt><trkpt lat="44.911513749202655" lon="10.665808608942228"><ele>24.0</ele><time>2026-04-26T15:34:13Z</time></trkpt><trkpt lat="44.9115673527957" lon="10.665644824309146"><ele>23.833333333333332</ele><time>2026-04-26T15:34:14Z</time></trkpt><trkpt lat="44.91161670657338" lon="10.665512441375423"><ele>23.666666666666668</ele><time>2026-04-26T15:34:15Z</time></trkpt><trkpt lat="44.91163568549826" lon="10.665394143233561"><ele>23.5</ele><time>2026-04-26T15:34:16Z</time></trkpt><trkpt lat="44.911700601963325" lon="10.665319003500201"><ele>23.333333333333336</ele><time>2026-04-26T15:34:18Z</time></trkpt><trkpt lat="44.91179474130656" lon="10.665321709563305"><ele>23.166666666666668</ele><time>2026-04-26T15:34:21Z</time></trkpt><trkpt lat="44.911854236009376" lon="10.665358554698818"><ele>23.0</ele><time>2026-04-26T15:34:22Z</time></trkpt><trkpt lat="44.91191342067379" lon="10.665397217045744"><ele>23.333333333333336</ele><time>2026-04-26T15:34:23Z</time></trkpt><trkpt lat="44.91198804952818" lon="10.665432258031593"><ele>23.666666666666668</ele><time>2026-04-26T15:34:24Z</time></trkpt><trkpt lat="44.91207315539688" lon="10.66545526026309"><ele>24.0</ele><time>2026-04-26T15:34:25Z</time></trkpt><trkpt lat="44.91216417473823" lon="10.665483037863295"><ele>24.333333333333336</ele><time>2026-04-26T15:34:26Z</time></trkpt><trkpt lat="44.91225552104709" lon="10.665515859066785"><ele>24.666666666666668</ele><time>2026-04-26T15:34:27Z</time></trkpt><trkpt lat="44.91234675059846" lon="10.665546889753928"><ele>25.0</ele><time>2026-04-26T15:34:28Z</time></trkpt><trkpt lat="44.912428545306234" lon="10.665573289514935"><ele>25.000000000000004</ele><time>2026-04-26T15:34:29Z</time></trkpt><trkpt lat="44.91250854702304" lon="10.66559296757516"><ele>25.0</ele><time>2026-04-26T15:34:30Z</time></trkpt><trkpt lat="44.91257586116143" lon="10.665606070657095"><ele>25.0</ele><time>2026-04-26T15:34:31Z</time></trkpt><trkpt lat="44.912681483723325" lon="10.66561812803586"><ele>25.0</ele><time>2026-04-26T15:34:33Z</time></trkpt><trkpt lat="44.912747986412036" lon="10.665626580248174"><ele>25.000000000000004</ele><time>2026-04-26T15:34:34.999Z</time></trkpt><trkpt lat="44.91281331083287" lon="10.665641405139617"><ele>25.0</ele><time>2026-04-26T15:34:41.998Z</time></trkpt><trkpt lat="44.91287940509922" lon="10.665544598094803"><ele>24.833333333333336</ele><time>2026-04-26T15:34:43.998Z</time></trkpt><trkpt lat="44.9129570763944" lon="10.665421112650948"><ele>24.666666666666668</ele><time>2026-04-26T15:34:45.998Z</time></trkpt><trkpt lat="44.9129908034522" lon="10.665334506229279"><ele>24.5</ele><time>2026-04-26T15:34:46.998Z</time></trkpt><trkpt lat="44.91305016433126" lon="10.665252010310187"><ele>24.333333333333336</ele><time>2026-04-26T15:34:47.998Z</time></trkpt><trkpt lat="44.91310568276766" lon="10.665156877869203"><ele>24.166666666666668</ele><time>2026-04-26T15:34:48.998Z</time></trkpt><trkpt lat="44.9131595167572" lon="10.665060428393405"><ele>24.0</ele><time>2026-04-26T15:34:49.998Z</time></trkpt><trkpt lat="44.91321377653254" lon="10.664958338864716"><ele>24.0</ele><time>2026-04-26T15:34:50.998Z</time></trkpt><trkpt lat="44.91326722738585" lon="10.664850991688137"><ele>24.0</ele><time>2026-04-26T15:34:51.998Z</time></trkpt><trkpt lat="44.91331244233281" lon="10.664724831361838"><ele>24.0</ele><time>2026-04-26T15:34:52.998Z</time></trkpt><trkpt lat="44.91338014635565" lon="10.66461942479435"><ele>24.0</ele><time>2026-04-26T15:34:53.998Z</time></trkpt><trkpt lat="44.913449220226525" lon="10.664515839392335"><ele>24.0</ele><time>2026-04-26T15:34:54.998Z</time></trkpt><trkpt lat="44.91352586949133" lon="10.664415681690851"><ele>24.0</ele><time>2026-04-26T15:34:55.998Z</time></trkpt><trkpt lat="44.91360198084501" lon="10.664321379608836"><ele>24.0</ele><time>2026-04-26T15:34:56.998Z</time></trkpt><trkpt lat="44.91368094133611" lon="10.664227349712396"><ele>24.0</ele><time>2026-04-26T15:34:57.998Z</time></trkpt><trkpt lat="44.91376537876302" lon="10.66415734261988"><ele>24.0</ele><time>2026-04-26T15:34:58.998Z</time></trkpt><trkpt lat="44.91384369575121" lon="10.664070261146865"><ele>24.0</ele><time>2026-04-26T15:34:59.998Z</time></trkpt><trkpt lat="44.91392793217666" lon="10.663995921703563"><ele>24.0</ele><time>2026-04-26T15:35:00.998Z</time></trkpt><trkpt lat="44.914008604357726" lon="10.66391963943528"><ele>24.0</ele><time>2026-04-26T15:35:01.998Z</time></trkpt><trkpt lat="44.91409072042941" lon="10.663840096987542"><ele>24.0</ele><time>2026-04-26T15:35:02.998Z</time></trkpt><trkpt lat="44.91416961487292" lon="10.663759721680236"><ele>24.0</ele><time>2026-04-26T15:35:03.998Z</time></trkpt><trkpt lat="44.91424837864671" lon="10.663674880177142"><ele>24.0</ele><time>2026-04-26T15:35:04.998Z</time></trkpt><trkpt lat="44.91432574445058" lon="10.663587209637937"><ele>24.0</ele><time>2026-04-26T15:35:05.998Z</time></trkpt><trkpt lat="44.91440040122072" lon="10.663492503781265"><ele>24.0</ele><time>2026-04-26T15:35:07Z</time></trkpt><trkpt lat="44.91447185875502" lon="10.66340099528929"><ele>24.0</ele><time>2026-04-26T15:35:08Z</time></trkpt><trkpt lat="44.914543343013285" lon="10.663309452559309"><ele>24.0</ele><time>2026-04-26T15:35:08.999Z</time></trkpt><trkpt lat="44.91461634546343" lon="10.66321596563535"><ele>24.0</ele><time>2026-04-26T15:35:10Z</time></trkpt><trkpt lat="44.91468747125831" lon="10.663124881962233"><ele>24.0</ele><time>2026-04-26T15:35:11Z</time></trkpt><trkpt lat="44.914757220732334" lon="10.66303556279901"><ele>24.0</ele><time>2026-04-26T15:35:12Z</time></trkpt><trkpt lat="44.91482239893351" lon="10.662930446881166"><ele>24.0</ele><time>2026-04-26T15:35:13Z</time></trkpt><trkpt lat="44.91487863048103" lon="10.662806852540163"><ele>24.0</ele><time>2026-04-26T15:35:14Z</time></trkpt><trkpt lat="44.914926902139925" lon="10.662684136863588"><ele>24.0</ele><time>2026-04-26T15:35:15Z</time></trkpt><trkpt lat="44.9149743892194" lon="10.662556840891595"><ele>24.0</ele><time>2026-04-26T15:35:16Z</time></trkpt><trkpt lat="44.91502004368021" lon="10.662430443465439"><ele>24.0</ele><time>2026-04-26T15:35:17Z</time></trkpt><trkpt lat="44.91506535880432" lon="10.662304985541107"><ele>24.0</ele><time>2026-04-26T15:35:18Z</time></trkpt><trkpt lat="44.91511128836297" lon="10.662176019774867"><ele>24.0</ele><time>2026-04-26T15:35:19Z</time></trkpt><trkpt lat="44.91515643360373" lon="10.662048531593669"><ele>24.0</ele><time>2026-04-26T15:35:20Z</time></trkpt><trkpt lat="44.91520297374753" lon="10.661917105345685"><ele>24.0</ele><time>2026-04-26T15:35:21Z</time></trkpt><trkpt lat="44.91525189078447" lon="10.661777311754498"><ele>24.0</ele><time>2026-04-26T15:35:22Z</time></trkpt><trkpt lat="44.91530334740121" lon="10.661631562853536"><ele>24.0</ele><time>2026-04-26T15:35:23Z</time></trkpt><trkpt lat="44.91535674287903" lon="10.661482489496796"><ele>24.0</ele><time>2026-04-26T15:35:23.999Z</time></trkpt><trkpt lat="44.915411660383455" lon="10.66132862085753"><ele>24.0</ele><time>2026-04-26T15:35:24.999Z</time></trkpt><trkpt lat="44.91546485909889" lon="10.661171324394621"><ele>24.0</ele><time>2026-04-26T15:35:25.999Z</time></trkpt><trkpt lat="44.91551748515713" lon="10.661011626655108"><ele>24.0</ele><time>2026-04-26T15:35:26.999Z</time></trkpt><trkpt lat="44.915566100954734" lon="10.66084484271477"><ele>24.0</ele><time>2026-04-26T15:35:27.999Z</time></trkpt><trkpt lat="44.91561259099233" lon="10.660674024922232"><ele>24.0</ele><time>2026-04-26T15:35:28.999Z</time></trkpt><trkpt lat="44.91565556382748" lon="10.660507499614875"><ele>24.0</ele><time>2026-04-26T15:35:29.999Z</time></trkpt><trkpt lat="44.91569748707247" lon="10.66034504251538"><ele>24.0</ele><time>2026-04-26T15:35:30.999Z</time></trkpt><trkpt lat="44.91573725257452" lon="10.660185079148683"><ele>24.0</ele><time>2026-04-26T15:35:31.999Z</time></trkpt><trkpt lat="44.915773823308506" lon="10.660033890649306"><ele>23.833333333333332</ele><time>2026-04-26T15:35:32.999Z</time></trkpt><trkpt lat="44.91580559582803" lon="10.659896446761184"><ele>23.666666666666668</ele><time>2026-04-26T15:35:33.999Z</time></trkpt><trkpt lat="44.91583511145939" lon="10.659768766160912"><ele>23.5</ele><time>2026-04-26T15:35:34.999Z</time></trkpt><trkpt lat="44.91586261425116" lon="10.659649794611916"><ele>23.333333333333336</ele><time>2026-04-26T15:35:35.999Z</time></trkpt><trkpt lat="44.91588777900199" lon="10.659541741188338"><ele>23.166666666666668</ele><time>2026-04-26T15:35:36.999Z</time></trkpt><trkpt lat="44.91591076372591" lon="10.659435783506094"><ele>23.0</ele><time>2026-04-26T15:35:37.999Z</time></trkpt><trkpt lat="44.915930423007566" lon="10.659343083847585"><ele>23.333333333333336</ele><time>2026-04-26T15:35:38.999Z</time></trkpt><trkpt lat="44.915943163489004" lon="10.6592350189768"><ele>23.666666666666668</ele><time>2026-04-26T15:35:40.999Z</time></trkpt><trkpt lat="44.915970255727785" lon="10.659143025694505"><ele>24.0</ele><time>2026-04-26T15:35:44.999Z</time></trkpt><trkpt lat="44.91602300107514" lon="10.659037230395796"><ele>24.333333333333336</ele><time>2026-04-26T15:35:46.999Z</time></trkpt><trkpt lat="44.916147429297034" lon="10.659007823951375"><ele>24.666666666666668</ele><time>2026-04-26T15:35:48.999Z</time></trkpt><trkpt lat="44.916212459600594" lon="10.659044719582132"><ele>25.0</ele><time>2026-04-26T15:35:49.999Z</time></trkpt><trkpt lat="44.91627983940615" lon="10.659084078922636"><ele>25.000000000000004</ele><time>2026-04-26T15:35:50.999Z</time></trkpt><trkpt lat="44.91635064270991" lon="10.659134093209795"><ele>25.0</ele><time>2026-04-26T15:35:51.999Z</time></trkpt><trkpt lat="44.916427947731684" lon="10.659184433800208"><ele>25.0</ele><time>2026-04-26T15:35:52.999Z</time></trkpt><trkpt lat="44.91649945343211" lon="10.659233717254486"><ele>25.0</ele><time>2026-04-26T15:35:53.999Z</time></trkpt><trkpt lat="44.91657774658019" lon="10.659290249703295"><ele>25.000000000000004</ele><time>2026-04-26T15:35:54.999Z</time></trkpt><trkpt lat="44.916651210109876" lon="10.659340605214412"><ele>25.0</ele><time>2026-04-26T15:35:55.999Z</time></trkpt><trkpt lat="44.916724301662526" lon="10.659386949687331"><ele>25.000000000000004</ele><time>2026-04-26T15:35:56.999Z</time></trkpt><trkpt lat="44.91678579353108" lon="10.659432915250667"><ele>25.0</ele><time>2026-04-26T15:35:57.999Z</time></trkpt><trkpt lat="44.91685027707993" lon="10.659479797378483"><ele>25.0</ele><time>2026-04-26T15:35:58.999Z</time></trkpt><trkpt lat="44.91695280375183" lon="10.659540564850134"><ele>25.0</ele><time>2026-04-26T15:36:00.999Z</time></trkpt><trkpt lat="44.917047428698936" lon="10.659592010253206"><ele>25.000000000000004</ele><time>2026-04-26T15:36:02.999Z</time></trkpt><trkpt lat="44.91713393842723" lon="10.659641982279405"><ele>25.0</ele><time>2026-04-26T15:36:04.999Z</time></trkpt><trkpt lat="44.91720891227878" lon="10.659713129629912"><ele>24.833333333333336</ele><time>2026-04-26T15:36:06.999Z</time></trkpt><trkpt lat="44.917303456361424" lon="10.659791694829588"><ele>24.666666666666668</ele><time>2026-04-26T15:36:08.999Z</time></trkpt><trkpt lat="44.91738099716538" lon="10.659875708076175"><ele>24.5</ele><time>2026-04-26T15:36:10.999Z</time></trkpt><trkpt lat="44.91743948500766" lon="10.659921078762693"><ele>24.333333333333336</ele><time>2026-04-26T15:36:13.999Z</time></trkpt><trkpt lat="44.91749288052037" lon="10.659981454595014"><ele>24.166666666666668</ele><time>2026-04-26T15:36:16.999Z</time></trkpt><trkpt lat="44.91755868549528" lon="10.66004341238262"><ele>24.0</ele><time>2026-04-26T15:36:17.999Z</time></trkpt><trkpt lat="44.917628566587894" lon="10.660102584231764"><ele>23.6</ele><time>2026-04-26T15:36:18.999Z</time></trkpt><trkpt lat="44.91770909066895" lon="10.660188366928377"><ele>23.2</ele><time>2026-04-26T15:36:19.999Z</time></trkpt><trkpt lat="44.9177917568452" lon="10.6602784597147"><ele>22.8</ele><time>2026-04-26T15:36:20.999Z</time></trkpt><trkpt lat="44.9178752744235" lon="10.660380302395039"><ele>22.400000000000002</ele><time>2026-04-26T15:36:21.999Z</time></trkpt><trkpt lat="44.91795739781122" lon="10.66049008513896"><ele>22.0</ele><time>2026-04-26T15:36:22.999Z</time></trkpt><trkpt lat="44.918037984335015" lon="10.66059416943264"><ele>22.0</ele><time>2026-04-26T15:36:23.999Z</time></trkpt><trkpt lat="44.91812452730322" lon="10.6607036451734"><ele>22.0</ele><time>2026-04-26T15:36:24.999Z</time></trkpt><trkpt lat="44.91821418146133" lon="10.660820637440237"><ele>22.0</ele><time>2026-04-26T15:36:25.999Z</time></trkpt><trkpt lat="44.91829941708267" lon="10.660940447083249"><ele>22.0</ele><time>2026-04-26T15:36:26.999Z</time></trkpt><trkpt lat="44.91838415544282" lon="10.661061839932724"><ele>22.25</ele><time>2026-04-26T15:36:27.999Z</time></trkpt><trkpt lat="44.918469054394734" lon="10.661183166689286"><ele>22.5</ele><time>2026-04-26T15:36:28.999Z</time></trkpt><trkpt lat="44.918554961076715" lon="10.661302719852152"><ele>22.75</ele><time>2026-04-26T15:36:29.999Z</time></trkpt><trkpt lat="44.91864609076879" lon="10.661421245880417"><ele>23.0</ele><time>2026-04-26T15:36:30.999Z</time></trkpt><trkpt lat="44.918741625707575" lon="10.661536884210053"><ele>23.0</ele><time>2026-04-26T15:36:31.999Z</time></trkpt><trkpt lat="44.91884011321327" lon="10.66164189585814"><ele>23.0</ele><time>2026-04-26T15:36:32.999Z</time></trkpt><trkpt lat="44.91893865867529" lon="10.66174005309265"><ele>23.0</ele><time>2026-04-26T15:36:33.999Z</time></trkpt><trkpt lat="44.919043301036304" lon="10.661833167961523"><ele>23.0</ele><time>2026-04-26T15:36:34.999Z</time></trkpt><trkpt lat="44.91915492245919" lon="10.661923146871606"><ele>22.75</ele><time>2026-04-26T15:36:35.999Z</time></trkpt><trkpt lat="44.919269629912876" lon="10.662007770965937"><ele>22.5</ele><time>2026-04-26T15:36:36.999Z</time></trkpt><trkpt lat="44.9193853819644" lon="10.662080995005345"><ele>22.25</ele><time>2026-04-26T15:36:37.999Z</time></trkpt><trkpt lat="44.919509536741224" lon="10.66215153120172"><ele>22.0</ele><time>2026-04-26T15:36:38.999Z</time></trkpt><trkpt lat="44.919636352183545" lon="10.662220353167708"><ele>22.0</ele><time>2026-04-26T15:36:39.999Z</time></trkpt><trkpt lat="44.919767749089495" lon="10.662287375435719"><ele>22.0</ele><time>2026-04-26T15:36:40.999Z</time></trkpt><trkpt lat="44.91990324207977" lon="10.662343498317885"><ele>22.0</ele><time>2026-04-26T15:36:41.999Z</time></trkpt><trkpt lat="44.920040286714624" lon="10.662387634313454"><ele>22.0</ele><time>2026-04-26T15:36:42.999Z</time></trkpt><trkpt lat="44.920178457123086" lon="10.662420700346502"><ele>22.25</ele><time>2026-04-26T15:36:43.999Z</time></trkpt><trkpt lat="44.9203157715495" lon="10.662439780771242"><ele>22.5</ele><time>2026-04-26T15:36:44.999Z</time></trkpt><trkpt lat="44.92045372708241" lon="10.662453813904927"><ele>22.75</ele><time>2026-04-26T15:36:45.999Z</time></trkpt><trkpt lat="44.92059459508497" lon="10.662462067520414"><ele>23.0</ele><time>2026-04-26T15:36:46.999Z</time></trkpt><trkpt lat="44.920735060630676" lon="10.662462841534554"><ele>23.0</ele><time>2026-04-26T15:36:47.999Z</time></trkpt><trkpt lat="44.920876843197846" lon="10.66246213458361"><ele>23.0</ele><time>2026-04-26T15:36:48.999Z</time></trkpt><trkpt lat="44.92102233423995" lon="10.662452366359432"><ele>23.0</ele><time>2026-04-26T15:36:49.999Z</time></trkpt><trkpt lat="44.92116332882601" lon="10.6624199043762"><ele>23.0</ele><time>2026-04-26T15:36:50.999Z</time></trkpt><trkpt lat="44.92130686135777" lon="10.66239085892087"><ele>23.0</ele><time>2026-04-26T15:36:51.999Z</time></trkpt><trkpt lat="44.921453574725604" lon="10.662360129245515"><ele>23.0</ele><time>2026-04-26T15:36:52.999Z</time></trkpt><trkpt lat="44.92160236818664" lon="10.662328941920489"><ele>23.0</ele><time>2026-04-26T15:36:53.998Z</time></trkpt><trkpt lat="44.92175373683604" lon="10.66230003283551"><ele>23.0</ele><time>2026-04-26T15:36:54.998Z</time></trkpt><trkpt lat="44.92190895833012" lon="10.662271431209833"><ele>23.0</ele><time>2026-04-26T15:36:55.998Z</time></trkpt><trkpt lat="44.92206414532179" lon="10.662242396546793"><ele>23.0</ele><time>2026-04-26T15:36:56.998Z</time></trkpt><trkpt lat="44.92222222186025" lon="10.662212784530029"><ele>23.0</ele><time>2026-04-26T15:36:57.998Z</time></trkpt><trkpt lat="44.922379944753814" lon="10.662184295476484"><ele>23.0</ele><time>2026-04-26T15:36:58.998Z</time></trkpt><trkpt lat="44.92253701626613" lon="10.662153311197615"><ele>23.0</ele><time>2026-04-26T15:36:59.998Z</time></trkpt><trkpt lat="44.92269469387677" lon="10.662123466683008"><ele>23.25</ele><time>2026-04-26T15:37:00.998Z</time></trkpt><trkpt lat="44.92284793636124" lon="10.662093873843899"><ele>23.5</ele><time>2026-04-26T15:37:01.998Z</time></trkpt><trkpt lat="44.92299317702502" lon="10.662067254148091"><ele>23.75</ele><time>2026-04-26T15:37:02.998Z</time></trkpt><trkpt lat="44.92313098620182" lon="10.662038741009232"><ele>24.0</ele><time>2026-04-26T15:37:03.998Z</time></trkpt><trkpt lat="44.92326412485335" lon="10.662012941029012"><ele>24.0</ele><time>2026-04-26T15:37:04.998Z</time></trkpt><trkpt lat="44.923390558876925" lon="10.661982501552608"><ele>24.0</ele><time>2026-04-26T15:37:05.998Z</time></trkpt><trkpt lat="44.92351233622077" lon="10.661960353775518"><ele>24.0</ele><time>2026-04-26T15:37:06.998Z</time></trkpt><trkpt lat="44.923629406719144" lon="10.661947096789502"><ele>24.0</ele><time>2026-04-26T15:37:07.998Z</time></trkpt><trkpt lat="44.92374132245402" lon="10.661950711814914"><ele>24.0</ele><time>2026-04-26T15:37:08.998Z</time></trkpt><trkpt lat="44.92384379215831" lon="10.66197979348961"><ele>24.0</ele><time>2026-04-26T15:37:09.998Z</time></trkpt><trkpt lat="44.923943991294884" lon="10.66199077798388"><ele>24.0</ele><time>2026-04-26T15:37:10.998Z</time></trkpt><trkpt lat="44.9240509619019" lon="10.66193482987069"><ele>24.0</ele><time>2026-04-26T15:37:11.998Z</time></trkpt><trkpt lat="44.92416492215195" lon="10.661852084332056"><ele>24.0</ele><time>2026-04-26T15:37:13Z</time></trkpt><trkpt lat="44.92428999781001" lon="10.661797068981432"><ele>23.75</ele><time>2026-04-26T15:37:14Z</time></trkpt><trkpt lat="44.92440429712523" lon="10.661780178786376"><ele>23.5</ele><time>2026-04-26T15:37:15Z</time></trkpt><trkpt lat="44.924513741337975" lon="10.661768265797427"><ele>23.25</ele><time>2026-04-26T15:37:16Z</time></trkpt><trkpt lat="44.92462633128199" lon="10.661752089448443"><ele>23.0</ele><time>2026-04-26T15:37:17Z</time></trkpt><trkpt lat="44.92473848620928" lon="10.661729564183538"><ele>23.0</ele><time>2026-04-26T15:37:18Z</time></trkpt><trkpt lat="44.924848808262844" lon="10.661698604665096"><ele>23.0</ele><time>2026-04-26T15:37:19Z</time></trkpt><trkpt lat="44.92496364185973" lon="10.661686133164789"><ele>23.0</ele><time>2026-04-26T15:37:20Z</time></trkpt><trkpt lat="44.92506794001383" lon="10.661660866116744"><ele>23.0</ele><time>2026-04-26T15:37:21Z</time></trkpt><trkpt lat="44.925177727396125" lon="10.66163594348124"><ele>23.0</ele><time>2026-04-26T15:37:22Z</time></trkpt><trkpt lat="44.92528168834503" lon="10.661612797883409"><ele>23.0</ele><time>2026-04-26T15:37:23Z</time></trkpt><trkpt lat="44.925374909412035" lon="10.661595219828069"><ele>23.0</ele><time>2026-04-26T15:37:24Z</time></trkpt><trkpt lat="44.92545346034395" lon="10.661580694297484"><ele>23.0</ele><time>2026-04-26T15:37:25Z</time></trkpt><trkpt lat="44.92552388683126" lon="10.66155504908817"><ele>23.0</ele><time>2026-04-26T15:37:26Z</time></trkpt><trkpt lat="44.92559020282413" lon="10.661452971936471"><ele>23.0</ele><time>2026-04-26T15:37:28Z</time></trkpt><trkpt lat="44.92562242361839" lon="10.661333458190517"><ele>23.0</ele><time>2026-04-26T15:37:30Z</time></trkpt><trkpt lat="44.92561504975858" lon="10.661221611233486"><ele>23.2</ele><time>2026-04-26T15:37:31Z</time></trkpt><trkpt lat="44.925568799396004" lon="10.661107493852501"><ele>23.4</ele><time>2026-04-26T15:37:32Z</time></trkpt><trkpt lat="44.925523672214084" lon="10.6609950578884"><ele>23.599999999999998</ele><time>2026-04-26T15:37:33Z</time></trkpt><trkpt lat="44.925460422389975" lon="10.660833882776798"><ele>23.799999999999997</ele><time>2026-04-26T15:37:34Z</time></trkpt><trkpt lat="44.9254297056937" lon="10.660669183622984"><ele>24.0</ele><time>2026-04-26T15:37:35Z</time></trkpt><trkpt lat="44.925374569255744" lon="10.66051417877905"><ele>24.0</ele><time>2026-04-26T15:37:36Z</time></trkpt><trkpt lat="44.925343880735134" lon="10.66033260992607"><ele>24.0</ele><time>2026-04-26T15:37:37Z</time></trkpt><trkpt lat="44.92530264545127" lon="10.660153242819867"><ele>24.0</ele><time>2026-04-26T15:37:38Z</time></trkpt><trkpt lat="44.9252471618075" lon="10.659979696423049"><ele>24.0</ele><time>2026-04-26T15:37:39Z</time></trkpt><trkpt lat="44.925208304466835" lon="10.659785096555437"><ele>23.75</ele><time>2026-04-26T15:37:40Z</time></trkpt><trkpt lat="44.9251603962421" lon="10.659591579546648"><ele>23.5</ele><time>2026-04-26T15:37:41Z</time></trkpt><trkpt lat="44.92511590768543" lon="10.659395262553009"><ele>23.25</ele><time>2026-04-26T15:37:42Z</time></trkpt><trkpt lat="44.92507224219251" lon="10.659194865341838"><ele>23.0</ele><time>2026-04-26T15:37:43Z</time></trkpt><trkpt lat="44.925027048181825" lon="10.658996780747596"><ele>23.0</ele><time>2026-04-26T15:37:44Z</time></trkpt><trkpt lat="44.924977917828365" lon="10.658808651002623"><ele>23.0</ele><time>2026-04-26T15:37:44.999Z</time></trkpt><trkpt lat="44.924917318380125" lon="10.6586232408179"><ele>23.0</ele><time>2026-04-26T15:37:45.999Z</time></trkpt><trkpt lat="44.92484523118087" lon="10.658447829594774"><ele>23.0</ele><time>2026-04-26T15:37:46.999Z</time></trkpt><trkpt lat="44.92476476360161" lon="10.658281110134206"><ele>23.0</ele><time>2026-04-26T15:37:47.999Z</time></trkpt><trkpt lat="44.924675808187956" lon="10.658126261560806"><ele>23.0</ele><time>2026-04-26T15:37:48.999Z</time></trkpt><trkpt lat="44.924583750940876" lon="10.657981099394837"><ele>23.0</ele><time>2026-04-26T15:37:49.999Z</time></trkpt><trkpt lat="44.92451287650944" lon="10.657831579204878"><ele>23.0</ele><time>2026-04-26T15:37:50.999Z</time></trkpt><trkpt lat="44.92444034281544" lon="10.657689095961887"><ele>23.0</ele><time>2026-04-26T15:37:51.999Z</time></trkpt><trkpt lat="44.9243863038334" lon="10.657528492668707"><ele>23.0</ele><time>2026-04-26T15:37:52.999Z</time></trkpt><trkpt lat="44.924356344579074" lon="10.657344509858289"><ele>23.0</ele><time>2026-04-26T15:37:53.999Z</time></trkpt><trkpt lat="44.92433330553298" lon="10.657146984847534"><ele>23.0</ele><time>2026-04-26T15:37:54.999Z</time></trkpt><trkpt lat="44.92429594274828" lon="10.65694236812384"><ele>23.0</ele><time>2026-04-26T15:37:55.999Z</time></trkpt><trkpt lat="44.92427514709771" lon="10.656737861295595"><ele>23.0</ele><time>2026-04-26T15:37:56.999Z</time></trkpt><trkpt lat="44.92425279464707" lon="10.656537085119801"><ele>23.0</ele><time>2026-04-26T15:37:57.999Z</time></trkpt><trkpt lat="44.92424431859694" lon="10.656332490582564"><ele>23.0</ele><time>2026-04-26T15:37:58.999Z</time></trkpt><trkpt lat="44.92422387591744" lon="10.65613607303319"><ele>23.75</ele><time>2026-04-26T15:37:59.999Z</time></trkpt><trkpt lat="44.9242117355335" lon="10.655946328513417"><ele>24.5</ele><time>2026-04-26T15:38:00.999Z</time></trkpt><trkpt lat="44.92422216255767" lon="10.655769082472977"><ele>25.25</ele><time>2026-04-26T15:38:01.999Z</time></trkpt><trkpt lat="44.924247535022715" lon="10.655602911949593"><ele>26.0</ele><time>2026-04-26T15:38:02.999Z</time></trkpt><trkpt lat="44.92426594211773" lon="10.655450226801438"><ele>26.0</ele><time>2026-04-26T15:38:03.999Z</time></trkpt><trkpt lat="44.92430718759278" lon="10.655316803436639"><ele>26.0</ele><time>2026-04-26T15:38:04.999Z</time></trkpt><trkpt lat="44.92435353977192" lon="10.655190164587445"><ele>26.0</ele><time>2026-04-26T15:38:05.999Z</time></trkpt><trkpt lat="44.92440646640438" lon="10.655064731404806"><ele>26.0</ele><time>2026-04-26T15:38:06.999Z</time></trkpt><trkpt lat="44.92446760377015" lon="10.65494441849597"><ele>26.0</ele><time>2026-04-26T15:38:07.999Z</time></trkpt><trkpt lat="44.92453001482046" lon="10.654831050324065"><ele>26.0</ele><time>2026-04-26T15:38:08.999Z</time></trkpt><trkpt lat="44.92456874574882" lon="10.654710158451332"><ele>26.0</ele><time>2026-04-26T15:38:09.999Z</time></trkpt><trkpt lat="44.92458361151818" lon="10.654572547080296"><ele>26.0</ele><time>2026-04-26T15:38:10.999Z</time></trkpt><trkpt lat="44.92461448538533" lon="10.654442618276494"><ele>26.0</ele><time>2026-04-26T15:38:11.999Z</time></trkpt><trkpt lat="44.92466546835644" lon="10.654317151837622"><ele>26.0</ele><time>2026-04-26T15:38:12.999Z</time></trkpt><trkpt lat="44.92472049282984" lon="10.65420849511554"><ele>26.200000000000003</ele><time>2026-04-26T15:38:13.999Z</time></trkpt><trkpt lat="44.92479727650903" lon="10.654123895259701"><ele>26.400000000000002</ele><time>2026-04-26T15:38:14.999Z</time></trkpt><trkpt lat="44.92489347995864" lon="10.654085902691724"><ele>26.6</ele><time>2026-04-26T15:38:15.999Z</time></trkpt><trkpt lat="44.924995718171296" lon="10.654060638430893"><ele>26.8</ele><time>2026-04-26T15:38:16.999Z</time></trkpt><trkpt lat="44.92509455285059" lon="10.654022499132662"><ele>27.0</ele><time>2026-04-26T15:38:17.999Z</time></trkpt><trkpt lat="44.92518619741972" lon="10.653981964166176"><ele>26.6</ele><time>2026-04-26T15:38:18.999Z</time></trkpt><trkpt lat="44.925271625241926" lon="10.65395206647775"><ele>26.200000000000003</ele><time>2026-04-26T15:38:19.999Z</time></trkpt><trkpt lat="44.925362748006826" lon="10.65392157222949"><ele>25.8</ele><time>2026-04-26T15:38:20.999Z</time></trkpt><trkpt lat="44.925446976303824" lon="10.653896298522875"><ele>25.4</ele><time>2026-04-26T15:38:21.999Z</time></trkpt><trkpt lat="44.925544886740404" lon="10.653876712918825"><ele>25.0</ele><time>2026-04-26T15:38:22.999Z</time></trkpt><trkpt lat="44.92564990081095" lon="10.653875401516716"><ele>25.0</ele><time>2026-04-26T15:38:23.999Z</time></trkpt><trkpt lat="44.92575635790479" lon="10.653883432178034"><ele>25.0</ele><time>2026-04-26T15:38:24.999Z</time></trkpt><trkpt lat="44.92586004194225" lon="10.653898952804932"><ele>25.0</ele><time>2026-04-26T15:38:25.999Z</time></trkpt><trkpt lat="44.92597305815317" lon="10.653904638145198"><ele>25.0</ele><time>2026-04-26T15:38:26.999Z</time></trkpt><trkpt lat="44.92608501857568" lon="10.653930439980218"><ele>25.0</ele><time>2026-04-26T15:38:27.999Z</time></trkpt><trkpt lat="44.92620204462487" lon="10.653941784541557"><ele>24.75</ele><time>2026-04-26T15:38:28.999Z</time></trkpt><trkpt lat="44.92632353204903" lon="10.65395356159146"><ele>24.5</ele><time>2026-04-26T15:38:29.999Z</time></trkpt><trkpt lat="44.926442576196116" lon="10.653952864298192"><ele>24.25</ele><time>2026-04-26T15:38:30.999Z</time></trkpt><trkpt lat="44.92656404155828" lon="10.653972618231474"><ele>24.0</ele><time>2026-04-26T15:38:31.999Z</time></trkpt><trkpt lat="44.92668407176717" lon="10.653983893027721"><ele>24.4</ele><time>2026-04-26T15:38:32.999Z</time></trkpt><trkpt lat="44.92679945361714" lon="10.653994456666783"><ele>24.799999999999997</ele><time>2026-04-26T15:38:33.999Z</time></trkpt><trkpt lat="44.92691428809861" lon="10.65400323500297"><ele>25.200000000000003</ele><time>2026-04-26T15:38:34.999Z</time></trkpt><trkpt lat="44.92702131140656" lon="10.654015894575679"><ele>25.6</ele><time>2026-04-26T15:38:35.999Z</time></trkpt><trkpt lat="44.92712912371894" lon="10.654029312960246"><ele>26.0</ele><time>2026-04-26T15:38:36.999Z</time></trkpt><trkpt lat="44.92723031017367" lon="10.65403641820842"><ele>26.0</ele><time>2026-04-26T15:38:37.999Z</time></trkpt><trkpt lat="44.9273279180919" lon="10.654043574999847"><ele>26.0</ele><time>2026-04-26T15:38:38.999Z</time></trkpt><trkpt lat="44.92742541833623" lon="10.654053645212908"><ele>26.0</ele><time>2026-04-26T15:38:40.999Z</time></trkpt><trkpt lat="44.92752819962936" lon="10.654060995627317"><ele>26.0</ele><time>2026-04-26T15:38:42.999Z</time></trkpt><trkpt lat="44.92760658176506" lon="10.65406387718369"><ele>26.0</ele><time>2026-04-26T15:38:43.999Z</time></trkpt><trkpt lat="44.92769363056938" lon="10.654067797931082"><ele>25.6</ele><time>2026-04-26T15:38:44.999Z</time></trkpt><trkpt lat="44.92778221134093" lon="10.654079961813636"><ele>25.200000000000003</ele><time>2026-04-26T15:38:45.999Z</time></trkpt><trkpt lat="44.92787410284689" lon="10.65408852114212"><ele>24.799999999999997</ele><time>2026-04-26T15:38:46.999Z</time></trkpt><trkpt lat="44.92796494322371" lon="10.654095830048817"><ele>24.4</ele><time>2026-04-26T15:38:47.999Z</time></trkpt><trkpt lat="44.928065059875884" lon="10.65410280648703"><ele>24.0</ele><time>2026-04-26T15:38:48.999Z</time></trkpt><trkpt lat="44.92815826607124" lon="10.654111301013145"><ele>24.0</ele><time>2026-04-26T15:38:49.999Z</time></trkpt><trkpt lat="44.928251525086424" lon="10.65411879401043"><ele>24.0</ele><time>2026-04-26T15:38:50.999Z</time></trkpt><trkpt lat="44.92834781735695" lon="10.654129031744713"><ele>24.0</ele><time>2026-04-26T15:38:51.999Z</time></trkpt><trkpt lat="44.92843583151975" lon="10.654139588584025"><ele>24.0</ele><time>2026-04-26T15:38:52.999Z</time></trkpt><trkpt lat="44.9285287629726" lon="10.654143757685226"><ele>24.0</ele><time>2026-04-26T15:38:53.999Z</time></trkpt><trkpt lat="44.92862352014718" lon="10.654150152398309"><ele>23.75</ele><time>2026-04-26T15:38:54.999Z</time></trkpt><trkpt lat="44.92874529185905" lon="10.65418412483573"><ele>23.5</ele><time>2026-04-26T15:38:55.999Z</time></trkpt><trkpt lat="44.92890221858628" lon="10.654199333598868"><ele>23.25</ele><time>2026-04-26T15:38:56.999Z</time></trkpt><trkpt lat="44.92906659972225" lon="10.654216852576504"><ele>23.0</ele><time>2026-04-26T15:38:57.999Z</time></trkpt><trkpt lat="44.92920458334503" lon="10.654224366175711"><ele>23.599999999999998</ele><time>2026-04-26T15:38:58.999Z</time></trkpt><trkpt lat="44.92931997137548" lon="10.654226560114163"><ele>24.2</ele><time>2026-04-26T15:38:59.999Z</time></trkpt><trkpt lat="44.92942220682561" lon="10.654233691529404"><ele>24.8</ele><time>2026-04-26T15:39:00.999Z</time></trkpt><trkpt lat="44.92950756047879" lon="10.654243535811087"><ele>25.4</ele><time>2026-04-26T15:39:01.999Z</time></trkpt><trkpt lat="44.929588648141305" lon="10.654257100059798"><ele>26.0</ele><time>2026-04-26T15:39:02.999Z</time></trkpt><trkpt lat="44.929701896265534" lon="10.65429784165421"><ele>25.999999999999996</ele><time>2026-04-26T15:39:04.999Z</time></trkpt><trkpt lat="44.92980244916466" lon="10.654324758857442"><ele>26.0</ele><time>2026-04-26T15:39:06.999Z</time></trkpt><trkpt lat="44.929846139757714" lon="10.654252889230944"><ele>26.0</ele><time>2026-04-26T15:39:07.999Z</time></trkpt><trkpt lat="44.92981846493609" lon="10.654139113881943"><ele>26.0</ele><time>2026-04-26T15:39:08.999Z</time></trkpt><trkpt lat="44.92978179828473" lon="10.654053573057695"><ele>25.999999999999996</ele><time>2026-04-26T15:39:09.999Z</time></trkpt><trkpt lat="44.92974657470881" lon="10.653939424180797"><ele>26.0</ele><time>2026-04-26T15:39:10.999Z</time></trkpt><trkpt lat="44.92971982637832" lon="10.653796174240926"><ele>26.0</ele><time>2026-04-26T15:39:11.999Z</time></trkpt><trkpt lat="44.92970635259514" lon="10.653643839872393"><ele>26.0</ele><time>2026-04-26T15:39:12.999Z</time></trkpt><trkpt lat="44.92967921265088" lon="10.653495378190135"><ele>26.0</ele><time>2026-04-26T15:39:13.999Z</time></trkpt><trkpt lat="44.92965195574137" lon="10.653340449438385"><ele>26.0</ele><time>2026-04-26T15:39:14.998Z</time></trkpt><trkpt lat="44.92962460810628" lon="10.653185005087607"><ele>26.0</ele><time>2026-04-26T15:39:15.998Z</time></trkpt><trkpt lat="44.929597557571576" lon="10.65303125071564"><ele>26.25</ele><time>2026-04-26T15:39:16.998Z</time></trkpt><trkpt lat="44.92955507617923" lon="10.652892386583245"><ele>26.5</ele><time>2026-04-26T15:39:17.998Z</time></trkpt><trkpt lat="44.92953141980725" lon="10.652742434829563"><ele>26.75</ele><time>2026-04-26T15:39:19Z</time></trkpt><trkpt lat="44.9295045744775" lon="10.652583083886125"><ele>27.0</ele><time>2026-04-26T15:39:20Z</time></trkpt><trkpt lat="44.92947804648398" lon="10.652411990812343"><ele>27.75</ele><time>2026-04-26T15:39:21Z</time></trkpt><trkpt lat="44.929454777216684" lon="10.652238120129368"><ele>28.5</ele><time>2026-04-26T15:39:22Z</time></trkpt><trkpt lat="44.92943089494419" lon="10.652065333399236"><ele>29.25</ele><time>2026-04-26T15:39:23Z</time></trkpt><trkpt lat="44.92940779486405" lon="10.651906761907744"><ele>30.0</ele><time>2026-04-26T15:39:24Z</time></trkpt><trkpt lat="44.92938628135878" lon="10.65175668874376"><ele>30.0</ele><time>2026-04-26T15:39:25Z</time></trkpt><trkpt lat="44.929361883975744" lon="10.651603677306348"><ele>30.0</ele><time>2026-04-26T15:39:26Z</time></trkpt><trkpt lat="44.92934177330619" lon="10.651440846958517"><ele>30.0</ele><time>2026-04-26T15:39:27Z</time></trkpt><trkpt lat="44.92932538521823" lon="10.6512844590424"><ele>30.0</ele><time>2026-04-26T15:39:28Z</time></trkpt><trkpt lat="44.929309953592096" lon="10.651125690008953"><ele>29.8</ele><time>2026-04-26T15:39:29Z</time></trkpt><trkpt lat="44.9292849789683" lon="10.650968213674643"><ele>29.6</ele><time>2026-04-26T15:39:30Z</time></trkpt><trkpt lat="44.929264795141556" lon="10.65081056218291"><ele>29.4</ele><time>2026-04-26T15:39:31Z</time></trkpt><trkpt lat="44.9292476842354" lon="10.650658574011805"><ele>29.2</ele><time>2026-04-26T15:39:32Z</time></trkpt><trkpt lat="44.92924879917636" lon="10.650507669058939"><ele>29.0</ele><time>2026-04-26T15:39:33Z</time></trkpt><trkpt lat="44.92922497437611" lon="10.650362925686972"><ele>28.4</ele><time>2026-04-26T15:39:34Z</time></trkpt><trkpt lat="44.92922448674026" lon="10.650217678978567"><ele>27.799999999999997</ele><time>2026-04-26T15:39:35Z</time></trkpt><trkpt lat="44.92921707646022" lon="10.650069809012129"><ele>27.200000000000003</ele><time>2026-04-26T15:39:36Z</time></trkpt><trkpt lat="44.92922033918016" lon="10.649916692763615"><ele>26.6</ele><time>2026-04-26T15:39:37Z</time></trkpt><trkpt lat="44.92921308009974" lon="10.649761009629488"><ele>26.0</ele><time>2026-04-26T15:39:38Z</time></trkpt><trkpt lat="44.92921347986084" lon="10.649597032534308"><ele>25.75</ele><time>2026-04-26T15:39:39Z</time></trkpt><trkpt lat="44.929209637952894" lon="10.649432583318115"><ele>25.5</ele><time>2026-04-26T15:39:40Z</time></trkpt><trkpt lat="44.92921195979451" lon="10.649268146111186"><ele>25.25</ele><time>2026-04-26T15:39:41Z</time></trkpt><trkpt lat="44.92920854575587" lon="10.649099733596703"><ele>25.0</ele><time>2026-04-26T15:39:42Z</time></trkpt><trkpt lat="44.92920698016266" lon="10.648928664934063"><ele>25.0</ele><time>2026-04-26T15:39:43Z</time></trkpt><trkpt lat="44.92920910700101" lon="10.648757587417636"><ele>25.0</ele><time>2026-04-26T15:39:44Z</time></trkpt><trkpt lat="44.92920973725722" lon="10.648578949503289"><ele>25.0</ele><time>2026-04-26T15:39:45Z</time></trkpt><trkpt lat="44.92920683058226" lon="10.64841432991104"><ele>25.0</ele><time>2026-04-26T15:39:46Z</time></trkpt><trkpt lat="44.9292076871117" lon="10.648241535562809"><ele>25.0</ele><time>2026-04-26T15:39:47Z</time></trkpt><trkpt lat="44.92920680483657" lon="10.648077693187245"><ele>25.0</ele><time>2026-04-26T15:39:48Z</time></trkpt><trkpt lat="44.92920772679206" lon="10.647920820731956"><ele>25.0</ele><time>2026-04-26T15:39:49Z</time></trkpt><trkpt lat="44.9292046031243" lon="10.647771404966004"><ele>25.0</ele><time>2026-04-26T15:39:50Z</time></trkpt><trkpt lat="44.929196362127" lon="10.647629250503682"><ele>25.0</ele><time>2026-04-26T15:39:51Z</time></trkpt><trkpt lat="44.92919003450951" lon="10.64748757971384"><ele>25.0</ele><time>2026-04-26T15:39:52Z</time></trkpt><trkpt lat="44.92918354788315" lon="10.647335800987776"><ele>25.0</ele><time>2026-04-26T15:39:53Z</time></trkpt><trkpt lat="44.92917922374854" lon="10.647176651501468"><ele>25.0</ele><time>2026-04-26T15:39:54Z</time></trkpt><trkpt lat="44.92917459826849" lon="10.647016635824656"><ele>25.0</ele><time>2026-04-26T15:39:55Z</time></trkpt><trkpt lat="44.929175350253914" lon="10.646863185896633"><ele>25.0</ele><time>2026-04-26T15:39:56Z</time></trkpt><trkpt lat="44.92915808411525" lon="10.646704671177906"><ele>25.166666666666668</ele><time>2026-04-26T15:39:57Z</time></trkpt><trkpt lat="44.9291521965788" lon="10.646561356895823"><ele>25.333333333333336</ele><time>2026-04-26T15:39:58Z</time></trkpt><trkpt lat="44.929152242327625" lon="10.646453832844216"><ele>25.5</ele><time>2026-04-26T15:39:59Z</time></trkpt><trkpt lat="44.92914603692657" lon="10.646350814963863"><ele>25.666666666666664</ele><time>2026-04-26T15:40:00Z</time></trkpt><trkpt lat="44.9291372911935" lon="10.646236854094484"><ele>25.833333333333332</ele><time>2026-04-26T15:40:01Z</time></trkpt><trkpt lat="44.929129061203824" lon="10.64610472547787"><ele>26.0</ele><time>2026-04-26T15:40:02Z</time></trkpt><trkpt lat="44.92912739786788" lon="10.645955011174616"><ele>26.200000000000003</ele><time>2026-04-26T15:40:02.999Z</time></trkpt><trkpt lat="44.92912331758245" lon="10.645802080053933"><ele>26.400000000000002</ele><time>2026-04-26T15:40:03.999Z</time></trkpt><trkpt lat="44.92911565217924" lon="10.645646130730286"><ele>26.6</ele><time>2026-04-26T15:40:04.999Z</time></trkpt><trkpt lat="44.92911030610688" lon="10.645487452470306"><ele>26.8</ele><time>2026-04-26T15:40:05.999Z</time></trkpt><trkpt lat="44.929105909825154" lon="10.645337498749285"><ele>27.0</ele><time>2026-04-26T15:40:06.999Z</time></trkpt><trkpt lat="44.92910566911222" lon="10.645193555281997"><ele>26.6</ele><time>2026-04-26T15:40:07.999Z</time></trkpt><trkpt lat="44.92913223178801" lon="10.645047920164616"><ele>26.200000000000003</ele><time>2026-04-26T15:40:08.999Z</time></trkpt><trkpt lat="44.929140193539546" lon="10.644904182158532"><ele>25.8</ele><time>2026-04-26T15:40:09.999Z</time></trkpt><trkpt lat="44.92916355470889" lon="10.644758609398927"><ele>25.4</ele><time>2026-04-26T15:40:10.999Z</time></trkpt><trkpt lat="44.92918875421792" lon="10.644609262755356"><ele>25.0</ele><time>2026-04-26T15:40:11.999Z</time></trkpt><trkpt lat="44.92921486064197" lon="10.644460771992895"><ele>23.75</ele><time>2026-04-26T15:40:12.999Z</time></trkpt><trkpt lat="44.92924147094692" lon="10.644305054985935"><ele>22.5</ele><time>2026-04-26T15:40:13.999Z</time></trkpt><trkpt lat="44.92927091198355" lon="10.644150701058425"><ele>21.25</ele><time>2026-04-26T15:40:14.999Z</time></trkpt><trkpt lat="44.92930233798624" lon="10.643993701224627"><ele>20.0</ele><time>2026-04-26T15:40:15.999Z</time></trkpt><trkpt lat="44.92933366589692" lon="10.643833178391546"><ele>20.0</ele><time>2026-04-26T15:40:16.999Z</time></trkpt><trkpt lat="44.92936787370534" lon="10.643668854697621"><ele>20.0</ele><time>2026-04-26T15:40:17.999Z</time></trkpt><trkpt lat="44.92940444812087" lon="10.643509077777297"><ele>20.0</ele><time>2026-04-26T15:40:18.999Z</time></trkpt><trkpt lat="44.929446534949896" lon="10.643344302372133"><ele>20.0</ele><time>2026-04-26T15:40:19.999Z</time></trkpt><trkpt lat="44.92948513225792" lon="10.643170495058408"><ele>20.0</ele><time>2026-04-26T15:40:20.999Z</time></trkpt><trkpt lat="44.92950526390733" lon="10.64301906619672"><ele>20.0</ele><time>2026-04-26T15:40:21.999Z</time></trkpt><trkpt lat="44.929529631172954" lon="10.642857791296402"><ele>20.0</ele><time>2026-04-26T15:40:22.999Z</time></trkpt><trkpt lat="44.92956188131963" lon="10.642700475782956"><ele>20.0</ele><time>2026-04-26T15:40:23.999Z</time></trkpt><trkpt lat="44.9295942580783" lon="10.6425400356641"><ele>20.75</ele><time>2026-04-26T15:40:24.999Z</time></trkpt><trkpt lat="44.92962518766314" lon="10.642375467767641"><ele>21.5</ele><time>2026-04-26T15:40:25.999Z</time></trkpt><trkpt lat="44.92965709208525" lon="10.642206580011889"><ele>22.25</ele><time>2026-04-26T15:40:26.999Z</time></trkpt><trkpt lat="44.929687102458935" lon="10.642036260996214"><ele>23.0</ele><time>2026-04-26T15:40:27.999Z</time></trkpt><trkpt lat="44.92971332145638" lon="10.641870126170724"><ele>23.25</ele><time>2026-04-26T15:40:28.999Z</time></trkpt><trkpt lat="44.929734487657335" lon="10.641700633162342"><ele>23.5</ele><time>2026-04-26T15:40:29.999Z</time></trkpt><trkpt lat="44.92974543647864" lon="10.641526140464634"><ele>23.75</ele><time>2026-04-26T15:40:30.999Z</time></trkpt><trkpt lat="44.92974431716756" lon="10.64135126311716"><ele>24.0</ele><time>2026-04-26T15:40:31.999Z</time></trkpt><trkpt lat="44.92973310570461" lon="10.641172134872834"><ele>24.25</ele><time>2026-04-26T15:40:32.999Z</time></trkpt><trkpt lat="44.92971757871626" lon="10.640995496212243"><ele>24.5</ele><time>2026-04-26T15:40:33.999Z</time></trkpt><trkpt lat="44.92969957298982" lon="10.640817781703774"><ele>24.75</ele><time>2026-04-26T15:40:34.999Z</time></trkpt><trkpt lat="44.92968223003677" lon="10.640649860651793"><ele>25.0</ele><time>2026-04-26T15:40:35.999Z</time></trkpt><trkpt lat="44.9296623508151" lon="10.640481575274988"><ele>25.0</ele><time>2026-04-26T15:40:36.999Z</time></trkpt><trkpt lat="44.92966044153171" lon="10.640315529528191"><ele>25.0</ele><time>2026-04-26T15:40:37.999Z</time></trkpt><trkpt lat="44.92962829916128" lon="10.640143793396403"><ele>25.0</ele><time>2026-04-26T15:40:38.999Z</time></trkpt><trkpt lat="44.92961424876609" lon="10.639968739853733"><ele>25.0</ele><time>2026-04-26T15:40:39.999Z</time></trkpt><trkpt lat="44.92960023966113" lon="10.639788179113248"><ele>25.5</ele><time>2026-04-26T15:40:40.999Z</time></trkpt><trkpt lat="44.929582192534625" lon="10.639604370987414"><ele>26.0</ele><time>2026-04-26T15:40:41.999Z</time></trkpt><trkpt lat="44.929567109733355" lon="10.639425290145212"><ele>26.5</ele><time>2026-04-26T15:40:42.999Z</time></trkpt><trkpt lat="44.92954794113381" lon="10.639259824945041"><ele>27.0</ele><time>2026-04-26T15:40:43.999Z</time></trkpt><trkpt lat="44.929529262907515" lon="10.639100080906752"><ele>27.0</ele><time>2026-04-26T15:40:44.999Z</time></trkpt><trkpt lat="44.92951249464633" lon="10.638944990742164"><ele>27.000000000000004</ele><time>2026-04-26T15:40:45.999Z</time></trkpt><trkpt lat="44.92949868311856" lon="10.63879104915155"><ele>27.000000000000004</ele><time>2026-04-26T15:40:46.999Z</time></trkpt><trkpt lat="44.92948890574607" lon="10.638658372645697"><ele>27.0</ele><time>2026-04-26T15:40:47.999Z</time></trkpt><trkpt lat="44.929502171749036" lon="10.63853734817701"><ele>27.0</ele><time>2026-04-26T15:40:48.999Z</time></trkpt><trkpt lat="44.92951277248551" lon="10.638429443248643"><ele>26.6</ele><time>2026-04-26T15:40:49.999Z</time></trkpt><trkpt lat="44.929528077632646" lon="10.638313486132793"><ele>26.200000000000003</ele><time>2026-04-26T15:40:50.999Z</time></trkpt><trkpt lat="44.92960346038074" lon="10.63820023887478"><ele>25.8</ele><time>2026-04-26T15:40:51.999Z</time></trkpt><trkpt lat="44.92967613688972" lon="10.638102322314856"><ele>25.4</ele><time>2026-04-26T15:40:52.999Z</time></trkpt><trkpt lat="44.92975775560504" lon="10.63797454552009"><ele>25.0</ele><time>2026-04-26T15:40:53.999Z</time></trkpt><trkpt lat="44.92984352851795" lon="10.637845527573223"><ele>25.0</ele><time>2026-04-26T15:40:54.999Z</time></trkpt><trkpt lat="44.92993276545057" lon="10.637712663008863"><ele>25.0</ele><time>2026-04-26T15:40:55.999Z</time></trkpt><trkpt lat="44.93002120602187" lon="10.637581872884706"><ele>25.0</ele><time>2026-04-26T15:40:56.999Z</time></trkpt><trkpt lat="44.93010810620453" lon="10.637453360795257"><ele>25.0</ele><time>2026-04-26T15:40:57.999Z</time></trkpt><trkpt lat="44.930192442001896" lon="10.637326010391869"><ele>25.25</ele><time>2026-04-26T15:40:58.999Z</time></trkpt><trkpt lat="44.93026570245256" lon="10.637182044034505"><ele>25.5</ele><time>2026-04-26T15:40:59.999Z</time></trkpt><trkpt lat="44.930359757388906" lon="10.637073130851144"><ele>25.75</ele><time>2026-04-26T15:41:00.999Z</time></trkpt><trkpt lat="44.93043510458347" lon="10.636959217445371"><ele>26.0</ele><time>2026-04-26T15:41:01.999Z</time></trkpt><trkpt lat="44.93050594285559" lon="10.636851953342559"><ele>26.333333333333332</ele><time>2026-04-26T15:41:02.999Z</time></trkpt><trkpt lat="44.93055506588884" lon="10.636743188181638"><ele>26.666666666666664</ele><time>2026-04-26T15:41:03.999Z</time></trkpt><trkpt lat="44.93061640266388" lon="10.63665879863315"><ele>27.0</ele><time>2026-04-26T15:41:04.999Z</time></trkpt><trkpt lat="44.930661567993454" lon="10.636570912133074"><ele>27.333333333333336</ele><time>2026-04-26T15:41:05.999Z</time></trkpt><trkpt lat="44.93070616476217" lon="10.636494973781373"><ele>27.666666666666668</ele><time>2026-04-26T15:41:06.999Z</time></trkpt><trkpt lat="44.93075251305252" lon="10.636421200570544"><ele>28.0</ele><time>2026-04-26T15:41:07.999Z</time></trkpt><trkpt lat="44.93083689911691" lon="10.636295597102336"><ele>28.0</ele><time>2026-04-26T15:41:09.999Z</time></trkpt><trkpt lat="44.930881690773674" lon="10.636139475817306"><ele>28.0</ele><time>2026-04-26T15:41:11.999Z</time></trkpt><trkpt lat="44.93095784086284" lon="10.636020967180709"><ele>28.0</ele><time>2026-04-26T15:41:13.999Z</time></trkpt><trkpt lat="44.93103444380285" lon="10.635903007943536"><ele>28.0</ele><time>2026-04-26T15:41:15.999Z</time></trkpt><trkpt lat="44.93108842997127" lon="10.635767641521372"><ele>27.500000000000004</ele><time>2026-04-26T15:41:17.999Z</time></trkpt><trkpt lat="44.93112819370763" lon="10.635672216265062"><ele>27.0</ele><time>2026-04-26T15:41:19.999Z</time></trkpt><trkpt lat="44.931112555793284" lon="10.635561635685928"><ele>26.5</ele><time>2026-04-26T15:41:22.999Z</time></trkpt><trkpt lat="44.931110789093424" lon="10.635466374783064"><ele>26.0</ele><time>2026-04-26T15:41:25Z</time></trkpt><trkpt lat="44.93118506397263" lon="10.635375662027414"><ele>25.500000000000004</ele><time>2026-04-26T15:41:27Z</time></trkpt><trkpt lat="44.93126161798222" lon="10.635304234160175"><ele>25.0</ele><time>2026-04-26T15:41:29Z</time></trkpt><trkpt lat="44.931297105911476" lon="10.63522838140019"><ele>21.0</ele><time>2026-04-26T15:41:31Z</time></trkpt></trkseg></trk></gpx>